<?xml version="1.0" encoding="UTF-8" standalone="no" ?>
<gpx xmlns="http://www.topografix.com/GPX/1/1" xmlns:xsi="http://www.w3.org/2001/XMLSchema-instance" xsi:schemaLocation="http://www.topografix.com/GPX/1/1 http://www.topografix.com/GPX/1/1/gpx.xsd" version="1.1" creator="VisuGPX - https://www.visugpx.com">
  <metadata>
    <name>boucle au départ de Hoste</name>
    <desc><![CDATA[réalisable par tout temps]]></desc>
  </metadata>
  <trk>
    <name><![CDATA[2014-02-12-01]]></name>
    <trkseg>
      <trkpt lat="49.06721" lon="6.87833">
        <ele>238.5</ele>
        <time>2014-02-12T07:28:49Z</time>
      </trkpt>
      <trkpt lat="49.06721" lon="6.87833">
        <ele>238.5</ele>
        <time>2014-02-12T07:28:50Z</time>
      </trkpt>
      <trkpt lat="49.06721" lon="6.87833">
        <ele>238.5</ele>
        <time>2014-02-12T07:28:53Z</time>
      </trkpt>
      <trkpt lat="49.06722" lon="6.87832">
        <ele>238.5</ele>
        <time>2014-02-12T07:28:56Z</time>
      </trkpt>
      <trkpt lat="49.06722" lon="6.87832">
        <ele>238.5</ele>
        <time>2014-02-12T07:28:59Z</time>
      </trkpt>
      <trkpt lat="49.06721" lon="6.8783">
        <ele>238.5</ele>
        <time>2014-02-12T07:29:02Z</time>
      </trkpt>
      <trkpt lat="49.06722" lon="6.87827">
        <ele>238.4</ele>
        <time>2014-02-12T07:29:05Z</time>
      </trkpt>
      <trkpt lat="49.06721" lon="6.87822">
        <ele>238.7</ele>
        <time>2014-02-12T07:29:08Z</time>
      </trkpt>
      <trkpt lat="49.0672" lon="6.87819">
        <ele>238.4</ele>
        <time>2014-02-12T07:29:11Z</time>
      </trkpt>
      <trkpt lat="49.06718" lon="6.87815">
        <ele>238.2</ele>
        <time>2014-02-12T07:29:14Z</time>
      </trkpt>
      <trkpt lat="49.06717" lon="6.87811">
        <ele>238.3</ele>
        <time>2014-02-12T07:29:17Z</time>
      </trkpt>
      <trkpt lat="49.06714" lon="6.87808">
        <ele>238.1</ele>
        <time>2014-02-12T07:29:20Z</time>
      </trkpt>
      <trkpt lat="49.06712" lon="6.87805">
        <ele>238.1</ele>
        <time>2014-02-12T07:29:23Z</time>
      </trkpt>
      <trkpt lat="49.06711" lon="6.87801">
        <ele>238</ele>
        <time>2014-02-12T07:29:26Z</time>
      </trkpt>
      <trkpt lat="49.06709" lon="6.87799">
        <ele>238.3</ele>
        <time>2014-02-12T07:29:29Z</time>
      </trkpt>
      <trkpt lat="49.06707" lon="6.87795">
        <ele>238.5</ele>
        <time>2014-02-12T07:29:32Z</time>
      </trkpt>
      <trkpt lat="49.06705" lon="6.87791">
        <ele>238.4</ele>
        <time>2014-02-12T07:29:35Z</time>
      </trkpt>
      <trkpt lat="49.06703" lon="6.87787">
        <ele>238.1</ele>
        <time>2014-02-12T07:29:38Z</time>
      </trkpt>
      <trkpt lat="49.06701" lon="6.87783">
        <ele>237.6</ele>
        <time>2014-02-12T07:29:41Z</time>
      </trkpt>
      <trkpt lat="49.06699" lon="6.87779">
        <ele>238</ele>
        <time>2014-02-12T07:29:44Z</time>
      </trkpt>
      <trkpt lat="49.06697" lon="6.87775">
        <ele>238</ele>
        <time>2014-02-12T07:29:47Z</time>
      </trkpt>
      <trkpt lat="49.06695" lon="6.87771">
        <ele>237.5</ele>
        <time>2014-02-12T07:29:50Z</time>
      </trkpt>
      <trkpt lat="49.06693" lon="6.87768">
        <ele>237.2</ele>
        <time>2014-02-12T07:29:53Z</time>
      </trkpt>
      <trkpt lat="49.06691" lon="6.87765">
        <ele>237.2</ele>
        <time>2014-02-12T07:29:56Z</time>
      </trkpt>
      <trkpt lat="49.0669" lon="6.87761">
        <ele>237.6</ele>
        <time>2014-02-12T07:29:59Z</time>
      </trkpt>
      <trkpt lat="49.06688" lon="6.87758">
        <ele>236.9</ele>
        <time>2014-02-12T07:30:02Z</time>
      </trkpt>
      <trkpt lat="49.06686" lon="6.87755">
        <ele>236.7</ele>
        <time>2014-02-12T07:30:05Z</time>
      </trkpt>
      <trkpt lat="49.06684" lon="6.87751">
        <ele>237.3</ele>
        <time>2014-02-12T07:30:08Z</time>
      </trkpt>
      <trkpt lat="49.06682" lon="6.87748">
        <ele>237.2</ele>
        <time>2014-02-12T07:30:11Z</time>
      </trkpt>
      <trkpt lat="49.0668" lon="6.87745">
        <ele>237.8</ele>
        <time>2014-02-12T07:30:14Z</time>
      </trkpt>
      <trkpt lat="49.06677" lon="6.87741">
        <ele>237.8</ele>
        <time>2014-02-12T07:30:17Z</time>
      </trkpt>
      <trkpt lat="49.06675" lon="6.87738">
        <ele>237.2</ele>
        <time>2014-02-12T07:30:20Z</time>
      </trkpt>
      <trkpt lat="49.06673" lon="6.87735">
        <ele>237</ele>
        <time>2014-02-12T07:30:23Z</time>
      </trkpt>
      <trkpt lat="49.0667" lon="6.87731">
        <ele>236.9</ele>
        <time>2014-02-12T07:30:26Z</time>
      </trkpt>
      <trkpt lat="49.06668" lon="6.87727">
        <ele>237.4</ele>
        <time>2014-02-12T07:30:29Z</time>
      </trkpt>
      <trkpt lat="49.06665" lon="6.87724">
        <ele>237.7</ele>
        <time>2014-02-12T07:30:32Z</time>
      </trkpt>
      <trkpt lat="49.06662" lon="6.87721">
        <ele>237.7</ele>
        <time>2014-02-12T07:30:35Z</time>
      </trkpt>
      <trkpt lat="49.06659" lon="6.87718">
        <ele>237.1</ele>
        <time>2014-02-12T07:30:38Z</time>
      </trkpt>
      <trkpt lat="49.06657" lon="6.87714">
        <ele>238</ele>
        <time>2014-02-12T07:30:41Z</time>
      </trkpt>
      <trkpt lat="49.06654" lon="6.87711">
        <ele>237.6</ele>
        <time>2014-02-12T07:30:44Z</time>
      </trkpt>
      <trkpt lat="49.06652" lon="6.87709">
        <ele>237.1</ele>
        <time>2014-02-12T07:30:47Z</time>
      </trkpt>
      <trkpt lat="49.06649" lon="6.87706">
        <ele>236.5</ele>
        <time>2014-02-12T07:30:50Z</time>
      </trkpt>
      <trkpt lat="49.06647" lon="6.87703">
        <ele>236.9</ele>
        <time>2014-02-12T07:30:53Z</time>
      </trkpt>
      <trkpt lat="49.06644" lon="6.877">
        <ele>237.1</ele>
        <time>2014-02-12T07:30:56Z</time>
      </trkpt>
      <trkpt lat="49.06638" lon="6.87694">
        <ele>237.8</ele>
        <time>2014-02-12T07:31:02Z</time>
      </trkpt>
      <trkpt lat="49.06635" lon="6.87691">
        <ele>237.1</ele>
        <time>2014-02-12T07:31:05Z</time>
      </trkpt>
      <trkpt lat="49.06632" lon="6.87688">
        <ele>237.5</ele>
        <time>2014-02-12T07:31:08Z</time>
      </trkpt>
      <trkpt lat="49.06629" lon="6.87685">
        <ele>237.5</ele>
        <time>2014-02-12T07:31:11Z</time>
      </trkpt>
      <trkpt lat="49.06626" lon="6.87682">
        <ele>237.9</ele>
        <time>2014-02-12T07:31:14Z</time>
      </trkpt>
      <trkpt lat="49.06623" lon="6.87679">
        <ele>238.2</ele>
        <time>2014-02-12T07:31:17Z</time>
      </trkpt>
      <trkpt lat="49.06619" lon="6.87676">
        <ele>239</ele>
        <time>2014-02-12T07:31:20Z</time>
      </trkpt>
      <trkpt lat="49.06617" lon="6.87673">
        <ele>238.5</ele>
        <time>2014-02-12T07:31:23Z</time>
      </trkpt>
      <trkpt lat="49.06614" lon="6.87671">
        <ele>238.4</ele>
        <time>2014-02-12T07:31:26Z</time>
      </trkpt>
      <trkpt lat="49.06611" lon="6.87668">
        <ele>238.9</ele>
        <time>2014-02-12T07:31:29Z</time>
      </trkpt>
      <trkpt lat="49.06609" lon="6.87665">
        <ele>238.8</ele>
        <time>2014-02-12T07:31:32Z</time>
      </trkpt>
      <trkpt lat="49.06607" lon="6.87662">
        <ele>239</ele>
        <time>2014-02-12T07:31:35Z</time>
      </trkpt>
      <trkpt lat="49.06604" lon="6.8766">
        <ele>238.5</ele>
        <time>2014-02-12T07:31:38Z</time>
      </trkpt>
      <trkpt lat="49.06601" lon="6.87658">
        <ele>239.3</ele>
        <time>2014-02-12T07:31:41Z</time>
      </trkpt>
      <trkpt lat="49.06599" lon="6.87655">
        <ele>239.2</ele>
        <time>2014-02-12T07:31:44Z</time>
      </trkpt>
      <trkpt lat="49.06595" lon="6.87651">
        <ele>238.6</ele>
        <time>2014-02-12T07:31:47Z</time>
      </trkpt>
      <trkpt lat="49.06592" lon="6.87648">
        <ele>239.4</ele>
        <time>2014-02-12T07:31:50Z</time>
      </trkpt>
      <trkpt lat="49.0659" lon="6.87645">
        <ele>239.6</ele>
        <time>2014-02-12T07:31:53Z</time>
      </trkpt>
      <trkpt lat="49.06588" lon="6.87642">
        <ele>240</ele>
        <time>2014-02-12T07:31:56Z</time>
      </trkpt>
      <trkpt lat="49.06585" lon="6.87639">
        <ele>239.9</ele>
        <time>2014-02-12T07:31:59Z</time>
      </trkpt>
      <trkpt lat="49.06579" lon="6.87633">
        <ele>241.2</ele>
        <time>2014-02-12T07:32:05Z</time>
      </trkpt>
      <trkpt lat="49.06576" lon="6.87631">
        <ele>241.9</ele>
        <time>2014-02-12T07:32:08Z</time>
      </trkpt>
      <trkpt lat="49.06574" lon="6.87627">
        <ele>243</ele>
        <time>2014-02-12T07:32:11Z</time>
      </trkpt>
      <trkpt lat="49.06571" lon="6.87624">
        <ele>242.3</ele>
        <time>2014-02-12T07:32:14Z</time>
      </trkpt>
      <trkpt lat="49.06567" lon="6.87621">
        <ele>242.4</ele>
        <time>2014-02-12T07:32:17Z</time>
      </trkpt>
      <trkpt lat="49.06563" lon="6.87619">
        <ele>242.2</ele>
        <time>2014-02-12T07:32:20Z</time>
      </trkpt>
      <trkpt lat="49.0656" lon="6.87614">
        <ele>242.9</ele>
        <time>2014-02-12T07:32:23Z</time>
      </trkpt>
      <trkpt lat="49.06556" lon="6.87611">
        <ele>244</ele>
        <time>2014-02-12T07:32:26Z</time>
      </trkpt>
      <trkpt lat="49.06553" lon="6.87608">
        <ele>244.1</ele>
        <time>2014-02-12T07:32:29Z</time>
      </trkpt>
      <trkpt lat="49.06549" lon="6.87605">
        <ele>243.8</ele>
        <time>2014-02-12T07:32:32Z</time>
      </trkpt>
      <trkpt lat="49.06545" lon="6.87602">
        <ele>243.9</ele>
        <time>2014-02-12T07:32:35Z</time>
      </trkpt>
      <trkpt lat="49.06542" lon="6.87599">
        <ele>244.1</ele>
        <time>2014-02-12T07:32:38Z</time>
      </trkpt>
      <trkpt lat="49.06539" lon="6.87597">
        <ele>244</ele>
        <time>2014-02-12T07:32:41Z</time>
      </trkpt>
      <trkpt lat="49.06536" lon="6.87594">
        <ele>245.1</ele>
        <time>2014-02-12T07:32:44Z</time>
      </trkpt>
      <trkpt lat="49.06533" lon="6.87591">
        <ele>245.5</ele>
        <time>2014-02-12T07:32:47Z</time>
      </trkpt>
      <trkpt lat="49.0653" lon="6.87588">
        <ele>245.8</ele>
        <time>2014-02-12T07:32:50Z</time>
      </trkpt>
      <trkpt lat="49.06526" lon="6.87585">
        <ele>246.1</ele>
        <time>2014-02-12T07:32:53Z</time>
      </trkpt>
      <trkpt lat="49.06522" lon="6.87582">
        <ele>246.1</ele>
        <time>2014-02-12T07:32:56Z</time>
      </trkpt>
      <trkpt lat="49.06519" lon="6.87579">
        <ele>245.8</ele>
        <time>2014-02-12T07:32:59Z</time>
      </trkpt>
      <trkpt lat="49.06515" lon="6.87576">
        <ele>245.7</ele>
        <time>2014-02-12T07:33:02Z</time>
      </trkpt>
      <trkpt lat="49.06508" lon="6.87571">
        <ele>246.8</ele>
        <time>2014-02-12T07:33:08Z</time>
      </trkpt>
      <trkpt lat="49.06504" lon="6.87571">
        <ele>246.4</ele>
        <time>2014-02-12T07:33:11Z</time>
      </trkpt>
      <trkpt lat="49.06501" lon="6.87574">
        <ele>245.8</ele>
        <time>2014-02-12T07:33:14Z</time>
      </trkpt>
      <trkpt lat="49.06498" lon="6.87577">
        <ele>245.6</ele>
        <time>2014-02-12T07:33:17Z</time>
      </trkpt>
      <trkpt lat="49.06496" lon="6.87581">
        <ele>246.6</ele>
        <time>2014-02-12T07:33:20Z</time>
      </trkpt>
      <trkpt lat="49.06494" lon="6.87585">
        <ele>246.3</ele>
        <time>2014-02-12T07:33:23Z</time>
      </trkpt>
      <trkpt lat="49.06491" lon="6.87588">
        <ele>246.5</ele>
        <time>2014-02-12T07:33:26Z</time>
      </trkpt>
      <trkpt lat="49.06489" lon="6.87591">
        <ele>246.4</ele>
        <time>2014-02-12T07:33:29Z</time>
      </trkpt>
      <trkpt lat="49.06487" lon="6.87594">
        <ele>246.3</ele>
        <time>2014-02-12T07:33:32Z</time>
      </trkpt>
      <trkpt lat="49.06485" lon="6.87597">
        <ele>245.7</ele>
        <time>2014-02-12T07:33:35Z</time>
      </trkpt>
      <trkpt lat="49.06483" lon="6.87601">
        <ele>245.6</ele>
        <time>2014-02-12T07:33:38Z</time>
      </trkpt>
      <trkpt lat="49.06481" lon="6.87605">
        <ele>245</ele>
        <time>2014-02-12T07:33:41Z</time>
      </trkpt>
      <trkpt lat="49.06478" lon="6.87609">
        <ele>244.8</ele>
        <time>2014-02-12T07:33:44Z</time>
      </trkpt>
      <trkpt lat="49.06476" lon="6.87613">
        <ele>245</ele>
        <time>2014-02-12T07:33:47Z</time>
      </trkpt>
      <trkpt lat="49.06473" lon="6.87616">
        <ele>244.5</ele>
        <time>2014-02-12T07:33:50Z</time>
      </trkpt>
      <trkpt lat="49.06471" lon="6.8762">
        <ele>244.6</ele>
        <time>2014-02-12T07:33:53Z</time>
      </trkpt>
      <trkpt lat="49.06469" lon="6.87624">
        <ele>244.3</ele>
        <time>2014-02-12T07:33:56Z</time>
      </trkpt>
      <trkpt lat="49.06467" lon="6.87627">
        <ele>243.1</ele>
        <time>2014-02-12T07:33:59Z</time>
      </trkpt>
      <trkpt lat="49.06464" lon="6.87631">
        <ele>243</ele>
        <time>2014-02-12T07:34:02Z</time>
      </trkpt>
      <trkpt lat="49.06462" lon="6.87635">
        <ele>243.6</ele>
        <time>2014-02-12T07:34:05Z</time>
      </trkpt>
      <trkpt lat="49.06457" lon="6.87644">
        <ele>243.6</ele>
        <time>2014-02-12T07:34:11Z</time>
      </trkpt>
      <trkpt lat="49.06455" lon="6.87648">
        <ele>242.8</ele>
        <time>2014-02-12T07:34:14Z</time>
      </trkpt>
      <trkpt lat="49.06452" lon="6.87652">
        <ele>242.6</ele>
        <time>2014-02-12T07:34:17Z</time>
      </trkpt>
      <trkpt lat="49.06449" lon="6.87658">
        <ele>242.3</ele>
        <time>2014-02-12T07:34:20Z</time>
      </trkpt>
      <trkpt lat="49.06447" lon="6.87662">
        <ele>242.2</ele>
        <time>2014-02-12T07:34:23Z</time>
      </trkpt>
      <trkpt lat="49.06444" lon="6.87668">
        <ele>242</ele>
        <time>2014-02-12T07:34:26Z</time>
      </trkpt>
      <trkpt lat="49.06442" lon="6.87672">
        <ele>241.5</ele>
        <time>2014-02-12T07:34:29Z</time>
      </trkpt>
      <trkpt lat="49.06439" lon="6.87677">
        <ele>242</ele>
        <time>2014-02-12T07:34:32Z</time>
      </trkpt>
      <trkpt lat="49.06437" lon="6.87681">
        <ele>241.3</ele>
        <time>2014-02-12T07:34:35Z</time>
      </trkpt>
      <trkpt lat="49.06434" lon="6.87686">
        <ele>241</ele>
        <time>2014-02-12T07:34:38Z</time>
      </trkpt>
      <trkpt lat="49.06432" lon="6.8769">
        <ele>239.2</ele>
        <time>2014-02-12T07:34:41Z</time>
      </trkpt>
      <trkpt lat="49.0643" lon="6.87693">
        <ele>238.8</ele>
        <time>2014-02-12T07:34:44Z</time>
      </trkpt>
      <trkpt lat="49.06428" lon="6.87696">
        <ele>239.2</ele>
        <time>2014-02-12T07:34:47Z</time>
      </trkpt>
      <trkpt lat="49.06425" lon="6.87699">
        <ele>239.3</ele>
        <time>2014-02-12T07:34:50Z</time>
      </trkpt>
      <trkpt lat="49.06423" lon="6.87703">
        <ele>239.4</ele>
        <time>2014-02-12T07:34:53Z</time>
      </trkpt>
      <trkpt lat="49.0642" lon="6.87707">
        <ele>239.8</ele>
        <time>2014-02-12T07:34:56Z</time>
      </trkpt>
      <trkpt lat="49.06418" lon="6.87711">
        <ele>240.1</ele>
        <time>2014-02-12T07:34:59Z</time>
      </trkpt>
      <trkpt lat="49.06416" lon="6.87715">
        <ele>240.1</ele>
        <time>2014-02-12T07:35:02Z</time>
      </trkpt>
      <trkpt lat="49.06413" lon="6.87719">
        <ele>239</ele>
        <time>2014-02-12T07:35:05Z</time>
      </trkpt>
      <trkpt lat="49.0641" lon="6.87723">
        <ele>238.7</ele>
        <time>2014-02-12T07:35:08Z</time>
      </trkpt>
      <trkpt lat="49.06405" lon="6.87731">
        <ele>238.2</ele>
        <time>2014-02-12T07:35:14Z</time>
      </trkpt>
      <trkpt lat="49.06402" lon="6.87734">
        <ele>237.9</ele>
        <time>2014-02-12T07:35:17Z</time>
      </trkpt>
      <trkpt lat="49.06399" lon="6.87737">
        <ele>237.6</ele>
        <time>2014-02-12T07:35:20Z</time>
      </trkpt>
      <trkpt lat="49.06396" lon="6.8774">
        <ele>237.2</ele>
        <time>2014-02-12T07:35:23Z</time>
      </trkpt>
      <trkpt lat="49.06393" lon="6.87744">
        <ele>237.5</ele>
        <time>2014-02-12T07:35:26Z</time>
      </trkpt>
      <trkpt lat="49.0639" lon="6.87748">
        <ele>237.4</ele>
        <time>2014-02-12T07:35:29Z</time>
      </trkpt>
      <trkpt lat="49.06387" lon="6.87751">
        <ele>237.1</ele>
        <time>2014-02-12T07:35:32Z</time>
      </trkpt>
      <trkpt lat="49.06384" lon="6.87755">
        <ele>237</ele>
        <time>2014-02-12T07:35:35Z</time>
      </trkpt>
      <trkpt lat="49.0638" lon="6.87759">
        <ele>236.7</ele>
        <time>2014-02-12T07:35:38Z</time>
      </trkpt>
      <trkpt lat="49.06377" lon="6.87763">
        <ele>237</ele>
        <time>2014-02-12T07:35:41Z</time>
      </trkpt>
      <trkpt lat="49.06374" lon="6.87767">
        <ele>237</ele>
        <time>2014-02-12T07:35:44Z</time>
      </trkpt>
      <trkpt lat="49.06371" lon="6.87771">
        <ele>236.6</ele>
        <time>2014-02-12T07:35:47Z</time>
      </trkpt>
      <trkpt lat="49.06368" lon="6.87774">
        <ele>236.5</ele>
        <time>2014-02-12T07:35:50Z</time>
      </trkpt>
      <trkpt lat="49.06361" lon="6.87782">
        <ele>236.3</ele>
        <time>2014-02-12T07:35:55Z</time>
      </trkpt>
      <trkpt lat="49.06357" lon="6.87786">
        <ele>236.7</ele>
        <time>2014-02-12T07:35:58Z</time>
      </trkpt>
      <trkpt lat="49.06353" lon="6.87789">
        <ele>236.1</ele>
        <time>2014-02-12T07:36:01Z</time>
      </trkpt>
      <trkpt lat="49.0635" lon="6.87792">
        <ele>236.1</ele>
        <time>2014-02-12T07:36:04Z</time>
      </trkpt>
      <trkpt lat="49.06347" lon="6.87796">
        <ele>236.1</ele>
        <time>2014-02-12T07:36:07Z</time>
      </trkpt>
      <trkpt lat="49.06344" lon="6.87799">
        <ele>236.4</ele>
        <time>2014-02-12T07:36:10Z</time>
      </trkpt>
      <trkpt lat="49.06338" lon="6.87806">
        <ele>236</ele>
        <time>2014-02-12T07:36:16Z</time>
      </trkpt>
      <trkpt lat="49.06335" lon="6.87808">
        <ele>236.2</ele>
        <time>2014-02-12T07:36:19Z</time>
      </trkpt>
      <trkpt lat="49.06332" lon="6.87812">
        <ele>236.1</ele>
        <time>2014-02-12T07:36:22Z</time>
      </trkpt>
      <trkpt lat="49.06329" lon="6.87815">
        <ele>235.9</ele>
        <time>2014-02-12T07:36:25Z</time>
      </trkpt>
      <trkpt lat="49.06325" lon="6.87818">
        <ele>235.7</ele>
        <time>2014-02-12T07:36:28Z</time>
      </trkpt>
      <trkpt lat="49.06322" lon="6.87822">
        <ele>235.9</ele>
        <time>2014-02-12T07:36:31Z</time>
      </trkpt>
      <trkpt lat="49.06319" lon="6.87824">
        <ele>236.3</ele>
        <time>2014-02-12T07:36:34Z</time>
      </trkpt>
      <trkpt lat="49.06315" lon="6.87826">
        <ele>236.7</ele>
        <time>2014-02-12T07:36:37Z</time>
      </trkpt>
      <trkpt lat="49.06312" lon="6.8783">
        <ele>236.3</ele>
        <time>2014-02-12T07:36:40Z</time>
      </trkpt>
      <trkpt lat="49.0631" lon="6.87833">
        <ele>236.4</ele>
        <time>2014-02-12T07:36:43Z</time>
      </trkpt>
      <trkpt lat="49.06307" lon="6.87836">
        <ele>236</ele>
        <time>2014-02-12T07:36:46Z</time>
      </trkpt>
      <trkpt lat="49.06305" lon="6.87839">
        <ele>236.2</ele>
        <time>2014-02-12T07:36:49Z</time>
      </trkpt>
      <trkpt lat="49.06302" lon="6.87843">
        <ele>235.8</ele>
        <time>2014-02-12T07:36:52Z</time>
      </trkpt>
      <trkpt lat="49.06299" lon="6.87846">
        <ele>235.7</ele>
        <time>2014-02-12T07:36:55Z</time>
      </trkpt>
      <trkpt lat="49.06296" lon="6.87849">
        <ele>236.1</ele>
        <time>2014-02-12T07:36:58Z</time>
      </trkpt>
      <trkpt lat="49.06293" lon="6.87852">
        <ele>236.4</ele>
        <time>2014-02-12T07:37:01Z</time>
      </trkpt>
      <trkpt lat="49.0629" lon="6.87856">
        <ele>237.3</ele>
        <time>2014-02-12T07:37:04Z</time>
      </trkpt>
      <trkpt lat="49.06287" lon="6.8786">
        <ele>236.4</ele>
        <time>2014-02-12T07:37:07Z</time>
      </trkpt>
      <trkpt lat="49.06283" lon="6.87863">
        <ele>236</ele>
        <time>2014-02-12T07:37:10Z</time>
      </trkpt>
      <trkpt lat="49.06279" lon="6.87866">
        <ele>235.5</ele>
        <time>2014-02-12T07:37:13Z</time>
      </trkpt>
      <trkpt lat="49.06272" lon="6.87874">
        <ele>236.5</ele>
        <time>2014-02-12T07:37:19Z</time>
      </trkpt>
      <trkpt lat="49.06268" lon="6.87877">
        <ele>236.3</ele>
        <time>2014-02-12T07:37:22Z</time>
      </trkpt>
      <trkpt lat="49.06264" lon="6.87881">
        <ele>236</ele>
        <time>2014-02-12T07:37:25Z</time>
      </trkpt>
      <trkpt lat="49.0626" lon="6.87883">
        <ele>235.7</ele>
        <time>2014-02-12T07:37:28Z</time>
      </trkpt>
      <trkpt lat="49.06258" lon="6.87886">
        <ele>236.6</ele>
        <time>2014-02-12T07:37:31Z</time>
      </trkpt>
      <trkpt lat="49.06255" lon="6.87889">
        <ele>236.3</ele>
        <time>2014-02-12T07:37:34Z</time>
      </trkpt>
      <trkpt lat="49.06251" lon="6.87892">
        <ele>235</ele>
        <time>2014-02-12T07:37:37Z</time>
      </trkpt>
      <trkpt lat="49.06247" lon="6.87894">
        <ele>235.2</ele>
        <time>2014-02-12T07:37:40Z</time>
      </trkpt>
      <trkpt lat="49.06244" lon="6.87897">
        <ele>235.1</ele>
        <time>2014-02-12T07:37:43Z</time>
      </trkpt>
      <trkpt lat="49.06241" lon="6.879">
        <ele>234.9</ele>
        <time>2014-02-12T07:37:46Z</time>
      </trkpt>
      <trkpt lat="49.06238" lon="6.87903">
        <ele>235</ele>
        <time>2014-02-12T07:37:49Z</time>
      </trkpt>
      <trkpt lat="49.06235" lon="6.87906">
        <ele>235.1</ele>
        <time>2014-02-12T07:37:52Z</time>
      </trkpt>
      <trkpt lat="49.06232" lon="6.87908">
        <ele>235</ele>
        <time>2014-02-12T07:37:55Z</time>
      </trkpt>
      <trkpt lat="49.06228" lon="6.87908">
        <ele>235.1</ele>
        <time>2014-02-12T07:37:58Z</time>
      </trkpt>
      <trkpt lat="49.06223" lon="6.8791">
        <ele>235.5</ele>
        <time>2014-02-12T07:38:01Z</time>
      </trkpt>
      <trkpt lat="49.0622" lon="6.87914">
        <ele>235.3</ele>
        <time>2014-02-12T07:38:04Z</time>
      </trkpt>
      <trkpt lat="49.06217" lon="6.87918">
        <ele>235.7</ele>
        <time>2014-02-12T07:38:07Z</time>
      </trkpt>
      <trkpt lat="49.06213" lon="6.87922">
        <ele>235.9</ele>
        <time>2014-02-12T07:38:10Z</time>
      </trkpt>
      <trkpt lat="49.0621" lon="6.87925">
        <ele>235.7</ele>
        <time>2014-02-12T07:38:13Z</time>
      </trkpt>
      <trkpt lat="49.06206" lon="6.87927">
        <ele>235.8</ele>
        <time>2014-02-12T07:38:16Z</time>
      </trkpt>
      <trkpt lat="49.06198" lon="6.87926">
        <ele>235.5</ele>
        <time>2014-02-12T07:38:22Z</time>
      </trkpt>
      <trkpt lat="49.06194" lon="6.87923">
        <ele>235.7</ele>
        <time>2014-02-12T07:38:25Z</time>
      </trkpt>
      <trkpt lat="49.06191" lon="6.8792">
        <ele>236.3</ele>
        <time>2014-02-12T07:38:28Z</time>
      </trkpt>
      <trkpt lat="49.06187" lon="6.87917">
        <ele>236.5</ele>
        <time>2014-02-12T07:38:31Z</time>
      </trkpt>
      <trkpt lat="49.06184" lon="6.87914">
        <ele>236.2</ele>
        <time>2014-02-12T07:38:34Z</time>
      </trkpt>
      <trkpt lat="49.06181" lon="6.87911">
        <ele>236.4</ele>
        <time>2014-02-12T07:38:37Z</time>
      </trkpt>
      <trkpt lat="49.06177" lon="6.87907">
        <ele>237</ele>
        <time>2014-02-12T07:38:40Z</time>
      </trkpt>
      <trkpt lat="49.06174" lon="6.87904">
        <ele>236.7</ele>
        <time>2014-02-12T07:38:43Z</time>
      </trkpt>
      <trkpt lat="49.06171" lon="6.87901">
        <ele>237.7</ele>
        <time>2014-02-12T07:38:46Z</time>
      </trkpt>
      <trkpt lat="49.06168" lon="6.87898">
        <ele>238.3</ele>
        <time>2014-02-12T07:38:49Z</time>
      </trkpt>
      <trkpt lat="49.06165" lon="6.87895">
        <ele>237.9</ele>
        <time>2014-02-12T07:38:52Z</time>
      </trkpt>
      <trkpt lat="49.06162" lon="6.87891">
        <ele>237.6</ele>
        <time>2014-02-12T07:38:55Z</time>
      </trkpt>
      <trkpt lat="49.06159" lon="6.87888">
        <ele>238.5</ele>
        <time>2014-02-12T07:38:58Z</time>
      </trkpt>
      <trkpt lat="49.06156" lon="6.87885">
        <ele>239.6</ele>
        <time>2014-02-12T07:39:01Z</time>
      </trkpt>
      <trkpt lat="49.06153" lon="6.87882">
        <ele>239.1</ele>
        <time>2014-02-12T07:39:04Z</time>
      </trkpt>
      <trkpt lat="49.0615" lon="6.87878">
        <ele>238.7</ele>
        <time>2014-02-12T07:39:07Z</time>
      </trkpt>
      <trkpt lat="49.06146" lon="6.87874">
        <ele>238.9</ele>
        <time>2014-02-12T07:39:10Z</time>
      </trkpt>
      <trkpt lat="49.06142" lon="6.87871">
        <ele>238.8</ele>
        <time>2014-02-12T07:39:13Z</time>
      </trkpt>
      <trkpt lat="49.06139" lon="6.87867">
        <ele>238.9</ele>
        <time>2014-02-12T07:39:16Z</time>
      </trkpt>
      <trkpt lat="49.06135" lon="6.87864">
        <ele>239</ele>
        <time>2014-02-12T07:39:19Z</time>
      </trkpt>
      <trkpt lat="49.06129" lon="6.87858">
        <ele>239.5</ele>
        <time>2014-02-12T07:39:25Z</time>
      </trkpt>
      <trkpt lat="49.06126" lon="6.87854">
        <ele>239.7</ele>
        <time>2014-02-12T07:39:28Z</time>
      </trkpt>
      <trkpt lat="49.06123" lon="6.87851">
        <ele>239.6</ele>
        <time>2014-02-12T07:39:31Z</time>
      </trkpt>
      <trkpt lat="49.0612" lon="6.87848">
        <ele>240.1</ele>
        <time>2014-02-12T07:39:34Z</time>
      </trkpt>
      <trkpt lat="49.06117" lon="6.87845">
        <ele>240.2</ele>
        <time>2014-02-12T07:39:37Z</time>
      </trkpt>
      <trkpt lat="49.06114" lon="6.87842">
        <ele>240</ele>
        <time>2014-02-12T07:39:40Z</time>
      </trkpt>
      <trkpt lat="49.06112" lon="6.87839">
        <ele>240</ele>
        <time>2014-02-12T07:39:43Z</time>
      </trkpt>
      <trkpt lat="49.06109" lon="6.87837">
        <ele>239.8</ele>
        <time>2014-02-12T07:39:46Z</time>
      </trkpt>
      <trkpt lat="49.06107" lon="6.87835">
        <ele>240.6</ele>
        <time>2014-02-12T07:39:49Z</time>
      </trkpt>
      <trkpt lat="49.06104" lon="6.87832">
        <ele>240.9</ele>
        <time>2014-02-12T07:39:52Z</time>
      </trkpt>
      <trkpt lat="49.06101" lon="6.87829">
        <ele>241.4</ele>
        <time>2014-02-12T07:39:55Z</time>
      </trkpt>
      <trkpt lat="49.06098" lon="6.87825">
        <ele>240.7</ele>
        <time>2014-02-12T07:39:58Z</time>
      </trkpt>
      <trkpt lat="49.06095" lon="6.87822">
        <ele>241.6</ele>
        <time>2014-02-12T07:40:01Z</time>
      </trkpt>
      <trkpt lat="49.06088" lon="6.87813">
        <ele>242</ele>
        <time>2014-02-12T07:40:05Z</time>
      </trkpt>
      <trkpt lat="49.06086" lon="6.87811">
        <ele>242.8</ele>
        <time>2014-02-12T07:40:08Z</time>
      </trkpt>
      <trkpt lat="49.06083" lon="6.87807">
        <ele>242.4</ele>
        <time>2014-02-12T07:40:11Z</time>
      </trkpt>
      <trkpt lat="49.06079" lon="6.87804">
        <ele>241.9</ele>
        <time>2014-02-12T07:40:14Z</time>
      </trkpt>
      <trkpt lat="49.06076" lon="6.878">
        <ele>241.9</ele>
        <time>2014-02-12T07:40:17Z</time>
      </trkpt>
      <trkpt lat="49.06073" lon="6.87796">
        <ele>242.2</ele>
        <time>2014-02-12T07:40:20Z</time>
      </trkpt>
      <trkpt lat="49.06066" lon="6.8779">
        <ele>243</ele>
        <time>2014-02-12T07:40:26Z</time>
      </trkpt>
      <trkpt lat="49.06063" lon="6.87786">
        <ele>243.1</ele>
        <time>2014-02-12T07:40:29Z</time>
      </trkpt>
      <trkpt lat="49.0606" lon="6.87783">
        <ele>243.2</ele>
        <time>2014-02-12T07:40:32Z</time>
      </trkpt>
      <trkpt lat="49.06057" lon="6.87779">
        <ele>242.4</ele>
        <time>2014-02-12T07:40:35Z</time>
      </trkpt>
      <trkpt lat="49.06054" lon="6.87775">
        <ele>242.8</ele>
        <time>2014-02-12T07:40:38Z</time>
      </trkpt>
      <trkpt lat="49.0605" lon="6.87772">
        <ele>243.1</ele>
        <time>2014-02-12T07:40:41Z</time>
      </trkpt>
      <trkpt lat="49.06047" lon="6.87768">
        <ele>243.5</ele>
        <time>2014-02-12T07:40:44Z</time>
      </trkpt>
      <trkpt lat="49.06044" lon="6.87764">
        <ele>243.8</ele>
        <time>2014-02-12T07:40:47Z</time>
      </trkpt>
      <trkpt lat="49.06041" lon="6.87761">
        <ele>243.6</ele>
        <time>2014-02-12T07:40:50Z</time>
      </trkpt>
      <trkpt lat="49.06037" lon="6.87757">
        <ele>243.5</ele>
        <time>2014-02-12T07:40:53Z</time>
      </trkpt>
      <trkpt lat="49.06034" lon="6.87754">
        <ele>244.3</ele>
        <time>2014-02-12T07:40:56Z</time>
      </trkpt>
      <trkpt lat="49.0603" lon="6.8775">
        <ele>244.8</ele>
        <time>2014-02-12T07:40:59Z</time>
      </trkpt>
      <trkpt lat="49.06027" lon="6.87747">
        <ele>244.4</ele>
        <time>2014-02-12T07:41:02Z</time>
      </trkpt>
      <trkpt lat="49.06024" lon="6.87743">
        <ele>243.7</ele>
        <time>2014-02-12T07:41:05Z</time>
      </trkpt>
      <trkpt lat="49.06021" lon="6.8774">
        <ele>244.2</ele>
        <time>2014-02-12T07:41:08Z</time>
      </trkpt>
      <trkpt lat="49.06018" lon="6.87737">
        <ele>244.7</ele>
        <time>2014-02-12T07:41:11Z</time>
      </trkpt>
      <trkpt lat="49.06015" lon="6.87733">
        <ele>244.5</ele>
        <time>2014-02-12T07:41:14Z</time>
      </trkpt>
      <trkpt lat="49.06012" lon="6.8773">
        <ele>244.1</ele>
        <time>2014-02-12T07:41:17Z</time>
      </trkpt>
      <trkpt lat="49.06009" lon="6.87727">
        <ele>244.2</ele>
        <time>2014-02-12T07:41:20Z</time>
      </trkpt>
      <trkpt lat="49.06005" lon="6.87725">
        <ele>244.6</ele>
        <time>2014-02-12T07:41:23Z</time>
      </trkpt>
      <trkpt lat="49.05998" lon="6.87718">
        <ele>244.8</ele>
        <time>2014-02-12T07:41:29Z</time>
      </trkpt>
      <trkpt lat="49.05995" lon="6.87715">
        <ele>245.3</ele>
        <time>2014-02-12T07:41:32Z</time>
      </trkpt>
      <trkpt lat="49.05991" lon="6.87712">
        <ele>245.5</ele>
        <time>2014-02-12T07:41:35Z</time>
      </trkpt>
      <trkpt lat="49.05987" lon="6.87709">
        <ele>246.5</ele>
        <time>2014-02-12T07:41:38Z</time>
      </trkpt>
      <trkpt lat="49.05984" lon="6.87706">
        <ele>245.4</ele>
        <time>2014-02-12T07:41:41Z</time>
      </trkpt>
      <trkpt lat="49.0598" lon="6.87703">
        <ele>246.2</ele>
        <time>2014-02-12T07:41:44Z</time>
      </trkpt>
      <trkpt lat="49.05977" lon="6.877">
        <ele>246.7</ele>
        <time>2014-02-12T07:41:47Z</time>
      </trkpt>
      <trkpt lat="49.05974" lon="6.87697">
        <ele>246.8</ele>
        <time>2014-02-12T07:41:50Z</time>
      </trkpt>
      <trkpt lat="49.0597" lon="6.87694">
        <ele>246.5</ele>
        <time>2014-02-12T07:41:53Z</time>
      </trkpt>
      <trkpt lat="49.05967" lon="6.87691">
        <ele>246.8</ele>
        <time>2014-02-12T07:41:56Z</time>
      </trkpt>
      <trkpt lat="49.05964" lon="6.87688">
        <ele>247.1</ele>
        <time>2014-02-12T07:41:59Z</time>
      </trkpt>
      <trkpt lat="49.05961" lon="6.87685">
        <ele>246.6</ele>
        <time>2014-02-12T07:42:02Z</time>
      </trkpt>
      <trkpt lat="49.05957" lon="6.87681">
        <ele>247.6</ele>
        <time>2014-02-12T07:42:05Z</time>
      </trkpt>
      <trkpt lat="49.05954" lon="6.87678">
        <ele>247.9</ele>
        <time>2014-02-12T07:42:08Z</time>
      </trkpt>
      <trkpt lat="49.05951" lon="6.87674">
        <ele>247.9</ele>
        <time>2014-02-12T07:42:11Z</time>
      </trkpt>
      <trkpt lat="49.05948" lon="6.8767">
        <ele>248.3</ele>
        <time>2014-02-12T07:42:14Z</time>
      </trkpt>
      <trkpt lat="49.05944" lon="6.87666">
        <ele>248.7</ele>
        <time>2014-02-12T07:42:17Z</time>
      </trkpt>
      <trkpt lat="49.05941" lon="6.87662">
        <ele>248.5</ele>
        <time>2014-02-12T07:42:20Z</time>
      </trkpt>
      <trkpt lat="49.05939" lon="6.87658">
        <ele>248.4</ele>
        <time>2014-02-12T07:42:23Z</time>
      </trkpt>
      <trkpt lat="49.05937" lon="6.87654">
        <ele>248.8</ele>
        <time>2014-02-12T07:42:26Z</time>
      </trkpt>
      <trkpt lat="49.05932" lon="6.87645">
        <ele>248.8</ele>
        <time>2014-02-12T07:42:32Z</time>
      </trkpt>
      <trkpt lat="49.05929" lon="6.8764">
        <ele>248.5</ele>
        <time>2014-02-12T07:42:35Z</time>
      </trkpt>
      <trkpt lat="49.05927" lon="6.87635">
        <ele>248.8</ele>
        <time>2014-02-12T07:42:38Z</time>
      </trkpt>
      <trkpt lat="49.05924" lon="6.8763">
        <ele>249.9</ele>
        <time>2014-02-12T07:42:41Z</time>
      </trkpt>
      <trkpt lat="49.05922" lon="6.87626">
        <ele>250</ele>
        <time>2014-02-12T07:42:44Z</time>
      </trkpt>
      <trkpt lat="49.0592" lon="6.87621">
        <ele>249.7</ele>
        <time>2014-02-12T07:42:47Z</time>
      </trkpt>
      <trkpt lat="49.05918" lon="6.87615">
        <ele>249.1</ele>
        <time>2014-02-12T07:42:50Z</time>
      </trkpt>
      <trkpt lat="49.05915" lon="6.8761">
        <ele>249</ele>
        <time>2014-02-12T07:42:53Z</time>
      </trkpt>
      <trkpt lat="49.05913" lon="6.87605">
        <ele>248.9</ele>
        <time>2014-02-12T07:42:56Z</time>
      </trkpt>
      <trkpt lat="49.05911" lon="6.876">
        <ele>249.8</ele>
        <time>2014-02-12T07:42:59Z</time>
      </trkpt>
      <trkpt lat="49.05909" lon="6.87595">
        <ele>249.6</ele>
        <time>2014-02-12T07:43:02Z</time>
      </trkpt>
      <trkpt lat="49.05907" lon="6.8759">
        <ele>249.1</ele>
        <time>2014-02-12T07:43:05Z</time>
      </trkpt>
      <trkpt lat="49.05905" lon="6.87585">
        <ele>249.2</ele>
        <time>2014-02-12T07:43:08Z</time>
      </trkpt>
      <trkpt lat="49.05903" lon="6.87581">
        <ele>249.3</ele>
        <time>2014-02-12T07:43:11Z</time>
      </trkpt>
      <trkpt lat="49.05901" lon="6.87576">
        <ele>249</ele>
        <time>2014-02-12T07:43:14Z</time>
      </trkpt>
      <trkpt lat="49.05899" lon="6.87571">
        <ele>249.2</ele>
        <time>2014-02-12T07:43:17Z</time>
      </trkpt>
      <trkpt lat="49.05897" lon="6.87565">
        <ele>248.8</ele>
        <time>2014-02-12T07:43:20Z</time>
      </trkpt>
      <trkpt lat="49.05895" lon="6.8756">
        <ele>249.6</ele>
        <time>2014-02-12T07:43:23Z</time>
      </trkpt>
      <trkpt lat="49.05894" lon="6.87555">
        <ele>249.5</ele>
        <time>2014-02-12T07:43:26Z</time>
      </trkpt>
      <trkpt lat="49.05892" lon="6.8755">
        <ele>249.6</ele>
        <time>2014-02-12T07:43:29Z</time>
      </trkpt>
      <trkpt lat="49.05888" lon="6.87538">
        <ele>248.9</ele>
        <time>2014-02-12T07:43:35Z</time>
      </trkpt>
      <trkpt lat="49.05887" lon="6.87532">
        <ele>249.1</ele>
        <time>2014-02-12T07:43:38Z</time>
      </trkpt>
      <trkpt lat="49.05885" lon="6.87527">
        <ele>247.9</ele>
        <time>2014-02-12T07:43:41Z</time>
      </trkpt>
      <trkpt lat="49.05883" lon="6.87521">
        <ele>247.6</ele>
        <time>2014-02-12T07:43:44Z</time>
      </trkpt>
      <trkpt lat="49.05882" lon="6.87516">
        <ele>247.6</ele>
        <time>2014-02-12T07:43:47Z</time>
      </trkpt>
      <trkpt lat="49.0588" lon="6.8751">
        <ele>247.3</ele>
        <time>2014-02-12T07:43:50Z</time>
      </trkpt>
      <trkpt lat="49.05879" lon="6.87504">
        <ele>246.8</ele>
        <time>2014-02-12T07:43:53Z</time>
      </trkpt>
      <trkpt lat="49.05878" lon="6.87499">
        <ele>246.6</ele>
        <time>2014-02-12T07:43:56Z</time>
      </trkpt>
      <trkpt lat="49.05876" lon="6.87494">
        <ele>246.2</ele>
        <time>2014-02-12T07:43:59Z</time>
      </trkpt>
      <trkpt lat="49.05875" lon="6.87489">
        <ele>246.3</ele>
        <time>2014-02-12T07:44:02Z</time>
      </trkpt>
      <trkpt lat="49.05873" lon="6.87484">
        <ele>246.1</ele>
        <time>2014-02-12T07:44:05Z</time>
      </trkpt>
      <trkpt lat="49.05872" lon="6.87478">
        <ele>244.9</ele>
        <time>2014-02-12T07:44:08Z</time>
      </trkpt>
      <trkpt lat="49.0587" lon="6.87472">
        <ele>244.7</ele>
        <time>2014-02-12T07:44:11Z</time>
      </trkpt>
      <trkpt lat="49.05869" lon="6.87466">
        <ele>244.7</ele>
        <time>2014-02-12T07:44:14Z</time>
      </trkpt>
      <trkpt lat="49.05867" lon="6.8746">
        <ele>244.6</ele>
        <time>2014-02-12T07:44:17Z</time>
      </trkpt>
      <trkpt lat="49.05865" lon="6.87454">
        <ele>244</ele>
        <time>2014-02-12T07:44:20Z</time>
      </trkpt>
      <trkpt lat="49.05863" lon="6.87449">
        <ele>244</ele>
        <time>2014-02-12T07:44:23Z</time>
      </trkpt>
      <trkpt lat="49.05861" lon="6.87444">
        <ele>243.7</ele>
        <time>2014-02-12T07:44:26Z</time>
      </trkpt>
      <trkpt lat="49.0586" lon="6.87439">
        <ele>243.5</ele>
        <time>2014-02-12T07:44:29Z</time>
      </trkpt>
      <trkpt lat="49.05858" lon="6.87434">
        <ele>243.4</ele>
        <time>2014-02-12T07:44:32Z</time>
      </trkpt>
      <trkpt lat="49.05853" lon="6.87425">
        <ele>243.1</ele>
        <time>2014-02-12T07:44:38Z</time>
      </trkpt>
      <trkpt lat="49.05851" lon="6.8742">
        <ele>242.5</ele>
        <time>2014-02-12T07:44:41Z</time>
      </trkpt>
      <trkpt lat="49.05849" lon="6.87415">
        <ele>242.7</ele>
        <time>2014-02-12T07:44:44Z</time>
      </trkpt>
      <trkpt lat="49.05846" lon="6.8741">
        <ele>244.2</ele>
        <time>2014-02-12T07:44:47Z</time>
      </trkpt>
      <trkpt lat="49.05843" lon="6.87405">
        <ele>243.1</ele>
        <time>2014-02-12T07:44:50Z</time>
      </trkpt>
      <trkpt lat="49.05841" lon="6.874">
        <ele>243</ele>
        <time>2014-02-12T07:44:53Z</time>
      </trkpt>
      <trkpt lat="49.05838" lon="6.87394">
        <ele>243.6</ele>
        <time>2014-02-12T07:44:56Z</time>
      </trkpt>
      <trkpt lat="49.05835" lon="6.87389">
        <ele>243.1</ele>
        <time>2014-02-12T07:44:59Z</time>
      </trkpt>
      <trkpt lat="49.05833" lon="6.87384">
        <ele>243.4</ele>
        <time>2014-02-12T07:45:02Z</time>
      </trkpt>
      <trkpt lat="49.05831" lon="6.87378">
        <ele>243.3</ele>
        <time>2014-02-12T07:45:05Z</time>
      </trkpt>
      <trkpt lat="49.05828" lon="6.87373">
        <ele>243.6</ele>
        <time>2014-02-12T07:45:08Z</time>
      </trkpt>
      <trkpt lat="49.05826" lon="6.87369">
        <ele>243.2</ele>
        <time>2014-02-12T07:45:11Z</time>
      </trkpt>
      <trkpt lat="49.05824" lon="6.87364">
        <ele>243.1</ele>
        <time>2014-02-12T07:45:14Z</time>
      </trkpt>
      <trkpt lat="49.05822" lon="6.87359">
        <ele>242.7</ele>
        <time>2014-02-12T07:45:17Z</time>
      </trkpt>
      <trkpt lat="49.0582" lon="6.87354">
        <ele>242.7</ele>
        <time>2014-02-12T07:45:20Z</time>
      </trkpt>
      <trkpt lat="49.05818" lon="6.8735">
        <ele>242.6</ele>
        <time>2014-02-12T07:45:23Z</time>
      </trkpt>
      <trkpt lat="49.05815" lon="6.87345">
        <ele>242.5</ele>
        <time>2014-02-12T07:45:26Z</time>
      </trkpt>
      <trkpt lat="49.05813" lon="6.8734">
        <ele>242.4</ele>
        <time>2014-02-12T07:45:29Z</time>
      </trkpt>
      <trkpt lat="49.0581" lon="6.87334">
        <ele>243.6</ele>
        <time>2014-02-12T07:45:32Z</time>
      </trkpt>
      <trkpt lat="49.05808" lon="6.87329">
        <ele>242.9</ele>
        <time>2014-02-12T07:45:35Z</time>
      </trkpt>
      <trkpt lat="49.05803" lon="6.87319">
        <ele>243.1</ele>
        <time>2014-02-12T07:45:41Z</time>
      </trkpt>
      <trkpt lat="49.05801" lon="6.87314">
        <ele>242.9</ele>
        <time>2014-02-12T07:45:44Z</time>
      </trkpt>
      <trkpt lat="49.05798" lon="6.87308">
        <ele>243</ele>
        <time>2014-02-12T07:45:47Z</time>
      </trkpt>
      <trkpt lat="49.05796" lon="6.87303">
        <ele>242.7</ele>
        <time>2014-02-12T07:45:50Z</time>
      </trkpt>
      <trkpt lat="49.05793" lon="6.87297">
        <ele>243</ele>
        <time>2014-02-12T07:45:53Z</time>
      </trkpt>
      <trkpt lat="49.05791" lon="6.87292">
        <ele>243</ele>
        <time>2014-02-12T07:45:56Z</time>
      </trkpt>
      <trkpt lat="49.05789" lon="6.87287">
        <ele>242.8</ele>
        <time>2014-02-12T07:45:59Z</time>
      </trkpt>
      <trkpt lat="49.05786" lon="6.87282">
        <ele>243</ele>
        <time>2014-02-12T07:46:02Z</time>
      </trkpt>
      <trkpt lat="49.05784" lon="6.87277">
        <ele>242.9</ele>
        <time>2014-02-12T07:46:05Z</time>
      </trkpt>
      <trkpt lat="49.05781" lon="6.87272">
        <ele>243.1</ele>
        <time>2014-02-12T07:46:08Z</time>
      </trkpt>
      <trkpt lat="49.05779" lon="6.87266">
        <ele>243.2</ele>
        <time>2014-02-12T07:46:11Z</time>
      </trkpt>
      <trkpt lat="49.05776" lon="6.87261">
        <ele>243.7</ele>
        <time>2014-02-12T07:46:14Z</time>
      </trkpt>
      <trkpt lat="49.05774" lon="6.87256">
        <ele>243.7</ele>
        <time>2014-02-12T07:46:17Z</time>
      </trkpt>
      <trkpt lat="49.05772" lon="6.87251">
        <ele>243.2</ele>
        <time>2014-02-12T07:46:20Z</time>
      </trkpt>
      <trkpt lat="49.05769" lon="6.87247">
        <ele>243.5</ele>
        <time>2014-02-12T07:46:23Z</time>
      </trkpt>
      <trkpt lat="49.05767" lon="6.87242">
        <ele>243.4</ele>
        <time>2014-02-12T07:46:26Z</time>
      </trkpt>
      <trkpt lat="49.05764" lon="6.87237">
        <ele>243.4</ele>
        <time>2014-02-12T07:46:29Z</time>
      </trkpt>
      <trkpt lat="49.05762" lon="6.87232">
        <ele>244.1</ele>
        <time>2014-02-12T07:46:32Z</time>
      </trkpt>
      <trkpt lat="49.0576" lon="6.87227">
        <ele>244</ele>
        <time>2014-02-12T07:46:35Z</time>
      </trkpt>
      <trkpt lat="49.05758" lon="6.87223">
        <ele>244</ele>
        <time>2014-02-12T07:46:38Z</time>
      </trkpt>
      <trkpt lat="49.05753" lon="6.87214">
        <ele>244.8</ele>
        <time>2014-02-12T07:46:44Z</time>
      </trkpt>
      <trkpt lat="49.0575" lon="6.87209">
        <ele>245.2</ele>
        <time>2014-02-12T07:46:47Z</time>
      </trkpt>
      <trkpt lat="49.05748" lon="6.87204">
        <ele>245.2</ele>
        <time>2014-02-12T07:46:50Z</time>
      </trkpt>
      <trkpt lat="49.05746" lon="6.87199">
        <ele>245.5</ele>
        <time>2014-02-12T07:46:53Z</time>
      </trkpt>
      <trkpt lat="49.05743" lon="6.87194">
        <ele>245.4</ele>
        <time>2014-02-12T07:46:56Z</time>
      </trkpt>
      <trkpt lat="49.05741" lon="6.87189">
        <ele>245.2</ele>
        <time>2014-02-12T07:46:59Z</time>
      </trkpt>
      <trkpt lat="49.05739" lon="6.87185">
        <ele>245.2</ele>
        <time>2014-02-12T07:47:02Z</time>
      </trkpt>
      <trkpt lat="49.05736" lon="6.8718">
        <ele>245.3</ele>
        <time>2014-02-12T07:47:05Z</time>
      </trkpt>
      <trkpt lat="49.05734" lon="6.87176">
        <ele>245.2</ele>
        <time>2014-02-12T07:47:08Z</time>
      </trkpt>
      <trkpt lat="49.05731" lon="6.87172">
        <ele>245.5</ele>
        <time>2014-02-12T07:47:11Z</time>
      </trkpt>
      <trkpt lat="49.05728" lon="6.87168">
        <ele>245.6</ele>
        <time>2014-02-12T07:47:14Z</time>
      </trkpt>
      <trkpt lat="49.05725" lon="6.87164">
        <ele>246.7</ele>
        <time>2014-02-12T07:47:17Z</time>
      </trkpt>
      <trkpt lat="49.05722" lon="6.87161">
        <ele>246.3</ele>
        <time>2014-02-12T07:47:20Z</time>
      </trkpt>
      <trkpt lat="49.05719" lon="6.87158">
        <ele>246.1</ele>
        <time>2014-02-12T07:47:23Z</time>
      </trkpt>
      <trkpt lat="49.05716" lon="6.87156">
        <ele>246.1</ele>
        <time>2014-02-12T07:47:26Z</time>
      </trkpt>
      <trkpt lat="49.05712" lon="6.87155">
        <ele>246.3</ele>
        <time>2014-02-12T07:47:29Z</time>
      </trkpt>
      <trkpt lat="49.05709" lon="6.87155">
        <ele>246.1</ele>
        <time>2014-02-12T07:47:32Z</time>
      </trkpt>
      <trkpt lat="49.05705" lon="6.87155">
        <ele>246.1</ele>
        <time>2014-02-12T07:47:35Z</time>
      </trkpt>
      <trkpt lat="49.05701" lon="6.87154">
        <ele>246.2</ele>
        <time>2014-02-12T07:47:38Z</time>
      </trkpt>
      <trkpt lat="49.05697" lon="6.87154">
        <ele>247.2</ele>
        <time>2014-02-12T07:47:41Z</time>
      </trkpt>
      <trkpt lat="49.05691" lon="6.87155">
        <ele>247.6</ele>
        <time>2014-02-12T07:47:47Z</time>
      </trkpt>
      <trkpt lat="49.05687" lon="6.87157">
        <ele>247.8</ele>
        <time>2014-02-12T07:47:50Z</time>
      </trkpt>
      <trkpt lat="49.05683" lon="6.87158">
        <ele>248.4</ele>
        <time>2014-02-12T07:47:53Z</time>
      </trkpt>
      <trkpt lat="49.05679" lon="6.87159">
        <ele>248.6</ele>
        <time>2014-02-12T07:47:56Z</time>
      </trkpt>
      <trkpt lat="49.05676" lon="6.87159">
        <ele>248.3</ele>
        <time>2014-02-12T07:47:59Z</time>
      </trkpt>
      <trkpt lat="49.05672" lon="6.87158">
        <ele>248.5</ele>
        <time>2014-02-12T07:48:02Z</time>
      </trkpt>
      <trkpt lat="49.05668" lon="6.87156">
        <ele>248.7</ele>
        <time>2014-02-12T07:48:05Z</time>
      </trkpt>
      <trkpt lat="49.05664" lon="6.87153">
        <ele>248.6</ele>
        <time>2014-02-12T07:48:08Z</time>
      </trkpt>
      <trkpt lat="49.05662" lon="6.87149">
        <ele>248.5</ele>
        <time>2014-02-12T07:48:11Z</time>
      </trkpt>
      <trkpt lat="49.0566" lon="6.87144">
        <ele>249.1</ele>
        <time>2014-02-12T07:48:14Z</time>
      </trkpt>
      <trkpt lat="49.05658" lon="6.87139">
        <ele>250</ele>
        <time>2014-02-12T07:48:17Z</time>
      </trkpt>
      <trkpt lat="49.05656" lon="6.87133">
        <ele>250.2</ele>
        <time>2014-02-12T07:48:20Z</time>
      </trkpt>
      <trkpt lat="49.05655" lon="6.87129">
        <ele>249.8</ele>
        <time>2014-02-12T07:48:23Z</time>
      </trkpt>
      <trkpt lat="49.05654" lon="6.87124">
        <ele>250.2</ele>
        <time>2014-02-12T07:48:26Z</time>
      </trkpt>
      <trkpt lat="49.05653" lon="6.8712">
        <ele>250.6</ele>
        <time>2014-02-12T07:48:29Z</time>
      </trkpt>
      <trkpt lat="49.05651" lon="6.87115">
        <ele>250.6</ele>
        <time>2014-02-12T07:48:32Z</time>
      </trkpt>
      <trkpt lat="49.0565" lon="6.87111">
        <ele>250.8</ele>
        <time>2014-02-12T07:48:35Z</time>
      </trkpt>
      <trkpt lat="49.05649" lon="6.87106">
        <ele>251.7</ele>
        <time>2014-02-12T07:48:38Z</time>
      </trkpt>
      <trkpt lat="49.05647" lon="6.87102">
        <ele>252.4</ele>
        <time>2014-02-12T07:48:41Z</time>
      </trkpt>
      <trkpt lat="49.05644" lon="6.87098">
        <ele>252.2</ele>
        <time>2014-02-12T07:48:44Z</time>
      </trkpt>
      <trkpt lat="49.05639" lon="6.8709">
        <ele>252.9</ele>
        <time>2014-02-12T07:48:50Z</time>
      </trkpt>
      <trkpt lat="49.05637" lon="6.87086">
        <ele>253.6</ele>
        <time>2014-02-12T07:48:53Z</time>
      </trkpt>
      <trkpt lat="49.05633" lon="6.87083">
        <ele>254</ele>
        <time>2014-02-12T07:48:56Z</time>
      </trkpt>
      <trkpt lat="49.0563" lon="6.87079">
        <ele>254.1</ele>
        <time>2014-02-12T07:48:59Z</time>
      </trkpt>
      <trkpt lat="49.05627" lon="6.87075">
        <ele>253.8</ele>
        <time>2014-02-12T07:49:02Z</time>
      </trkpt>
      <trkpt lat="49.05624" lon="6.87071">
        <ele>254</ele>
        <time>2014-02-12T07:49:05Z</time>
      </trkpt>
      <trkpt lat="49.05622" lon="6.87066">
        <ele>254.9</ele>
        <time>2014-02-12T07:49:08Z</time>
      </trkpt>
      <trkpt lat="49.05619" lon="6.87061">
        <ele>254.9</ele>
        <time>2014-02-12T07:49:11Z</time>
      </trkpt>
      <trkpt lat="49.05617" lon="6.87055">
        <ele>255.4</ele>
        <time>2014-02-12T07:49:14Z</time>
      </trkpt>
      <trkpt lat="49.05615" lon="6.8705">
        <ele>254.9</ele>
        <time>2014-02-12T07:49:17Z</time>
      </trkpt>
      <trkpt lat="49.05613" lon="6.87044">
        <ele>254.8</ele>
        <time>2014-02-12T07:49:20Z</time>
      </trkpt>
      <trkpt lat="49.0561" lon="6.87039">
        <ele>254.9</ele>
        <time>2014-02-12T07:49:23Z</time>
      </trkpt>
      <trkpt lat="49.05608" lon="6.87034">
        <ele>255.8</ele>
        <time>2014-02-12T07:49:26Z</time>
      </trkpt>
      <trkpt lat="49.05607" lon="6.87028">
        <ele>256.2</ele>
        <time>2014-02-12T07:49:29Z</time>
      </trkpt>
      <trkpt lat="49.05604" lon="6.87022">
        <ele>256.8</ele>
        <time>2014-02-12T07:49:32Z</time>
      </trkpt>
      <trkpt lat="49.05603" lon="6.87017">
        <ele>257.6</ele>
        <time>2014-02-12T07:49:35Z</time>
      </trkpt>
      <trkpt lat="49.05601" lon="6.87011">
        <ele>257.5</ele>
        <time>2014-02-12T07:49:38Z</time>
      </trkpt>
      <trkpt lat="49.056" lon="6.87005">
        <ele>257.7</ele>
        <time>2014-02-12T07:49:41Z</time>
      </trkpt>
      <trkpt lat="49.05598" lon="6.86999">
        <ele>258.1</ele>
        <time>2014-02-12T07:49:44Z</time>
      </trkpt>
      <trkpt lat="49.05597" lon="6.86993">
        <ele>257.8</ele>
        <time>2014-02-12T07:49:47Z</time>
      </trkpt>
      <trkpt lat="49.05595" lon="6.86981">
        <ele>257.9</ele>
        <time>2014-02-12T07:49:53Z</time>
      </trkpt>
      <trkpt lat="49.05595" lon="6.86974">
        <ele>257.7</ele>
        <time>2014-02-12T07:49:56Z</time>
      </trkpt>
      <trkpt lat="49.05594" lon="6.86969">
        <ele>258.7</ele>
        <time>2014-02-12T07:49:59Z</time>
      </trkpt>
      <trkpt lat="49.05594" lon="6.86962">
        <ele>258.1</ele>
        <time>2014-02-12T07:50:02Z</time>
      </trkpt>
      <trkpt lat="49.05593" lon="6.86956">
        <ele>258.3</ele>
        <time>2014-02-12T07:50:05Z</time>
      </trkpt>
      <trkpt lat="49.05593" lon="6.8695">
        <ele>258.2</ele>
        <time>2014-02-12T07:50:08Z</time>
      </trkpt>
      <trkpt lat="49.05593" lon="6.86943">
        <ele>258.3</ele>
        <time>2014-02-12T07:50:11Z</time>
      </trkpt>
      <trkpt lat="49.05594" lon="6.86937">
        <ele>258.7</ele>
        <time>2014-02-12T07:50:14Z</time>
      </trkpt>
      <trkpt lat="49.05594" lon="6.86931">
        <ele>258.7</ele>
        <time>2014-02-12T07:50:17Z</time>
      </trkpt>
      <trkpt lat="49.05595" lon="6.86926">
        <ele>258.8</ele>
        <time>2014-02-12T07:50:20Z</time>
      </trkpt>
      <trkpt lat="49.05596" lon="6.8692">
        <ele>258.6</ele>
        <time>2014-02-12T07:50:23Z</time>
      </trkpt>
      <trkpt lat="49.05596" lon="6.86913">
        <ele>259.2</ele>
        <time>2014-02-12T07:50:26Z</time>
      </trkpt>
      <trkpt lat="49.05596" lon="6.86907">
        <ele>259.8</ele>
        <time>2014-02-12T07:50:29Z</time>
      </trkpt>
      <trkpt lat="49.05596" lon="6.86901">
        <ele>259.2</ele>
        <time>2014-02-12T07:50:32Z</time>
      </trkpt>
      <trkpt lat="49.05596" lon="6.86894">
        <ele>259.1</ele>
        <time>2014-02-12T07:50:35Z</time>
      </trkpt>
      <trkpt lat="49.05596" lon="6.86887">
        <ele>258.8</ele>
        <time>2014-02-12T07:50:38Z</time>
      </trkpt>
      <trkpt lat="49.05596" lon="6.86881">
        <ele>258.9</ele>
        <time>2014-02-12T07:50:41Z</time>
      </trkpt>
      <trkpt lat="49.05595" lon="6.86875">
        <ele>258.8</ele>
        <time>2014-02-12T07:50:44Z</time>
      </trkpt>
      <trkpt lat="49.05595" lon="6.86868">
        <ele>259.2</ele>
        <time>2014-02-12T07:50:47Z</time>
      </trkpt>
      <trkpt lat="49.05594" lon="6.86862">
        <ele>259.1</ele>
        <time>2014-02-12T07:50:50Z</time>
      </trkpt>
      <trkpt lat="49.05592" lon="6.86849">
        <ele>259.4</ele>
        <time>2014-02-12T07:50:56Z</time>
      </trkpt>
      <trkpt lat="49.05592" lon="6.86843">
        <ele>259.6</ele>
        <time>2014-02-12T07:50:59Z</time>
      </trkpt>
      <trkpt lat="49.05591" lon="6.86837">
        <ele>259.9</ele>
        <time>2014-02-12T07:51:02Z</time>
      </trkpt>
      <trkpt lat="49.05591" lon="6.86832">
        <ele>259.7</ele>
        <time>2014-02-12T07:51:05Z</time>
      </trkpt>
      <trkpt lat="49.0559" lon="6.86826">
        <ele>259.4</ele>
        <time>2014-02-12T07:51:08Z</time>
      </trkpt>
      <trkpt lat="49.0559" lon="6.8682">
        <ele>259.8</ele>
        <time>2014-02-12T07:51:11Z</time>
      </trkpt>
      <trkpt lat="49.05589" lon="6.86815">
        <ele>259.5</ele>
        <time>2014-02-12T07:51:14Z</time>
      </trkpt>
      <trkpt lat="49.05588" lon="6.86809">
        <ele>258.8</ele>
        <time>2014-02-12T07:51:17Z</time>
      </trkpt>
      <trkpt lat="49.05588" lon="6.86804">
        <ele>259.4</ele>
        <time>2014-02-12T07:51:20Z</time>
      </trkpt>
      <trkpt lat="49.05587" lon="6.86799">
        <ele>259.7</ele>
        <time>2014-02-12T07:51:23Z</time>
      </trkpt>
      <trkpt lat="49.05587" lon="6.86793">
        <ele>259.9</ele>
        <time>2014-02-12T07:51:26Z</time>
      </trkpt>
      <trkpt lat="49.05586" lon="6.86788">
        <ele>260.5</ele>
        <time>2014-02-12T07:51:29Z</time>
      </trkpt>
      <trkpt lat="49.05586" lon="6.86782">
        <ele>260.4</ele>
        <time>2014-02-12T07:51:32Z</time>
      </trkpt>
      <trkpt lat="49.05585" lon="6.86776">
        <ele>260.1</ele>
        <time>2014-02-12T07:51:35Z</time>
      </trkpt>
      <trkpt lat="49.05585" lon="6.8677">
        <ele>259.8</ele>
        <time>2014-02-12T07:51:38Z</time>
      </trkpt>
      <trkpt lat="49.05585" lon="6.86765">
        <ele>260</ele>
        <time>2014-02-12T07:51:41Z</time>
      </trkpt>
      <trkpt lat="49.05585" lon="6.8676">
        <ele>259.9</ele>
        <time>2014-02-12T07:51:44Z</time>
      </trkpt>
      <trkpt lat="49.05585" lon="6.86754">
        <ele>260</ele>
        <time>2014-02-12T07:51:47Z</time>
      </trkpt>
      <trkpt lat="49.05585" lon="6.86747">
        <ele>259.9</ele>
        <time>2014-02-12T07:51:50Z</time>
      </trkpt>
      <trkpt lat="49.05584" lon="6.86741">
        <ele>259.7</ele>
        <time>2014-02-12T07:51:53Z</time>
      </trkpt>
      <trkpt lat="49.05584" lon="6.86729">
        <ele>259.8</ele>
        <time>2014-02-12T07:51:59Z</time>
      </trkpt>
      <trkpt lat="49.05584" lon="6.86723">
        <ele>259.7</ele>
        <time>2014-02-12T07:52:02Z</time>
      </trkpt>
      <trkpt lat="49.05584" lon="6.86717">
        <ele>260.7</ele>
        <time>2014-02-12T07:52:05Z</time>
      </trkpt>
      <trkpt lat="49.05584" lon="6.86711">
        <ele>260.2</ele>
        <time>2014-02-12T07:52:08Z</time>
      </trkpt>
      <trkpt lat="49.05584" lon="6.86706">
        <ele>260</ele>
        <time>2014-02-12T07:52:11Z</time>
      </trkpt>
      <trkpt lat="49.05584" lon="6.867">
        <ele>259.7</ele>
        <time>2014-02-12T07:52:14Z</time>
      </trkpt>
      <trkpt lat="49.05584" lon="6.86695">
        <ele>260</ele>
        <time>2014-02-12T07:52:17Z</time>
      </trkpt>
      <trkpt lat="49.05584" lon="6.86689">
        <ele>259.6</ele>
        <time>2014-02-12T07:52:20Z</time>
      </trkpt>
      <trkpt lat="49.05583" lon="6.86684">
        <ele>259.6</ele>
        <time>2014-02-12T07:52:23Z</time>
      </trkpt>
      <trkpt lat="49.05583" lon="6.86677">
        <ele>260.1</ele>
        <time>2014-02-12T07:52:26Z</time>
      </trkpt>
      <trkpt lat="49.05582" lon="6.86671">
        <ele>260.8</ele>
        <time>2014-02-12T07:52:29Z</time>
      </trkpt>
      <trkpt lat="49.05582" lon="6.86664">
        <ele>260.2</ele>
        <time>2014-02-12T07:52:32Z</time>
      </trkpt>
      <trkpt lat="49.05581" lon="6.86658">
        <ele>259.9</ele>
        <time>2014-02-12T07:52:35Z</time>
      </trkpt>
      <trkpt lat="49.0558" lon="6.86652">
        <ele>259.8</ele>
        <time>2014-02-12T07:52:38Z</time>
      </trkpt>
      <trkpt lat="49.0558" lon="6.86645">
        <ele>259.5</ele>
        <time>2014-02-12T07:52:41Z</time>
      </trkpt>
      <trkpt lat="49.05579" lon="6.86639">
        <ele>259.4</ele>
        <time>2014-02-12T07:52:44Z</time>
      </trkpt>
      <trkpt lat="49.05579" lon="6.86633">
        <ele>259.8</ele>
        <time>2014-02-12T07:52:47Z</time>
      </trkpt>
      <trkpt lat="49.05579" lon="6.86626">
        <ele>259.5</ele>
        <time>2014-02-12T07:52:50Z</time>
      </trkpt>
      <trkpt lat="49.05578" lon="6.8662">
        <ele>258.4</ele>
        <time>2014-02-12T07:52:53Z</time>
      </trkpt>
      <trkpt lat="49.05577" lon="6.86614">
        <ele>258.3</ele>
        <time>2014-02-12T07:52:56Z</time>
      </trkpt>
      <trkpt lat="49.05576" lon="6.86602">
        <ele>259.9</ele>
        <time>2014-02-12T07:53:02Z</time>
      </trkpt>
      <trkpt lat="49.05575" lon="6.86596">
        <ele>259.6</ele>
        <time>2014-02-12T07:53:05Z</time>
      </trkpt>
      <trkpt lat="49.05574" lon="6.86591">
        <ele>259.3</ele>
        <time>2014-02-12T07:53:08Z</time>
      </trkpt>
      <trkpt lat="49.05573" lon="6.86585">
        <ele>259.4</ele>
        <time>2014-02-12T07:53:11Z</time>
      </trkpt>
      <trkpt lat="49.05572" lon="6.8658">
        <ele>258.6</ele>
        <time>2014-02-12T07:53:14Z</time>
      </trkpt>
      <trkpt lat="49.05571" lon="6.86575">
        <ele>259.1</ele>
        <time>2014-02-12T07:53:17Z</time>
      </trkpt>
      <trkpt lat="49.05571" lon="6.8657">
        <ele>259.2</ele>
        <time>2014-02-12T07:53:20Z</time>
      </trkpt>
      <trkpt lat="49.05571" lon="6.86564">
        <ele>258.6</ele>
        <time>2014-02-12T07:53:23Z</time>
      </trkpt>
      <trkpt lat="49.0557" lon="6.86558">
        <ele>258.9</ele>
        <time>2014-02-12T07:53:26Z</time>
      </trkpt>
      <trkpt lat="49.05569" lon="6.86552">
        <ele>258.5</ele>
        <time>2014-02-12T07:53:29Z</time>
      </trkpt>
      <trkpt lat="49.05567" lon="6.86546">
        <ele>258.5</ele>
        <time>2014-02-12T07:53:32Z</time>
      </trkpt>
      <trkpt lat="49.05565" lon="6.86541">
        <ele>259</ele>
        <time>2014-02-12T07:53:35Z</time>
      </trkpt>
      <trkpt lat="49.05564" lon="6.86535">
        <ele>259.1</ele>
        <time>2014-02-12T07:53:38Z</time>
      </trkpt>
      <trkpt lat="49.05563" lon="6.86528">
        <ele>259.2</ele>
        <time>2014-02-12T07:53:41Z</time>
      </trkpt>
      <trkpt lat="49.05562" lon="6.86522">
        <ele>259.2</ele>
        <time>2014-02-12T07:53:44Z</time>
      </trkpt>
      <trkpt lat="49.05561" lon="6.86514">
        <ele>258.9</ele>
        <time>2014-02-12T07:53:47Z</time>
      </trkpt>
      <trkpt lat="49.0556" lon="6.86508">
        <ele>258.6</ele>
        <time>2014-02-12T07:53:50Z</time>
      </trkpt>
      <trkpt lat="49.05559" lon="6.86502">
        <ele>258.9</ele>
        <time>2014-02-12T07:53:53Z</time>
      </trkpt>
      <trkpt lat="49.05558" lon="6.86496">
        <ele>259.3</ele>
        <time>2014-02-12T07:53:56Z</time>
      </trkpt>
      <trkpt lat="49.05557" lon="6.8649">
        <ele>259.6</ele>
        <time>2014-02-12T07:53:59Z</time>
      </trkpt>
      <trkpt lat="49.05554" lon="6.86478">
        <ele>259.1</ele>
        <time>2014-02-12T07:54:05Z</time>
      </trkpt>
      <trkpt lat="49.05553" lon="6.86472">
        <ele>259.3</ele>
        <time>2014-02-12T07:54:08Z</time>
      </trkpt>
      <trkpt lat="49.05553" lon="6.86465">
        <ele>259.3</ele>
        <time>2014-02-12T07:54:11Z</time>
      </trkpt>
      <trkpt lat="49.05552" lon="6.86459">
        <ele>259</ele>
        <time>2014-02-12T07:54:14Z</time>
      </trkpt>
      <trkpt lat="49.05551" lon="6.86452">
        <ele>259.6</ele>
        <time>2014-02-12T07:54:17Z</time>
      </trkpt>
      <trkpt lat="49.05551" lon="6.86446">
        <ele>259.5</ele>
        <time>2014-02-12T07:54:20Z</time>
      </trkpt>
      <trkpt lat="49.0555" lon="6.8644">
        <ele>259.8</ele>
        <time>2014-02-12T07:54:23Z</time>
      </trkpt>
      <trkpt lat="49.05549" lon="6.86434">
        <ele>259.7</ele>
        <time>2014-02-12T07:54:26Z</time>
      </trkpt>
      <trkpt lat="49.05549" lon="6.86428">
        <ele>259.7</ele>
        <time>2014-02-12T07:54:29Z</time>
      </trkpt>
      <trkpt lat="49.05548" lon="6.86422">
        <ele>259.5</ele>
        <time>2014-02-12T07:54:32Z</time>
      </trkpt>
      <trkpt lat="49.05548" lon="6.86415">
        <ele>259.6</ele>
        <time>2014-02-12T07:54:35Z</time>
      </trkpt>
      <trkpt lat="49.05547" lon="6.86408">
        <ele>259.4</ele>
        <time>2014-02-12T07:54:38Z</time>
      </trkpt>
      <trkpt lat="49.05547" lon="6.86403">
        <ele>259.7</ele>
        <time>2014-02-12T07:54:41Z</time>
      </trkpt>
      <trkpt lat="49.05547" lon="6.86398">
        <ele>259.3</ele>
        <time>2014-02-12T07:54:44Z</time>
      </trkpt>
      <trkpt lat="49.05546" lon="6.86392">
        <ele>259.9</ele>
        <time>2014-02-12T07:54:47Z</time>
      </trkpt>
      <trkpt lat="49.05545" lon="6.86387">
        <ele>259.6</ele>
        <time>2014-02-12T07:54:50Z</time>
      </trkpt>
      <trkpt lat="49.05544" lon="6.86381">
        <ele>259.6</ele>
        <time>2014-02-12T07:54:53Z</time>
      </trkpt>
      <trkpt lat="49.05543" lon="6.86375">
        <ele>259.6</ele>
        <time>2014-02-12T07:54:56Z</time>
      </trkpt>
      <trkpt lat="49.05541" lon="6.86369">
        <ele>260</ele>
        <time>2014-02-12T07:54:59Z</time>
      </trkpt>
      <trkpt lat="49.0554" lon="6.86363">
        <ele>260.1</ele>
        <time>2014-02-12T07:55:02Z</time>
      </trkpt>
      <trkpt lat="49.05539" lon="6.86351">
        <ele>260.5</ele>
        <time>2014-02-12T07:55:08Z</time>
      </trkpt>
      <trkpt lat="49.05538" lon="6.86345">
        <ele>260.5</ele>
        <time>2014-02-12T07:55:11Z</time>
      </trkpt>
      <trkpt lat="49.05537" lon="6.86339">
        <ele>260.7</ele>
        <time>2014-02-12T07:55:14Z</time>
      </trkpt>
      <trkpt lat="49.05535" lon="6.86333">
        <ele>260.1</ele>
        <time>2014-02-12T07:55:17Z</time>
      </trkpt>
      <trkpt lat="49.05535" lon="6.86328">
        <ele>259.5</ele>
        <time>2014-02-12T07:55:20Z</time>
      </trkpt>
      <trkpt lat="49.05533" lon="6.86321">
        <ele>260.6</ele>
        <time>2014-02-12T07:55:23Z</time>
      </trkpt>
      <trkpt lat="49.05532" lon="6.86316">
        <ele>260.7</ele>
        <time>2014-02-12T07:55:26Z</time>
      </trkpt>
      <trkpt lat="49.05531" lon="6.8631">
        <ele>260.5</ele>
        <time>2014-02-12T07:55:29Z</time>
      </trkpt>
      <trkpt lat="49.05529" lon="6.86304">
        <ele>260.9</ele>
        <time>2014-02-12T07:55:32Z</time>
      </trkpt>
      <trkpt lat="49.05528" lon="6.86299">
        <ele>259.9</ele>
        <time>2014-02-12T07:55:35Z</time>
      </trkpt>
      <trkpt lat="49.05527" lon="6.86293">
        <ele>259.6</ele>
        <time>2014-02-12T07:55:38Z</time>
      </trkpt>
      <trkpt lat="49.05526" lon="6.86287">
        <ele>260.2</ele>
        <time>2014-02-12T07:55:41Z</time>
      </trkpt>
      <trkpt lat="49.05524" lon="6.86281">
        <ele>260.4</ele>
        <time>2014-02-12T07:55:44Z</time>
      </trkpt>
      <trkpt lat="49.05523" lon="6.86275">
        <ele>260.3</ele>
        <time>2014-02-12T07:55:47Z</time>
      </trkpt>
      <trkpt lat="49.05522" lon="6.86269">
        <ele>260</ele>
        <time>2014-02-12T07:55:50Z</time>
      </trkpt>
      <trkpt lat="49.05521" lon="6.86262">
        <ele>260</ele>
        <time>2014-02-12T07:55:53Z</time>
      </trkpt>
      <trkpt lat="49.0552" lon="6.86256">
        <ele>260.3</ele>
        <time>2014-02-12T07:55:56Z</time>
      </trkpt>
      <trkpt lat="49.0552" lon="6.86251">
        <ele>260.4</ele>
        <time>2014-02-12T07:55:59Z</time>
      </trkpt>
      <trkpt lat="49.05519" lon="6.86245">
        <ele>260.4</ele>
        <time>2014-02-12T07:56:02Z</time>
      </trkpt>
      <trkpt lat="49.05519" lon="6.86239">
        <ele>260</ele>
        <time>2014-02-12T07:56:05Z</time>
      </trkpt>
      <trkpt lat="49.05518" lon="6.86228">
        <ele>260.2</ele>
        <time>2014-02-12T07:56:11Z</time>
      </trkpt>
      <trkpt lat="49.05517" lon="6.86222">
        <ele>260.2</ele>
        <time>2014-02-12T07:56:14Z</time>
      </trkpt>
      <trkpt lat="49.05517" lon="6.86216">
        <ele>260.6</ele>
        <time>2014-02-12T07:56:17Z</time>
      </trkpt>
      <trkpt lat="49.05516" lon="6.86209">
        <ele>261.1</ele>
        <time>2014-02-12T07:56:20Z</time>
      </trkpt>
      <trkpt lat="49.05515" lon="6.86203">
        <ele>261.7</ele>
        <time>2014-02-12T07:56:23Z</time>
      </trkpt>
      <trkpt lat="49.05514" lon="6.86197">
        <ele>261.6</ele>
        <time>2014-02-12T07:56:26Z</time>
      </trkpt>
      <trkpt lat="49.05513" lon="6.8619">
        <ele>261.2</ele>
        <time>2014-02-12T07:56:29Z</time>
      </trkpt>
      <trkpt lat="49.05512" lon="6.86184">
        <ele>261.1</ele>
        <time>2014-02-12T07:56:32Z</time>
      </trkpt>
      <trkpt lat="49.05511" lon="6.86178">
        <ele>261.7</ele>
        <time>2014-02-12T07:56:35Z</time>
      </trkpt>
      <trkpt lat="49.0551" lon="6.86172">
        <ele>262.1</ele>
        <time>2014-02-12T07:56:38Z</time>
      </trkpt>
      <trkpt lat="49.05509" lon="6.86166">
        <ele>262.7</ele>
        <time>2014-02-12T07:56:41Z</time>
      </trkpt>
      <trkpt lat="49.05508" lon="6.86161">
        <ele>262.8</ele>
        <time>2014-02-12T07:56:44Z</time>
      </trkpt>
      <trkpt lat="49.05507" lon="6.86155">
        <ele>262.1</ele>
        <time>2014-02-12T07:56:47Z</time>
      </trkpt>
      <trkpt lat="49.05506" lon="6.86149">
        <ele>261.9</ele>
        <time>2014-02-12T07:56:50Z</time>
      </trkpt>
      <trkpt lat="49.05505" lon="6.86143">
        <ele>262.4</ele>
        <time>2014-02-12T07:56:53Z</time>
      </trkpt>
      <trkpt lat="49.05504" lon="6.86137">
        <ele>263.2</ele>
        <time>2014-02-12T07:56:56Z</time>
      </trkpt>
      <trkpt lat="49.05503" lon="6.86131">
        <ele>263.3</ele>
        <time>2014-02-12T07:56:59Z</time>
      </trkpt>
      <trkpt lat="49.05502" lon="6.86126">
        <ele>263.2</ele>
        <time>2014-02-12T07:57:02Z</time>
      </trkpt>
      <trkpt lat="49.05501" lon="6.8612">
        <ele>263.2</ele>
        <time>2014-02-12T07:57:05Z</time>
      </trkpt>
      <trkpt lat="49.055" lon="6.86114">
        <ele>262.7</ele>
        <time>2014-02-12T07:57:08Z</time>
      </trkpt>
      <trkpt lat="49.05498" lon="6.86102">
        <ele>263</ele>
        <time>2014-02-12T07:57:14Z</time>
      </trkpt>
      <trkpt lat="49.05497" lon="6.86096">
        <ele>263.2</ele>
        <time>2014-02-12T07:57:17Z</time>
      </trkpt>
      <trkpt lat="49.05496" lon="6.86091">
        <ele>263.4</ele>
        <time>2014-02-12T07:57:20Z</time>
      </trkpt>
      <trkpt lat="49.05495" lon="6.86085">
        <ele>263.5</ele>
        <time>2014-02-12T07:57:23Z</time>
      </trkpt>
      <trkpt lat="49.05494" lon="6.86079">
        <ele>262.9</ele>
        <time>2014-02-12T07:57:26Z</time>
      </trkpt>
      <trkpt lat="49.05494" lon="6.86073">
        <ele>262.5</ele>
        <time>2014-02-12T07:57:29Z</time>
      </trkpt>
      <trkpt lat="49.05493" lon="6.86067">
        <ele>263.1</ele>
        <time>2014-02-12T07:57:32Z</time>
      </trkpt>
      <trkpt lat="49.05492" lon="6.86062">
        <ele>263.3</ele>
        <time>2014-02-12T07:57:35Z</time>
      </trkpt>
      <trkpt lat="49.05491" lon="6.86056">
        <ele>263.4</ele>
        <time>2014-02-12T07:57:38Z</time>
      </trkpt>
      <trkpt lat="49.0549" lon="6.8605">
        <ele>263.3</ele>
        <time>2014-02-12T07:57:41Z</time>
      </trkpt>
      <trkpt lat="49.05489" lon="6.86044">
        <ele>263.1</ele>
        <time>2014-02-12T07:57:44Z</time>
      </trkpt>
      <trkpt lat="49.05488" lon="6.86038">
        <ele>263.2</ele>
        <time>2014-02-12T07:57:47Z</time>
      </trkpt>
      <trkpt lat="49.05487" lon="6.86032">
        <ele>263.4</ele>
        <time>2014-02-12T07:57:50Z</time>
      </trkpt>
      <trkpt lat="49.05485" lon="6.86026">
        <ele>263.5</ele>
        <time>2014-02-12T07:57:53Z</time>
      </trkpt>
      <trkpt lat="49.05484" lon="6.8602">
        <ele>263.9</ele>
        <time>2014-02-12T07:57:56Z</time>
      </trkpt>
      <trkpt lat="49.05483" lon="6.86014">
        <ele>264.4</ele>
        <time>2014-02-12T07:57:59Z</time>
      </trkpt>
      <trkpt lat="49.05482" lon="6.86009">
        <ele>264.4</ele>
        <time>2014-02-12T07:58:02Z</time>
      </trkpt>
      <trkpt lat="49.0548" lon="6.86003">
        <ele>264.4</ele>
        <time>2014-02-12T07:58:05Z</time>
      </trkpt>
      <trkpt lat="49.05479" lon="6.85998">
        <ele>263.5</ele>
        <time>2014-02-12T07:58:08Z</time>
      </trkpt>
      <trkpt lat="49.05477" lon="6.85992">
        <ele>263.9</ele>
        <time>2014-02-12T07:58:11Z</time>
      </trkpt>
      <trkpt lat="49.05474" lon="6.85982">
        <ele>264</ele>
        <time>2014-02-12T07:58:17Z</time>
      </trkpt>
      <trkpt lat="49.05473" lon="6.85976">
        <ele>264.2</ele>
        <time>2014-02-12T07:58:20Z</time>
      </trkpt>
      <trkpt lat="49.05471" lon="6.85971">
        <ele>263.9</ele>
        <time>2014-02-12T07:58:23Z</time>
      </trkpt>
      <trkpt lat="49.05469" lon="6.85966">
        <ele>264.4</ele>
        <time>2014-02-12T07:58:26Z</time>
      </trkpt>
      <trkpt lat="49.05468" lon="6.8596">
        <ele>264</ele>
        <time>2014-02-12T07:58:29Z</time>
      </trkpt>
      <trkpt lat="49.05467" lon="6.85955">
        <ele>263.9</ele>
        <time>2014-02-12T07:58:32Z</time>
      </trkpt>
      <trkpt lat="49.05465" lon="6.85949">
        <ele>263.9</ele>
        <time>2014-02-12T07:58:35Z</time>
      </trkpt>
      <trkpt lat="49.05464" lon="6.85944">
        <ele>264.1</ele>
        <time>2014-02-12T07:58:38Z</time>
      </trkpt>
      <trkpt lat="49.05462" lon="6.85938">
        <ele>264.1</ele>
        <time>2014-02-12T07:58:41Z</time>
      </trkpt>
      <trkpt lat="49.05461" lon="6.85933">
        <ele>263.6</ele>
        <time>2014-02-12T07:58:44Z</time>
      </trkpt>
      <trkpt lat="49.05459" lon="6.85927">
        <ele>263.9</ele>
        <time>2014-02-12T07:58:47Z</time>
      </trkpt>
      <trkpt lat="49.05458" lon="6.85922">
        <ele>263.5</ele>
        <time>2014-02-12T07:58:50Z</time>
      </trkpt>
      <trkpt lat="49.05457" lon="6.85916">
        <ele>264</ele>
        <time>2014-02-12T07:58:53Z</time>
      </trkpt>
      <trkpt lat="49.05455" lon="6.85911">
        <ele>263.4</ele>
        <time>2014-02-12T07:58:56Z</time>
      </trkpt>
      <trkpt lat="49.05454" lon="6.85905">
        <ele>264.2</ele>
        <time>2014-02-12T07:58:59Z</time>
      </trkpt>
      <trkpt lat="49.05452" lon="6.85899">
        <ele>264.4</ele>
        <time>2014-02-12T07:59:02Z</time>
      </trkpt>
      <trkpt lat="49.05451" lon="6.85893">
        <ele>264.8</ele>
        <time>2014-02-12T07:59:05Z</time>
      </trkpt>
      <trkpt lat="49.05449" lon="6.85887">
        <ele>264.2</ele>
        <time>2014-02-12T07:59:08Z</time>
      </trkpt>
      <trkpt lat="49.05448" lon="6.85881">
        <ele>264.7</ele>
        <time>2014-02-12T07:59:11Z</time>
      </trkpt>
      <trkpt lat="49.05446" lon="6.85876">
        <ele>264.4</ele>
        <time>2014-02-12T07:59:14Z</time>
      </trkpt>
      <trkpt lat="49.05443" lon="6.85864">
        <ele>264.2</ele>
        <time>2014-02-12T07:59:20Z</time>
      </trkpt>
      <trkpt lat="49.05441" lon="6.85858">
        <ele>263.8</ele>
        <time>2014-02-12T07:59:23Z</time>
      </trkpt>
      <trkpt lat="49.0544" lon="6.85852">
        <ele>263.4</ele>
        <time>2014-02-12T07:59:26Z</time>
      </trkpt>
      <trkpt lat="49.05438" lon="6.85846">
        <ele>264.1</ele>
        <time>2014-02-12T07:59:29Z</time>
      </trkpt>
      <trkpt lat="49.05437" lon="6.8584">
        <ele>264.6</ele>
        <time>2014-02-12T07:59:32Z</time>
      </trkpt>
      <trkpt lat="49.05435" lon="6.85834">
        <ele>264.7</ele>
        <time>2014-02-12T07:59:35Z</time>
      </trkpt>
      <trkpt lat="49.05432" lon="6.85825">
        <ele>265</ele>
        <time>2014-02-12T07:59:39Z</time>
      </trkpt>
      <trkpt lat="49.0543" lon="6.8582">
        <ele>264.5</ele>
        <time>2014-02-12T07:59:42Z</time>
      </trkpt>
      <trkpt lat="49.05429" lon="6.85815">
        <ele>263.3</ele>
        <time>2014-02-12T07:59:45Z</time>
      </trkpt>
      <trkpt lat="49.05427" lon="6.85809">
        <ele>264</ele>
        <time>2014-02-12T07:59:48Z</time>
      </trkpt>
      <trkpt lat="49.05426" lon="6.85803">
        <ele>264.8</ele>
        <time>2014-02-12T07:59:51Z</time>
      </trkpt>
      <trkpt lat="49.05424" lon="6.85797">
        <ele>264.2</ele>
        <time>2014-02-12T07:59:54Z</time>
      </trkpt>
      <trkpt lat="49.05423" lon="6.85791">
        <ele>265.4</ele>
        <time>2014-02-12T07:59:57Z</time>
      </trkpt>
      <trkpt lat="49.05422" lon="6.85786">
        <ele>265</ele>
        <time>2014-02-12T08:00:00Z</time>
      </trkpt>
      <trkpt lat="49.05421" lon="6.8578">
        <ele>265.4</ele>
        <time>2014-02-12T08:00:03Z</time>
      </trkpt>
      <trkpt lat="49.05419" lon="6.85775">
        <ele>266.1</ele>
        <time>2014-02-12T08:00:06Z</time>
      </trkpt>
      <trkpt lat="49.05417" lon="6.85769">
        <ele>265.9</ele>
        <time>2014-02-12T08:00:09Z</time>
      </trkpt>
      <trkpt lat="49.05416" lon="6.85763">
        <ele>265.3</ele>
        <time>2014-02-12T08:00:12Z</time>
      </trkpt>
      <trkpt lat="49.05414" lon="6.85758">
        <ele>265.2</ele>
        <time>2014-02-12T08:00:15Z</time>
      </trkpt>
      <trkpt lat="49.05411" lon="6.85747">
        <ele>265.1</ele>
        <time>2014-02-12T08:00:21Z</time>
      </trkpt>
      <trkpt lat="49.0541" lon="6.85742">
        <ele>264.7</ele>
        <time>2014-02-12T08:00:24Z</time>
      </trkpt>
      <trkpt lat="49.05408" lon="6.85736">
        <ele>264.8</ele>
        <time>2014-02-12T08:00:27Z</time>
      </trkpt>
      <trkpt lat="49.05406" lon="6.85731">
        <ele>265.2</ele>
        <time>2014-02-12T08:00:30Z</time>
      </trkpt>
      <trkpt lat="49.05404" lon="6.85725">
        <ele>265.5</ele>
        <time>2014-02-12T08:00:33Z</time>
      </trkpt>
      <trkpt lat="49.05402" lon="6.8572">
        <ele>265.8</ele>
        <time>2014-02-12T08:00:36Z</time>
      </trkpt>
      <trkpt lat="49.054" lon="6.85715">
        <ele>265.6</ele>
        <time>2014-02-12T08:00:39Z</time>
      </trkpt>
      <trkpt lat="49.05399" lon="6.85709">
        <ele>264.9</ele>
        <time>2014-02-12T08:00:42Z</time>
      </trkpt>
      <trkpt lat="49.05397" lon="6.85703">
        <ele>265</ele>
        <time>2014-02-12T08:00:45Z</time>
      </trkpt>
      <trkpt lat="49.05395" lon="6.85698">
        <ele>265.2</ele>
        <time>2014-02-12T08:00:48Z</time>
      </trkpt>
      <trkpt lat="49.05393" lon="6.85693">
        <ele>265</ele>
        <time>2014-02-12T08:00:51Z</time>
      </trkpt>
      <trkpt lat="49.05392" lon="6.85688">
        <ele>265.4</ele>
        <time>2014-02-12T08:00:54Z</time>
      </trkpt>
      <trkpt lat="49.0539" lon="6.85682">
        <ele>265.5</ele>
        <time>2014-02-12T08:00:57Z</time>
      </trkpt>
      <trkpt lat="49.05388" lon="6.85676">
        <ele>265.5</ele>
        <time>2014-02-12T08:01:00Z</time>
      </trkpt>
      <trkpt lat="49.05386" lon="6.85671">
        <ele>265.2</ele>
        <time>2014-02-12T08:01:03Z</time>
      </trkpt>
      <trkpt lat="49.05384" lon="6.85665">
        <ele>265.4</ele>
        <time>2014-02-12T08:01:06Z</time>
      </trkpt>
      <trkpt lat="49.05382" lon="6.8566">
        <ele>265.1</ele>
        <time>2014-02-12T08:01:09Z</time>
      </trkpt>
      <trkpt lat="49.0538" lon="6.85655">
        <ele>264.8</ele>
        <time>2014-02-12T08:01:12Z</time>
      </trkpt>
      <trkpt lat="49.05378" lon="6.85649">
        <ele>265</ele>
        <time>2014-02-12T08:01:15Z</time>
      </trkpt>
      <trkpt lat="49.05376" lon="6.85644">
        <ele>264.6</ele>
        <time>2014-02-12T08:01:18Z</time>
      </trkpt>
      <trkpt lat="49.05373" lon="6.85633">
        <ele>265.4</ele>
        <time>2014-02-12T08:01:24Z</time>
      </trkpt>
      <trkpt lat="49.05371" lon="6.85628">
        <ele>265.8</ele>
        <time>2014-02-12T08:01:27Z</time>
      </trkpt>
      <trkpt lat="49.05369" lon="6.85623">
        <ele>265</ele>
        <time>2014-02-12T08:01:30Z</time>
      </trkpt>
      <trkpt lat="49.05368" lon="6.85617">
        <ele>265.2</ele>
        <time>2014-02-12T08:01:33Z</time>
      </trkpt>
      <trkpt lat="49.05366" lon="6.85612">
        <ele>265.2</ele>
        <time>2014-02-12T08:01:36Z</time>
      </trkpt>
      <trkpt lat="49.05365" lon="6.85607">
        <ele>265.3</ele>
        <time>2014-02-12T08:01:39Z</time>
      </trkpt>
      <trkpt lat="49.05363" lon="6.85601">
        <ele>265.5</ele>
        <time>2014-02-12T08:01:42Z</time>
      </trkpt>
      <trkpt lat="49.05361" lon="6.85596">
        <ele>265.5</ele>
        <time>2014-02-12T08:01:45Z</time>
      </trkpt>
      <trkpt lat="49.05359" lon="6.85591">
        <ele>265.9</ele>
        <time>2014-02-12T08:01:48Z</time>
      </trkpt>
      <trkpt lat="49.05357" lon="6.85585">
        <ele>266.2</ele>
        <time>2014-02-12T08:01:51Z</time>
      </trkpt>
      <trkpt lat="49.05356" lon="6.8558">
        <ele>265.9</ele>
        <time>2014-02-12T08:01:54Z</time>
      </trkpt>
      <trkpt lat="49.05354" lon="6.85575">
        <ele>265.9</ele>
        <time>2014-02-12T08:01:57Z</time>
      </trkpt>
      <trkpt lat="49.05353" lon="6.8557">
        <ele>265.3</ele>
        <time>2014-02-12T08:02:00Z</time>
      </trkpt>
      <trkpt lat="49.05351" lon="6.85565">
        <ele>265.2</ele>
        <time>2014-02-12T08:02:03Z</time>
      </trkpt>
      <trkpt lat="49.0535" lon="6.85562">
        <ele>265.9</ele>
        <time>2014-02-12T08:02:06Z</time>
      </trkpt>
      <trkpt lat="49.05351" lon="6.85562">
        <ele>266.2</ele>
        <time>2014-02-12T08:02:09Z</time>
      </trkpt>
      <trkpt lat="49.0535" lon="6.8556">
        <ele>266.6</ele>
        <time>2014-02-12T08:02:12Z</time>
      </trkpt>
      <trkpt lat="49.05349" lon="6.85558">
        <ele>266.2</ele>
        <time>2014-02-12T08:02:15Z</time>
      </trkpt>
      <trkpt lat="49.05349" lon="6.85558">
        <ele>265.6</ele>
        <time>2014-02-12T08:02:18Z</time>
      </trkpt>
      <trkpt lat="49.05349" lon="6.85558">
        <ele>265.8</ele>
        <time>2014-02-12T08:02:21Z</time>
      </trkpt>
      <trkpt lat="49.05349" lon="6.85555">
        <ele>265.2</ele>
        <time>2014-02-12T08:02:27Z</time>
      </trkpt>
      <trkpt lat="49.05347" lon="6.85551">
        <ele>265.3</ele>
        <time>2014-02-12T08:02:30Z</time>
      </trkpt>
      <trkpt lat="49.05346" lon="6.85546">
        <ele>265.6</ele>
        <time>2014-02-12T08:02:33Z</time>
      </trkpt>
      <trkpt lat="49.05345" lon="6.85542">
        <ele>265.1</ele>
        <time>2014-02-12T08:02:36Z</time>
      </trkpt>
      <trkpt lat="49.05344" lon="6.85538">
        <ele>265.5</ele>
        <time>2014-02-12T08:02:39Z</time>
      </trkpt>
      <trkpt lat="49.05343" lon="6.85534">
        <ele>265.2</ele>
        <time>2014-02-12T08:02:42Z</time>
      </trkpt>
      <trkpt lat="49.05341" lon="6.8553">
        <ele>264.7</ele>
        <time>2014-02-12T08:02:45Z</time>
      </trkpt>
      <trkpt lat="49.0534" lon="6.85525">
        <ele>264.5</ele>
        <time>2014-02-12T08:02:48Z</time>
      </trkpt>
      <trkpt lat="49.05339" lon="6.85522">
        <ele>264.9</ele>
        <time>2014-02-12T08:02:51Z</time>
      </trkpt>
      <trkpt lat="49.05338" lon="6.85522">
        <ele>265.2</ele>
        <time>2014-02-12T08:02:54Z</time>
      </trkpt>
      <trkpt lat="49.05338" lon="6.85522">
        <ele>265.3</ele>
        <time>2014-02-12T08:02:57Z</time>
      </trkpt>
      <trkpt lat="49.05338" lon="6.85519">
        <ele>265.1</ele>
        <time>2014-02-12T08:03:00Z</time>
      </trkpt>
      <trkpt lat="49.05336" lon="6.85515">
        <ele>266.4</ele>
        <time>2014-02-12T08:03:03Z</time>
      </trkpt>
      <trkpt lat="49.05335" lon="6.8551">
        <ele>266.7</ele>
        <time>2014-02-12T08:03:06Z</time>
      </trkpt>
      <trkpt lat="49.05333" lon="6.85505">
        <ele>265.9</ele>
        <time>2014-02-12T08:03:09Z</time>
      </trkpt>
      <trkpt lat="49.05331" lon="6.85499">
        <ele>265</ele>
        <time>2014-02-12T08:03:12Z</time>
      </trkpt>
      <trkpt lat="49.0533" lon="6.85494">
        <ele>264.7</ele>
        <time>2014-02-12T08:03:15Z</time>
      </trkpt>
      <trkpt lat="49.05329" lon="6.85492">
        <ele>264.6</ele>
        <time>2014-02-12T08:03:18Z</time>
      </trkpt>
      <trkpt lat="49.05327" lon="6.85487">
        <ele>264.3</ele>
        <time>2014-02-12T08:03:21Z</time>
      </trkpt>
      <trkpt lat="49.05326" lon="6.85481">
        <ele>265.2</ele>
        <time>2014-02-12T08:03:24Z</time>
      </trkpt>
      <trkpt lat="49.05322" lon="6.85471">
        <ele>265.2</ele>
        <time>2014-02-12T08:03:30Z</time>
      </trkpt>
      <trkpt lat="49.0532" lon="6.85465">
        <ele>265.2</ele>
        <time>2014-02-12T08:03:33Z</time>
      </trkpt>
      <trkpt lat="49.05319" lon="6.85459">
        <ele>265</ele>
        <time>2014-02-12T08:03:36Z</time>
      </trkpt>
      <trkpt lat="49.05317" lon="6.85454">
        <ele>265.3</ele>
        <time>2014-02-12T08:03:39Z</time>
      </trkpt>
      <trkpt lat="49.05315" lon="6.85449">
        <ele>265.1</ele>
        <time>2014-02-12T08:03:42Z</time>
      </trkpt>
      <trkpt lat="49.05313" lon="6.85444">
        <ele>263.8</ele>
        <time>2014-02-12T08:03:45Z</time>
      </trkpt>
      <trkpt lat="49.05312" lon="6.85438">
        <ele>263.8</ele>
        <time>2014-02-12T08:03:48Z</time>
      </trkpt>
      <trkpt lat="49.0531" lon="6.85433">
        <ele>264.5</ele>
        <time>2014-02-12T08:03:51Z</time>
      </trkpt>
      <trkpt lat="49.05308" lon="6.85428">
        <ele>264.5</ele>
        <time>2014-02-12T08:03:54Z</time>
      </trkpt>
      <trkpt lat="49.05306" lon="6.85422">
        <ele>265</ele>
        <time>2014-02-12T08:03:57Z</time>
      </trkpt>
      <trkpt lat="49.05304" lon="6.85417">
        <ele>264.4</ele>
        <time>2014-02-12T08:04:00Z</time>
      </trkpt>
      <trkpt lat="49.05302" lon="6.85411">
        <ele>265.2</ele>
        <time>2014-02-12T08:04:03Z</time>
      </trkpt>
      <trkpt lat="49.05301" lon="6.85406">
        <ele>265.2</ele>
        <time>2014-02-12T08:04:06Z</time>
      </trkpt>
      <trkpt lat="49.05299" lon="6.854">
        <ele>264.9</ele>
        <time>2014-02-12T08:04:09Z</time>
      </trkpt>
      <trkpt lat="49.05297" lon="6.85395">
        <ele>264.7</ele>
        <time>2014-02-12T08:04:12Z</time>
      </trkpt>
      <trkpt lat="49.05295" lon="6.85389">
        <ele>264.7</ele>
        <time>2014-02-12T08:04:15Z</time>
      </trkpt>
      <trkpt lat="49.05293" lon="6.85383">
        <ele>264.9</ele>
        <time>2014-02-12T08:04:18Z</time>
      </trkpt>
      <trkpt lat="49.05291" lon="6.85377">
        <ele>264.8</ele>
        <time>2014-02-12T08:04:21Z</time>
      </trkpt>
      <trkpt lat="49.05289" lon="6.85371">
        <ele>264.3</ele>
        <time>2014-02-12T08:04:24Z</time>
      </trkpt>
      <trkpt lat="49.05287" lon="6.85366">
        <ele>264.1</ele>
        <time>2014-02-12T08:04:27Z</time>
      </trkpt>
      <trkpt lat="49.05283" lon="6.85354">
        <ele>265.1</ele>
        <time>2014-02-12T08:04:33Z</time>
      </trkpt>
      <trkpt lat="49.05281" lon="6.85348">
        <ele>265.2</ele>
        <time>2014-02-12T08:04:36Z</time>
      </trkpt>
      <trkpt lat="49.0528" lon="6.85343">
        <ele>265.1</ele>
        <time>2014-02-12T08:04:39Z</time>
      </trkpt>
      <trkpt lat="49.05278" lon="6.85338">
        <ele>265</ele>
        <time>2014-02-12T08:04:42Z</time>
      </trkpt>
      <trkpt lat="49.05276" lon="6.85332">
        <ele>265.9</ele>
        <time>2014-02-12T08:04:45Z</time>
      </trkpt>
      <trkpt lat="49.05275" lon="6.85327">
        <ele>266</ele>
        <time>2014-02-12T08:04:48Z</time>
      </trkpt>
      <trkpt lat="49.05273" lon="6.85323">
        <ele>266</ele>
        <time>2014-02-12T08:04:51Z</time>
      </trkpt>
      <trkpt lat="49.05272" lon="6.85319">
        <ele>265</ele>
        <time>2014-02-12T08:04:54Z</time>
      </trkpt>
      <trkpt lat="49.0527" lon="6.85313">
        <ele>265</ele>
        <time>2014-02-12T08:04:57Z</time>
      </trkpt>
      <trkpt lat="49.05268" lon="6.85308">
        <ele>265.2</ele>
        <time>2014-02-12T08:05:00Z</time>
      </trkpt>
      <trkpt lat="49.05267" lon="6.85302">
        <ele>265.2</ele>
        <time>2014-02-12T08:05:03Z</time>
      </trkpt>
      <trkpt lat="49.05265" lon="6.85297">
        <ele>264.9</ele>
        <time>2014-02-12T08:05:06Z</time>
      </trkpt>
      <trkpt lat="49.05264" lon="6.85291">
        <ele>265.1</ele>
        <time>2014-02-12T08:05:09Z</time>
      </trkpt>
      <trkpt lat="49.05262" lon="6.85286">
        <ele>265.1</ele>
        <time>2014-02-12T08:05:12Z</time>
      </trkpt>
      <trkpt lat="49.0526" lon="6.8528">
        <ele>265</ele>
        <time>2014-02-12T08:05:15Z</time>
      </trkpt>
      <trkpt lat="49.05258" lon="6.85275">
        <ele>264.8</ele>
        <time>2014-02-12T08:05:18Z</time>
      </trkpt>
      <trkpt lat="49.05256" lon="6.85269">
        <ele>264.6</ele>
        <time>2014-02-12T08:05:21Z</time>
      </trkpt>
      <trkpt lat="49.05254" lon="6.85264">
        <ele>264.9</ele>
        <time>2014-02-12T08:05:24Z</time>
      </trkpt>
      <trkpt lat="49.05254" lon="6.85261">
        <ele>266.2</ele>
        <time>2014-02-12T08:05:27Z</time>
      </trkpt>
      <trkpt lat="49.05253" lon="6.85258">
        <ele>266.8</ele>
        <time>2014-02-12T08:05:30Z</time>
      </trkpt>
      <trkpt lat="49.0525" lon="6.85249">
        <ele>266.6</ele>
        <time>2014-02-12T08:05:36Z</time>
      </trkpt>
      <trkpt lat="49.05248" lon="6.85244">
        <ele>266.7</ele>
        <time>2014-02-12T08:05:39Z</time>
      </trkpt>
      <trkpt lat="49.05246" lon="6.85238">
        <ele>266.9</ele>
        <time>2014-02-12T08:05:42Z</time>
      </trkpt>
      <trkpt lat="49.05244" lon="6.85233">
        <ele>266.2</ele>
        <time>2014-02-12T08:05:45Z</time>
      </trkpt>
      <trkpt lat="49.05242" lon="6.85228">
        <ele>265.8</ele>
        <time>2014-02-12T08:05:48Z</time>
      </trkpt>
      <trkpt lat="49.0524" lon="6.85223">
        <ele>265.8</ele>
        <time>2014-02-12T08:05:51Z</time>
      </trkpt>
      <trkpt lat="49.05238" lon="6.85218">
        <ele>265.2</ele>
        <time>2014-02-12T08:05:54Z</time>
      </trkpt>
      <trkpt lat="49.05236" lon="6.85212">
        <ele>265.5</ele>
        <time>2014-02-12T08:05:57Z</time>
      </trkpt>
      <trkpt lat="49.05235" lon="6.85207">
        <ele>265.8</ele>
        <time>2014-02-12T08:06:00Z</time>
      </trkpt>
      <trkpt lat="49.05233" lon="6.85202">
        <ele>265.5</ele>
        <time>2014-02-12T08:06:03Z</time>
      </trkpt>
      <trkpt lat="49.05231" lon="6.85197">
        <ele>265.8</ele>
        <time>2014-02-12T08:06:06Z</time>
      </trkpt>
      <trkpt lat="49.05229" lon="6.85191">
        <ele>265.8</ele>
        <time>2014-02-12T08:06:09Z</time>
      </trkpt>
      <trkpt lat="49.05227" lon="6.85186">
        <ele>265.8</ele>
        <time>2014-02-12T08:06:12Z</time>
      </trkpt>
      <trkpt lat="49.05225" lon="6.85181">
        <ele>265.6</ele>
        <time>2014-02-12T08:06:15Z</time>
      </trkpt>
      <trkpt lat="49.05223" lon="6.85175">
        <ele>266.1</ele>
        <time>2014-02-12T08:06:18Z</time>
      </trkpt>
      <trkpt lat="49.05221" lon="6.8517">
        <ele>266.2</ele>
        <time>2014-02-12T08:06:21Z</time>
      </trkpt>
      <trkpt lat="49.05219" lon="6.85165">
        <ele>265.9</ele>
        <time>2014-02-12T08:06:24Z</time>
      </trkpt>
      <trkpt lat="49.05217" lon="6.8516">
        <ele>266.4</ele>
        <time>2014-02-12T08:06:27Z</time>
      </trkpt>
      <trkpt lat="49.05216" lon="6.85155">
        <ele>266.8</ele>
        <time>2014-02-12T08:06:30Z</time>
      </trkpt>
      <trkpt lat="49.05214" lon="6.8515">
        <ele>266.4</ele>
        <time>2014-02-12T08:06:33Z</time>
      </trkpt>
      <trkpt lat="49.05209" lon="6.8514">
        <ele>267</ele>
        <time>2014-02-12T08:06:39Z</time>
      </trkpt>
      <trkpt lat="49.05208" lon="6.85134">
        <ele>267.1</ele>
        <time>2014-02-12T08:06:42Z</time>
      </trkpt>
      <trkpt lat="49.05205" lon="6.85129">
        <ele>266.8</ele>
        <time>2014-02-12T08:06:45Z</time>
      </trkpt>
      <trkpt lat="49.05204" lon="6.85124">
        <ele>266.4</ele>
        <time>2014-02-12T08:06:48Z</time>
      </trkpt>
      <trkpt lat="49.05202" lon="6.85119">
        <ele>266.4</ele>
        <time>2014-02-12T08:06:51Z</time>
      </trkpt>
      <trkpt lat="49.05199" lon="6.85114">
        <ele>266.5</ele>
        <time>2014-02-12T08:06:54Z</time>
      </trkpt>
      <trkpt lat="49.05197" lon="6.85109">
        <ele>266.7</ele>
        <time>2014-02-12T08:06:57Z</time>
      </trkpt>
      <trkpt lat="49.05195" lon="6.85104">
        <ele>267</ele>
        <time>2014-02-12T08:07:00Z</time>
      </trkpt>
      <trkpt lat="49.05193" lon="6.85099">
        <ele>266.6</ele>
        <time>2014-02-12T08:07:03Z</time>
      </trkpt>
      <trkpt lat="49.05191" lon="6.85094">
        <ele>266.7</ele>
        <time>2014-02-12T08:07:06Z</time>
      </trkpt>
      <trkpt lat="49.05189" lon="6.85089">
        <ele>266.4</ele>
        <time>2014-02-12T08:07:09Z</time>
      </trkpt>
      <trkpt lat="49.05187" lon="6.85084">
        <ele>266.9</ele>
        <time>2014-02-12T08:07:12Z</time>
      </trkpt>
      <trkpt lat="49.05185" lon="6.85079">
        <ele>266.5</ele>
        <time>2014-02-12T08:07:15Z</time>
      </trkpt>
      <trkpt lat="49.05182" lon="6.85073">
        <ele>267.1</ele>
        <time>2014-02-12T08:07:18Z</time>
      </trkpt>
      <trkpt lat="49.0518" lon="6.85068">
        <ele>267.2</ele>
        <time>2014-02-12T08:07:21Z</time>
      </trkpt>
      <trkpt lat="49.05178" lon="6.85063">
        <ele>266.8</ele>
        <time>2014-02-12T08:07:24Z</time>
      </trkpt>
      <trkpt lat="49.05175" lon="6.85058">
        <ele>266.9</ele>
        <time>2014-02-12T08:07:27Z</time>
      </trkpt>
      <trkpt lat="49.05173" lon="6.85054">
        <ele>266.8</ele>
        <time>2014-02-12T08:07:30Z</time>
      </trkpt>
      <trkpt lat="49.05171" lon="6.85049">
        <ele>266.2</ele>
        <time>2014-02-12T08:07:33Z</time>
      </trkpt>
      <trkpt lat="49.05169" lon="6.85044">
        <ele>266.6</ele>
        <time>2014-02-12T08:07:36Z</time>
      </trkpt>
      <trkpt lat="49.05165" lon="6.85034">
        <ele>267.5</ele>
        <time>2014-02-12T08:07:42Z</time>
      </trkpt>
      <trkpt lat="49.05162" lon="6.85029">
        <ele>267.6</ele>
        <time>2014-02-12T08:07:45Z</time>
      </trkpt>
      <trkpt lat="49.0516" lon="6.85024">
        <ele>267.5</ele>
        <time>2014-02-12T08:07:48Z</time>
      </trkpt>
      <trkpt lat="49.05158" lon="6.85019">
        <ele>266.6</ele>
        <time>2014-02-12T08:07:51Z</time>
      </trkpt>
      <trkpt lat="49.05156" lon="6.85014">
        <ele>267.3</ele>
        <time>2014-02-12T08:07:54Z</time>
      </trkpt>
      <trkpt lat="49.05154" lon="6.8501">
        <ele>266.8</ele>
        <time>2014-02-12T08:07:57Z</time>
      </trkpt>
      <trkpt lat="49.05152" lon="6.85005">
        <ele>265.9</ele>
        <time>2014-02-12T08:08:00Z</time>
      </trkpt>
      <trkpt lat="49.05151" lon="6.85001">
        <ele>266.5</ele>
        <time>2014-02-12T08:08:03Z</time>
      </trkpt>
      <trkpt lat="49.05148" lon="6.84996">
        <ele>266.8</ele>
        <time>2014-02-12T08:08:06Z</time>
      </trkpt>
      <trkpt lat="49.05146" lon="6.84991">
        <ele>267.1</ele>
        <time>2014-02-12T08:08:09Z</time>
      </trkpt>
      <trkpt lat="49.05144" lon="6.84986">
        <ele>267.1</ele>
        <time>2014-02-12T08:08:12Z</time>
      </trkpt>
      <trkpt lat="49.05142" lon="6.84981">
        <ele>267.8</ele>
        <time>2014-02-12T08:08:15Z</time>
      </trkpt>
      <trkpt lat="49.0514" lon="6.84976">
        <ele>267.8</ele>
        <time>2014-02-12T08:08:18Z</time>
      </trkpt>
      <trkpt lat="49.05138" lon="6.84972">
        <ele>268.1</ele>
        <time>2014-02-12T08:08:21Z</time>
      </trkpt>
      <trkpt lat="49.05135" lon="6.84967">
        <ele>268.5</ele>
        <time>2014-02-12T08:08:24Z</time>
      </trkpt>
      <trkpt lat="49.05133" lon="6.84961">
        <ele>268.4</ele>
        <time>2014-02-12T08:08:27Z</time>
      </trkpt>
      <trkpt lat="49.05131" lon="6.84956">
        <ele>268.3</ele>
        <time>2014-02-12T08:08:30Z</time>
      </trkpt>
      <trkpt lat="49.05129" lon="6.84951">
        <ele>268.5</ele>
        <time>2014-02-12T08:08:33Z</time>
      </trkpt>
      <trkpt lat="49.05126" lon="6.84946">
        <ele>268.3</ele>
        <time>2014-02-12T08:08:36Z</time>
      </trkpt>
      <trkpt lat="49.05124" lon="6.8494">
        <ele>267.8</ele>
        <time>2014-02-12T08:08:39Z</time>
      </trkpt>
      <trkpt lat="49.0512" lon="6.8493">
        <ele>267.3</ele>
        <time>2014-02-12T08:08:45Z</time>
      </trkpt>
      <trkpt lat="49.05117" lon="6.84925">
        <ele>268</ele>
        <time>2014-02-12T08:08:48Z</time>
      </trkpt>
      <trkpt lat="49.05115" lon="6.8492">
        <ele>268</ele>
        <time>2014-02-12T08:08:51Z</time>
      </trkpt>
      <trkpt lat="49.05113" lon="6.84916">
        <ele>268.4</ele>
        <time>2014-02-12T08:08:54Z</time>
      </trkpt>
      <trkpt lat="49.05111" lon="6.84911">
        <ele>268.7</ele>
        <time>2014-02-12T08:08:57Z</time>
      </trkpt>
      <trkpt lat="49.05109" lon="6.84908">
        <ele>268.6</ele>
        <time>2014-02-12T08:09:00Z</time>
      </trkpt>
      <trkpt lat="49.05106" lon="6.84906">
        <ele>268.8</ele>
        <time>2014-02-12T08:09:03Z</time>
      </trkpt>
      <trkpt lat="49.05102" lon="6.84906">
        <ele>268.8</ele>
        <time>2014-02-12T08:09:06Z</time>
      </trkpt>
      <trkpt lat="49.05099" lon="6.84909">
        <ele>269.2</ele>
        <time>2014-02-12T08:09:09Z</time>
      </trkpt>
      <trkpt lat="49.05095" lon="6.84911">
        <ele>269</ele>
        <time>2014-02-12T08:09:12Z</time>
      </trkpt>
      <trkpt lat="49.05091" lon="6.84913">
        <ele>269.1</ele>
        <time>2014-02-12T08:09:15Z</time>
      </trkpt>
      <trkpt lat="49.05087" lon="6.84916">
        <ele>269.8</ele>
        <time>2014-02-12T08:09:18Z</time>
      </trkpt>
      <trkpt lat="49.05083" lon="6.84919">
        <ele>270</ele>
        <time>2014-02-12T08:09:21Z</time>
      </trkpt>
      <trkpt lat="49.0508" lon="6.84921">
        <ele>269.4</ele>
        <time>2014-02-12T08:09:24Z</time>
      </trkpt>
      <trkpt lat="49.05076" lon="6.84924">
        <ele>269.5</ele>
        <time>2014-02-12T08:09:27Z</time>
      </trkpt>
      <trkpt lat="49.05073" lon="6.84927">
        <ele>269.2</ele>
        <time>2014-02-12T08:09:30Z</time>
      </trkpt>
      <trkpt lat="49.05069" lon="6.84929">
        <ele>269.9</ele>
        <time>2014-02-12T08:09:33Z</time>
      </trkpt>
      <trkpt lat="49.05065" lon="6.84931">
        <ele>270.6</ele>
        <time>2014-02-12T08:09:36Z</time>
      </trkpt>
      <trkpt lat="49.05061" lon="6.84934">
        <ele>270.5</ele>
        <time>2014-02-12T08:09:39Z</time>
      </trkpt>
      <trkpt lat="49.05058" lon="6.84936">
        <ele>270.2</ele>
        <time>2014-02-12T08:09:42Z</time>
      </trkpt>
      <trkpt lat="49.05053" lon="6.84939">
        <ele>270.5</ele>
        <time>2014-02-12T08:09:48Z</time>
      </trkpt>
      <trkpt lat="49.05051" lon="6.8494">
        <ele>270.9</ele>
        <time>2014-02-12T08:09:51Z</time>
      </trkpt>
      <trkpt lat="49.05048" lon="6.84942">
        <ele>271</ele>
        <time>2014-02-12T08:09:54Z</time>
      </trkpt>
      <trkpt lat="49.05046" lon="6.84944">
        <ele>270.4</ele>
        <time>2014-02-12T08:09:57Z</time>
      </trkpt>
      <trkpt lat="49.05044" lon="6.84946">
        <ele>270.9</ele>
        <time>2014-02-12T08:10:00Z</time>
      </trkpt>
      <trkpt lat="49.05041" lon="6.84949">
        <ele>270.9</ele>
        <time>2014-02-12T08:10:03Z</time>
      </trkpt>
      <trkpt lat="49.05038" lon="6.84951">
        <ele>271.2</ele>
        <time>2014-02-12T08:10:06Z</time>
      </trkpt>
      <trkpt lat="49.05034" lon="6.84953">
        <ele>271.6</ele>
        <time>2014-02-12T08:10:09Z</time>
      </trkpt>
      <trkpt lat="49.05031" lon="6.84955">
        <ele>271.6</ele>
        <time>2014-02-12T08:10:12Z</time>
      </trkpt>
      <trkpt lat="49.05028" lon="6.84958">
        <ele>272.1</ele>
        <time>2014-02-12T08:10:15Z</time>
      </trkpt>
      <trkpt lat="49.05024" lon="6.8496">
        <ele>271.8</ele>
        <time>2014-02-12T08:10:18Z</time>
      </trkpt>
      <trkpt lat="49.05021" lon="6.84962">
        <ele>272.5</ele>
        <time>2014-02-12T08:10:21Z</time>
      </trkpt>
      <trkpt lat="49.05017" lon="6.84965">
        <ele>272.6</ele>
        <time>2014-02-12T08:10:24Z</time>
      </trkpt>
      <trkpt lat="49.05014" lon="6.84968">
        <ele>272.5</ele>
        <time>2014-02-12T08:10:27Z</time>
      </trkpt>
      <trkpt lat="49.05011" lon="6.8497">
        <ele>272.9</ele>
        <time>2014-02-12T08:10:30Z</time>
      </trkpt>
      <trkpt lat="49.05007" lon="6.84972">
        <ele>272.8</ele>
        <time>2014-02-12T08:10:33Z</time>
      </trkpt>
      <trkpt lat="49.05003" lon="6.84974">
        <ele>273.1</ele>
        <time>2014-02-12T08:10:36Z</time>
      </trkpt>
      <trkpt lat="49.04999" lon="6.84976">
        <ele>272.2</ele>
        <time>2014-02-12T08:10:39Z</time>
      </trkpt>
      <trkpt lat="49.04995" lon="6.84977">
        <ele>271.9</ele>
        <time>2014-02-12T08:10:42Z</time>
      </trkpt>
      <trkpt lat="49.04991" lon="6.84979">
        <ele>272.6</ele>
        <time>2014-02-12T08:10:45Z</time>
      </trkpt>
      <trkpt lat="49.04984" lon="6.84981">
        <ele>272.4</ele>
        <time>2014-02-12T08:10:51Z</time>
      </trkpt>
      <trkpt lat="49.0498" lon="6.84982">
        <ele>271.9</ele>
        <time>2014-02-12T08:10:54Z</time>
      </trkpt>
      <trkpt lat="49.04976" lon="6.84984">
        <ele>272</ele>
        <time>2014-02-12T08:10:57Z</time>
      </trkpt>
      <trkpt lat="49.04972" lon="6.84985">
        <ele>271.4</ele>
        <time>2014-02-12T08:11:00Z</time>
      </trkpt>
      <trkpt lat="49.04968" lon="6.84986">
        <ele>270.8</ele>
        <time>2014-02-12T08:11:03Z</time>
      </trkpt>
      <trkpt lat="49.04965" lon="6.84987">
        <ele>270.7</ele>
        <time>2014-02-12T08:11:06Z</time>
      </trkpt>
      <trkpt lat="49.04961" lon="6.84988">
        <ele>270</ele>
        <time>2014-02-12T08:11:09Z</time>
      </trkpt>
      <trkpt lat="49.04957" lon="6.84988">
        <ele>269.7</ele>
        <time>2014-02-12T08:11:12Z</time>
      </trkpt>
      <trkpt lat="49.04954" lon="6.84989">
        <ele>268.7</ele>
        <time>2014-02-12T08:11:15Z</time>
      </trkpt>
      <trkpt lat="49.0495" lon="6.8499">
        <ele>268.5</ele>
        <time>2014-02-12T08:11:18Z</time>
      </trkpt>
      <trkpt lat="49.04946" lon="6.84991">
        <ele>268.3</ele>
        <time>2014-02-12T08:11:21Z</time>
      </trkpt>
      <trkpt lat="49.04943" lon="6.84993">
        <ele>267.4</ele>
        <time>2014-02-12T08:11:24Z</time>
      </trkpt>
      <trkpt lat="49.0494" lon="6.84993">
        <ele>266.8</ele>
        <time>2014-02-12T08:11:27Z</time>
      </trkpt>
      <trkpt lat="49.04936" lon="6.84994">
        <ele>267</ele>
        <time>2014-02-12T08:11:30Z</time>
      </trkpt>
      <trkpt lat="49.04931" lon="6.84994">
        <ele>266.2</ele>
        <time>2014-02-12T08:11:33Z</time>
      </trkpt>
      <trkpt lat="49.04927" lon="6.84995">
        <ele>266</ele>
        <time>2014-02-12T08:11:36Z</time>
      </trkpt>
      <trkpt lat="49.04923" lon="6.84995">
        <ele>265.1</ele>
        <time>2014-02-12T08:11:39Z</time>
      </trkpt>
      <trkpt lat="49.04919" lon="6.84995">
        <ele>264.5</ele>
        <time>2014-02-12T08:11:42Z</time>
      </trkpt>
      <trkpt lat="49.04914" lon="6.84996">
        <ele>263.9</ele>
        <time>2014-02-12T08:11:45Z</time>
      </trkpt>
      <trkpt lat="49.0491" lon="6.84997">
        <ele>263.4</ele>
        <time>2014-02-12T08:11:48Z</time>
      </trkpt>
      <trkpt lat="49.04903" lon="6.84998">
        <ele>262.2</ele>
        <time>2014-02-12T08:11:54Z</time>
      </trkpt>
      <trkpt lat="49.04898" lon="6.84999">
        <ele>261.9</ele>
        <time>2014-02-12T08:11:57Z</time>
      </trkpt>
      <trkpt lat="49.04894" lon="6.85">
        <ele>261.8</ele>
        <time>2014-02-12T08:12:00Z</time>
      </trkpt>
      <trkpt lat="49.04891" lon="6.85002">
        <ele>261.9</ele>
        <time>2014-02-12T08:12:03Z</time>
      </trkpt>
      <trkpt lat="49.04887" lon="6.85003">
        <ele>260.7</ele>
        <time>2014-02-12T08:12:06Z</time>
      </trkpt>
      <trkpt lat="49.04883" lon="6.85003">
        <ele>260.7</ele>
        <time>2014-02-12T08:12:09Z</time>
      </trkpt>
      <trkpt lat="49.04879" lon="6.85005">
        <ele>260.8</ele>
        <time>2014-02-12T08:12:12Z</time>
      </trkpt>
      <trkpt lat="49.04875" lon="6.85006">
        <ele>260.9</ele>
        <time>2014-02-12T08:12:15Z</time>
      </trkpt>
      <trkpt lat="49.04871" lon="6.85007">
        <ele>259.8</ele>
        <time>2014-02-12T08:12:18Z</time>
      </trkpt>
      <trkpt lat="49.04867" lon="6.85008">
        <ele>259.1</ele>
        <time>2014-02-12T08:12:21Z</time>
      </trkpt>
      <trkpt lat="49.04863" lon="6.85009">
        <ele>259.4</ele>
        <time>2014-02-12T08:12:24Z</time>
      </trkpt>
      <trkpt lat="49.04859" lon="6.8501">
        <ele>259</ele>
        <time>2014-02-12T08:12:27Z</time>
      </trkpt>
      <trkpt lat="49.04856" lon="6.85011">
        <ele>257.9</ele>
        <time>2014-02-12T08:12:30Z</time>
      </trkpt>
      <trkpt lat="49.04852" lon="6.85012">
        <ele>257.4</ele>
        <time>2014-02-12T08:12:33Z</time>
      </trkpt>
      <trkpt lat="49.04848" lon="6.85013">
        <ele>257.6</ele>
        <time>2014-02-12T08:12:36Z</time>
      </trkpt>
      <trkpt lat="49.04844" lon="6.85014">
        <ele>257.3</ele>
        <time>2014-02-12T08:12:39Z</time>
      </trkpt>
      <trkpt lat="49.0484" lon="6.85014">
        <ele>257.1</ele>
        <time>2014-02-12T08:12:42Z</time>
      </trkpt>
      <trkpt lat="49.04836" lon="6.85015">
        <ele>257</ele>
        <time>2014-02-12T08:12:45Z</time>
      </trkpt>
      <trkpt lat="49.04832" lon="6.85015">
        <ele>257.5</ele>
        <time>2014-02-12T08:12:48Z</time>
      </trkpt>
      <trkpt lat="49.04828" lon="6.85016">
        <ele>257.4</ele>
        <time>2014-02-12T08:12:51Z</time>
      </trkpt>
      <trkpt lat="49.04821" lon="6.85018">
        <ele>257.5</ele>
        <time>2014-02-12T08:12:57Z</time>
      </trkpt>
      <trkpt lat="49.04817" lon="6.85019">
        <ele>257.6</ele>
        <time>2014-02-12T08:13:00Z</time>
      </trkpt>
      <trkpt lat="49.04812" lon="6.8502">
        <ele>255.9</ele>
        <time>2014-02-12T08:13:03Z</time>
      </trkpt>
      <trkpt lat="49.04809" lon="6.85021">
        <ele>256</ele>
        <time>2014-02-12T08:13:06Z</time>
      </trkpt>
      <trkpt lat="49.04805" lon="6.85022">
        <ele>255.6</ele>
        <time>2014-02-12T08:13:09Z</time>
      </trkpt>
      <trkpt lat="49.04801" lon="6.85022">
        <ele>255.4</ele>
        <time>2014-02-12T08:13:12Z</time>
      </trkpt>
      <trkpt lat="49.04797" lon="6.85023">
        <ele>255.6</ele>
        <time>2014-02-12T08:13:15Z</time>
      </trkpt>
      <trkpt lat="49.04793" lon="6.85023">
        <ele>254.9</ele>
        <time>2014-02-12T08:13:18Z</time>
      </trkpt>
      <trkpt lat="49.0479" lon="6.85024">
        <ele>254.9</ele>
        <time>2014-02-12T08:13:21Z</time>
      </trkpt>
      <trkpt lat="49.04788" lon="6.85022">
        <ele>255</ele>
        <time>2014-02-12T08:13:24Z</time>
      </trkpt>
      <trkpt lat="49.04785" lon="6.8502">
        <ele>254.7</ele>
        <time>2014-02-12T08:13:27Z</time>
      </trkpt>
      <trkpt lat="49.04782" lon="6.85019">
        <ele>254.9</ele>
        <time>2014-02-12T08:13:30Z</time>
      </trkpt>
      <trkpt lat="49.04779" lon="6.85019">
        <ele>254.4</ele>
        <time>2014-02-12T08:13:33Z</time>
      </trkpt>
      <trkpt lat="49.04775" lon="6.85019">
        <ele>254.9</ele>
        <time>2014-02-12T08:13:36Z</time>
      </trkpt>
      <trkpt lat="49.04772" lon="6.85019">
        <ele>254.7</ele>
        <time>2014-02-12T08:13:39Z</time>
      </trkpt>
      <trkpt lat="49.04768" lon="6.85019">
        <ele>254.8</ele>
        <time>2014-02-12T08:13:42Z</time>
      </trkpt>
      <trkpt lat="49.04764" lon="6.85019">
        <ele>253.9</ele>
        <time>2014-02-12T08:13:45Z</time>
      </trkpt>
      <trkpt lat="49.04761" lon="6.8502">
        <ele>254</ele>
        <time>2014-02-12T08:13:48Z</time>
      </trkpt>
      <trkpt lat="49.04757" lon="6.85021">
        <ele>253.9</ele>
        <time>2014-02-12T08:13:51Z</time>
      </trkpt>
      <trkpt lat="49.04753" lon="6.85022">
        <ele>253.7</ele>
        <time>2014-02-12T08:13:54Z</time>
      </trkpt>
      <trkpt lat="49.04746" lon="6.85021">
        <ele>253.7</ele>
        <time>2014-02-12T08:14:00Z</time>
      </trkpt>
      <trkpt lat="49.04742" lon="6.85021">
        <ele>253.9</ele>
        <time>2014-02-12T08:14:03Z</time>
      </trkpt>
      <trkpt lat="49.04739" lon="6.85022">
        <ele>253.9</ele>
        <time>2014-02-12T08:14:06Z</time>
      </trkpt>
      <trkpt lat="49.04735" lon="6.85024">
        <ele>253.9</ele>
        <time>2014-02-12T08:14:09Z</time>
      </trkpt>
      <trkpt lat="49.04731" lon="6.85025">
        <ele>253.7</ele>
        <time>2014-02-12T08:14:12Z</time>
      </trkpt>
      <trkpt lat="49.04728" lon="6.85025">
        <ele>253.8</ele>
        <time>2014-02-12T08:14:15Z</time>
      </trkpt>
      <trkpt lat="49.04724" lon="6.85026">
        <ele>253.4</ele>
        <time>2014-02-12T08:14:18Z</time>
      </trkpt>
      <trkpt lat="49.0472" lon="6.85027">
        <ele>253.7</ele>
        <time>2014-02-12T08:14:21Z</time>
      </trkpt>
      <trkpt lat="49.04717" lon="6.85028">
        <ele>253.1</ele>
        <time>2014-02-12T08:14:24Z</time>
      </trkpt>
      <trkpt lat="49.04713" lon="6.85029">
        <ele>254.3</ele>
        <time>2014-02-12T08:14:27Z</time>
      </trkpt>
      <trkpt lat="49.0471" lon="6.85029">
        <ele>253.6</ele>
        <time>2014-02-12T08:14:30Z</time>
      </trkpt>
      <trkpt lat="49.04706" lon="6.8503">
        <ele>252.8</ele>
        <time>2014-02-12T08:14:33Z</time>
      </trkpt>
      <trkpt lat="49.04703" lon="6.8503">
        <ele>253.5</ele>
        <time>2014-02-12T08:14:36Z</time>
      </trkpt>
      <trkpt lat="49.04699" lon="6.85031">
        <ele>254</ele>
        <time>2014-02-12T08:14:39Z</time>
      </trkpt>
      <trkpt lat="49.04695" lon="6.85032">
        <ele>253.8</ele>
        <time>2014-02-12T08:14:42Z</time>
      </trkpt>
      <trkpt lat="49.04692" lon="6.85033">
        <ele>253.9</ele>
        <time>2014-02-12T08:14:45Z</time>
      </trkpt>
      <trkpt lat="49.04688" lon="6.85034">
        <ele>253.5</ele>
        <time>2014-02-12T08:14:48Z</time>
      </trkpt>
      <trkpt lat="49.04684" lon="6.85035">
        <ele>253.3</ele>
        <time>2014-02-12T08:14:51Z</time>
      </trkpt>
      <trkpt lat="49.0468" lon="6.85036">
        <ele>252.1</ele>
        <time>2014-02-12T08:14:54Z</time>
      </trkpt>
      <trkpt lat="49.04676" lon="6.85037">
        <ele>251.8</ele>
        <time>2014-02-12T08:14:57Z</time>
      </trkpt>
      <trkpt lat="49.04669" lon="6.85039">
        <ele>251.9</ele>
        <time>2014-02-12T08:15:03Z</time>
      </trkpt>
      <trkpt lat="49.04665" lon="6.8504">
        <ele>252.2</ele>
        <time>2014-02-12T08:15:06Z</time>
      </trkpt>
      <trkpt lat="49.04662" lon="6.85041">
        <ele>251.7</ele>
        <time>2014-02-12T08:15:09Z</time>
      </trkpt>
      <trkpt lat="49.04658" lon="6.85042">
        <ele>250.9</ele>
        <time>2014-02-12T08:15:12Z</time>
      </trkpt>
      <trkpt lat="49.04655" lon="6.85041">
        <ele>250.9</ele>
        <time>2014-02-12T08:15:15Z</time>
      </trkpt>
      <trkpt lat="49.04654" lon="6.8504">
        <ele>251.2</ele>
        <time>2014-02-12T08:15:18Z</time>
      </trkpt>
      <trkpt lat="49.04654" lon="6.85041">
        <ele>251.7</ele>
        <time>2014-02-12T08:15:21Z</time>
      </trkpt>
      <trkpt lat="49.04654" lon="6.85041">
        <ele>251</ele>
        <time>2014-02-12T08:15:24Z</time>
      </trkpt>
      <trkpt lat="49.04653" lon="6.85042">
        <ele>250.8</ele>
        <time>2014-02-12T08:15:27Z</time>
      </trkpt>
      <trkpt lat="49.0465" lon="6.85042">
        <ele>250.5</ele>
        <time>2014-02-12T08:15:30Z</time>
      </trkpt>
      <trkpt lat="49.04647" lon="6.85043">
        <ele>251.3</ele>
        <time>2014-02-12T08:15:33Z</time>
      </trkpt>
      <trkpt lat="49.04647" lon="6.85047">
        <ele>250.7</ele>
        <time>2014-02-12T08:15:36Z</time>
      </trkpt>
      <trkpt lat="49.04648" lon="6.85049">
        <ele>250.7</ele>
        <time>2014-02-12T08:15:39Z</time>
      </trkpt>
      <trkpt lat="49.04648" lon="6.85052">
        <ele>250.8</ele>
        <time>2014-02-12T08:15:42Z</time>
      </trkpt>
      <trkpt lat="49.04646" lon="6.85054">
        <ele>250.8</ele>
        <time>2014-02-12T08:15:45Z</time>
      </trkpt>
      <trkpt lat="49.04646" lon="6.85055">
        <ele>250.3</ele>
        <time>2014-02-12T08:15:48Z</time>
      </trkpt>
      <trkpt lat="49.04644" lon="6.85057">
        <ele>250.2</ele>
        <time>2014-02-12T08:15:51Z</time>
      </trkpt>
      <trkpt lat="49.04643" lon="6.85057">
        <ele>250</ele>
        <time>2014-02-12T08:15:54Z</time>
      </trkpt>
      <trkpt lat="49.04639" lon="6.85058">
        <ele>250.5</ele>
        <time>2014-02-12T08:15:57Z</time>
      </trkpt>
      <trkpt lat="49.04636" lon="6.85059">
        <ele>251</ele>
        <time>2014-02-12T08:16:00Z</time>
      </trkpt>
      <trkpt lat="49.04629" lon="6.8506">
        <ele>249.7</ele>
        <time>2014-02-12T08:16:06Z</time>
      </trkpt>
      <trkpt lat="49.04626" lon="6.85061">
        <ele>249.5</ele>
        <time>2014-02-12T08:16:09Z</time>
      </trkpt>
      <trkpt lat="49.04623" lon="6.85063">
        <ele>249.3</ele>
        <time>2014-02-12T08:16:12Z</time>
      </trkpt>
      <trkpt lat="49.04619" lon="6.85063">
        <ele>249.1</ele>
        <time>2014-02-12T08:16:15Z</time>
      </trkpt>
      <trkpt lat="49.04616" lon="6.85064">
        <ele>249.7</ele>
        <time>2014-02-12T08:16:18Z</time>
      </trkpt>
      <trkpt lat="49.04612" lon="6.85064">
        <ele>249.2</ele>
        <time>2014-02-12T08:16:21Z</time>
      </trkpt>
      <trkpt lat="49.04608" lon="6.85063">
        <ele>249.3</ele>
        <time>2014-02-12T08:16:24Z</time>
      </trkpt>
      <trkpt lat="49.04604" lon="6.85064">
        <ele>249.1</ele>
        <time>2014-02-12T08:16:27Z</time>
      </trkpt>
      <trkpt lat="49.04601" lon="6.85066">
        <ele>248.4</ele>
        <time>2014-02-12T08:16:30Z</time>
      </trkpt>
      <trkpt lat="49.04598" lon="6.85067">
        <ele>248.5</ele>
        <time>2014-02-12T08:16:33Z</time>
      </trkpt>
      <trkpt lat="49.04594" lon="6.85068">
        <ele>249.1</ele>
        <time>2014-02-12T08:16:36Z</time>
      </trkpt>
      <trkpt lat="49.0459" lon="6.85068">
        <ele>248.7</ele>
        <time>2014-02-12T08:16:39Z</time>
      </trkpt>
      <trkpt lat="49.04587" lon="6.85069">
        <ele>247.4</ele>
        <time>2014-02-12T08:16:42Z</time>
      </trkpt>
      <trkpt lat="49.04584" lon="6.8507">
        <ele>247.4</ele>
        <time>2014-02-12T08:16:45Z</time>
      </trkpt>
      <trkpt lat="49.04581" lon="6.8507">
        <ele>247.3</ele>
        <time>2014-02-12T08:16:48Z</time>
      </trkpt>
      <trkpt lat="49.04575" lon="6.85073">
        <ele>247.3</ele>
        <time>2014-02-12T08:16:51Z</time>
      </trkpt>
      <trkpt lat="49.04573" lon="6.85073">
        <ele>246.3</ele>
        <time>2014-02-12T08:16:54Z</time>
      </trkpt>
      <trkpt lat="49.04568" lon="6.85076">
        <ele>246.9</ele>
        <time>2014-02-12T08:16:57Z</time>
      </trkpt>
      <trkpt lat="49.04564" lon="6.85078">
        <ele>247.6</ele>
        <time>2014-02-12T08:17:00Z</time>
      </trkpt>
      <trkpt lat="49.0456" lon="6.85079">
        <ele>248</ele>
        <time>2014-02-12T08:17:03Z</time>
      </trkpt>
      <trkpt lat="49.04554" lon="6.85081">
        <ele>246.8</ele>
        <time>2014-02-12T08:17:09Z</time>
      </trkpt>
      <trkpt lat="49.04552" lon="6.8508">
        <ele>246.6</ele>
        <time>2014-02-12T08:17:12Z</time>
      </trkpt>
      <trkpt lat="49.0455" lon="6.85079">
        <ele>246.3</ele>
        <time>2014-02-12T08:17:15Z</time>
      </trkpt>
      <trkpt lat="49.04548" lon="6.85078">
        <ele>246.9</ele>
        <time>2014-02-12T08:17:18Z</time>
      </trkpt>
      <trkpt lat="49.04547" lon="6.85077">
        <ele>246.8</ele>
        <time>2014-02-12T08:17:21Z</time>
      </trkpt>
      <trkpt lat="49.04545" lon="6.85075">
        <ele>247</ele>
        <time>2014-02-12T08:17:24Z</time>
      </trkpt>
      <trkpt lat="49.04544" lon="6.85074">
        <ele>246.5</ele>
        <time>2014-02-12T08:17:27Z</time>
      </trkpt>
      <trkpt lat="49.04543" lon="6.85072">
        <ele>246</ele>
        <time>2014-02-12T08:17:30Z</time>
      </trkpt>
      <trkpt lat="49.04541" lon="6.85072">
        <ele>245.8</ele>
        <time>2014-02-12T08:17:33Z</time>
      </trkpt>
      <trkpt lat="49.04539" lon="6.85069">
        <ele>246.7</ele>
        <time>2014-02-12T08:17:36Z</time>
      </trkpt>
      <trkpt lat="49.04537" lon="6.85068">
        <ele>246.6</ele>
        <time>2014-02-12T08:17:39Z</time>
      </trkpt>
      <trkpt lat="49.04534" lon="6.85066">
        <ele>246.5</ele>
        <time>2014-02-12T08:17:42Z</time>
      </trkpt>
      <trkpt lat="49.04531" lon="6.85065">
        <ele>246</ele>
        <time>2014-02-12T08:17:45Z</time>
      </trkpt>
      <trkpt lat="49.04528" lon="6.85063">
        <ele>246.6</ele>
        <time>2014-02-12T08:17:48Z</time>
      </trkpt>
      <trkpt lat="49.04525" lon="6.8506">
        <ele>246.8</ele>
        <time>2014-02-12T08:17:51Z</time>
      </trkpt>
      <trkpt lat="49.04521" lon="6.85058">
        <ele>246.9</ele>
        <time>2014-02-12T08:17:54Z</time>
      </trkpt>
      <trkpt lat="49.04518" lon="6.85057">
        <ele>246.6</ele>
        <time>2014-02-12T08:17:57Z</time>
      </trkpt>
      <trkpt lat="49.04515" lon="6.85054">
        <ele>247.3</ele>
        <time>2014-02-12T08:18:00Z</time>
      </trkpt>
      <trkpt lat="49.04512" lon="6.8505">
        <ele>247.3</ele>
        <time>2014-02-12T08:18:03Z</time>
      </trkpt>
      <trkpt lat="49.04508" lon="6.85047">
        <ele>247.1</ele>
        <time>2014-02-12T08:18:06Z</time>
      </trkpt>
      <trkpt lat="49.04501" lon="6.85041">
        <ele>247.6</ele>
        <time>2014-02-12T08:18:12Z</time>
      </trkpt>
      <trkpt lat="49.04498" lon="6.85038">
        <ele>247.9</ele>
        <time>2014-02-12T08:18:15Z</time>
      </trkpt>
      <trkpt lat="49.04494" lon="6.85034">
        <ele>248.2</ele>
        <time>2014-02-12T08:18:18Z</time>
      </trkpt>
      <trkpt lat="49.04491" lon="6.85031">
        <ele>247.9</ele>
        <time>2014-02-12T08:18:21Z</time>
      </trkpt>
      <trkpt lat="49.04487" lon="6.85028">
        <ele>248.2</ele>
        <time>2014-02-12T08:18:24Z</time>
      </trkpt>
      <trkpt lat="49.04477" lon="6.85016">
        <ele>248.8</ele>
        <time>2014-02-12T08:18:27Z</time>
      </trkpt>
      <trkpt lat="49.04473" lon="6.85014">
        <ele>249.1</ele>
        <time>2014-02-12T08:18:30Z</time>
      </trkpt>
      <trkpt lat="49.04469" lon="6.8501">
        <ele>249.7</ele>
        <time>2014-02-12T08:18:33Z</time>
      </trkpt>
      <trkpt lat="49.04466" lon="6.85006">
        <ele>249.7</ele>
        <time>2014-02-12T08:18:36Z</time>
      </trkpt>
      <trkpt lat="49.04462" lon="6.85003">
        <ele>249.5</ele>
        <time>2014-02-12T08:18:39Z</time>
      </trkpt>
      <trkpt lat="49.04459" lon="6.84999">
        <ele>250.3</ele>
        <time>2014-02-12T08:18:42Z</time>
      </trkpt>
      <trkpt lat="49.04456" lon="6.84996">
        <ele>250.4</ele>
        <time>2014-02-12T08:18:45Z</time>
      </trkpt>
      <trkpt lat="49.04454" lon="6.84993">
        <ele>250.9</ele>
        <time>2014-02-12T08:18:48Z</time>
      </trkpt>
      <trkpt lat="49.0445" lon="6.84991">
        <ele>250.5</ele>
        <time>2014-02-12T08:18:51Z</time>
      </trkpt>
      <trkpt lat="49.04447" lon="6.84988">
        <ele>250.6</ele>
        <time>2014-02-12T08:18:54Z</time>
      </trkpt>
      <trkpt lat="49.04443" lon="6.84985">
        <ele>251.1</ele>
        <time>2014-02-12T08:18:57Z</time>
      </trkpt>
      <trkpt lat="49.0444" lon="6.84981">
        <ele>251.3</ele>
        <time>2014-02-12T08:19:00Z</time>
      </trkpt>
      <trkpt lat="49.04437" lon="6.84978">
        <ele>251.3</ele>
        <time>2014-02-12T08:19:03Z</time>
      </trkpt>
      <trkpt lat="49.04434" lon="6.84975">
        <ele>251.4</ele>
        <time>2014-02-12T08:19:06Z</time>
      </trkpt>
      <trkpt lat="49.04431" lon="6.8497">
        <ele>251.4</ele>
        <time>2014-02-12T08:19:09Z</time>
      </trkpt>
      <trkpt lat="49.04425" lon="6.84963">
        <ele>251.1</ele>
        <time>2014-02-12T08:19:15Z</time>
      </trkpt>
      <trkpt lat="49.04422" lon="6.84959">
        <ele>251.5</ele>
        <time>2014-02-12T08:19:18Z</time>
      </trkpt>
      <trkpt lat="49.04418" lon="6.84956">
        <ele>251.2</ele>
        <time>2014-02-12T08:19:21Z</time>
      </trkpt>
      <trkpt lat="49.04416" lon="6.84952">
        <ele>251.3</ele>
        <time>2014-02-12T08:19:24Z</time>
      </trkpt>
      <trkpt lat="49.04413" lon="6.84948">
        <ele>251.5</ele>
        <time>2014-02-12T08:19:27Z</time>
      </trkpt>
      <trkpt lat="49.0441" lon="6.84945">
        <ele>251.7</ele>
        <time>2014-02-12T08:19:30Z</time>
      </trkpt>
      <trkpt lat="49.04407" lon="6.84941">
        <ele>251.6</ele>
        <time>2014-02-12T08:19:33Z</time>
      </trkpt>
      <trkpt lat="49.04405" lon="6.84937">
        <ele>251.2</ele>
        <time>2014-02-12T08:19:36Z</time>
      </trkpt>
      <trkpt lat="49.04402" lon="6.84933">
        <ele>251.3</ele>
        <time>2014-02-12T08:19:39Z</time>
      </trkpt>
      <trkpt lat="49.04399" lon="6.84931">
        <ele>251.7</ele>
        <time>2014-02-12T08:19:42Z</time>
      </trkpt>
      <trkpt lat="49.04396" lon="6.84928">
        <ele>251.9</ele>
        <time>2014-02-12T08:19:45Z</time>
      </trkpt>
      <trkpt lat="49.04392" lon="6.84925">
        <ele>251.5</ele>
        <time>2014-02-12T08:19:48Z</time>
      </trkpt>
      <trkpt lat="49.04389" lon="6.84923">
        <ele>251.2</ele>
        <time>2014-02-12T08:19:51Z</time>
      </trkpt>
      <trkpt lat="49.04386" lon="6.8492">
        <ele>251.6</ele>
        <time>2014-02-12T08:19:54Z</time>
      </trkpt>
      <trkpt lat="49.04383" lon="6.84918">
        <ele>251</ele>
        <time>2014-02-12T08:19:57Z</time>
      </trkpt>
      <trkpt lat="49.0438" lon="6.84915">
        <ele>251.1</ele>
        <time>2014-02-12T08:20:00Z</time>
      </trkpt>
      <trkpt lat="49.04377" lon="6.84912">
        <ele>250.9</ele>
        <time>2014-02-12T08:20:03Z</time>
      </trkpt>
      <trkpt lat="49.04374" lon="6.8491">
        <ele>250.7</ele>
        <time>2014-02-12T08:20:06Z</time>
      </trkpt>
      <trkpt lat="49.04371" lon="6.84909">
        <ele>250.5</ele>
        <time>2014-02-12T08:20:09Z</time>
      </trkpt>
      <trkpt lat="49.04369" lon="6.84906">
        <ele>250.5</ele>
        <time>2014-02-12T08:20:12Z</time>
      </trkpt>
      <trkpt lat="49.04362" lon="6.84902">
        <ele>249.7</ele>
        <time>2014-02-12T08:20:18Z</time>
      </trkpt>
      <trkpt lat="49.04358" lon="6.849">
        <ele>249.9</ele>
        <time>2014-02-12T08:20:21Z</time>
      </trkpt>
      <trkpt lat="49.04356" lon="6.84897">
        <ele>249.7</ele>
        <time>2014-02-12T08:20:24Z</time>
      </trkpt>
      <trkpt lat="49.04353" lon="6.84894">
        <ele>249.6</ele>
        <time>2014-02-12T08:20:27Z</time>
      </trkpt>
      <trkpt lat="49.04351" lon="6.84892">
        <ele>250</ele>
        <time>2014-02-12T08:20:30Z</time>
      </trkpt>
      <trkpt lat="49.04349" lon="6.84888">
        <ele>250.1</ele>
        <time>2014-02-12T08:20:33Z</time>
      </trkpt>
      <trkpt lat="49.04347" lon="6.84884">
        <ele>249.4</ele>
        <time>2014-02-12T08:20:36Z</time>
      </trkpt>
      <trkpt lat="49.04344" lon="6.8488">
        <ele>248.8</ele>
        <time>2014-02-12T08:20:39Z</time>
      </trkpt>
      <trkpt lat="49.04342" lon="6.84876">
        <ele>248.9</ele>
        <time>2014-02-12T08:20:42Z</time>
      </trkpt>
      <trkpt lat="49.0434" lon="6.84872">
        <ele>248.5</ele>
        <time>2014-02-12T08:20:45Z</time>
      </trkpt>
      <trkpt lat="49.04339" lon="6.8487">
        <ele>248.9</ele>
        <time>2014-02-12T08:20:48Z</time>
      </trkpt>
      <trkpt lat="49.04337" lon="6.84866">
        <ele>248.6</ele>
        <time>2014-02-12T08:20:51Z</time>
      </trkpt>
      <trkpt lat="49.04335" lon="6.84862">
        <ele>248.6</ele>
        <time>2014-02-12T08:20:54Z</time>
      </trkpt>
      <trkpt lat="49.04333" lon="6.84858">
        <ele>249.2</ele>
        <time>2014-02-12T08:20:57Z</time>
      </trkpt>
      <trkpt lat="49.04331" lon="6.84854">
        <ele>249.6</ele>
        <time>2014-02-12T08:21:00Z</time>
      </trkpt>
      <trkpt lat="49.04329" lon="6.8485">
        <ele>249.3</ele>
        <time>2014-02-12T08:21:03Z</time>
      </trkpt>
      <trkpt lat="49.04326" lon="6.84846">
        <ele>249.3</ele>
        <time>2014-02-12T08:21:06Z</time>
      </trkpt>
      <trkpt lat="49.04311" lon="6.84826">
        <ele>248</ele>
        <time>2014-02-12T08:21:13Z</time>
      </trkpt>
      <trkpt lat="49.04302" lon="6.84819">
        <ele>248.7</ele>
        <time>2014-02-12T08:21:21Z</time>
      </trkpt>
      <trkpt lat="49.04298" lon="6.84816">
        <ele>249.2</ele>
        <time>2014-02-12T08:21:24Z</time>
      </trkpt>
      <trkpt lat="49.04295" lon="6.84813">
        <ele>249.4</ele>
        <time>2014-02-12T08:21:27Z</time>
      </trkpt>
      <trkpt lat="49.04292" lon="6.84811">
        <ele>249.7</ele>
        <time>2014-02-12T08:21:30Z</time>
      </trkpt>
      <trkpt lat="49.04287" lon="6.84807">
        <ele>250</ele>
        <time>2014-02-12T08:21:33Z</time>
      </trkpt>
      <trkpt lat="49.04283" lon="6.84804">
        <ele>250.3</ele>
        <time>2014-02-12T08:21:36Z</time>
      </trkpt>
      <trkpt lat="49.0428" lon="6.84802">
        <ele>249.8</ele>
        <time>2014-02-12T08:21:39Z</time>
      </trkpt>
      <trkpt lat="49.0428" lon="6.84801">
        <ele>249.7</ele>
        <time>2014-02-12T08:21:42Z</time>
      </trkpt>
      <trkpt lat="49.0428" lon="6.84801">
        <ele>250.1</ele>
        <time>2014-02-12T08:21:45Z</time>
      </trkpt>
      <trkpt lat="49.04279" lon="6.84801">
        <ele>250.5</ele>
        <time>2014-02-12T08:21:48Z</time>
      </trkpt>
      <trkpt lat="49.04278" lon="6.84803">
        <ele>249.5</ele>
        <time>2014-02-12T08:21:51Z</time>
      </trkpt>
      <trkpt lat="49.04278" lon="6.84803">
        <ele>249.3</ele>
        <time>2014-02-12T08:21:54Z</time>
      </trkpt>
      <trkpt lat="49.04277" lon="6.84804">
        <ele>249.5</ele>
        <time>2014-02-12T08:21:57Z</time>
      </trkpt>
      <trkpt lat="49.04277" lon="6.84804">
        <ele>249.5</ele>
        <time>2014-02-12T08:22:00Z</time>
      </trkpt>
      <trkpt lat="49.04277" lon="6.84803">
        <ele>249.4</ele>
        <time>2014-02-12T08:22:03Z</time>
      </trkpt>
      <trkpt lat="49.04277" lon="6.84803">
        <ele>249.7</ele>
        <time>2014-02-12T08:22:06Z</time>
      </trkpt>
      <trkpt lat="49.04277" lon="6.84802">
        <ele>249.4</ele>
        <time>2014-02-12T08:22:09Z</time>
      </trkpt>
      <trkpt lat="49.04277" lon="6.848">
        <ele>249.5</ele>
        <time>2014-02-12T08:22:12Z</time>
      </trkpt>
      <trkpt lat="49.04277" lon="6.848">
        <ele>250.1</ele>
        <time>2014-02-12T08:22:15Z</time>
      </trkpt>
      <trkpt lat="49.04277" lon="6.84799">
        <ele>248.9</ele>
        <time>2014-02-12T08:22:18Z</time>
      </trkpt>
      <trkpt lat="49.04276" lon="6.84794">
        <ele>249.9</ele>
        <time>2014-02-12T08:22:24Z</time>
      </trkpt>
      <trkpt lat="49.04276" lon="6.84794">
        <ele>250.4</ele>
        <time>2014-02-12T08:22:27Z</time>
      </trkpt>
      <trkpt lat="49.04277" lon="6.84793">
        <ele>250.9</ele>
        <time>2014-02-12T08:22:30Z</time>
      </trkpt>
      <trkpt lat="49.04277" lon="6.84792">
        <ele>250.2</ele>
        <time>2014-02-12T08:22:33Z</time>
      </trkpt>
      <trkpt lat="49.04277" lon="6.84791">
        <ele>250.5</ele>
        <time>2014-02-12T08:22:36Z</time>
      </trkpt>
      <trkpt lat="49.04276" lon="6.84789">
        <ele>250.1</ele>
        <time>2014-02-12T08:22:39Z</time>
      </trkpt>
      <trkpt lat="49.04273" lon="6.84788">
        <ele>250.6</ele>
        <time>2014-02-12T08:22:42Z</time>
      </trkpt>
      <trkpt lat="49.04271" lon="6.84787">
        <ele>250.1</ele>
        <time>2014-02-12T08:22:45Z</time>
      </trkpt>
      <trkpt lat="49.04268" lon="6.84786">
        <ele>250</ele>
        <time>2014-02-12T08:22:48Z</time>
      </trkpt>
      <trkpt lat="49.04266" lon="6.84784">
        <ele>250.5</ele>
        <time>2014-02-12T08:22:51Z</time>
      </trkpt>
      <trkpt lat="49.04264" lon="6.84783">
        <ele>250.9</ele>
        <time>2014-02-12T08:22:54Z</time>
      </trkpt>
      <trkpt lat="49.04263" lon="6.84782">
        <ele>251.2</ele>
        <time>2014-02-12T08:22:57Z</time>
      </trkpt>
      <trkpt lat="49.04261" lon="6.84782">
        <ele>251.3</ele>
        <time>2014-02-12T08:23:00Z</time>
      </trkpt>
      <trkpt lat="49.04259" lon="6.84781">
        <ele>251.4</ele>
        <time>2014-02-12T08:23:03Z</time>
      </trkpt>
      <trkpt lat="49.04255" lon="6.84779">
        <ele>251.8</ele>
        <time>2014-02-12T08:23:06Z</time>
      </trkpt>
      <trkpt lat="49.04253" lon="6.84778">
        <ele>251.9</ele>
        <time>2014-02-12T08:23:09Z</time>
      </trkpt>
      <trkpt lat="49.04252" lon="6.84778">
        <ele>251.8</ele>
        <time>2014-02-12T08:23:12Z</time>
      </trkpt>
      <trkpt lat="49.04251" lon="6.84775">
        <ele>251.9</ele>
        <time>2014-02-12T08:23:15Z</time>
      </trkpt>
      <trkpt lat="49.04251" lon="6.84774">
        <ele>251.6</ele>
        <time>2014-02-12T08:23:18Z</time>
      </trkpt>
      <trkpt lat="49.0425" lon="6.84772">
        <ele>251.7</ele>
        <time>2014-02-12T08:23:21Z</time>
      </trkpt>
      <trkpt lat="49.04251" lon="6.84771">
        <ele>251.8</ele>
        <time>2014-02-12T08:23:27Z</time>
      </trkpt>
      <trkpt lat="49.04251" lon="6.8477">
        <ele>251.9</ele>
        <time>2014-02-12T08:23:30Z</time>
      </trkpt>
      <trkpt lat="49.04251" lon="6.84768">
        <ele>251.9</ele>
        <time>2014-02-12T08:23:33Z</time>
      </trkpt>
      <trkpt lat="49.04249" lon="6.84766">
        <ele>252.6</ele>
        <time>2014-02-12T08:23:36Z</time>
      </trkpt>
      <trkpt lat="49.04246" lon="6.84765">
        <ele>252.6</ele>
        <time>2014-02-12T08:23:39Z</time>
      </trkpt>
      <trkpt lat="49.04244" lon="6.84763">
        <ele>252.5</ele>
        <time>2014-02-12T08:23:42Z</time>
      </trkpt>
      <trkpt lat="49.04241" lon="6.84762">
        <ele>253.2</ele>
        <time>2014-02-12T08:23:45Z</time>
      </trkpt>
      <trkpt lat="49.04239" lon="6.84761">
        <ele>253.2</ele>
        <time>2014-02-12T08:23:48Z</time>
      </trkpt>
      <trkpt lat="49.04233" lon="6.84758">
        <ele>253</ele>
        <time>2014-02-12T08:23:51Z</time>
      </trkpt>
      <trkpt lat="49.0423" lon="6.84756">
        <ele>253.5</ele>
        <time>2014-02-12T08:23:54Z</time>
      </trkpt>
      <trkpt lat="49.04228" lon="6.84755">
        <ele>253.8</ele>
        <time>2014-02-12T08:23:57Z</time>
      </trkpt>
      <trkpt lat="49.04225" lon="6.84752">
        <ele>254.4</ele>
        <time>2014-02-12T08:24:00Z</time>
      </trkpt>
      <trkpt lat="49.04223" lon="6.84751">
        <ele>254.5</ele>
        <time>2014-02-12T08:24:03Z</time>
      </trkpt>
      <trkpt lat="49.04221" lon="6.8475">
        <ele>254.3</ele>
        <time>2014-02-12T08:24:06Z</time>
      </trkpt>
      <trkpt lat="49.04218" lon="6.84748">
        <ele>254.7</ele>
        <time>2014-02-12T08:24:09Z</time>
      </trkpt>
      <trkpt lat="49.04215" lon="6.84746">
        <ele>255.9</ele>
        <time>2014-02-12T08:24:12Z</time>
      </trkpt>
      <trkpt lat="49.04212" lon="6.84743">
        <ele>256.2</ele>
        <time>2014-02-12T08:24:15Z</time>
      </trkpt>
      <trkpt lat="49.04209" lon="6.8474">
        <ele>256.3</ele>
        <time>2014-02-12T08:24:18Z</time>
      </trkpt>
      <trkpt lat="49.04206" lon="6.84738">
        <ele>256.4</ele>
        <time>2014-02-12T08:24:21Z</time>
      </trkpt>
      <trkpt lat="49.04203" lon="6.84735">
        <ele>257.3</ele>
        <time>2014-02-12T08:24:24Z</time>
      </trkpt>
      <trkpt lat="49.04197" lon="6.84731">
        <ele>258.6</ele>
        <time>2014-02-12T08:24:30Z</time>
      </trkpt>
      <trkpt lat="49.04194" lon="6.84728">
        <ele>258.7</ele>
        <time>2014-02-12T08:24:33Z</time>
      </trkpt>
      <trkpt lat="49.0419" lon="6.84726">
        <ele>258.5</ele>
        <time>2014-02-12T08:24:36Z</time>
      </trkpt>
      <trkpt lat="49.04187" lon="6.84724">
        <ele>259.3</ele>
        <time>2014-02-12T08:24:39Z</time>
      </trkpt>
      <trkpt lat="49.04184" lon="6.84723">
        <ele>259.4</ele>
        <time>2014-02-12T08:24:42Z</time>
      </trkpt>
      <trkpt lat="49.0418" lon="6.84721">
        <ele>259.9</ele>
        <time>2014-02-12T08:24:45Z</time>
      </trkpt>
      <trkpt lat="49.04178" lon="6.8472">
        <ele>261</ele>
        <time>2014-02-12T08:24:48Z</time>
      </trkpt>
      <trkpt lat="49.04175" lon="6.84719">
        <ele>260.8</ele>
        <time>2014-02-12T08:24:51Z</time>
      </trkpt>
      <trkpt lat="49.04172" lon="6.84717">
        <ele>261.4</ele>
        <time>2014-02-12T08:24:54Z</time>
      </trkpt>
      <trkpt lat="49.04169" lon="6.84716">
        <ele>261.7</ele>
        <time>2014-02-12T08:24:57Z</time>
      </trkpt>
      <trkpt lat="49.04165" lon="6.84714">
        <ele>262.5</ele>
        <time>2014-02-12T08:25:00Z</time>
      </trkpt>
      <trkpt lat="49.04161" lon="6.84714">
        <ele>262.8</ele>
        <time>2014-02-12T08:25:03Z</time>
      </trkpt>
      <trkpt lat="49.04157" lon="6.84713">
        <ele>262.9</ele>
        <time>2014-02-12T08:25:06Z</time>
      </trkpt>
      <trkpt lat="49.04153" lon="6.84713">
        <ele>262.7</ele>
        <time>2014-02-12T08:25:09Z</time>
      </trkpt>
      <trkpt lat="49.04149" lon="6.84713">
        <ele>263.5</ele>
        <time>2014-02-12T08:25:12Z</time>
      </trkpt>
      <trkpt lat="49.04145" lon="6.84712">
        <ele>263.9</ele>
        <time>2014-02-12T08:25:15Z</time>
      </trkpt>
      <trkpt lat="49.04141" lon="6.84712">
        <ele>264.7</ele>
        <time>2014-02-12T08:25:18Z</time>
      </trkpt>
      <trkpt lat="49.04137" lon="6.84713">
        <ele>265.2</ele>
        <time>2014-02-12T08:25:21Z</time>
      </trkpt>
      <trkpt lat="49.04133" lon="6.84713">
        <ele>265.3</ele>
        <time>2014-02-12T08:25:24Z</time>
      </trkpt>
      <trkpt lat="49.0413" lon="6.84713">
        <ele>266.2</ele>
        <time>2014-02-12T08:25:27Z</time>
      </trkpt>
      <trkpt lat="49.04122" lon="6.84714">
        <ele>266.4</ele>
        <time>2014-02-12T08:25:33Z</time>
      </trkpt>
      <trkpt lat="49.04118" lon="6.84714">
        <ele>267.3</ele>
        <time>2014-02-12T08:25:36Z</time>
      </trkpt>
      <trkpt lat="49.04115" lon="6.84715">
        <ele>267.7</ele>
        <time>2014-02-12T08:25:39Z</time>
      </trkpt>
      <trkpt lat="49.0411" lon="6.84716">
        <ele>268.2</ele>
        <time>2014-02-12T08:25:42Z</time>
      </trkpt>
      <trkpt lat="49.04106" lon="6.84717">
        <ele>268.3</ele>
        <time>2014-02-12T08:25:45Z</time>
      </trkpt>
      <trkpt lat="49.04102" lon="6.84717">
        <ele>268.2</ele>
        <time>2014-02-12T08:25:48Z</time>
      </trkpt>
      <trkpt lat="49.04098" lon="6.84717">
        <ele>267.6</ele>
        <time>2014-02-12T08:25:51Z</time>
      </trkpt>
      <trkpt lat="49.04093" lon="6.84718">
        <ele>267.9</ele>
        <time>2014-02-12T08:25:54Z</time>
      </trkpt>
      <trkpt lat="49.04089" lon="6.84717">
        <ele>268.8</ele>
        <time>2014-02-12T08:25:57Z</time>
      </trkpt>
      <trkpt lat="49.04085" lon="6.84717">
        <ele>268.4</ele>
        <time>2014-02-12T08:26:00Z</time>
      </trkpt>
      <trkpt lat="49.04081" lon="6.84717">
        <ele>267.9</ele>
        <time>2014-02-12T08:26:03Z</time>
      </trkpt>
      <trkpt lat="49.04077" lon="6.84718">
        <ele>267.7</ele>
        <time>2014-02-12T08:26:06Z</time>
      </trkpt>
      <trkpt lat="49.04065" lon="6.84715">
        <ele>267.8</ele>
        <time>2014-02-12T08:26:09Z</time>
      </trkpt>
      <trkpt lat="49.04062" lon="6.84716">
        <ele>268</ele>
        <time>2014-02-12T08:26:12Z</time>
      </trkpt>
      <trkpt lat="49.04059" lon="6.84716">
        <ele>267.6</ele>
        <time>2014-02-12T08:26:15Z</time>
      </trkpt>
      <trkpt lat="49.04055" lon="6.84717">
        <ele>267.5</ele>
        <time>2014-02-12T08:26:18Z</time>
      </trkpt>
      <trkpt lat="49.04051" lon="6.84716">
        <ele>266.8</ele>
        <time>2014-02-12T08:26:21Z</time>
      </trkpt>
      <trkpt lat="49.04048" lon="6.84715">
        <ele>266.6</ele>
        <time>2014-02-12T08:26:24Z</time>
      </trkpt>
      <trkpt lat="49.04044" lon="6.84713">
        <ele>266.6</ele>
        <time>2014-02-12T08:26:27Z</time>
      </trkpt>
      <trkpt lat="49.0404" lon="6.84711">
        <ele>266.4</ele>
        <time>2014-02-12T08:26:30Z</time>
      </trkpt>
      <trkpt lat="49.04031" lon="6.84708">
        <ele>266.2</ele>
        <time>2014-02-12T08:26:36Z</time>
      </trkpt>
      <trkpt lat="49.04026" lon="6.84704">
        <ele>266.1</ele>
        <time>2014-02-12T08:26:39Z</time>
      </trkpt>
      <trkpt lat="49.04022" lon="6.84703">
        <ele>265.7</ele>
        <time>2014-02-12T08:26:42Z</time>
      </trkpt>
      <trkpt lat="49.04019" lon="6.84702">
        <ele>265.6</ele>
        <time>2014-02-12T08:26:45Z</time>
      </trkpt>
      <trkpt lat="49.04015" lon="6.84701">
        <ele>264.8</ele>
        <time>2014-02-12T08:26:48Z</time>
      </trkpt>
      <trkpt lat="49.04011" lon="6.84701">
        <ele>264.8</ele>
        <time>2014-02-12T08:26:51Z</time>
      </trkpt>
      <trkpt lat="49.04002" lon="6.84699">
        <ele>265.1</ele>
        <time>2014-02-12T08:26:54Z</time>
      </trkpt>
      <trkpt lat="49.03998" lon="6.84699">
        <ele>265.7</ele>
        <time>2014-02-12T08:26:57Z</time>
      </trkpt>
      <trkpt lat="49.03994" lon="6.84699">
        <ele>265.8</ele>
        <time>2014-02-12T08:27:00Z</time>
      </trkpt>
      <trkpt lat="49.03991" lon="6.84699">
        <ele>265.4</ele>
        <time>2014-02-12T08:27:03Z</time>
      </trkpt>
      <trkpt lat="49.03987" lon="6.84698">
        <ele>264.4</ele>
        <time>2014-02-12T08:27:06Z</time>
      </trkpt>
      <trkpt lat="49.03982" lon="6.84697">
        <ele>265.3</ele>
        <time>2014-02-12T08:27:09Z</time>
      </trkpt>
      <trkpt lat="49.03978" lon="6.84695">
        <ele>265.9</ele>
        <time>2014-02-12T08:27:12Z</time>
      </trkpt>
      <trkpt lat="49.03975" lon="6.84694">
        <ele>265.5</ele>
        <time>2014-02-12T08:27:15Z</time>
      </trkpt>
      <trkpt lat="49.03971" lon="6.84692">
        <ele>265.5</ele>
        <time>2014-02-12T08:27:18Z</time>
      </trkpt>
      <trkpt lat="49.03967" lon="6.84691">
        <ele>265.9</ele>
        <time>2014-02-12T08:27:21Z</time>
      </trkpt>
      <trkpt lat="49.03963" lon="6.8469">
        <ele>266</ele>
        <time>2014-02-12T08:27:24Z</time>
      </trkpt>
      <trkpt lat="49.03959" lon="6.8469">
        <ele>266.2</ele>
        <time>2014-02-12T08:27:27Z</time>
      </trkpt>
      <trkpt lat="49.03955" lon="6.84689">
        <ele>265.7</ele>
        <time>2014-02-12T08:27:30Z</time>
      </trkpt>
      <trkpt lat="49.03952" lon="6.84687">
        <ele>266.4</ele>
        <time>2014-02-12T08:27:33Z</time>
      </trkpt>
      <trkpt lat="49.03944" lon="6.84685">
        <ele>267.6</ele>
        <time>2014-02-12T08:27:39Z</time>
      </trkpt>
      <trkpt lat="49.03941" lon="6.84684">
        <ele>267.7</ele>
        <time>2014-02-12T08:27:42Z</time>
      </trkpt>
      <trkpt lat="49.03937" lon="6.84683">
        <ele>267.2</ele>
        <time>2014-02-12T08:27:45Z</time>
      </trkpt>
      <trkpt lat="49.03933" lon="6.84683">
        <ele>266.7</ele>
        <time>2014-02-12T08:27:48Z</time>
      </trkpt>
      <trkpt lat="49.0393" lon="6.84682">
        <ele>267.3</ele>
        <time>2014-02-12T08:27:51Z</time>
      </trkpt>
      <trkpt lat="49.03927" lon="6.84681">
        <ele>267.8</ele>
        <time>2014-02-12T08:27:54Z</time>
      </trkpt>
      <trkpt lat="49.03924" lon="6.84679">
        <ele>267.8</ele>
        <time>2014-02-12T08:27:57Z</time>
      </trkpt>
      <trkpt lat="49.0392" lon="6.84677">
        <ele>267.6</ele>
        <time>2014-02-12T08:28:00Z</time>
      </trkpt>
      <trkpt lat="49.03917" lon="6.84676">
        <ele>268.1</ele>
        <time>2014-02-12T08:28:03Z</time>
      </trkpt>
      <trkpt lat="49.03913" lon="6.84676">
        <ele>268.1</ele>
        <time>2014-02-12T08:28:06Z</time>
      </trkpt>
      <trkpt lat="49.0391" lon="6.84676">
        <ele>267.9</ele>
        <time>2014-02-12T08:28:09Z</time>
      </trkpt>
      <trkpt lat="49.03906" lon="6.84676">
        <ele>268</ele>
        <time>2014-02-12T08:28:12Z</time>
      </trkpt>
      <trkpt lat="49.03903" lon="6.84676">
        <ele>268.7</ele>
        <time>2014-02-12T08:28:15Z</time>
      </trkpt>
      <trkpt lat="49.03899" lon="6.84676">
        <ele>269</ele>
        <time>2014-02-12T08:28:18Z</time>
      </trkpt>
      <trkpt lat="49.03896" lon="6.84676">
        <ele>268.9</ele>
        <time>2014-02-12T08:28:21Z</time>
      </trkpt>
      <trkpt lat="49.03892" lon="6.84676">
        <ele>268.6</ele>
        <time>2014-02-12T08:28:24Z</time>
      </trkpt>
      <trkpt lat="49.03888" lon="6.84676">
        <ele>268.1</ele>
        <time>2014-02-12T08:28:27Z</time>
      </trkpt>
      <trkpt lat="49.03884" lon="6.84677">
        <ele>268.4</ele>
        <time>2014-02-12T08:28:30Z</time>
      </trkpt>
      <trkpt lat="49.0388" lon="6.84677">
        <ele>268.2</ele>
        <time>2014-02-12T08:28:33Z</time>
      </trkpt>
      <trkpt lat="49.03875" lon="6.84677">
        <ele>268.7</ele>
        <time>2014-02-12T08:28:36Z</time>
      </trkpt>
      <trkpt lat="49.03867" lon="6.84676">
        <ele>269.2</ele>
        <time>2014-02-12T08:28:42Z</time>
      </trkpt>
      <trkpt lat="49.03864" lon="6.84675">
        <ele>268.9</ele>
        <time>2014-02-12T08:28:45Z</time>
      </trkpt>
      <trkpt lat="49.0386" lon="6.84672">
        <ele>269.2</ele>
        <time>2014-02-12T08:28:48Z</time>
      </trkpt>
      <trkpt lat="49.03856" lon="6.8467">
        <ele>269.5</ele>
        <time>2014-02-12T08:28:51Z</time>
      </trkpt>
      <trkpt lat="49.03853" lon="6.84668">
        <ele>269.4</ele>
        <time>2014-02-12T08:28:54Z</time>
      </trkpt>
      <trkpt lat="49.03849" lon="6.84665">
        <ele>269.4</ele>
        <time>2014-02-12T08:28:57Z</time>
      </trkpt>
      <trkpt lat="49.03847" lon="6.84663">
        <ele>268.9</ele>
        <time>2014-02-12T08:29:00Z</time>
      </trkpt>
      <trkpt lat="49.03843" lon="6.84661">
        <ele>269.3</ele>
        <time>2014-02-12T08:29:03Z</time>
      </trkpt>
      <trkpt lat="49.0384" lon="6.84658">
        <ele>268.6</ele>
        <time>2014-02-12T08:29:06Z</time>
      </trkpt>
      <trkpt lat="49.03836" lon="6.84656">
        <ele>268.7</ele>
        <time>2014-02-12T08:29:09Z</time>
      </trkpt>
      <trkpt lat="49.03832" lon="6.84654">
        <ele>268.4</ele>
        <time>2014-02-12T08:29:12Z</time>
      </trkpt>
      <trkpt lat="49.03828" lon="6.84651">
        <ele>268.4</ele>
        <time>2014-02-12T08:29:15Z</time>
      </trkpt>
      <trkpt lat="49.03824" lon="6.84649">
        <ele>267.5</ele>
        <time>2014-02-12T08:29:18Z</time>
      </trkpt>
      <trkpt lat="49.03821" lon="6.84648">
        <ele>267.1</ele>
        <time>2014-02-12T08:29:21Z</time>
      </trkpt>
      <trkpt lat="49.03817" lon="6.84647">
        <ele>266.4</ele>
        <time>2014-02-12T08:29:24Z</time>
      </trkpt>
      <trkpt lat="49.03813" lon="6.84646">
        <ele>266</ele>
        <time>2014-02-12T08:29:27Z</time>
      </trkpt>
      <trkpt lat="49.03809" lon="6.84646">
        <ele>265.7</ele>
        <time>2014-02-12T08:29:30Z</time>
      </trkpt>
      <trkpt lat="49.03805" lon="6.84646">
        <ele>264.7</ele>
        <time>2014-02-12T08:29:33Z</time>
      </trkpt>
      <trkpt lat="49.03801" lon="6.84645">
        <ele>264.7</ele>
        <time>2014-02-12T08:29:36Z</time>
      </trkpt>
      <trkpt lat="49.03797" lon="6.84645">
        <ele>264.4</ele>
        <time>2014-02-12T08:29:39Z</time>
      </trkpt>
      <trkpt lat="49.03789" lon="6.84644">
        <ele>263.7</ele>
        <time>2014-02-12T08:29:45Z</time>
      </trkpt>
      <trkpt lat="49.03785" lon="6.84643">
        <ele>262.9</ele>
        <time>2014-02-12T08:29:48Z</time>
      </trkpt>
      <trkpt lat="49.03781" lon="6.84642">
        <ele>262.4</ele>
        <time>2014-02-12T08:29:51Z</time>
      </trkpt>
      <trkpt lat="49.03776" lon="6.84641">
        <ele>261.7</ele>
        <time>2014-02-12T08:29:54Z</time>
      </trkpt>
      <trkpt lat="49.03772" lon="6.84641">
        <ele>261.4</ele>
        <time>2014-02-12T08:29:57Z</time>
      </trkpt>
      <trkpt lat="49.03769" lon="6.8464">
        <ele>260.6</ele>
        <time>2014-02-12T08:30:00Z</time>
      </trkpt>
      <trkpt lat="49.03765" lon="6.84639">
        <ele>261.2</ele>
        <time>2014-02-12T08:30:03Z</time>
      </trkpt>
      <trkpt lat="49.03761" lon="6.84637">
        <ele>260.7</ele>
        <time>2014-02-12T08:30:06Z</time>
      </trkpt>
      <trkpt lat="49.03754" lon="6.84635">
        <ele>259.8</ele>
        <time>2014-02-12T08:30:09Z</time>
      </trkpt>
      <trkpt lat="49.03752" lon="6.84636">
        <ele>259.3</ele>
        <time>2014-02-12T08:30:12Z</time>
      </trkpt>
      <trkpt lat="49.03749" lon="6.84635">
        <ele>259.8</ele>
        <time>2014-02-12T08:30:15Z</time>
      </trkpt>
      <trkpt lat="49.03746" lon="6.84635">
        <ele>259.1</ele>
        <time>2014-02-12T08:30:18Z</time>
      </trkpt>
      <trkpt lat="49.03742" lon="6.84635">
        <ele>258.6</ele>
        <time>2014-02-12T08:30:21Z</time>
      </trkpt>
      <trkpt lat="49.03739" lon="6.84634">
        <ele>258.4</ele>
        <time>2014-02-12T08:30:24Z</time>
      </trkpt>
      <trkpt lat="49.03735" lon="6.84633">
        <ele>258.4</ele>
        <time>2014-02-12T08:30:27Z</time>
      </trkpt>
      <trkpt lat="49.03732" lon="6.84632">
        <ele>257.8</ele>
        <time>2014-02-12T08:30:30Z</time>
      </trkpt>
      <trkpt lat="49.03728" lon="6.84631">
        <ele>256.8</ele>
        <time>2014-02-12T08:30:33Z</time>
      </trkpt>
      <trkpt lat="49.03725" lon="6.84631">
        <ele>256.1</ele>
        <time>2014-02-12T08:30:36Z</time>
      </trkpt>
      <trkpt lat="49.03721" lon="6.8463">
        <ele>255.7</ele>
        <time>2014-02-12T08:30:39Z</time>
      </trkpt>
      <trkpt lat="49.03718" lon="6.8463">
        <ele>255.4</ele>
        <time>2014-02-12T08:30:42Z</time>
      </trkpt>
      <trkpt lat="49.0371" lon="6.84627">
        <ele>254.7</ele>
        <time>2014-02-12T08:30:48Z</time>
      </trkpt>
      <trkpt lat="49.03707" lon="6.84626">
        <ele>254.7</ele>
        <time>2014-02-12T08:30:51Z</time>
      </trkpt>
      <trkpt lat="49.03703" lon="6.84625">
        <ele>254.2</ele>
        <time>2014-02-12T08:30:54Z</time>
      </trkpt>
      <trkpt lat="49.03699" lon="6.84623">
        <ele>253.4</ele>
        <time>2014-02-12T08:30:57Z</time>
      </trkpt>
      <trkpt lat="49.03695" lon="6.84622">
        <ele>253.1</ele>
        <time>2014-02-12T08:31:00Z</time>
      </trkpt>
      <trkpt lat="49.03691" lon="6.84621">
        <ele>252.8</ele>
        <time>2014-02-12T08:31:03Z</time>
      </trkpt>
      <trkpt lat="49.03687" lon="6.8462">
        <ele>252.1</ele>
        <time>2014-02-12T08:31:06Z</time>
      </trkpt>
      <trkpt lat="49.03683" lon="6.84618">
        <ele>251.5</ele>
        <time>2014-02-12T08:31:09Z</time>
      </trkpt>
      <trkpt lat="49.03679" lon="6.84617">
        <ele>251.4</ele>
        <time>2014-02-12T08:31:12Z</time>
      </trkpt>
      <trkpt lat="49.03675" lon="6.84616">
        <ele>251.5</ele>
        <time>2014-02-12T08:31:15Z</time>
      </trkpt>
      <trkpt lat="49.0367" lon="6.84615">
        <ele>251.3</ele>
        <time>2014-02-12T08:31:18Z</time>
      </trkpt>
      <trkpt lat="49.03666" lon="6.84614">
        <ele>251.2</ele>
        <time>2014-02-12T08:31:21Z</time>
      </trkpt>
      <trkpt lat="49.03661" lon="6.84612">
        <ele>250</ele>
        <time>2014-02-12T08:31:24Z</time>
      </trkpt>
      <trkpt lat="49.03657" lon="6.84611">
        <ele>249.4</ele>
        <time>2014-02-12T08:31:27Z</time>
      </trkpt>
      <trkpt lat="49.03652" lon="6.8461">
        <ele>249.1</ele>
        <time>2014-02-12T08:31:30Z</time>
      </trkpt>
      <trkpt lat="49.03648" lon="6.84609">
        <ele>248</ele>
        <time>2014-02-12T08:31:33Z</time>
      </trkpt>
      <trkpt lat="49.03643" lon="6.84608">
        <ele>248.7</ele>
        <time>2014-02-12T08:31:36Z</time>
      </trkpt>
      <trkpt lat="49.03639" lon="6.84606">
        <ele>248.7</ele>
        <time>2014-02-12T08:31:39Z</time>
      </trkpt>
      <trkpt lat="49.03634" lon="6.84604">
        <ele>248.7</ele>
        <time>2014-02-12T08:31:42Z</time>
      </trkpt>
      <trkpt lat="49.0363" lon="6.84603">
        <ele>248</ele>
        <time>2014-02-12T08:31:45Z</time>
      </trkpt>
      <trkpt lat="49.03622" lon="6.84601">
        <ele>247.5</ele>
        <time>2014-02-12T08:31:51Z</time>
      </trkpt>
      <trkpt lat="49.03617" lon="6.846">
        <ele>247.3</ele>
        <time>2014-02-12T08:31:54Z</time>
      </trkpt>
      <trkpt lat="49.03613" lon="6.84598">
        <ele>247</ele>
        <time>2014-02-12T08:31:57Z</time>
      </trkpt>
      <trkpt lat="49.03609" lon="6.84597">
        <ele>246.5</ele>
        <time>2014-02-12T08:32:00Z</time>
      </trkpt>
      <trkpt lat="49.03605" lon="6.84595">
        <ele>246.6</ele>
        <time>2014-02-12T08:32:03Z</time>
      </trkpt>
      <trkpt lat="49.036" lon="6.84593">
        <ele>245.9</ele>
        <time>2014-02-12T08:32:06Z</time>
      </trkpt>
      <trkpt lat="49.03596" lon="6.84592">
        <ele>245.5</ele>
        <time>2014-02-12T08:32:09Z</time>
      </trkpt>
      <trkpt lat="49.03592" lon="6.8459">
        <ele>245</ele>
        <time>2014-02-12T08:32:12Z</time>
      </trkpt>
      <trkpt lat="49.03588" lon="6.84588">
        <ele>244.8</ele>
        <time>2014-02-12T08:32:15Z</time>
      </trkpt>
      <trkpt lat="49.03584" lon="6.84587">
        <ele>246</ele>
        <time>2014-02-12T08:32:18Z</time>
      </trkpt>
      <trkpt lat="49.0358" lon="6.84586">
        <ele>245.8</ele>
        <time>2014-02-12T08:32:21Z</time>
      </trkpt>
      <trkpt lat="49.03576" lon="6.84584">
        <ele>245.5</ele>
        <time>2014-02-12T08:32:24Z</time>
      </trkpt>
      <trkpt lat="49.03572" lon="6.84583">
        <ele>245.5</ele>
        <time>2014-02-12T08:32:27Z</time>
      </trkpt>
      <trkpt lat="49.03568" lon="6.84582">
        <ele>245.8</ele>
        <time>2014-02-12T08:32:30Z</time>
      </trkpt>
      <trkpt lat="49.03564" lon="6.84581">
        <ele>245.6</ele>
        <time>2014-02-12T08:32:33Z</time>
      </trkpt>
      <trkpt lat="49.0356" lon="6.8458">
        <ele>245</ele>
        <time>2014-02-12T08:32:36Z</time>
      </trkpt>
      <trkpt lat="49.03556" lon="6.84579">
        <ele>244.8</ele>
        <time>2014-02-12T08:32:39Z</time>
      </trkpt>
      <trkpt lat="49.03552" lon="6.84578">
        <ele>244.4</ele>
        <time>2014-02-12T08:32:42Z</time>
      </trkpt>
      <trkpt lat="49.03546" lon="6.84576">
        <ele>244</ele>
        <time>2014-02-12T08:32:45Z</time>
      </trkpt>
      <trkpt lat="49.0354" lon="6.84575">
        <ele>243.7</ele>
        <time>2014-02-12T08:32:51Z</time>
      </trkpt>
      <trkpt lat="49.03536" lon="6.84573">
        <ele>244</ele>
        <time>2014-02-12T08:32:54Z</time>
      </trkpt>
      <trkpt lat="49.03533" lon="6.84572">
        <ele>243.4</ele>
        <time>2014-02-12T08:32:57Z</time>
      </trkpt>
      <trkpt lat="49.03529" lon="6.8457">
        <ele>243.2</ele>
        <time>2014-02-12T08:33:00Z</time>
      </trkpt>
      <trkpt lat="49.03525" lon="6.84568">
        <ele>243.6</ele>
        <time>2014-02-12T08:33:03Z</time>
      </trkpt>
      <trkpt lat="49.0352" lon="6.84567">
        <ele>243.2</ele>
        <time>2014-02-12T08:33:06Z</time>
      </trkpt>
      <trkpt lat="49.03516" lon="6.84566">
        <ele>243</ele>
        <time>2014-02-12T08:33:09Z</time>
      </trkpt>
      <trkpt lat="49.03512" lon="6.84564">
        <ele>242.4</ele>
        <time>2014-02-12T08:33:12Z</time>
      </trkpt>
      <trkpt lat="49.03508" lon="6.84562">
        <ele>242.1</ele>
        <time>2014-02-12T08:33:15Z</time>
      </trkpt>
      <trkpt lat="49.03504" lon="6.84561">
        <ele>241.8</ele>
        <time>2014-02-12T08:33:18Z</time>
      </trkpt>
      <trkpt lat="49.035" lon="6.8456">
        <ele>241.1</ele>
        <time>2014-02-12T08:33:21Z</time>
      </trkpt>
      <trkpt lat="49.03497" lon="6.84559">
        <ele>241.8</ele>
        <time>2014-02-12T08:33:24Z</time>
      </trkpt>
      <trkpt lat="49.03494" lon="6.84558">
        <ele>241.3</ele>
        <time>2014-02-12T08:33:27Z</time>
      </trkpt>
      <trkpt lat="49.0349" lon="6.84557">
        <ele>241.3</ele>
        <time>2014-02-12T08:33:30Z</time>
      </trkpt>
      <trkpt lat="49.03486" lon="6.84555">
        <ele>240.9</ele>
        <time>2014-02-12T08:33:33Z</time>
      </trkpt>
      <trkpt lat="49.03481" lon="6.84554">
        <ele>241.1</ele>
        <time>2014-02-12T08:33:36Z</time>
      </trkpt>
      <trkpt lat="49.03476" lon="6.84554">
        <ele>241.5</ele>
        <time>2014-02-12T08:33:39Z</time>
      </trkpt>
      <trkpt lat="49.03472" lon="6.84553">
        <ele>240.7</ele>
        <time>2014-02-12T08:33:42Z</time>
      </trkpt>
      <trkpt lat="49.03468" lon="6.84552">
        <ele>240.3</ele>
        <time>2014-02-12T08:33:45Z</time>
      </trkpt>
      <trkpt lat="49.03464" lon="6.8455">
        <ele>239.8</ele>
        <time>2014-02-12T08:33:48Z</time>
      </trkpt>
      <trkpt lat="49.03459" lon="6.84548">
        <ele>240.3</ele>
        <time>2014-02-12T08:33:51Z</time>
      </trkpt>
      <trkpt lat="49.0345" lon="6.84545">
        <ele>239.8</ele>
        <time>2014-02-12T08:33:57Z</time>
      </trkpt>
      <trkpt lat="49.03445" lon="6.84543">
        <ele>239.6</ele>
        <time>2014-02-12T08:34:00Z</time>
      </trkpt>
      <trkpt lat="49.0344" lon="6.84541">
        <ele>239.7</ele>
        <time>2014-02-12T08:34:03Z</time>
      </trkpt>
      <trkpt lat="49.03436" lon="6.8454">
        <ele>239.6</ele>
        <time>2014-02-12T08:34:06Z</time>
      </trkpt>
      <trkpt lat="49.03432" lon="6.84538">
        <ele>240.1</ele>
        <time>2014-02-12T08:34:09Z</time>
      </trkpt>
      <trkpt lat="49.03428" lon="6.84537">
        <ele>239.2</ele>
        <time>2014-02-12T08:34:12Z</time>
      </trkpt>
      <trkpt lat="49.03424" lon="6.84536">
        <ele>238.6</ele>
        <time>2014-02-12T08:34:15Z</time>
      </trkpt>
      <trkpt lat="49.0342" lon="6.84535">
        <ele>239.6</ele>
        <time>2014-02-12T08:34:18Z</time>
      </trkpt>
      <trkpt lat="49.03417" lon="6.84533">
        <ele>240</ele>
        <time>2014-02-12T08:34:21Z</time>
      </trkpt>
      <trkpt lat="49.03413" lon="6.84532">
        <ele>239.1</ele>
        <time>2014-02-12T08:34:24Z</time>
      </trkpt>
      <trkpt lat="49.0341" lon="6.84531">
        <ele>239.3</ele>
        <time>2014-02-12T08:34:27Z</time>
      </trkpt>
      <trkpt lat="49.03406" lon="6.8453">
        <ele>239.7</ele>
        <time>2014-02-12T08:34:30Z</time>
      </trkpt>
      <trkpt lat="49.03402" lon="6.8453">
        <ele>238.7</ele>
        <time>2014-02-12T08:34:33Z</time>
      </trkpt>
      <trkpt lat="49.03399" lon="6.84529">
        <ele>239.1</ele>
        <time>2014-02-12T08:34:36Z</time>
      </trkpt>
      <trkpt lat="49.03395" lon="6.84528">
        <ele>238.8</ele>
        <time>2014-02-12T08:34:39Z</time>
      </trkpt>
      <trkpt lat="49.03391" lon="6.84527">
        <ele>238.5</ele>
        <time>2014-02-12T08:34:42Z</time>
      </trkpt>
      <trkpt lat="49.03387" lon="6.84525">
        <ele>238.3</ele>
        <time>2014-02-12T08:34:45Z</time>
      </trkpt>
      <trkpt lat="49.03383" lon="6.84524">
        <ele>238.4</ele>
        <time>2014-02-12T08:34:48Z</time>
      </trkpt>
      <trkpt lat="49.03379" lon="6.84523">
        <ele>239.3</ele>
        <time>2014-02-12T08:34:51Z</time>
      </trkpt>
      <trkpt lat="49.03375" lon="6.84522">
        <ele>239</ele>
        <time>2014-02-12T08:34:54Z</time>
      </trkpt>
      <trkpt lat="49.0337" lon="6.84517">
        <ele>239.4</ele>
        <time>2014-02-12T08:35:00Z</time>
      </trkpt>
      <trkpt lat="49.03367" lon="6.84514">
        <ele>238.9</ele>
        <time>2014-02-12T08:35:03Z</time>
      </trkpt>
      <trkpt lat="49.03365" lon="6.84511">
        <ele>238.3</ele>
        <time>2014-02-12T08:35:06Z</time>
      </trkpt>
      <trkpt lat="49.03359" lon="6.84505">
        <ele>238.1</ele>
        <time>2014-02-12T08:35:09Z</time>
      </trkpt>
      <trkpt lat="49.03356" lon="6.84505">
        <ele>238.1</ele>
        <time>2014-02-12T08:35:12Z</time>
      </trkpt>
      <trkpt lat="49.03352" lon="6.84505">
        <ele>238.6</ele>
        <time>2014-02-12T08:35:15Z</time>
      </trkpt>
      <trkpt lat="49.03347" lon="6.84504">
        <ele>238.8</ele>
        <time>2014-02-12T08:35:18Z</time>
      </trkpt>
      <trkpt lat="49.03343" lon="6.84506">
        <ele>237.9</ele>
        <time>2014-02-12T08:35:21Z</time>
      </trkpt>
      <trkpt lat="49.0334" lon="6.8451">
        <ele>238.7</ele>
        <time>2014-02-12T08:35:24Z</time>
      </trkpt>
      <trkpt lat="49.03338" lon="6.84515">
        <ele>238.5</ele>
        <time>2014-02-12T08:35:27Z</time>
      </trkpt>
      <trkpt lat="49.03336" lon="6.8452">
        <ele>237.6</ele>
        <time>2014-02-12T08:35:30Z</time>
      </trkpt>
      <trkpt lat="49.03335" lon="6.84526">
        <ele>237.7</ele>
        <time>2014-02-12T08:35:33Z</time>
      </trkpt>
      <trkpt lat="49.03334" lon="6.84532">
        <ele>237.7</ele>
        <time>2014-02-12T08:35:36Z</time>
      </trkpt>
      <trkpt lat="49.03334" lon="6.84538">
        <ele>237.9</ele>
        <time>2014-02-12T08:35:39Z</time>
      </trkpt>
      <trkpt lat="49.03333" lon="6.84544">
        <ele>238.2</ele>
        <time>2014-02-12T08:35:42Z</time>
      </trkpt>
      <trkpt lat="49.03333" lon="6.8455">
        <ele>238</ele>
        <time>2014-02-12T08:35:45Z</time>
      </trkpt>
      <trkpt lat="49.03333" lon="6.84556">
        <ele>238.1</ele>
        <time>2014-02-12T08:35:48Z</time>
      </trkpt>
      <trkpt lat="49.03333" lon="6.84562">
        <ele>237.7</ele>
        <time>2014-02-12T08:35:51Z</time>
      </trkpt>
      <trkpt lat="49.03333" lon="6.84569">
        <ele>237.3</ele>
        <time>2014-02-12T08:35:54Z</time>
      </trkpt>
      <trkpt lat="49.03332" lon="6.84575">
        <ele>237.2</ele>
        <time>2014-02-12T08:35:57Z</time>
      </trkpt>
      <trkpt lat="49.03332" lon="6.84587">
        <ele>238</ele>
        <time>2014-02-12T08:36:03Z</time>
      </trkpt>
      <trkpt lat="49.03332" lon="6.84594">
        <ele>238.5</ele>
        <time>2014-02-12T08:36:06Z</time>
      </trkpt>
      <trkpt lat="49.03331" lon="6.846">
        <ele>238.3</ele>
        <time>2014-02-12T08:36:09Z</time>
      </trkpt>
      <trkpt lat="49.03331" lon="6.84605">
        <ele>238.3</ele>
        <time>2014-02-12T08:36:12Z</time>
      </trkpt>
      <trkpt lat="49.03331" lon="6.84611">
        <ele>238.1</ele>
        <time>2014-02-12T08:36:15Z</time>
      </trkpt>
      <trkpt lat="49.03331" lon="6.84617">
        <ele>237.1</ele>
        <time>2014-02-12T08:36:18Z</time>
      </trkpt>
      <trkpt lat="49.03331" lon="6.84622">
        <ele>236.9</ele>
        <time>2014-02-12T08:36:21Z</time>
      </trkpt>
      <trkpt lat="49.03331" lon="6.84628">
        <ele>237.8</ele>
        <time>2014-02-12T08:36:24Z</time>
      </trkpt>
      <trkpt lat="49.03331" lon="6.84634">
        <ele>237.6</ele>
        <time>2014-02-12T08:36:27Z</time>
      </trkpt>
      <trkpt lat="49.03331" lon="6.84639">
        <ele>237.3</ele>
        <time>2014-02-12T08:36:30Z</time>
      </trkpt>
      <trkpt lat="49.03331" lon="6.84646">
        <ele>237.9</ele>
        <time>2014-02-12T08:36:33Z</time>
      </trkpt>
      <trkpt lat="49.03331" lon="6.84652">
        <ele>237.5</ele>
        <time>2014-02-12T08:36:36Z</time>
      </trkpt>
      <trkpt lat="49.03331" lon="6.84659">
        <ele>237.1</ele>
        <time>2014-02-12T08:36:39Z</time>
      </trkpt>
      <trkpt lat="49.03331" lon="6.84666">
        <ele>237.1</ele>
        <time>2014-02-12T08:36:42Z</time>
      </trkpt>
      <trkpt lat="49.03331" lon="6.84672">
        <ele>236.4</ele>
        <time>2014-02-12T08:36:45Z</time>
      </trkpt>
      <trkpt lat="49.03331" lon="6.84678">
        <ele>236.6</ele>
        <time>2014-02-12T08:36:48Z</time>
      </trkpt>
      <trkpt lat="49.03331" lon="6.84684">
        <ele>237.1</ele>
        <time>2014-02-12T08:36:51Z</time>
      </trkpt>
      <trkpt lat="49.03331" lon="6.84691">
        <ele>236.9</ele>
        <time>2014-02-12T08:36:54Z</time>
      </trkpt>
      <trkpt lat="49.03331" lon="6.84697">
        <ele>237</ele>
        <time>2014-02-12T08:36:57Z</time>
      </trkpt>
      <trkpt lat="49.03331" lon="6.84703">
        <ele>237.2</ele>
        <time>2014-02-12T08:37:00Z</time>
      </trkpt>
      <trkpt lat="49.03332" lon="6.84717">
        <ele>237.5</ele>
        <time>2014-02-12T08:37:06Z</time>
      </trkpt>
      <trkpt lat="49.03332" lon="6.84723">
        <ele>237</ele>
        <time>2014-02-12T08:37:09Z</time>
      </trkpt>
      <trkpt lat="49.03332" lon="6.84729">
        <ele>236.8</ele>
        <time>2014-02-12T08:37:12Z</time>
      </trkpt>
      <trkpt lat="49.03333" lon="6.84735">
        <ele>236.7</ele>
        <time>2014-02-12T08:37:15Z</time>
      </trkpt>
      <trkpt lat="49.03333" lon="6.8474">
        <ele>237.7</ele>
        <time>2014-02-12T08:37:18Z</time>
      </trkpt>
      <trkpt lat="49.03334" lon="6.84745">
        <ele>238.4</ele>
        <time>2014-02-12T08:37:21Z</time>
      </trkpt>
      <trkpt lat="49.03334" lon="6.8475">
        <ele>238.8</ele>
        <time>2014-02-12T08:37:24Z</time>
      </trkpt>
      <trkpt lat="49.03334" lon="6.84757">
        <ele>238</ele>
        <time>2014-02-12T08:37:27Z</time>
      </trkpt>
      <trkpt lat="49.03335" lon="6.84762">
        <ele>237.7</ele>
        <time>2014-02-12T08:37:30Z</time>
      </trkpt>
      <trkpt lat="49.03335" lon="6.84767">
        <ele>237.4</ele>
        <time>2014-02-12T08:37:33Z</time>
      </trkpt>
      <trkpt lat="49.03336" lon="6.84774">
        <ele>237.9</ele>
        <time>2014-02-12T08:37:36Z</time>
      </trkpt>
      <trkpt lat="49.03336" lon="6.8478">
        <ele>237.2</ele>
        <time>2014-02-12T08:37:39Z</time>
      </trkpt>
      <trkpt lat="49.03337" lon="6.84786">
        <ele>237.7</ele>
        <time>2014-02-12T08:37:42Z</time>
      </trkpt>
      <trkpt lat="49.03338" lon="6.84791">
        <ele>238.4</ele>
        <time>2014-02-12T08:37:45Z</time>
      </trkpt>
      <trkpt lat="49.03338" lon="6.84797">
        <ele>238.5</ele>
        <time>2014-02-12T08:37:48Z</time>
      </trkpt>
      <trkpt lat="49.03339" lon="6.84804">
        <ele>237.9</ele>
        <time>2014-02-12T08:37:51Z</time>
      </trkpt>
      <trkpt lat="49.03341" lon="6.84811">
        <ele>237.7</ele>
        <time>2014-02-12T08:37:54Z</time>
      </trkpt>
      <trkpt lat="49.03342" lon="6.84817">
        <ele>238.5</ele>
        <time>2014-02-12T08:37:57Z</time>
      </trkpt>
      <trkpt lat="49.03343" lon="6.84824">
        <ele>238.6</ele>
        <time>2014-02-12T08:38:00Z</time>
      </trkpt>
      <trkpt lat="49.03345" lon="6.84831">
        <ele>238</ele>
        <time>2014-02-12T08:38:03Z</time>
      </trkpt>
      <trkpt lat="49.03347" lon="6.84843">
        <ele>237.6</ele>
        <time>2014-02-12T08:38:09Z</time>
      </trkpt>
      <trkpt lat="49.03348" lon="6.84849">
        <ele>237.3</ele>
        <time>2014-02-12T08:38:12Z</time>
      </trkpt>
      <trkpt lat="49.03349" lon="6.84855">
        <ele>237.1</ele>
        <time>2014-02-12T08:38:15Z</time>
      </trkpt>
      <trkpt lat="49.0335" lon="6.84861">
        <ele>237.5</ele>
        <time>2014-02-12T08:38:18Z</time>
      </trkpt>
      <trkpt lat="49.03351" lon="6.84866">
        <ele>237.9</ele>
        <time>2014-02-12T08:38:21Z</time>
      </trkpt>
      <trkpt lat="49.03351" lon="6.84872">
        <ele>237.9</ele>
        <time>2014-02-12T08:38:24Z</time>
      </trkpt>
      <trkpt lat="49.03351" lon="6.84879">
        <ele>237.5</ele>
        <time>2014-02-12T08:38:27Z</time>
      </trkpt>
      <trkpt lat="49.03352" lon="6.84884">
        <ele>237.9</ele>
        <time>2014-02-12T08:38:30Z</time>
      </trkpt>
      <trkpt lat="49.03353" lon="6.84889">
        <ele>238</ele>
        <time>2014-02-12T08:38:33Z</time>
      </trkpt>
      <trkpt lat="49.03354" lon="6.84896">
        <ele>238.3</ele>
        <time>2014-02-12T08:38:36Z</time>
      </trkpt>
      <trkpt lat="49.03354" lon="6.84902">
        <ele>237.9</ele>
        <time>2014-02-12T08:38:39Z</time>
      </trkpt>
      <trkpt lat="49.03355" lon="6.84909">
        <ele>237.8</ele>
        <time>2014-02-12T08:38:42Z</time>
      </trkpt>
      <trkpt lat="49.03356" lon="6.84915">
        <ele>238.2</ele>
        <time>2014-02-12T08:38:45Z</time>
      </trkpt>
      <trkpt lat="49.03357" lon="6.84921">
        <ele>238</ele>
        <time>2014-02-12T08:38:48Z</time>
      </trkpt>
      <trkpt lat="49.03358" lon="6.84926">
        <ele>237.9</ele>
        <time>2014-02-12T08:38:51Z</time>
      </trkpt>
      <trkpt lat="49.03359" lon="6.84932">
        <ele>238.4</ele>
        <time>2014-02-12T08:38:54Z</time>
      </trkpt>
      <trkpt lat="49.0336" lon="6.84938">
        <ele>238.4</ele>
        <time>2014-02-12T08:38:57Z</time>
      </trkpt>
      <trkpt lat="49.03362" lon="6.84944">
        <ele>239</ele>
        <time>2014-02-12T08:39:00Z</time>
      </trkpt>
      <trkpt lat="49.03363" lon="6.84952">
        <ele>237.8</ele>
        <time>2014-02-12T08:39:03Z</time>
      </trkpt>
      <trkpt lat="49.03364" lon="6.84959">
        <ele>238.4</ele>
        <time>2014-02-12T08:39:06Z</time>
      </trkpt>
      <trkpt lat="49.03366" lon="6.84971">
        <ele>239.1</ele>
        <time>2014-02-12T08:39:12Z</time>
      </trkpt>
      <trkpt lat="49.03366" lon="6.84977">
        <ele>238.8</ele>
        <time>2014-02-12T08:39:15Z</time>
      </trkpt>
      <trkpt lat="49.03366" lon="6.84983">
        <ele>238.6</ele>
        <time>2014-02-12T08:39:18Z</time>
      </trkpt>
      <trkpt lat="49.03366" lon="6.84988">
        <ele>238.5</ele>
        <time>2014-02-12T08:39:21Z</time>
      </trkpt>
      <trkpt lat="49.03366" lon="6.84994">
        <ele>238.4</ele>
        <time>2014-02-12T08:39:24Z</time>
      </trkpt>
      <trkpt lat="49.03367" lon="6.84999">
        <ele>238.7</ele>
        <time>2014-02-12T08:39:27Z</time>
      </trkpt>
      <trkpt lat="49.03366" lon="6.85006">
        <ele>238.4</ele>
        <time>2014-02-12T08:39:30Z</time>
      </trkpt>
      <trkpt lat="49.03367" lon="6.85011">
        <ele>238.7</ele>
        <time>2014-02-12T08:39:33Z</time>
      </trkpt>
      <trkpt lat="49.03367" lon="6.85016">
        <ele>238.7</ele>
        <time>2014-02-12T08:39:36Z</time>
      </trkpt>
      <trkpt lat="49.03368" lon="6.85022">
        <ele>238.8</ele>
        <time>2014-02-12T08:39:39Z</time>
      </trkpt>
      <trkpt lat="49.03368" lon="6.85028">
        <ele>238.5</ele>
        <time>2014-02-12T08:39:42Z</time>
      </trkpt>
      <trkpt lat="49.03369" lon="6.85034">
        <ele>238.4</ele>
        <time>2014-02-12T08:39:45Z</time>
      </trkpt>
      <trkpt lat="49.0337" lon="6.85041">
        <ele>238.3</ele>
        <time>2014-02-12T08:39:48Z</time>
      </trkpt>
      <trkpt lat="49.03371" lon="6.85048">
        <ele>238.5</ele>
        <time>2014-02-12T08:39:51Z</time>
      </trkpt>
      <trkpt lat="49.03373" lon="6.85055">
        <ele>238.1</ele>
        <time>2014-02-12T08:39:54Z</time>
      </trkpt>
      <trkpt lat="49.03375" lon="6.85062">
        <ele>238.5</ele>
        <time>2014-02-12T08:39:57Z</time>
      </trkpt>
      <trkpt lat="49.03376" lon="6.85069">
        <ele>238.4</ele>
        <time>2014-02-12T08:40:00Z</time>
      </trkpt>
      <trkpt lat="49.03378" lon="6.85076">
        <ele>238.2</ele>
        <time>2014-02-12T08:40:03Z</time>
      </trkpt>
      <trkpt lat="49.03379" lon="6.85083">
        <ele>238.2</ele>
        <time>2014-02-12T08:40:06Z</time>
      </trkpt>
      <trkpt lat="49.0338" lon="6.85089">
        <ele>238.7</ele>
        <time>2014-02-12T08:40:09Z</time>
      </trkpt>
      <trkpt lat="49.03382" lon="6.85102">
        <ele>239.2</ele>
        <time>2014-02-12T08:40:15Z</time>
      </trkpt>
      <trkpt lat="49.03383" lon="6.85108">
        <ele>239.2</ele>
        <time>2014-02-12T08:40:18Z</time>
      </trkpt>
      <trkpt lat="49.03384" lon="6.85114">
        <ele>239.6</ele>
        <time>2014-02-12T08:40:21Z</time>
      </trkpt>
      <trkpt lat="49.03385" lon="6.8512">
        <ele>239.8</ele>
        <time>2014-02-12T08:40:24Z</time>
      </trkpt>
      <trkpt lat="49.03386" lon="6.85127">
        <ele>239.8</ele>
        <time>2014-02-12T08:40:27Z</time>
      </trkpt>
      <trkpt lat="49.03387" lon="6.85133">
        <ele>239.9</ele>
        <time>2014-02-12T08:40:30Z</time>
      </trkpt>
      <trkpt lat="49.03388" lon="6.8514">
        <ele>239.7</ele>
        <time>2014-02-12T08:40:33Z</time>
      </trkpt>
      <trkpt lat="49.03389" lon="6.85147">
        <ele>240.2</ele>
        <time>2014-02-12T08:40:36Z</time>
      </trkpt>
      <trkpt lat="49.0339" lon="6.85154">
        <ele>240</ele>
        <time>2014-02-12T08:40:39Z</time>
      </trkpt>
      <trkpt lat="49.03391" lon="6.85161">
        <ele>239.7</ele>
        <time>2014-02-12T08:40:42Z</time>
      </trkpt>
      <trkpt lat="49.03392" lon="6.85168">
        <ele>239.7</ele>
        <time>2014-02-12T08:40:45Z</time>
      </trkpt>
      <trkpt lat="49.03392" lon="6.85175">
        <ele>239.6</ele>
        <time>2014-02-12T08:40:48Z</time>
      </trkpt>
      <trkpt lat="49.03393" lon="6.85181">
        <ele>239.8</ele>
        <time>2014-02-12T08:40:51Z</time>
      </trkpt>
      <trkpt lat="49.03394" lon="6.85188">
        <ele>239.6</ele>
        <time>2014-02-12T08:40:54Z</time>
      </trkpt>
      <trkpt lat="49.03395" lon="6.85195">
        <ele>240</ele>
        <time>2014-02-12T08:40:57Z</time>
      </trkpt>
      <trkpt lat="49.03396" lon="6.85201">
        <ele>239.4</ele>
        <time>2014-02-12T08:41:00Z</time>
      </trkpt>
      <trkpt lat="49.03397" lon="6.85208">
        <ele>239.6</ele>
        <time>2014-02-12T08:41:03Z</time>
      </trkpt>
      <trkpt lat="49.03398" lon="6.85214">
        <ele>239.5</ele>
        <time>2014-02-12T08:41:06Z</time>
      </trkpt>
      <trkpt lat="49.03399" lon="6.8522">
        <ele>239.8</ele>
        <time>2014-02-12T08:41:09Z</time>
      </trkpt>
      <trkpt lat="49.03399" lon="6.85227">
        <ele>239.9</ele>
        <time>2014-02-12T08:41:12Z</time>
      </trkpt>
      <trkpt lat="49.03401" lon="6.8524">
        <ele>240.3</ele>
        <time>2014-02-12T08:41:18Z</time>
      </trkpt>
      <trkpt lat="49.03402" lon="6.85246">
        <ele>239.8</ele>
        <time>2014-02-12T08:41:21Z</time>
      </trkpt>
      <trkpt lat="49.03403" lon="6.85252">
        <ele>239.6</ele>
        <time>2014-02-12T08:41:24Z</time>
      </trkpt>
      <trkpt lat="49.03404" lon="6.85258">
        <ele>239.9</ele>
        <time>2014-02-12T08:41:27Z</time>
      </trkpt>
      <trkpt lat="49.03405" lon="6.85263">
        <ele>239.6</ele>
        <time>2014-02-12T08:41:30Z</time>
      </trkpt>
      <trkpt lat="49.03405" lon="6.85268">
        <ele>240.1</ele>
        <time>2014-02-12T08:41:33Z</time>
      </trkpt>
      <trkpt lat="49.03405" lon="6.85274">
        <ele>240.3</ele>
        <time>2014-02-12T08:41:36Z</time>
      </trkpt>
      <trkpt lat="49.03405" lon="6.8528">
        <ele>240</ele>
        <time>2014-02-12T08:41:39Z</time>
      </trkpt>
      <trkpt lat="49.03406" lon="6.85285">
        <ele>240.6</ele>
        <time>2014-02-12T08:41:42Z</time>
      </trkpt>
      <trkpt lat="49.03406" lon="6.85291">
        <ele>239.8</ele>
        <time>2014-02-12T08:41:45Z</time>
      </trkpt>
      <trkpt lat="49.03407" lon="6.85295">
        <ele>240</ele>
        <time>2014-02-12T08:41:48Z</time>
      </trkpt>
      <trkpt lat="49.03407" lon="6.85301">
        <ele>239</ele>
        <time>2014-02-12T08:41:51Z</time>
      </trkpt>
      <trkpt lat="49.03408" lon="6.85308">
        <ele>239.2</ele>
        <time>2014-02-12T08:41:54Z</time>
      </trkpt>
      <trkpt lat="49.03409" lon="6.85314">
        <ele>239.9</ele>
        <time>2014-02-12T08:41:57Z</time>
      </trkpt>
      <trkpt lat="49.0341" lon="6.8532">
        <ele>239.9</ele>
        <time>2014-02-12T08:42:00Z</time>
      </trkpt>
      <trkpt lat="49.0341" lon="6.85325">
        <ele>239.4</ele>
        <time>2014-02-12T08:42:03Z</time>
      </trkpt>
      <trkpt lat="49.0341" lon="6.85328">
        <ele>239.5</ele>
        <time>2014-02-12T08:42:06Z</time>
      </trkpt>
      <trkpt lat="49.03411" lon="6.85333">
        <ele>239.5</ele>
        <time>2014-02-12T08:42:09Z</time>
      </trkpt>
      <trkpt lat="49.03411" lon="6.85339">
        <ele>240.2</ele>
        <time>2014-02-12T08:42:12Z</time>
      </trkpt>
      <trkpt lat="49.03412" lon="6.85345">
        <ele>239.4</ele>
        <time>2014-02-12T08:42:15Z</time>
      </trkpt>
      <trkpt lat="49.03412" lon="6.85357">
        <ele>240.3</ele>
        <time>2014-02-12T08:42:21Z</time>
      </trkpt>
      <trkpt lat="49.03413" lon="6.85364">
        <ele>239.8</ele>
        <time>2014-02-12T08:42:24Z</time>
      </trkpt>
      <trkpt lat="49.03414" lon="6.8537">
        <ele>239.1</ele>
        <time>2014-02-12T08:42:27Z</time>
      </trkpt>
      <trkpt lat="49.03415" lon="6.85376">
        <ele>239</ele>
        <time>2014-02-12T08:42:30Z</time>
      </trkpt>
      <trkpt lat="49.03417" lon="6.85382">
        <ele>238.8</ele>
        <time>2014-02-12T08:42:33Z</time>
      </trkpt>
      <trkpt lat="49.03418" lon="6.85388">
        <ele>238.8</ele>
        <time>2014-02-12T08:42:36Z</time>
      </trkpt>
      <trkpt lat="49.0342" lon="6.85395">
        <ele>239.9</ele>
        <time>2014-02-12T08:42:39Z</time>
      </trkpt>
      <trkpt lat="49.0342" lon="6.85401">
        <ele>239.3</ele>
        <time>2014-02-12T08:42:42Z</time>
      </trkpt>
      <trkpt lat="49.03421" lon="6.85408">
        <ele>239.6</ele>
        <time>2014-02-12T08:42:45Z</time>
      </trkpt>
      <trkpt lat="49.03422" lon="6.85414">
        <ele>239.4</ele>
        <time>2014-02-12T08:42:48Z</time>
      </trkpt>
      <trkpt lat="49.03423" lon="6.85421">
        <ele>239.6</ele>
        <time>2014-02-12T08:42:51Z</time>
      </trkpt>
      <trkpt lat="49.03423" lon="6.85428">
        <ele>239.3</ele>
        <time>2014-02-12T08:42:54Z</time>
      </trkpt>
      <trkpt lat="49.03424" lon="6.85434">
        <ele>239.5</ele>
        <time>2014-02-12T08:42:57Z</time>
      </trkpt>
      <trkpt lat="49.03425" lon="6.85441">
        <ele>239.2</ele>
        <time>2014-02-12T08:43:00Z</time>
      </trkpt>
      <trkpt lat="49.03425" lon="6.85448">
        <ele>239.8</ele>
        <time>2014-02-12T08:43:03Z</time>
      </trkpt>
      <trkpt lat="49.03426" lon="6.85454">
        <ele>238.9</ele>
        <time>2014-02-12T08:43:06Z</time>
      </trkpt>
      <trkpt lat="49.03426" lon="6.85461">
        <ele>239.1</ele>
        <time>2014-02-12T08:43:09Z</time>
      </trkpt>
      <trkpt lat="49.03426" lon="6.85467">
        <ele>239.1</ele>
        <time>2014-02-12T08:43:12Z</time>
      </trkpt>
      <trkpt lat="49.03426" lon="6.85474">
        <ele>239</ele>
        <time>2014-02-12T08:43:15Z</time>
      </trkpt>
      <trkpt lat="49.03426" lon="6.8548">
        <ele>239.6</ele>
        <time>2014-02-12T08:43:18Z</time>
      </trkpt>
      <trkpt lat="49.03426" lon="6.85493">
        <ele>239.7</ele>
        <time>2014-02-12T08:43:24Z</time>
      </trkpt>
      <trkpt lat="49.03426" lon="6.855">
        <ele>239.6</ele>
        <time>2014-02-12T08:43:27Z</time>
      </trkpt>
      <trkpt lat="49.03426" lon="6.85507">
        <ele>239.1</ele>
        <time>2014-02-12T08:43:30Z</time>
      </trkpt>
      <trkpt lat="49.03426" lon="6.85514">
        <ele>238.4</ele>
        <time>2014-02-12T08:43:33Z</time>
      </trkpt>
      <trkpt lat="49.03426" lon="6.8552">
        <ele>238.1</ele>
        <time>2014-02-12T08:43:36Z</time>
      </trkpt>
      <trkpt lat="49.03426" lon="6.85527">
        <ele>238.1</ele>
        <time>2014-02-12T08:43:39Z</time>
      </trkpt>
      <trkpt lat="49.03426" lon="6.85534">
        <ele>237.7</ele>
        <time>2014-02-12T08:43:42Z</time>
      </trkpt>
      <trkpt lat="49.03426" lon="6.8554">
        <ele>237.6</ele>
        <time>2014-02-12T08:43:45Z</time>
      </trkpt>
      <trkpt lat="49.03426" lon="6.85547">
        <ele>237.1</ele>
        <time>2014-02-12T08:43:48Z</time>
      </trkpt>
      <trkpt lat="49.03426" lon="6.85553">
        <ele>237.3</ele>
        <time>2014-02-12T08:43:51Z</time>
      </trkpt>
      <trkpt lat="49.03426" lon="6.8556">
        <ele>237.1</ele>
        <time>2014-02-12T08:43:54Z</time>
      </trkpt>
      <trkpt lat="49.03425" lon="6.85566">
        <ele>237.1</ele>
        <time>2014-02-12T08:43:57Z</time>
      </trkpt>
      <trkpt lat="49.03425" lon="6.85573">
        <ele>236.5</ele>
        <time>2014-02-12T08:44:00Z</time>
      </trkpt>
      <trkpt lat="49.03425" lon="6.8558">
        <ele>237.1</ele>
        <time>2014-02-12T08:44:03Z</time>
      </trkpt>
      <trkpt lat="49.03425" lon="6.85587">
        <ele>237.2</ele>
        <time>2014-02-12T08:44:06Z</time>
      </trkpt>
      <trkpt lat="49.03425" lon="6.85593">
        <ele>237.1</ele>
        <time>2014-02-12T08:44:09Z</time>
      </trkpt>
      <trkpt lat="49.03424" lon="6.856">
        <ele>237.1</ele>
        <time>2014-02-12T08:44:12Z</time>
      </trkpt>
      <trkpt lat="49.03424" lon="6.85607">
        <ele>236.9</ele>
        <time>2014-02-12T08:44:15Z</time>
      </trkpt>
      <trkpt lat="49.03424" lon="6.85613">
        <ele>237</ele>
        <time>2014-02-12T08:44:18Z</time>
      </trkpt>
      <trkpt lat="49.03424" lon="6.8562">
        <ele>237.2</ele>
        <time>2014-02-12T08:44:21Z</time>
      </trkpt>
      <trkpt lat="49.03424" lon="6.85632">
        <ele>236</ele>
        <time>2014-02-12T08:44:27Z</time>
      </trkpt>
      <trkpt lat="49.03424" lon="6.85638">
        <ele>235.8</ele>
        <time>2014-02-12T08:44:30Z</time>
      </trkpt>
      <trkpt lat="49.03424" lon="6.85644">
        <ele>236.3</ele>
        <time>2014-02-12T08:44:33Z</time>
      </trkpt>
      <trkpt lat="49.03424" lon="6.8565">
        <ele>236.2</ele>
        <time>2014-02-12T08:44:36Z</time>
      </trkpt>
      <trkpt lat="49.03424" lon="6.85657">
        <ele>235.8</ele>
        <time>2014-02-12T08:44:39Z</time>
      </trkpt>
      <trkpt lat="49.03423" lon="6.85663">
        <ele>236.4</ele>
        <time>2014-02-12T08:44:42Z</time>
      </trkpt>
      <trkpt lat="49.03423" lon="6.85669">
        <ele>235.9</ele>
        <time>2014-02-12T08:44:45Z</time>
      </trkpt>
      <trkpt lat="49.03422" lon="6.85675">
        <ele>235.3</ele>
        <time>2014-02-12T08:44:48Z</time>
      </trkpt>
      <trkpt lat="49.03422" lon="6.8568">
        <ele>234.7</ele>
        <time>2014-02-12T08:44:51Z</time>
      </trkpt>
      <trkpt lat="49.03422" lon="6.85686">
        <ele>235.4</ele>
        <time>2014-02-12T08:44:54Z</time>
      </trkpt>
      <trkpt lat="49.03423" lon="6.85692">
        <ele>235.7</ele>
        <time>2014-02-12T08:44:57Z</time>
      </trkpt>
      <trkpt lat="49.03423" lon="6.85699">
        <ele>234.7</ele>
        <time>2014-02-12T08:45:00Z</time>
      </trkpt>
      <trkpt lat="49.03422" lon="6.85705">
        <ele>235.2</ele>
        <time>2014-02-12T08:45:03Z</time>
      </trkpt>
      <trkpt lat="49.03422" lon="6.85711">
        <ele>235.6</ele>
        <time>2014-02-12T08:45:06Z</time>
      </trkpt>
      <trkpt lat="49.03422" lon="6.85717">
        <ele>235.3</ele>
        <time>2014-02-12T08:45:09Z</time>
      </trkpt>
      <trkpt lat="49.03422" lon="6.85724">
        <ele>235.5</ele>
        <time>2014-02-12T08:45:12Z</time>
      </trkpt>
      <trkpt lat="49.03422" lon="6.8573">
        <ele>235.6</ele>
        <time>2014-02-12T08:45:15Z</time>
      </trkpt>
      <trkpt lat="49.03422" lon="6.85736">
        <ele>235.6</ele>
        <time>2014-02-12T08:45:18Z</time>
      </trkpt>
      <trkpt lat="49.03422" lon="6.85743">
        <ele>235.9</ele>
        <time>2014-02-12T08:45:21Z</time>
      </trkpt>
      <trkpt lat="49.03421" lon="6.85749">
        <ele>235.8</ele>
        <time>2014-02-12T08:45:24Z</time>
      </trkpt>
      <trkpt lat="49.03421" lon="6.85762">
        <ele>234.6</ele>
        <time>2014-02-12T08:45:30Z</time>
      </trkpt>
      <trkpt lat="49.0342" lon="6.85769">
        <ele>235.2</ele>
        <time>2014-02-12T08:45:33Z</time>
      </trkpt>
      <trkpt lat="49.03419" lon="6.85775">
        <ele>235.6</ele>
        <time>2014-02-12T08:45:36Z</time>
      </trkpt>
      <trkpt lat="49.03418" lon="6.85782">
        <ele>235.8</ele>
        <time>2014-02-12T08:45:39Z</time>
      </trkpt>
      <trkpt lat="49.03416" lon="6.85788">
        <ele>235.4</ele>
        <time>2014-02-12T08:45:42Z</time>
      </trkpt>
      <trkpt lat="49.03414" lon="6.85794">
        <ele>235.3</ele>
        <time>2014-02-12T08:45:45Z</time>
      </trkpt>
      <trkpt lat="49.03412" lon="6.858">
        <ele>235.8</ele>
        <time>2014-02-12T08:45:48Z</time>
      </trkpt>
      <trkpt lat="49.0341" lon="6.85806">
        <ele>234.9</ele>
        <time>2014-02-12T08:45:51Z</time>
      </trkpt>
      <trkpt lat="49.03407" lon="6.85811">
        <ele>234.3</ele>
        <time>2014-02-12T08:45:54Z</time>
      </trkpt>
      <trkpt lat="49.03405" lon="6.85816">
        <ele>234.2</ele>
        <time>2014-02-12T08:45:57Z</time>
      </trkpt>
      <trkpt lat="49.03401" lon="6.85821">
        <ele>234.3</ele>
        <time>2014-02-12T08:46:00Z</time>
      </trkpt>
      <trkpt lat="49.03398" lon="6.85825">
        <ele>234.6</ele>
        <time>2014-02-12T08:46:03Z</time>
      </trkpt>
      <trkpt lat="49.03395" lon="6.85829">
        <ele>235</ele>
        <time>2014-02-12T08:46:06Z</time>
      </trkpt>
      <trkpt lat="49.03391" lon="6.85834">
        <ele>234.4</ele>
        <time>2014-02-12T08:46:09Z</time>
      </trkpt>
      <trkpt lat="49.03388" lon="6.85838">
        <ele>234.2</ele>
        <time>2014-02-12T08:46:12Z</time>
      </trkpt>
      <trkpt lat="49.03385" lon="6.8584">
        <ele>234.1</ele>
        <time>2014-02-12T08:46:15Z</time>
      </trkpt>
      <trkpt lat="49.03382" lon="6.85841">
        <ele>234.7</ele>
        <time>2014-02-12T08:46:18Z</time>
      </trkpt>
      <trkpt lat="49.03379" lon="6.85843">
        <ele>234.4</ele>
        <time>2014-02-12T08:46:21Z</time>
      </trkpt>
      <trkpt lat="49.03376" lon="6.85846">
        <ele>234.4</ele>
        <time>2014-02-12T08:46:24Z</time>
      </trkpt>
      <trkpt lat="49.03373" lon="6.85849">
        <ele>234</ele>
        <time>2014-02-12T08:46:27Z</time>
      </trkpt>
      <trkpt lat="49.03367" lon="6.85855">
        <ele>233.8</ele>
        <time>2014-02-12T08:46:33Z</time>
      </trkpt>
      <trkpt lat="49.03363" lon="6.85858">
        <ele>234</ele>
        <time>2014-02-12T08:46:36Z</time>
      </trkpt>
      <trkpt lat="49.03359" lon="6.8586">
        <ele>233.8</ele>
        <time>2014-02-12T08:46:39Z</time>
      </trkpt>
      <trkpt lat="49.03356" lon="6.85863">
        <ele>234.1</ele>
        <time>2014-02-12T08:46:42Z</time>
      </trkpt>
      <trkpt lat="49.03352" lon="6.85866">
        <ele>234.1</ele>
        <time>2014-02-12T08:46:45Z</time>
      </trkpt>
      <trkpt lat="49.03348" lon="6.85869">
        <ele>234.1</ele>
        <time>2014-02-12T08:46:48Z</time>
      </trkpt>
      <trkpt lat="49.03344" lon="6.85872">
        <ele>233.9</ele>
        <time>2014-02-12T08:46:51Z</time>
      </trkpt>
      <trkpt lat="49.0334" lon="6.85875">
        <ele>234.6</ele>
        <time>2014-02-12T08:46:54Z</time>
      </trkpt>
      <trkpt lat="49.03337" lon="6.85878">
        <ele>234.5</ele>
        <time>2014-02-12T08:46:57Z</time>
      </trkpt>
      <trkpt lat="49.03333" lon="6.85881">
        <ele>234.3</ele>
        <time>2014-02-12T08:47:00Z</time>
      </trkpt>
      <trkpt lat="49.03329" lon="6.85884">
        <ele>234.3</ele>
        <time>2014-02-12T08:47:03Z</time>
      </trkpt>
      <trkpt lat="49.03325" lon="6.85887">
        <ele>234.8</ele>
        <time>2014-02-12T08:47:06Z</time>
      </trkpt>
      <trkpt lat="49.03321" lon="6.8589">
        <ele>234.1</ele>
        <time>2014-02-12T08:47:09Z</time>
      </trkpt>
      <trkpt lat="49.03317" lon="6.85893">
        <ele>234.4</ele>
        <time>2014-02-12T08:47:12Z</time>
      </trkpt>
      <trkpt lat="49.03314" lon="6.85896">
        <ele>233.6</ele>
        <time>2014-02-12T08:47:15Z</time>
      </trkpt>
      <trkpt lat="49.0331" lon="6.859">
        <ele>233.9</ele>
        <time>2014-02-12T08:47:18Z</time>
      </trkpt>
      <trkpt lat="49.03306" lon="6.85903">
        <ele>234.2</ele>
        <time>2014-02-12T08:47:21Z</time>
      </trkpt>
      <trkpt lat="49.03303" lon="6.85906">
        <ele>234.2</ele>
        <time>2014-02-12T08:47:24Z</time>
      </trkpt>
      <trkpt lat="49.03299" lon="6.85909">
        <ele>234.2</ele>
        <time>2014-02-12T08:47:27Z</time>
      </trkpt>
      <trkpt lat="49.03295" lon="6.85912">
        <ele>234.4</ele>
        <time>2014-02-12T08:47:30Z</time>
      </trkpt>
      <trkpt lat="49.03288" lon="6.85918">
        <ele>234.4</ele>
        <time>2014-02-12T08:47:36Z</time>
      </trkpt>
      <trkpt lat="49.03284" lon="6.85921">
        <ele>233.9</ele>
        <time>2014-02-12T08:47:39Z</time>
      </trkpt>
      <trkpt lat="49.0328" lon="6.85924">
        <ele>234.3</ele>
        <time>2014-02-12T08:47:42Z</time>
      </trkpt>
      <trkpt lat="49.03276" lon="6.85926">
        <ele>234.6</ele>
        <time>2014-02-12T08:47:45Z</time>
      </trkpt>
      <trkpt lat="49.03272" lon="6.85929">
        <ele>234.6</ele>
        <time>2014-02-12T08:47:48Z</time>
      </trkpt>
      <trkpt lat="49.03269" lon="6.85931">
        <ele>234.5</ele>
        <time>2014-02-12T08:47:51Z</time>
      </trkpt>
      <trkpt lat="49.03265" lon="6.85935">
        <ele>234.5</ele>
        <time>2014-02-12T08:47:54Z</time>
      </trkpt>
      <trkpt lat="49.03261" lon="6.85937">
        <ele>234.6</ele>
        <time>2014-02-12T08:47:57Z</time>
      </trkpt>
      <trkpt lat="49.03257" lon="6.8594">
        <ele>234.6</ele>
        <time>2014-02-12T08:48:00Z</time>
      </trkpt>
      <trkpt lat="49.03254" lon="6.85942">
        <ele>234.9</ele>
        <time>2014-02-12T08:48:03Z</time>
      </trkpt>
      <trkpt lat="49.0325" lon="6.85945">
        <ele>234.7</ele>
        <time>2014-02-12T08:48:06Z</time>
      </trkpt>
      <trkpt lat="49.03246" lon="6.85947">
        <ele>234.2</ele>
        <time>2014-02-12T08:48:09Z</time>
      </trkpt>
      <trkpt lat="49.03242" lon="6.8595">
        <ele>233.9</ele>
        <time>2014-02-12T08:48:12Z</time>
      </trkpt>
      <trkpt lat="49.03238" lon="6.85953">
        <ele>233.9</ele>
        <time>2014-02-12T08:48:15Z</time>
      </trkpt>
      <trkpt lat="49.03235" lon="6.85954">
        <ele>233.5</ele>
        <time>2014-02-12T08:48:18Z</time>
      </trkpt>
      <trkpt lat="49.03232" lon="6.85955">
        <ele>233.6</ele>
        <time>2014-02-12T08:48:21Z</time>
      </trkpt>
      <trkpt lat="49.03229" lon="6.85957">
        <ele>234.1</ele>
        <time>2014-02-12T08:48:24Z</time>
      </trkpt>
      <trkpt lat="49.03226" lon="6.8596">
        <ele>234.6</ele>
        <time>2014-02-12T08:48:27Z</time>
      </trkpt>
      <trkpt lat="49.03222" lon="6.85964">
        <ele>234.3</ele>
        <time>2014-02-12T08:48:30Z</time>
      </trkpt>
      <trkpt lat="49.03219" lon="6.85968">
        <ele>234.7</ele>
        <time>2014-02-12T08:48:33Z</time>
      </trkpt>
      <trkpt lat="49.03211" lon="6.85974">
        <ele>235.3</ele>
        <time>2014-02-12T08:48:39Z</time>
      </trkpt>
      <trkpt lat="49.03207" lon="6.85977">
        <ele>234.9</ele>
        <time>2014-02-12T08:48:42Z</time>
      </trkpt>
      <trkpt lat="49.03204" lon="6.8598">
        <ele>235</ele>
        <time>2014-02-12T08:48:45Z</time>
      </trkpt>
      <trkpt lat="49.032" lon="6.85982">
        <ele>234.8</ele>
        <time>2014-02-12T08:48:48Z</time>
      </trkpt>
      <trkpt lat="49.03197" lon="6.85985">
        <ele>234.8</ele>
        <time>2014-02-12T08:48:51Z</time>
      </trkpt>
      <trkpt lat="49.03193" lon="6.85988">
        <ele>235.4</ele>
        <time>2014-02-12T08:48:54Z</time>
      </trkpt>
      <trkpt lat="49.03189" lon="6.85991">
        <ele>234.9</ele>
        <time>2014-02-12T08:48:57Z</time>
      </trkpt>
      <trkpt lat="49.03186" lon="6.85993">
        <ele>235</ele>
        <time>2014-02-12T08:49:00Z</time>
      </trkpt>
      <trkpt lat="49.03182" lon="6.85996">
        <ele>235.1</ele>
        <time>2014-02-12T08:49:03Z</time>
      </trkpt>
      <trkpt lat="49.03178" lon="6.85999">
        <ele>234.8</ele>
        <time>2014-02-12T08:49:06Z</time>
      </trkpt>
      <trkpt lat="49.03174" lon="6.86001">
        <ele>234.9</ele>
        <time>2014-02-12T08:49:09Z</time>
      </trkpt>
      <trkpt lat="49.0317" lon="6.86003">
        <ele>235</ele>
        <time>2014-02-12T08:49:12Z</time>
      </trkpt>
      <trkpt lat="49.03167" lon="6.86006">
        <ele>235.2</ele>
        <time>2014-02-12T08:49:15Z</time>
      </trkpt>
      <trkpt lat="49.03163" lon="6.86008">
        <ele>235.7</ele>
        <time>2014-02-12T08:49:18Z</time>
      </trkpt>
      <trkpt lat="49.03159" lon="6.8601">
        <ele>235.4</ele>
        <time>2014-02-12T08:49:21Z</time>
      </trkpt>
      <trkpt lat="49.03155" lon="6.86012">
        <ele>234.6</ele>
        <time>2014-02-12T08:49:24Z</time>
      </trkpt>
      <trkpt lat="49.03151" lon="6.86014">
        <ele>235</ele>
        <time>2014-02-12T08:49:27Z</time>
      </trkpt>
      <trkpt lat="49.03147" lon="6.86016">
        <ele>234.7</ele>
        <time>2014-02-12T08:49:30Z</time>
      </trkpt>
      <trkpt lat="49.03143" lon="6.86018">
        <ele>234.6</ele>
        <time>2014-02-12T08:49:33Z</time>
      </trkpt>
      <trkpt lat="49.0314" lon="6.8602">
        <ele>234.8</ele>
        <time>2014-02-12T08:49:36Z</time>
      </trkpt>
      <trkpt lat="49.03131" lon="6.86025">
        <ele>234.5</ele>
        <time>2014-02-12T08:49:42Z</time>
      </trkpt>
      <trkpt lat="49.03127" lon="6.86027">
        <ele>235</ele>
        <time>2014-02-12T08:49:45Z</time>
      </trkpt>
      <trkpt lat="49.03123" lon="6.86029">
        <ele>235.6</ele>
        <time>2014-02-12T08:49:48Z</time>
      </trkpt>
      <trkpt lat="49.03119" lon="6.86031">
        <ele>235.4</ele>
        <time>2014-02-12T08:49:51Z</time>
      </trkpt>
      <trkpt lat="49.03115" lon="6.86033">
        <ele>235</ele>
        <time>2014-02-12T08:49:54Z</time>
      </trkpt>
      <trkpt lat="49.03111" lon="6.86035">
        <ele>234.4</ele>
        <time>2014-02-12T08:49:57Z</time>
      </trkpt>
      <trkpt lat="49.03108" lon="6.86037">
        <ele>234</ele>
        <time>2014-02-12T08:50:00Z</time>
      </trkpt>
      <trkpt lat="49.03104" lon="6.86039">
        <ele>233.7</ele>
        <time>2014-02-12T08:50:03Z</time>
      </trkpt>
      <trkpt lat="49.031" lon="6.86041">
        <ele>234.5</ele>
        <time>2014-02-12T08:50:06Z</time>
      </trkpt>
      <trkpt lat="49.03096" lon="6.86043">
        <ele>234.6</ele>
        <time>2014-02-12T08:50:09Z</time>
      </trkpt>
      <trkpt lat="49.03092" lon="6.86045">
        <ele>234.8</ele>
        <time>2014-02-12T08:50:12Z</time>
      </trkpt>
      <trkpt lat="49.03088" lon="6.86047">
        <ele>235</ele>
        <time>2014-02-12T08:50:15Z</time>
      </trkpt>
      <trkpt lat="49.03085" lon="6.86048">
        <ele>235.1</ele>
        <time>2014-02-12T08:50:18Z</time>
      </trkpt>
      <trkpt lat="49.03081" lon="6.8605">
        <ele>235.6</ele>
        <time>2014-02-12T08:50:21Z</time>
      </trkpt>
      <trkpt lat="49.03077" lon="6.86052">
        <ele>235.8</ele>
        <time>2014-02-12T08:50:24Z</time>
      </trkpt>
      <trkpt lat="49.03073" lon="6.86054">
        <ele>236.2</ele>
        <time>2014-02-12T08:50:27Z</time>
      </trkpt>
      <trkpt lat="49.03069" lon="6.86055">
        <ele>234.5</ele>
        <time>2014-02-12T08:50:30Z</time>
      </trkpt>
      <trkpt lat="49.03065" lon="6.86057">
        <ele>234.6</ele>
        <time>2014-02-12T08:50:33Z</time>
      </trkpt>
      <trkpt lat="49.03061" lon="6.86059">
        <ele>235.3</ele>
        <time>2014-02-12T08:50:36Z</time>
      </trkpt>
      <trkpt lat="49.03058" lon="6.86061">
        <ele>235.5</ele>
        <time>2014-02-12T08:50:39Z</time>
      </trkpt>
      <trkpt lat="49.0305" lon="6.86065">
        <ele>235.8</ele>
        <time>2014-02-12T08:50:45Z</time>
      </trkpt>
      <trkpt lat="49.03046" lon="6.86067">
        <ele>235.7</ele>
        <time>2014-02-12T08:50:48Z</time>
      </trkpt>
      <trkpt lat="49.03042" lon="6.86069">
        <ele>236</ele>
        <time>2014-02-12T08:50:51Z</time>
      </trkpt>
      <trkpt lat="49.03038" lon="6.86072">
        <ele>236.1</ele>
        <time>2014-02-12T08:50:54Z</time>
      </trkpt>
      <trkpt lat="49.03035" lon="6.86075">
        <ele>236.3</ele>
        <time>2014-02-12T08:50:57Z</time>
      </trkpt>
      <trkpt lat="49.03031" lon="6.86078">
        <ele>235.7</ele>
        <time>2014-02-12T08:51:00Z</time>
      </trkpt>
      <trkpt lat="49.03027" lon="6.86081">
        <ele>235.6</ele>
        <time>2014-02-12T08:51:03Z</time>
      </trkpt>
      <trkpt lat="49.03024" lon="6.86084">
        <ele>235.7</ele>
        <time>2014-02-12T08:51:06Z</time>
      </trkpt>
      <trkpt lat="49.0302" lon="6.86088">
        <ele>235.6</ele>
        <time>2014-02-12T08:51:09Z</time>
      </trkpt>
      <trkpt lat="49.03017" lon="6.86091">
        <ele>235.2</ele>
        <time>2014-02-12T08:51:12Z</time>
      </trkpt>
      <trkpt lat="49.03014" lon="6.86095">
        <ele>235.8</ele>
        <time>2014-02-12T08:51:15Z</time>
      </trkpt>
      <trkpt lat="49.0301" lon="6.86099">
        <ele>236.2</ele>
        <time>2014-02-12T08:51:18Z</time>
      </trkpt>
      <trkpt lat="49.03007" lon="6.86103">
        <ele>236</ele>
        <time>2014-02-12T08:51:21Z</time>
      </trkpt>
      <trkpt lat="49.03004" lon="6.86107">
        <ele>235.5</ele>
        <time>2014-02-12T08:51:24Z</time>
      </trkpt>
      <trkpt lat="49.03001" lon="6.86111">
        <ele>235.5</ele>
        <time>2014-02-12T08:51:27Z</time>
      </trkpt>
      <trkpt lat="49.02999" lon="6.86115">
        <ele>235.1</ele>
        <time>2014-02-12T08:51:30Z</time>
      </trkpt>
      <trkpt lat="49.02996" lon="6.8612">
        <ele>235.7</ele>
        <time>2014-02-12T08:51:33Z</time>
      </trkpt>
      <trkpt lat="49.02993" lon="6.86125">
        <ele>235.5</ele>
        <time>2014-02-12T08:51:36Z</time>
      </trkpt>
      <trkpt lat="49.02991" lon="6.8613">
        <ele>235.3</ele>
        <time>2014-02-12T08:51:39Z</time>
      </trkpt>
      <trkpt lat="49.02988" lon="6.86135">
        <ele>235.3</ele>
        <time>2014-02-12T08:51:42Z</time>
      </trkpt>
      <trkpt lat="49.02983" lon="6.86146">
        <ele>234.9</ele>
        <time>2014-02-12T08:51:48Z</time>
      </trkpt>
      <trkpt lat="49.02981" lon="6.86151">
        <ele>234.6</ele>
        <time>2014-02-12T08:51:51Z</time>
      </trkpt>
      <trkpt lat="49.02979" lon="6.86157">
        <ele>234.8</ele>
        <time>2014-02-12T08:51:54Z</time>
      </trkpt>
      <trkpt lat="49.02977" lon="6.86162">
        <ele>234.9</ele>
        <time>2014-02-12T08:51:57Z</time>
      </trkpt>
      <trkpt lat="49.02975" lon="6.86167">
        <ele>234.5</ele>
        <time>2014-02-12T08:52:00Z</time>
      </trkpt>
      <trkpt lat="49.02973" lon="6.86173">
        <ele>234.5</ele>
        <time>2014-02-12T08:52:03Z</time>
      </trkpt>
      <trkpt lat="49.02971" lon="6.86179">
        <ele>234.4</ele>
        <time>2014-02-12T08:52:06Z</time>
      </trkpt>
      <trkpt lat="49.0297" lon="6.86185">
        <ele>234.9</ele>
        <time>2014-02-12T08:52:09Z</time>
      </trkpt>
      <trkpt lat="49.02968" lon="6.8619">
        <ele>235.2</ele>
        <time>2014-02-12T08:52:12Z</time>
      </trkpt>
      <trkpt lat="49.02967" lon="6.86195">
        <ele>235.7</ele>
        <time>2014-02-12T08:52:15Z</time>
      </trkpt>
      <trkpt lat="49.02965" lon="6.86201">
        <ele>235.2</ele>
        <time>2014-02-12T08:52:18Z</time>
      </trkpt>
      <trkpt lat="49.02964" lon="6.86206">
        <ele>234.9</ele>
        <time>2014-02-12T08:52:21Z</time>
      </trkpt>
      <trkpt lat="49.02962" lon="6.86211">
        <ele>235.2</ele>
        <time>2014-02-12T08:52:24Z</time>
      </trkpt>
      <trkpt lat="49.02961" lon="6.86216">
        <ele>235</ele>
        <time>2014-02-12T08:52:27Z</time>
      </trkpt>
      <trkpt lat="49.02959" lon="6.86222">
        <ele>234.7</ele>
        <time>2014-02-12T08:52:30Z</time>
      </trkpt>
      <trkpt lat="49.02957" lon="6.86228">
        <ele>234.9</ele>
        <time>2014-02-12T08:52:33Z</time>
      </trkpt>
      <trkpt lat="49.02956" lon="6.86234">
        <ele>234.6</ele>
        <time>2014-02-12T08:52:36Z</time>
      </trkpt>
      <trkpt lat="49.02955" lon="6.8624">
        <ele>234.8</ele>
        <time>2014-02-12T08:52:39Z</time>
      </trkpt>
      <trkpt lat="49.02953" lon="6.86246">
        <ele>235.3</ele>
        <time>2014-02-12T08:52:42Z</time>
      </trkpt>
      <trkpt lat="49.02951" lon="6.86252">
        <ele>234.9</ele>
        <time>2014-02-12T08:52:45Z</time>
      </trkpt>
      <trkpt lat="49.02949" lon="6.86263">
        <ele>234.4</ele>
        <time>2014-02-12T08:52:51Z</time>
      </trkpt>
      <trkpt lat="49.02948" lon="6.86269">
        <ele>234.4</ele>
        <time>2014-02-12T08:52:54Z</time>
      </trkpt>
      <trkpt lat="49.02946" lon="6.86275">
        <ele>234.7</ele>
        <time>2014-02-12T08:52:57Z</time>
      </trkpt>
      <trkpt lat="49.02945" lon="6.86281">
        <ele>234.5</ele>
        <time>2014-02-12T08:53:00Z</time>
      </trkpt>
      <trkpt lat="49.02944" lon="6.86287">
        <ele>234.7</ele>
        <time>2014-02-12T08:53:03Z</time>
      </trkpt>
      <trkpt lat="49.02943" lon="6.86293">
        <ele>234.4</ele>
        <time>2014-02-12T08:53:06Z</time>
      </trkpt>
      <trkpt lat="49.02942" lon="6.86299">
        <ele>234.9</ele>
        <time>2014-02-12T08:53:09Z</time>
      </trkpt>
      <trkpt lat="49.0294" lon="6.86305">
        <ele>234.6</ele>
        <time>2014-02-12T08:53:12Z</time>
      </trkpt>
      <trkpt lat="49.0294" lon="6.8631">
        <ele>234.6</ele>
        <time>2014-02-12T08:53:15Z</time>
      </trkpt>
      <trkpt lat="49.02938" lon="6.86316">
        <ele>233.7</ele>
        <time>2014-02-12T08:53:18Z</time>
      </trkpt>
      <trkpt lat="49.02937" lon="6.86322">
        <ele>234.4</ele>
        <time>2014-02-12T08:53:21Z</time>
      </trkpt>
      <trkpt lat="49.02936" lon="6.86328">
        <ele>234.5</ele>
        <time>2014-02-12T08:53:24Z</time>
      </trkpt>
      <trkpt lat="49.02935" lon="6.86334">
        <ele>234.6</ele>
        <time>2014-02-12T08:53:27Z</time>
      </trkpt>
      <trkpt lat="49.02934" lon="6.86339">
        <ele>234.7</ele>
        <time>2014-02-12T08:53:30Z</time>
      </trkpt>
      <trkpt lat="49.02933" lon="6.86345">
        <ele>234.4</ele>
        <time>2014-02-12T08:53:33Z</time>
      </trkpt>
      <trkpt lat="49.02932" lon="6.86351">
        <ele>233.9</ele>
        <time>2014-02-12T08:53:36Z</time>
      </trkpt>
      <trkpt lat="49.0293" lon="6.86357">
        <ele>234.4</ele>
        <time>2014-02-12T08:53:39Z</time>
      </trkpt>
      <trkpt lat="49.02929" lon="6.86364">
        <ele>234.4</ele>
        <time>2014-02-12T08:53:42Z</time>
      </trkpt>
      <trkpt lat="49.02929" lon="6.86369">
        <ele>234.3</ele>
        <time>2014-02-12T08:53:45Z</time>
      </trkpt>
      <trkpt lat="49.02928" lon="6.86375">
        <ele>234.1</ele>
        <time>2014-02-12T08:53:48Z</time>
      </trkpt>
      <trkpt lat="49.02928" lon="6.86385">
        <ele>234.3</ele>
        <time>2014-02-12T08:53:54Z</time>
      </trkpt>
      <trkpt lat="49.02928" lon="6.8639">
        <ele>234.6</ele>
        <time>2014-02-12T08:53:57Z</time>
      </trkpt>
      <trkpt lat="49.02929" lon="6.86397">
        <ele>235.2</ele>
        <time>2014-02-12T08:54:00Z</time>
      </trkpt>
      <trkpt lat="49.0293" lon="6.86403">
        <ele>235.5</ele>
        <time>2014-02-12T08:54:03Z</time>
      </trkpt>
      <trkpt lat="49.0293" lon="6.86409">
        <ele>235.4</ele>
        <time>2014-02-12T08:54:06Z</time>
      </trkpt>
      <trkpt lat="49.02932" lon="6.86414">
        <ele>235.5</ele>
        <time>2014-02-12T08:54:09Z</time>
      </trkpt>
      <trkpt lat="49.02933" lon="6.86419">
        <ele>235.2</ele>
        <time>2014-02-12T08:54:12Z</time>
      </trkpt>
      <trkpt lat="49.02934" lon="6.86425">
        <ele>234.9</ele>
        <time>2014-02-12T08:54:15Z</time>
      </trkpt>
      <trkpt lat="49.02936" lon="6.86431">
        <ele>235.3</ele>
        <time>2014-02-12T08:54:18Z</time>
      </trkpt>
      <trkpt lat="49.02937" lon="6.86436">
        <ele>235.5</ele>
        <time>2014-02-12T08:54:21Z</time>
      </trkpt>
      <trkpt lat="49.02937" lon="6.86442">
        <ele>234.9</ele>
        <time>2014-02-12T08:54:24Z</time>
      </trkpt>
      <trkpt lat="49.02938" lon="6.86449">
        <ele>234.5</ele>
        <time>2014-02-12T08:54:27Z</time>
      </trkpt>
      <trkpt lat="49.02937" lon="6.86456">
        <ele>235.6</ele>
        <time>2014-02-12T08:54:30Z</time>
      </trkpt>
      <trkpt lat="49.02937" lon="6.86462">
        <ele>235.8</ele>
        <time>2014-02-12T08:54:33Z</time>
      </trkpt>
      <trkpt lat="49.02936" lon="6.86468">
        <ele>236.1</ele>
        <time>2014-02-12T08:54:36Z</time>
      </trkpt>
      <trkpt lat="49.02935" lon="6.86474">
        <ele>235.6</ele>
        <time>2014-02-12T08:54:39Z</time>
      </trkpt>
      <trkpt lat="49.02933" lon="6.8648">
        <ele>235.6</ele>
        <time>2014-02-12T08:54:42Z</time>
      </trkpt>
      <trkpt lat="49.02931" lon="6.86487">
        <ele>235.7</ele>
        <time>2014-02-12T08:54:45Z</time>
      </trkpt>
      <trkpt lat="49.02929" lon="6.86493">
        <ele>235.4</ele>
        <time>2014-02-12T08:54:48Z</time>
      </trkpt>
      <trkpt lat="49.02927" lon="6.86498">
        <ele>235.3</ele>
        <time>2014-02-12T08:54:51Z</time>
      </trkpt>
      <trkpt lat="49.02922" lon="6.8651">
        <ele>234.7</ele>
        <time>2014-02-12T08:54:57Z</time>
      </trkpt>
      <trkpt lat="49.0292" lon="6.86515">
        <ele>234.6</ele>
        <time>2014-02-12T08:55:00Z</time>
      </trkpt>
      <trkpt lat="49.02918" lon="6.8652">
        <ele>234.8</ele>
        <time>2014-02-12T08:55:03Z</time>
      </trkpt>
      <trkpt lat="49.02916" lon="6.86524">
        <ele>234.7</ele>
        <time>2014-02-12T08:55:06Z</time>
      </trkpt>
      <trkpt lat="49.02913" lon="6.86529">
        <ele>234.5</ele>
        <time>2014-02-12T08:55:09Z</time>
      </trkpt>
      <trkpt lat="49.02911" lon="6.86533">
        <ele>234</ele>
        <time>2014-02-12T08:55:12Z</time>
      </trkpt>
      <trkpt lat="49.02908" lon="6.86538">
        <ele>234.3</ele>
        <time>2014-02-12T08:55:15Z</time>
      </trkpt>
      <trkpt lat="49.02905" lon="6.86543">
        <ele>233.5</ele>
        <time>2014-02-12T08:55:18Z</time>
      </trkpt>
      <trkpt lat="49.02902" lon="6.86549">
        <ele>233.9</ele>
        <time>2014-02-12T08:55:21Z</time>
      </trkpt>
      <trkpt lat="49.029" lon="6.86554">
        <ele>233.7</ele>
        <time>2014-02-12T08:55:24Z</time>
      </trkpt>
      <trkpt lat="49.02897" lon="6.8656">
        <ele>233.4</ele>
        <time>2014-02-12T08:55:27Z</time>
      </trkpt>
      <trkpt lat="49.02894" lon="6.86564">
        <ele>234</ele>
        <time>2014-02-12T08:55:30Z</time>
      </trkpt>
      <trkpt lat="49.02892" lon="6.86569">
        <ele>234.2</ele>
        <time>2014-02-12T08:55:33Z</time>
      </trkpt>
      <trkpt lat="49.02889" lon="6.86574">
        <ele>233.7</ele>
        <time>2014-02-12T08:55:36Z</time>
      </trkpt>
      <trkpt lat="49.02885" lon="6.86578">
        <ele>234.1</ele>
        <time>2014-02-12T08:55:39Z</time>
      </trkpt>
      <trkpt lat="49.02882" lon="6.86582">
        <ele>234.2</ele>
        <time>2014-02-12T08:55:42Z</time>
      </trkpt>
      <trkpt lat="49.02879" lon="6.86586">
        <ele>233.9</ele>
        <time>2014-02-12T08:55:45Z</time>
      </trkpt>
      <trkpt lat="49.02875" lon="6.86589">
        <ele>233.5</ele>
        <time>2014-02-12T08:55:48Z</time>
      </trkpt>
      <trkpt lat="49.02872" lon="6.86592">
        <ele>233</ele>
        <time>2014-02-12T08:55:51Z</time>
      </trkpt>
      <trkpt lat="49.02869" lon="6.86597">
        <ele>233.2</ele>
        <time>2014-02-12T08:55:54Z</time>
      </trkpt>
      <trkpt lat="49.02865" lon="6.86607">
        <ele>233.4</ele>
        <time>2014-02-12T08:56:00Z</time>
      </trkpt>
      <trkpt lat="49.02863" lon="6.86613">
        <ele>233.8</ele>
        <time>2014-02-12T08:56:03Z</time>
      </trkpt>
      <trkpt lat="49.02862" lon="6.86619">
        <ele>233.8</ele>
        <time>2014-02-12T08:56:06Z</time>
      </trkpt>
      <trkpt lat="49.02861" lon="6.86625">
        <ele>234.1</ele>
        <time>2014-02-12T08:56:09Z</time>
      </trkpt>
      <trkpt lat="49.02861" lon="6.86631">
        <ele>234.3</ele>
        <time>2014-02-12T08:56:12Z</time>
      </trkpt>
      <trkpt lat="49.02861" lon="6.86637">
        <ele>234.1</ele>
        <time>2014-02-12T08:56:15Z</time>
      </trkpt>
      <trkpt lat="49.02862" lon="6.86643">
        <ele>234.3</ele>
        <time>2014-02-12T08:56:18Z</time>
      </trkpt>
      <trkpt lat="49.02862" lon="6.86649">
        <ele>234.4</ele>
        <time>2014-02-12T08:56:21Z</time>
      </trkpt>
      <trkpt lat="49.02862" lon="6.86656">
        <ele>234.7</ele>
        <time>2014-02-12T08:56:24Z</time>
      </trkpt>
      <trkpt lat="49.02863" lon="6.86663">
        <ele>235.2</ele>
        <time>2014-02-12T08:56:27Z</time>
      </trkpt>
      <trkpt lat="49.02863" lon="6.86669">
        <ele>235.2</ele>
        <time>2014-02-12T08:56:30Z</time>
      </trkpt>
      <trkpt lat="49.02864" lon="6.86675">
        <ele>235.4</ele>
        <time>2014-02-12T08:56:33Z</time>
      </trkpt>
      <trkpt lat="49.02865" lon="6.86681">
        <ele>235.4</ele>
        <time>2014-02-12T08:56:36Z</time>
      </trkpt>
      <trkpt lat="49.02865" lon="6.86687">
        <ele>235.6</ele>
        <time>2014-02-12T08:56:39Z</time>
      </trkpt>
      <trkpt lat="49.02865" lon="6.86694">
        <ele>236</ele>
        <time>2014-02-12T08:56:42Z</time>
      </trkpt>
      <trkpt lat="49.02866" lon="6.867">
        <ele>236.1</ele>
        <time>2014-02-12T08:56:45Z</time>
      </trkpt>
      <trkpt lat="49.02866" lon="6.86706">
        <ele>236.2</ele>
        <time>2014-02-12T08:56:48Z</time>
      </trkpt>
      <trkpt lat="49.02867" lon="6.86712">
        <ele>236.6</ele>
        <time>2014-02-12T08:56:51Z</time>
      </trkpt>
      <trkpt lat="49.02867" lon="6.86718">
        <ele>236.4</ele>
        <time>2014-02-12T08:56:54Z</time>
      </trkpt>
      <trkpt lat="49.02868" lon="6.86724">
        <ele>236.5</ele>
        <time>2014-02-12T08:56:57Z</time>
      </trkpt>
      <trkpt lat="49.02869" lon="6.86737">
        <ele>236.3</ele>
        <time>2014-02-12T08:57:03Z</time>
      </trkpt>
      <trkpt lat="49.02869" lon="6.86743">
        <ele>236</ele>
        <time>2014-02-12T08:57:06Z</time>
      </trkpt>
      <trkpt lat="49.0287" lon="6.86749">
        <ele>236</ele>
        <time>2014-02-12T08:57:09Z</time>
      </trkpt>
      <trkpt lat="49.02871" lon="6.86755">
        <ele>235.9</ele>
        <time>2014-02-12T08:57:12Z</time>
      </trkpt>
      <trkpt lat="49.02872" lon="6.8676">
        <ele>235.6</ele>
        <time>2014-02-12T08:57:15Z</time>
      </trkpt>
      <trkpt lat="49.02873" lon="6.86766">
        <ele>236.1</ele>
        <time>2014-02-12T08:57:18Z</time>
      </trkpt>
      <trkpt lat="49.02874" lon="6.86771">
        <ele>235.3</ele>
        <time>2014-02-12T08:57:21Z</time>
      </trkpt>
      <trkpt lat="49.02875" lon="6.86777">
        <ele>235.5</ele>
        <time>2014-02-12T08:57:24Z</time>
      </trkpt>
      <trkpt lat="49.02876" lon="6.86782">
        <ele>235.4</ele>
        <time>2014-02-12T08:57:27Z</time>
      </trkpt>
      <trkpt lat="49.02877" lon="6.86787">
        <ele>235.9</ele>
        <time>2014-02-12T08:57:30Z</time>
      </trkpt>
      <trkpt lat="49.02878" lon="6.86792">
        <ele>236.2</ele>
        <time>2014-02-12T08:57:33Z</time>
      </trkpt>
      <trkpt lat="49.02879" lon="6.86797">
        <ele>236.2</ele>
        <time>2014-02-12T08:57:36Z</time>
      </trkpt>
      <trkpt lat="49.0288" lon="6.86801">
        <ele>236.2</ele>
        <time>2014-02-12T08:57:39Z</time>
      </trkpt>
      <trkpt lat="49.02882" lon="6.86805">
        <ele>235.8</ele>
        <time>2014-02-12T08:57:42Z</time>
      </trkpt>
      <trkpt lat="49.02883" lon="6.86808">
        <ele>236.1</ele>
        <time>2014-02-12T08:57:45Z</time>
      </trkpt>
      <trkpt lat="49.02885" lon="6.86813">
        <ele>236.2</ele>
        <time>2014-02-12T08:57:48Z</time>
      </trkpt>
      <trkpt lat="49.02887" lon="6.86818">
        <ele>236.4</ele>
        <time>2014-02-12T08:57:51Z</time>
      </trkpt>
      <trkpt lat="49.02891" lon="6.86823">
        <ele>236.5</ele>
        <time>2014-02-12T08:57:54Z</time>
      </trkpt>
      <trkpt lat="49.02894" lon="6.86827">
        <ele>235.8</ele>
        <time>2014-02-12T08:57:57Z</time>
      </trkpt>
      <trkpt lat="49.02897" lon="6.86831">
        <ele>235.2</ele>
        <time>2014-02-12T08:58:00Z</time>
      </trkpt>
      <trkpt lat="49.02904" lon="6.86838">
        <ele>236</ele>
        <time>2014-02-12T08:58:06Z</time>
      </trkpt>
      <trkpt lat="49.02908" lon="6.86841">
        <ele>236.6</ele>
        <time>2014-02-12T08:58:09Z</time>
      </trkpt>
      <trkpt lat="49.02912" lon="6.86844">
        <ele>236.7</ele>
        <time>2014-02-12T08:58:12Z</time>
      </trkpt>
      <trkpt lat="49.02916" lon="6.86846">
        <ele>237.1</ele>
        <time>2014-02-12T08:58:15Z</time>
      </trkpt>
      <trkpt lat="49.0292" lon="6.86849">
        <ele>236.4</ele>
        <time>2014-02-12T08:58:18Z</time>
      </trkpt>
      <trkpt lat="49.02923" lon="6.86851">
        <ele>236.5</ele>
        <time>2014-02-12T08:58:21Z</time>
      </trkpt>
      <trkpt lat="49.02926" lon="6.86853">
        <ele>236.3</ele>
        <time>2014-02-12T08:58:24Z</time>
      </trkpt>
      <trkpt lat="49.02929" lon="6.86855">
        <ele>236.6</ele>
        <time>2014-02-12T08:58:27Z</time>
      </trkpt>
      <trkpt lat="49.02932" lon="6.86857">
        <ele>236.9</ele>
        <time>2014-02-12T08:58:30Z</time>
      </trkpt>
      <trkpt lat="49.02935" lon="6.86859">
        <ele>237.3</ele>
        <time>2014-02-12T08:58:33Z</time>
      </trkpt>
      <trkpt lat="49.02937" lon="6.8686">
        <ele>237.4</ele>
        <time>2014-02-12T08:58:36Z</time>
      </trkpt>
      <trkpt lat="49.0294" lon="6.86861">
        <ele>237.6</ele>
        <time>2014-02-12T08:58:39Z</time>
      </trkpt>
      <trkpt lat="49.02943" lon="6.86863">
        <ele>238</ele>
        <time>2014-02-12T08:58:42Z</time>
      </trkpt>
      <trkpt lat="49.02947" lon="6.86865">
        <ele>238.4</ele>
        <time>2014-02-12T08:58:45Z</time>
      </trkpt>
      <trkpt lat="49.0295" lon="6.86867">
        <ele>238.3</ele>
        <time>2014-02-12T08:58:48Z</time>
      </trkpt>
      <trkpt lat="49.02955" lon="6.86868">
        <ele>238.4</ele>
        <time>2014-02-12T08:58:51Z</time>
      </trkpt>
      <trkpt lat="49.02959" lon="6.8687">
        <ele>239.5</ele>
        <time>2014-02-12T08:58:54Z</time>
      </trkpt>
      <trkpt lat="49.02963" lon="6.86872">
        <ele>238.9</ele>
        <time>2014-02-12T08:58:57Z</time>
      </trkpt>
      <trkpt lat="49.02968" lon="6.86874">
        <ele>238.8</ele>
        <time>2014-02-12T08:59:00Z</time>
      </trkpt>
      <trkpt lat="49.02971" lon="6.86876">
        <ele>239.2</ele>
        <time>2014-02-12T08:59:03Z</time>
      </trkpt>
      <trkpt lat="49.02977" lon="6.86882">
        <ele>239.5</ele>
        <time>2014-02-12T08:59:09Z</time>
      </trkpt>
      <trkpt lat="49.0298" lon="6.86884">
        <ele>239.4</ele>
        <time>2014-02-12T08:59:12Z</time>
      </trkpt>
      <trkpt lat="49.02985" lon="6.86885">
        <ele>239.6</ele>
        <time>2014-02-12T08:59:15Z</time>
      </trkpt>
      <trkpt lat="49.02989" lon="6.86886">
        <ele>240.5</ele>
        <time>2014-02-12T08:59:18Z</time>
      </trkpt>
      <trkpt lat="49.02993" lon="6.86889">
        <ele>240.7</ele>
        <time>2014-02-12T08:59:21Z</time>
      </trkpt>
      <trkpt lat="49.02998" lon="6.86892">
        <ele>241</ele>
        <time>2014-02-12T08:59:24Z</time>
      </trkpt>
      <trkpt lat="49.03002" lon="6.86895">
        <ele>240.8</ele>
        <time>2014-02-12T08:59:27Z</time>
      </trkpt>
      <trkpt lat="49.03005" lon="6.86899">
        <ele>241.2</ele>
        <time>2014-02-12T08:59:30Z</time>
      </trkpt>
      <trkpt lat="49.0301" lon="6.86902">
        <ele>241.3</ele>
        <time>2014-02-12T08:59:33Z</time>
      </trkpt>
      <trkpt lat="49.03014" lon="6.86906">
        <ele>241.1</ele>
        <time>2014-02-12T08:59:36Z</time>
      </trkpt>
      <trkpt lat="49.03018" lon="6.86909">
        <ele>240.4</ele>
        <time>2014-02-12T08:59:39Z</time>
      </trkpt>
      <trkpt lat="49.03022" lon="6.86913">
        <ele>241</ele>
        <time>2014-02-12T08:59:42Z</time>
      </trkpt>
      <trkpt lat="49.03025" lon="6.86917">
        <ele>241.6</ele>
        <time>2014-02-12T08:59:45Z</time>
      </trkpt>
      <trkpt lat="49.03029" lon="6.86921">
        <ele>241.8</ele>
        <time>2014-02-12T08:59:48Z</time>
      </trkpt>
      <trkpt lat="49.03032" lon="6.86926">
        <ele>241.9</ele>
        <time>2014-02-12T08:59:51Z</time>
      </trkpt>
      <trkpt lat="49.03035" lon="6.86931">
        <ele>242.1</ele>
        <time>2014-02-12T08:59:54Z</time>
      </trkpt>
      <trkpt lat="49.03038" lon="6.86936">
        <ele>241.9</ele>
        <time>2014-02-12T08:59:57Z</time>
      </trkpt>
      <trkpt lat="49.03039" lon="6.86943">
        <ele>242.6</ele>
        <time>2014-02-12T09:00:00Z</time>
      </trkpt>
      <trkpt lat="49.03041" lon="6.86949">
        <ele>242.1</ele>
        <time>2014-02-12T09:00:03Z</time>
      </trkpt>
      <trkpt lat="49.03041" lon="6.86956">
        <ele>241.9</ele>
        <time>2014-02-12T09:00:06Z</time>
      </trkpt>
      <trkpt lat="49.0304" lon="6.86969">
        <ele>241.8</ele>
        <time>2014-02-12T09:00:12Z</time>
      </trkpt>
      <trkpt lat="49.03038" lon="6.86976">
        <ele>241.3</ele>
        <time>2014-02-12T09:00:15Z</time>
      </trkpt>
      <trkpt lat="49.03036" lon="6.86982">
        <ele>240.9</ele>
        <time>2014-02-12T09:00:18Z</time>
      </trkpt>
      <trkpt lat="49.03034" lon="6.86989">
        <ele>240.9</ele>
        <time>2014-02-12T09:00:21Z</time>
      </trkpt>
      <trkpt lat="49.03032" lon="6.86995">
        <ele>240.5</ele>
        <time>2014-02-12T09:00:24Z</time>
      </trkpt>
      <trkpt lat="49.0303" lon="6.87001">
        <ele>240.2</ele>
        <time>2014-02-12T09:00:27Z</time>
      </trkpt>
      <trkpt lat="49.03027" lon="6.87006">
        <ele>239.9</ele>
        <time>2014-02-12T09:00:30Z</time>
      </trkpt>
      <trkpt lat="49.03025" lon="6.87012">
        <ele>239.9</ele>
        <time>2014-02-12T09:00:33Z</time>
      </trkpt>
      <trkpt lat="49.03023" lon="6.87016">
        <ele>239.4</ele>
        <time>2014-02-12T09:00:36Z</time>
      </trkpt>
      <trkpt lat="49.0302" lon="6.8702">
        <ele>239.6</ele>
        <time>2014-02-12T09:00:39Z</time>
      </trkpt>
      <trkpt lat="49.03018" lon="6.87024">
        <ele>239.6</ele>
        <time>2014-02-12T09:00:42Z</time>
      </trkpt>
      <trkpt lat="49.03017" lon="6.87029">
        <ele>239.5</ele>
        <time>2014-02-12T09:00:45Z</time>
      </trkpt>
      <trkpt lat="49.03014" lon="6.87034">
        <ele>239.8</ele>
        <time>2014-02-12T09:00:48Z</time>
      </trkpt>
      <trkpt lat="49.03012" lon="6.87039">
        <ele>239.5</ele>
        <time>2014-02-12T09:00:51Z</time>
      </trkpt>
      <trkpt lat="49.03009" lon="6.87044">
        <ele>239.3</ele>
        <time>2014-02-12T09:00:54Z</time>
      </trkpt>
      <trkpt lat="49.03006" lon="6.8705">
        <ele>239.5</ele>
        <time>2014-02-12T09:00:57Z</time>
      </trkpt>
      <trkpt lat="49.03004" lon="6.87055">
        <ele>239.8</ele>
        <time>2014-02-12T09:01:00Z</time>
      </trkpt>
      <trkpt lat="49.03001" lon="6.87061">
        <ele>239.6</ele>
        <time>2014-02-12T09:01:03Z</time>
      </trkpt>
      <trkpt lat="49.02999" lon="6.87066">
        <ele>239.5</ele>
        <time>2014-02-12T09:01:06Z</time>
      </trkpt>
      <trkpt lat="49.02996" lon="6.87071">
        <ele>239.9</ele>
        <time>2014-02-12T09:01:09Z</time>
      </trkpt>
      <trkpt lat="49.0299" lon="6.87082">
        <ele>239.2</ele>
        <time>2014-02-12T09:01:15Z</time>
      </trkpt>
      <trkpt lat="49.02988" lon="6.87087">
        <ele>239.2</ele>
        <time>2014-02-12T09:01:18Z</time>
      </trkpt>
      <trkpt lat="49.02985" lon="6.87092">
        <ele>239.2</ele>
        <time>2014-02-12T09:01:21Z</time>
      </trkpt>
      <trkpt lat="49.02983" lon="6.87097">
        <ele>239.8</ele>
        <time>2014-02-12T09:01:24Z</time>
      </trkpt>
      <trkpt lat="49.02981" lon="6.87102">
        <ele>239.3</ele>
        <time>2014-02-12T09:01:27Z</time>
      </trkpt>
      <trkpt lat="49.02978" lon="6.87107">
        <ele>238.6</ele>
        <time>2014-02-12T09:01:30Z</time>
      </trkpt>
      <trkpt lat="49.02976" lon="6.87112">
        <ele>238.3</ele>
        <time>2014-02-12T09:01:33Z</time>
      </trkpt>
      <trkpt lat="49.02973" lon="6.87117">
        <ele>239</ele>
        <time>2014-02-12T09:01:36Z</time>
      </trkpt>
      <trkpt lat="49.02971" lon="6.87122">
        <ele>238.3</ele>
        <time>2014-02-12T09:01:39Z</time>
      </trkpt>
      <trkpt lat="49.02968" lon="6.87127">
        <ele>238.1</ele>
        <time>2014-02-12T09:01:42Z</time>
      </trkpt>
      <trkpt lat="49.02965" lon="6.87132">
        <ele>237.8</ele>
        <time>2014-02-12T09:01:45Z</time>
      </trkpt>
      <trkpt lat="49.02963" lon="6.87137">
        <ele>238.3</ele>
        <time>2014-02-12T09:01:48Z</time>
      </trkpt>
      <trkpt lat="49.0296" lon="6.87142">
        <ele>238.5</ele>
        <time>2014-02-12T09:01:51Z</time>
      </trkpt>
      <trkpt lat="49.02958" lon="6.87147">
        <ele>238.6</ele>
        <time>2014-02-12T09:01:54Z</time>
      </trkpt>
      <trkpt lat="49.02955" lon="6.87152">
        <ele>239</ele>
        <time>2014-02-12T09:01:57Z</time>
      </trkpt>
      <trkpt lat="49.02952" lon="6.87157">
        <ele>239.3</ele>
        <time>2014-02-12T09:02:00Z</time>
      </trkpt>
      <trkpt lat="49.0295" lon="6.87162">
        <ele>239.7</ele>
        <time>2014-02-12T09:02:03Z</time>
      </trkpt>
      <trkpt lat="49.02947" lon="6.87168">
        <ele>240</ele>
        <time>2014-02-12T09:02:06Z</time>
      </trkpt>
      <trkpt lat="49.02945" lon="6.87173">
        <ele>239.3</ele>
        <time>2014-02-12T09:02:09Z</time>
      </trkpt>
      <trkpt lat="49.02942" lon="6.87179">
        <ele>239.3</ele>
        <time>2014-02-12T09:02:12Z</time>
      </trkpt>
      <trkpt lat="49.02938" lon="6.87189">
        <ele>239.5</ele>
        <time>2014-02-12T09:02:18Z</time>
      </trkpt>
      <trkpt lat="49.02936" lon="6.87194">
        <ele>238.5</ele>
        <time>2014-02-12T09:02:21Z</time>
      </trkpt>
      <trkpt lat="49.02934" lon="6.87199">
        <ele>238.6</ele>
        <time>2014-02-12T09:02:24Z</time>
      </trkpt>
      <trkpt lat="49.02932" lon="6.87204">
        <ele>238.5</ele>
        <time>2014-02-12T09:02:27Z</time>
      </trkpt>
      <trkpt lat="49.0293" lon="6.87209">
        <ele>238.5</ele>
        <time>2014-02-12T09:02:30Z</time>
      </trkpt>
      <trkpt lat="49.02928" lon="6.87214">
        <ele>238.3</ele>
        <time>2014-02-12T09:02:33Z</time>
      </trkpt>
      <trkpt lat="49.02926" lon="6.8722">
        <ele>238</ele>
        <time>2014-02-12T09:02:36Z</time>
      </trkpt>
      <trkpt lat="49.02924" lon="6.87225">
        <ele>237.9</ele>
        <time>2014-02-12T09:02:39Z</time>
      </trkpt>
      <trkpt lat="49.02922" lon="6.87231">
        <ele>238</ele>
        <time>2014-02-12T09:02:42Z</time>
      </trkpt>
      <trkpt lat="49.0292" lon="6.87237">
        <ele>237.3</ele>
        <time>2014-02-12T09:02:45Z</time>
      </trkpt>
      <trkpt lat="49.02919" lon="6.87242">
        <ele>237.2</ele>
        <time>2014-02-12T09:02:48Z</time>
      </trkpt>
      <trkpt lat="49.02918" lon="6.87248">
        <ele>236.1</ele>
        <time>2014-02-12T09:02:51Z</time>
      </trkpt>
      <trkpt lat="49.02916" lon="6.87253">
        <ele>235.6</ele>
        <time>2014-02-12T09:02:54Z</time>
      </trkpt>
      <trkpt lat="49.02914" lon="6.87259">
        <ele>235.6</ele>
        <time>2014-02-12T09:02:57Z</time>
      </trkpt>
      <trkpt lat="49.02912" lon="6.87265">
        <ele>236</ele>
        <time>2014-02-12T09:03:00Z</time>
      </trkpt>
      <trkpt lat="49.0291" lon="6.8727">
        <ele>235.9</ele>
        <time>2014-02-12T09:03:03Z</time>
      </trkpt>
      <trkpt lat="49.02908" lon="6.87275">
        <ele>235.3</ele>
        <time>2014-02-12T09:03:06Z</time>
      </trkpt>
      <trkpt lat="49.02906" lon="6.87281">
        <ele>235.4</ele>
        <time>2014-02-12T09:03:09Z</time>
      </trkpt>
      <trkpt lat="49.02904" lon="6.87286">
        <ele>234.6</ele>
        <time>2014-02-12T09:03:12Z</time>
      </trkpt>
      <trkpt lat="49.02902" lon="6.87291">
        <ele>234.1</ele>
        <time>2014-02-12T09:03:15Z</time>
      </trkpt>
      <trkpt lat="49.02897" lon="6.87301">
        <ele>233.2</ele>
        <time>2014-02-12T09:03:21Z</time>
      </trkpt>
      <trkpt lat="49.02894" lon="6.87305">
        <ele>232.9</ele>
        <time>2014-02-12T09:03:24Z</time>
      </trkpt>
      <trkpt lat="49.02891" lon="6.87308">
        <ele>232.6</ele>
        <time>2014-02-12T09:03:27Z</time>
      </trkpt>
      <trkpt lat="49.02888" lon="6.87311">
        <ele>231.8</ele>
        <time>2014-02-12T09:03:30Z</time>
      </trkpt>
      <trkpt lat="49.02885" lon="6.87313">
        <ele>232.4</ele>
        <time>2014-02-12T09:03:33Z</time>
      </trkpt>
      <trkpt lat="49.02882" lon="6.87314">
        <ele>232.1</ele>
        <time>2014-02-12T09:03:36Z</time>
      </trkpt>
      <trkpt lat="49.02879" lon="6.87316">
        <ele>231.8</ele>
        <time>2014-02-12T09:03:39Z</time>
      </trkpt>
      <trkpt lat="49.02876" lon="6.87319">
        <ele>232.5</ele>
        <time>2014-02-12T09:03:42Z</time>
      </trkpt>
      <trkpt lat="49.02872" lon="6.87322">
        <ele>231.7</ele>
        <time>2014-02-12T09:03:45Z</time>
      </trkpt>
      <trkpt lat="49.02869" lon="6.87326">
        <ele>231</ele>
        <time>2014-02-12T09:03:48Z</time>
      </trkpt>
      <trkpt lat="49.02865" lon="6.87328">
        <ele>230.6</ele>
        <time>2014-02-12T09:03:51Z</time>
      </trkpt>
      <trkpt lat="49.02861" lon="6.87331">
        <ele>230.3</ele>
        <time>2014-02-12T09:03:54Z</time>
      </trkpt>
      <trkpt lat="49.02857" lon="6.87335">
        <ele>230.3</ele>
        <time>2014-02-12T09:03:57Z</time>
      </trkpt>
      <trkpt lat="49.02854" lon="6.87338">
        <ele>230</ele>
        <time>2014-02-12T09:04:00Z</time>
      </trkpt>
      <trkpt lat="49.02851" lon="6.87341">
        <ele>230</ele>
        <time>2014-02-12T09:04:03Z</time>
      </trkpt>
      <trkpt lat="49.02848" lon="6.87345">
        <ele>229.1</ele>
        <time>2014-02-12T09:04:06Z</time>
      </trkpt>
      <trkpt lat="49.02845" lon="6.8735">
        <ele>229.1</ele>
        <time>2014-02-12T09:04:09Z</time>
      </trkpt>
      <trkpt lat="49.02842" lon="6.87355">
        <ele>228.7</ele>
        <time>2014-02-12T09:04:12Z</time>
      </trkpt>
      <trkpt lat="49.02839" lon="6.87361">
        <ele>228.2</ele>
        <time>2014-02-12T09:04:15Z</time>
      </trkpt>
      <trkpt lat="49.02836" lon="6.87366">
        <ele>229.1</ele>
        <time>2014-02-12T09:04:18Z</time>
      </trkpt>
      <trkpt lat="49.02832" lon="6.87377">
        <ele>229.2</ele>
        <time>2014-02-12T09:04:24Z</time>
      </trkpt>
      <trkpt lat="49.0283" lon="6.87381">
        <ele>228.8</ele>
        <time>2014-02-12T09:04:27Z</time>
      </trkpt>
      <trkpt lat="49.02829" lon="6.87386">
        <ele>228.1</ele>
        <time>2014-02-12T09:04:30Z</time>
      </trkpt>
      <trkpt lat="49.02828" lon="6.87392">
        <ele>228</ele>
        <time>2014-02-12T09:04:33Z</time>
      </trkpt>
      <trkpt lat="49.02827" lon="6.87397">
        <ele>228.3</ele>
        <time>2014-02-12T09:04:36Z</time>
      </trkpt>
      <trkpt lat="49.02826" lon="6.87403">
        <ele>228.3</ele>
        <time>2014-02-12T09:04:39Z</time>
      </trkpt>
      <trkpt lat="49.02825" lon="6.8741">
        <ele>228.2</ele>
        <time>2014-02-12T09:04:42Z</time>
      </trkpt>
      <trkpt lat="49.02824" lon="6.87416">
        <ele>227.8</ele>
        <time>2014-02-12T09:04:45Z</time>
      </trkpt>
      <trkpt lat="49.02822" lon="6.87423">
        <ele>227.9</ele>
        <time>2014-02-12T09:04:48Z</time>
      </trkpt>
      <trkpt lat="49.02821" lon="6.87429">
        <ele>228.2</ele>
        <time>2014-02-12T09:04:51Z</time>
      </trkpt>
      <trkpt lat="49.0282" lon="6.87435">
        <ele>227.7</ele>
        <time>2014-02-12T09:04:54Z</time>
      </trkpt>
      <trkpt lat="49.02819" lon="6.8744">
        <ele>227.1</ele>
        <time>2014-02-12T09:04:57Z</time>
      </trkpt>
      <trkpt lat="49.02819" lon="6.87446">
        <ele>226.8</ele>
        <time>2014-02-12T09:05:00Z</time>
      </trkpt>
      <trkpt lat="49.02818" lon="6.87451">
        <ele>227</ele>
        <time>2014-02-12T09:05:03Z</time>
      </trkpt>
      <trkpt lat="49.02817" lon="6.87457">
        <ele>227.4</ele>
        <time>2014-02-12T09:05:06Z</time>
      </trkpt>
      <trkpt lat="49.02817" lon="6.87463">
        <ele>227.1</ele>
        <time>2014-02-12T09:05:09Z</time>
      </trkpt>
      <trkpt lat="49.02816" lon="6.8747">
        <ele>226.7</ele>
        <time>2014-02-12T09:05:12Z</time>
      </trkpt>
      <trkpt lat="49.02816" lon="6.87476">
        <ele>226.7</ele>
        <time>2014-02-12T09:05:15Z</time>
      </trkpt>
      <trkpt lat="49.02814" lon="6.87483">
        <ele>226.6</ele>
        <time>2014-02-12T09:05:18Z</time>
      </trkpt>
      <trkpt lat="49.02812" lon="6.8749">
        <ele>227.1</ele>
        <time>2014-02-12T09:05:21Z</time>
      </trkpt>
      <trkpt lat="49.02808" lon="6.87502">
        <ele>227.2</ele>
        <time>2014-02-12T09:05:27Z</time>
      </trkpt>
      <trkpt lat="49.02806" lon="6.87508">
        <ele>227.1</ele>
        <time>2014-02-12T09:05:30Z</time>
      </trkpt>
      <trkpt lat="49.02803" lon="6.87513">
        <ele>226.5</ele>
        <time>2014-02-12T09:05:33Z</time>
      </trkpt>
      <trkpt lat="49.02801" lon="6.87517">
        <ele>225.6</ele>
        <time>2014-02-12T09:05:36Z</time>
      </trkpt>
      <trkpt lat="49.02798" lon="6.87523">
        <ele>226.3</ele>
        <time>2014-02-12T09:05:39Z</time>
      </trkpt>
      <trkpt lat="49.02795" lon="6.87527">
        <ele>226.3</ele>
        <time>2014-02-12T09:05:42Z</time>
      </trkpt>
      <trkpt lat="49.02792" lon="6.87532">
        <ele>225.9</ele>
        <time>2014-02-12T09:05:45Z</time>
      </trkpt>
      <trkpt lat="49.02789" lon="6.87537">
        <ele>226.4</ele>
        <time>2014-02-12T09:05:48Z</time>
      </trkpt>
      <trkpt lat="49.02787" lon="6.87542">
        <ele>227</ele>
        <time>2014-02-12T09:05:51Z</time>
      </trkpt>
      <trkpt lat="49.02784" lon="6.87547">
        <ele>227.3</ele>
        <time>2014-02-12T09:05:54Z</time>
      </trkpt>
      <trkpt lat="49.02781" lon="6.87553">
        <ele>227.1</ele>
        <time>2014-02-12T09:05:57Z</time>
      </trkpt>
      <trkpt lat="49.02778" lon="6.87558">
        <ele>226.8</ele>
        <time>2014-02-12T09:06:00Z</time>
      </trkpt>
      <trkpt lat="49.02776" lon="6.87563">
        <ele>226.7</ele>
        <time>2014-02-12T09:06:03Z</time>
      </trkpt>
      <trkpt lat="49.02773" lon="6.87568">
        <ele>226</ele>
        <time>2014-02-12T09:06:06Z</time>
      </trkpt>
      <trkpt lat="49.02771" lon="6.87574">
        <ele>226.8</ele>
        <time>2014-02-12T09:06:09Z</time>
      </trkpt>
      <trkpt lat="49.02769" lon="6.87578">
        <ele>226.7</ele>
        <time>2014-02-12T09:06:12Z</time>
      </trkpt>
      <trkpt lat="49.02766" lon="6.87583">
        <ele>226.9</ele>
        <time>2014-02-12T09:06:15Z</time>
      </trkpt>
      <trkpt lat="49.02764" lon="6.87587">
        <ele>227.4</ele>
        <time>2014-02-12T09:06:18Z</time>
      </trkpt>
      <trkpt lat="49.02762" lon="6.87591">
        <ele>228.4</ele>
        <time>2014-02-12T09:06:21Z</time>
      </trkpt>
      <trkpt lat="49.02759" lon="6.87596">
        <ele>228.2</ele>
        <time>2014-02-12T09:06:24Z</time>
      </trkpt>
      <trkpt lat="49.02753" lon="6.87607">
        <ele>226.9</ele>
        <time>2014-02-12T09:06:30Z</time>
      </trkpt>
      <trkpt lat="49.0275" lon="6.87614">
        <ele>226.7</ele>
        <time>2014-02-12T09:06:33Z</time>
      </trkpt>
      <trkpt lat="49.02748" lon="6.8762">
        <ele>226.6</ele>
        <time>2014-02-12T09:06:36Z</time>
      </trkpt>
      <trkpt lat="49.02745" lon="6.87625">
        <ele>226.5</ele>
        <time>2014-02-12T09:06:39Z</time>
      </trkpt>
      <trkpt lat="49.02743" lon="6.8763">
        <ele>226.9</ele>
        <time>2014-02-12T09:06:42Z</time>
      </trkpt>
      <trkpt lat="49.02741" lon="6.87635">
        <ele>227.3</ele>
        <time>2014-02-12T09:06:45Z</time>
      </trkpt>
      <trkpt lat="49.02739" lon="6.8764">
        <ele>227.4</ele>
        <time>2014-02-12T09:06:48Z</time>
      </trkpt>
      <trkpt lat="49.02737" lon="6.87646">
        <ele>227.6</ele>
        <time>2014-02-12T09:06:51Z</time>
      </trkpt>
      <trkpt lat="49.02735" lon="6.87651">
        <ele>227.2</ele>
        <time>2014-02-12T09:06:54Z</time>
      </trkpt>
      <trkpt lat="49.02733" lon="6.87656">
        <ele>227.3</ele>
        <time>2014-02-12T09:06:57Z</time>
      </trkpt>
      <trkpt lat="49.02732" lon="6.8766">
        <ele>227.3</ele>
        <time>2014-02-12T09:07:00Z</time>
      </trkpt>
      <trkpt lat="49.0273" lon="6.87665">
        <ele>227</ele>
        <time>2014-02-12T09:07:03Z</time>
      </trkpt>
      <trkpt lat="49.02728" lon="6.87672">
        <ele>227</ele>
        <time>2014-02-12T09:07:06Z</time>
      </trkpt>
      <trkpt lat="49.02726" lon="6.87677">
        <ele>227.1</ele>
        <time>2014-02-12T09:07:09Z</time>
      </trkpt>
      <trkpt lat="49.02724" lon="6.87683">
        <ele>227.5</ele>
        <time>2014-02-12T09:07:12Z</time>
      </trkpt>
      <trkpt lat="49.02722" lon="6.87688">
        <ele>227.8</ele>
        <time>2014-02-12T09:07:15Z</time>
      </trkpt>
      <trkpt lat="49.0272" lon="6.87693">
        <ele>228</ele>
        <time>2014-02-12T09:07:18Z</time>
      </trkpt>
      <trkpt lat="49.02718" lon="6.87699">
        <ele>229</ele>
        <time>2014-02-12T09:07:21Z</time>
      </trkpt>
      <trkpt lat="49.02717" lon="6.87705">
        <ele>228.1</ele>
        <time>2014-02-12T09:07:24Z</time>
      </trkpt>
      <trkpt lat="49.02714" lon="6.87711">
        <ele>227.8</ele>
        <time>2014-02-12T09:07:27Z</time>
      </trkpt>
      <trkpt lat="49.0271" lon="6.87722">
        <ele>227.6</ele>
        <time>2014-02-12T09:07:33Z</time>
      </trkpt>
      <trkpt lat="49.02708" lon="6.87727">
        <ele>228</ele>
        <time>2014-02-12T09:07:36Z</time>
      </trkpt>
      <trkpt lat="49.02707" lon="6.87733">
        <ele>227.7</ele>
        <time>2014-02-12T09:07:39Z</time>
      </trkpt>
      <trkpt lat="49.02704" lon="6.87739">
        <ele>227.4</ele>
        <time>2014-02-12T09:07:42Z</time>
      </trkpt>
      <trkpt lat="49.02702" lon="6.87744">
        <ele>228</ele>
        <time>2014-02-12T09:07:45Z</time>
      </trkpt>
      <trkpt lat="49.027" lon="6.8775">
        <ele>227.8</ele>
        <time>2014-02-12T09:07:48Z</time>
      </trkpt>
      <trkpt lat="49.02698" lon="6.87756">
        <ele>227.6</ele>
        <time>2014-02-12T09:07:51Z</time>
      </trkpt>
      <trkpt lat="49.02696" lon="6.87762">
        <ele>227.9</ele>
        <time>2014-02-12T09:07:54Z</time>
      </trkpt>
      <trkpt lat="49.02694" lon="6.87767">
        <ele>227.5</ele>
        <time>2014-02-12T09:07:57Z</time>
      </trkpt>
      <trkpt lat="49.02692" lon="6.87773">
        <ele>228.8</ele>
        <time>2014-02-12T09:08:00Z</time>
      </trkpt>
      <trkpt lat="49.02691" lon="6.87777">
        <ele>228.7</ele>
        <time>2014-02-12T09:08:03Z</time>
      </trkpt>
      <trkpt lat="49.02689" lon="6.87782">
        <ele>228.7</ele>
        <time>2014-02-12T09:08:06Z</time>
      </trkpt>
      <trkpt lat="49.02687" lon="6.87787">
        <ele>228.3</ele>
        <time>2014-02-12T09:08:09Z</time>
      </trkpt>
      <trkpt lat="49.02685" lon="6.87793">
        <ele>228.8</ele>
        <time>2014-02-12T09:08:12Z</time>
      </trkpt>
      <trkpt lat="49.02683" lon="6.87798">
        <ele>229</ele>
        <time>2014-02-12T09:08:15Z</time>
      </trkpt>
      <trkpt lat="49.02681" lon="6.87803">
        <ele>228.7</ele>
        <time>2014-02-12T09:08:18Z</time>
      </trkpt>
      <trkpt lat="49.02679" lon="6.87809">
        <ele>228.8</ele>
        <time>2014-02-12T09:08:21Z</time>
      </trkpt>
      <trkpt lat="49.02676" lon="6.87816">
        <ele>228.6</ele>
        <time>2014-02-12T09:08:24Z</time>
      </trkpt>
      <trkpt lat="49.02674" lon="6.87821">
        <ele>228.2</ele>
        <time>2014-02-12T09:08:27Z</time>
      </trkpt>
      <trkpt lat="49.02672" lon="6.87827">
        <ele>227.8</ele>
        <time>2014-02-12T09:08:30Z</time>
      </trkpt>
      <trkpt lat="49.02668" lon="6.87838">
        <ele>228.7</ele>
        <time>2014-02-12T09:08:36Z</time>
      </trkpt>
      <trkpt lat="49.02666" lon="6.87843">
        <ele>228.7</ele>
        <time>2014-02-12T09:08:39Z</time>
      </trkpt>
      <trkpt lat="49.02664" lon="6.87848">
        <ele>228.3</ele>
        <time>2014-02-12T09:08:42Z</time>
      </trkpt>
      <trkpt lat="49.02662" lon="6.87854">
        <ele>228.3</ele>
        <time>2014-02-12T09:08:45Z</time>
      </trkpt>
      <trkpt lat="49.02661" lon="6.87859">
        <ele>228.3</ele>
        <time>2014-02-12T09:08:48Z</time>
      </trkpt>
      <trkpt lat="49.02659" lon="6.87864">
        <ele>228</ele>
        <time>2014-02-12T09:08:51Z</time>
      </trkpt>
      <trkpt lat="49.02657" lon="6.87869">
        <ele>227.9</ele>
        <time>2014-02-12T09:08:54Z</time>
      </trkpt>
      <trkpt lat="49.02655" lon="6.87874">
        <ele>228.1</ele>
        <time>2014-02-12T09:08:57Z</time>
      </trkpt>
      <trkpt lat="49.02654" lon="6.87879">
        <ele>228.3</ele>
        <time>2014-02-12T09:09:00Z</time>
      </trkpt>
      <trkpt lat="49.02652" lon="6.87885">
        <ele>228.5</ele>
        <time>2014-02-12T09:09:03Z</time>
      </trkpt>
      <trkpt lat="49.0265" lon="6.87891">
        <ele>228.4</ele>
        <time>2014-02-12T09:09:06Z</time>
      </trkpt>
      <trkpt lat="49.02649" lon="6.87896">
        <ele>228.4</ele>
        <time>2014-02-12T09:09:09Z</time>
      </trkpt>
      <trkpt lat="49.02647" lon="6.87902">
        <ele>228.3</ele>
        <time>2014-02-12T09:09:12Z</time>
      </trkpt>
      <trkpt lat="49.02645" lon="6.87908">
        <ele>228.2</ele>
        <time>2014-02-12T09:09:15Z</time>
      </trkpt>
      <trkpt lat="49.02644" lon="6.87914">
        <ele>228</ele>
        <time>2014-02-12T09:09:18Z</time>
      </trkpt>
      <trkpt lat="49.02643" lon="6.87919">
        <ele>227.9</ele>
        <time>2014-02-12T09:09:21Z</time>
      </trkpt>
      <trkpt lat="49.02642" lon="6.87925">
        <ele>228</ele>
        <time>2014-02-12T09:09:24Z</time>
      </trkpt>
      <trkpt lat="49.02641" lon="6.8793">
        <ele>227.2</ele>
        <time>2014-02-12T09:09:27Z</time>
      </trkpt>
      <trkpt lat="49.0264" lon="6.87937">
        <ele>226.7</ele>
        <time>2014-02-12T09:09:30Z</time>
      </trkpt>
      <trkpt lat="49.0264" lon="6.87943">
        <ele>226.9</ele>
        <time>2014-02-12T09:09:33Z</time>
      </trkpt>
      <trkpt lat="49.02641" lon="6.87953">
        <ele>227.2</ele>
        <time>2014-02-12T09:09:39Z</time>
      </trkpt>
      <trkpt lat="49.02642" lon="6.87959">
        <ele>227.5</ele>
        <time>2014-02-12T09:09:42Z</time>
      </trkpt>
      <trkpt lat="49.02643" lon="6.87965">
        <ele>227.4</ele>
        <time>2014-02-12T09:09:45Z</time>
      </trkpt>
      <trkpt lat="49.02645" lon="6.8797">
        <ele>227.3</ele>
        <time>2014-02-12T09:09:48Z</time>
      </trkpt>
      <trkpt lat="49.02647" lon="6.87975">
        <ele>227.2</ele>
        <time>2014-02-12T09:09:51Z</time>
      </trkpt>
      <trkpt lat="49.02649" lon="6.87979">
        <ele>227.3</ele>
        <time>2014-02-12T09:09:54Z</time>
      </trkpt>
      <trkpt lat="49.02651" lon="6.87984">
        <ele>227.3</ele>
        <time>2014-02-12T09:09:57Z</time>
      </trkpt>
      <trkpt lat="49.02654" lon="6.87988">
        <ele>227.7</ele>
        <time>2014-02-12T09:10:00Z</time>
      </trkpt>
      <trkpt lat="49.02656" lon="6.87993">
        <ele>228.3</ele>
        <time>2014-02-12T09:10:03Z</time>
      </trkpt>
      <trkpt lat="49.02657" lon="6.88">
        <ele>228.4</ele>
        <time>2014-02-12T09:10:06Z</time>
      </trkpt>
      <trkpt lat="49.02658" lon="6.88005">
        <ele>228.1</ele>
        <time>2014-02-12T09:10:09Z</time>
      </trkpt>
      <trkpt lat="49.02659" lon="6.88011">
        <ele>228</ele>
        <time>2014-02-12T09:10:12Z</time>
      </trkpt>
      <trkpt lat="49.02659" lon="6.88017">
        <ele>228.1</ele>
        <time>2014-02-12T09:10:15Z</time>
      </trkpt>
      <trkpt lat="49.02659" lon="6.88022">
        <ele>228.4</ele>
        <time>2014-02-12T09:10:18Z</time>
      </trkpt>
      <trkpt lat="49.02659" lon="6.88029">
        <ele>228.2</ele>
        <time>2014-02-12T09:10:21Z</time>
      </trkpt>
      <trkpt lat="49.02659" lon="6.88035">
        <ele>228.2</ele>
        <time>2014-02-12T09:10:24Z</time>
      </trkpt>
      <trkpt lat="49.02658" lon="6.88046">
        <ele>227.8</ele>
        <time>2014-02-12T09:10:27Z</time>
      </trkpt>
      <trkpt lat="49.02658" lon="6.88053">
        <ele>228.2</ele>
        <time>2014-02-12T09:10:30Z</time>
      </trkpt>
      <trkpt lat="49.02658" lon="6.88059">
        <ele>228.2</ele>
        <time>2014-02-12T09:10:33Z</time>
      </trkpt>
      <trkpt lat="49.02657" lon="6.88064">
        <ele>227.8</ele>
        <time>2014-02-12T09:10:36Z</time>
      </trkpt>
      <trkpt lat="49.02656" lon="6.88077">
        <ele>228.1</ele>
        <time>2014-02-12T09:10:42Z</time>
      </trkpt>
      <trkpt lat="49.02656" lon="6.88084">
        <ele>228.6</ele>
        <time>2014-02-12T09:10:45Z</time>
      </trkpt>
      <trkpt lat="49.02655" lon="6.88091">
        <ele>228.8</ele>
        <time>2014-02-12T09:10:48Z</time>
      </trkpt>
      <trkpt lat="49.02655" lon="6.88097">
        <ele>228.3</ele>
        <time>2014-02-12T09:10:51Z</time>
      </trkpt>
      <trkpt lat="49.02655" lon="6.88104">
        <ele>228.3</ele>
        <time>2014-02-12T09:10:54Z</time>
      </trkpt>
      <trkpt lat="49.02654" lon="6.8811">
        <ele>228.5</ele>
        <time>2014-02-12T09:10:57Z</time>
      </trkpt>
      <trkpt lat="49.02654" lon="6.88115">
        <ele>228.9</ele>
        <time>2014-02-12T09:11:00Z</time>
      </trkpt>
      <trkpt lat="49.02654" lon="6.8812">
        <ele>227.8</ele>
        <time>2014-02-12T09:11:03Z</time>
      </trkpt>
      <trkpt lat="49.02653" lon="6.88127">
        <ele>227.8</ele>
        <time>2014-02-12T09:11:06Z</time>
      </trkpt>
      <trkpt lat="49.02653" lon="6.88134">
        <ele>228.1</ele>
        <time>2014-02-12T09:11:09Z</time>
      </trkpt>
      <trkpt lat="49.02653" lon="6.88141">
        <ele>228</ele>
        <time>2014-02-12T09:11:12Z</time>
      </trkpt>
      <trkpt lat="49.02653" lon="6.88147">
        <ele>227.7</ele>
        <time>2014-02-12T09:11:15Z</time>
      </trkpt>
      <trkpt lat="49.02652" lon="6.88154">
        <ele>228</ele>
        <time>2014-02-12T09:11:18Z</time>
      </trkpt>
      <trkpt lat="49.02652" lon="6.8816">
        <ele>228.7</ele>
        <time>2014-02-12T09:11:21Z</time>
      </trkpt>
      <trkpt lat="49.02652" lon="6.88165">
        <ele>228.2</ele>
        <time>2014-02-12T09:11:24Z</time>
      </trkpt>
      <trkpt lat="49.02652" lon="6.8817">
        <ele>227.7</ele>
        <time>2014-02-12T09:11:27Z</time>
      </trkpt>
      <trkpt lat="49.02652" lon="6.88176">
        <ele>227.4</ele>
        <time>2014-02-12T09:11:30Z</time>
      </trkpt>
      <trkpt lat="49.02652" lon="6.88182">
        <ele>227.8</ele>
        <time>2014-02-12T09:11:33Z</time>
      </trkpt>
      <trkpt lat="49.02653" lon="6.88188">
        <ele>228.5</ele>
        <time>2014-02-12T09:11:36Z</time>
      </trkpt>
      <trkpt lat="49.02653" lon="6.88194">
        <ele>228.1</ele>
        <time>2014-02-12T09:11:39Z</time>
      </trkpt>
      <trkpt lat="49.02653" lon="6.88205">
        <ele>228.8</ele>
        <time>2014-02-12T09:11:45Z</time>
      </trkpt>
      <trkpt lat="49.02653" lon="6.88211">
        <ele>228.9</ele>
        <time>2014-02-12T09:11:48Z</time>
      </trkpt>
      <trkpt lat="49.02654" lon="6.88217">
        <ele>228.6</ele>
        <time>2014-02-12T09:11:51Z</time>
      </trkpt>
      <trkpt lat="49.02655" lon="6.88223">
        <ele>228.9</ele>
        <time>2014-02-12T09:11:54Z</time>
      </trkpt>
      <trkpt lat="49.02656" lon="6.88228">
        <ele>228.6</ele>
        <time>2014-02-12T09:11:57Z</time>
      </trkpt>
      <trkpt lat="49.02656" lon="6.88234">
        <ele>229.4</ele>
        <time>2014-02-12T09:12:00Z</time>
      </trkpt>
      <trkpt lat="49.02657" lon="6.8824">
        <ele>228.7</ele>
        <time>2014-02-12T09:12:03Z</time>
      </trkpt>
      <trkpt lat="49.02658" lon="6.88246">
        <ele>228.6</ele>
        <time>2014-02-12T09:12:06Z</time>
      </trkpt>
      <trkpt lat="49.0266" lon="6.88251">
        <ele>228.7</ele>
        <time>2014-02-12T09:12:09Z</time>
      </trkpt>
      <trkpt lat="49.02661" lon="6.88256">
        <ele>229</ele>
        <time>2014-02-12T09:12:12Z</time>
      </trkpt>
      <trkpt lat="49.02663" lon="6.88261">
        <ele>229.2</ele>
        <time>2014-02-12T09:12:15Z</time>
      </trkpt>
      <trkpt lat="49.02665" lon="6.88267">
        <ele>229.6</ele>
        <time>2014-02-12T09:12:18Z</time>
      </trkpt>
      <trkpt lat="49.02667" lon="6.88272">
        <ele>229.7</ele>
        <time>2014-02-12T09:12:21Z</time>
      </trkpt>
      <trkpt lat="49.02669" lon="6.88277">
        <ele>229.9</ele>
        <time>2014-02-12T09:12:24Z</time>
      </trkpt>
      <trkpt lat="49.02671" lon="6.88282">
        <ele>229.5</ele>
        <time>2014-02-12T09:12:27Z</time>
      </trkpt>
      <trkpt lat="49.02673" lon="6.88287">
        <ele>229.9</ele>
        <time>2014-02-12T09:12:30Z</time>
      </trkpt>
      <trkpt lat="49.02675" lon="6.88292">
        <ele>229.8</ele>
        <time>2014-02-12T09:12:33Z</time>
      </trkpt>
      <trkpt lat="49.02678" lon="6.88296">
        <ele>230</ele>
        <time>2014-02-12T09:12:36Z</time>
      </trkpt>
      <trkpt lat="49.0268" lon="6.88301">
        <ele>229.8</ele>
        <time>2014-02-12T09:12:39Z</time>
      </trkpt>
      <trkpt lat="49.02682" lon="6.88304">
        <ele>230.4</ele>
        <time>2014-02-12T09:12:42Z</time>
      </trkpt>
      <trkpt lat="49.02686" lon="6.88313">
        <ele>230.2</ele>
        <time>2014-02-12T09:12:48Z</time>
      </trkpt>
      <trkpt lat="49.02688" lon="6.88317">
        <ele>230.1</ele>
        <time>2014-02-12T09:12:51Z</time>
      </trkpt>
      <trkpt lat="49.0269" lon="6.88322">
        <ele>230.4</ele>
        <time>2014-02-12T09:12:54Z</time>
      </trkpt>
      <trkpt lat="49.02692" lon="6.88327">
        <ele>230.9</ele>
        <time>2014-02-12T09:12:57Z</time>
      </trkpt>
      <trkpt lat="49.02694" lon="6.88332">
        <ele>231.4</ele>
        <time>2014-02-12T09:13:00Z</time>
      </trkpt>
      <trkpt lat="49.02696" lon="6.88338">
        <ele>231.6</ele>
        <time>2014-02-12T09:13:03Z</time>
      </trkpt>
      <trkpt lat="49.02698" lon="6.88343">
        <ele>231.5</ele>
        <time>2014-02-12T09:13:06Z</time>
      </trkpt>
      <trkpt lat="49.027" lon="6.88348">
        <ele>231.5</ele>
        <time>2014-02-12T09:13:09Z</time>
      </trkpt>
      <trkpt lat="49.02701" lon="6.88353">
        <ele>231.4</ele>
        <time>2014-02-12T09:13:12Z</time>
      </trkpt>
      <trkpt lat="49.02703" lon="6.88358">
        <ele>231.1</ele>
        <time>2014-02-12T09:13:15Z</time>
      </trkpt>
      <trkpt lat="49.02705" lon="6.88363">
        <ele>230.3</ele>
        <time>2014-02-12T09:13:18Z</time>
      </trkpt>
      <trkpt lat="49.02707" lon="6.88369">
        <ele>230.3</ele>
        <time>2014-02-12T09:13:21Z</time>
      </trkpt>
      <trkpt lat="49.02709" lon="6.88374">
        <ele>231.8</ele>
        <time>2014-02-12T09:13:24Z</time>
      </trkpt>
      <trkpt lat="49.02711" lon="6.88379">
        <ele>232</ele>
        <time>2014-02-12T09:13:27Z</time>
      </trkpt>
      <trkpt lat="49.02713" lon="6.88384">
        <ele>231.5</ele>
        <time>2014-02-12T09:13:30Z</time>
      </trkpt>
      <trkpt lat="49.02714" lon="6.88389">
        <ele>232.2</ele>
        <time>2014-02-12T09:13:33Z</time>
      </trkpt>
      <trkpt lat="49.02717" lon="6.88394">
        <ele>232.4</ele>
        <time>2014-02-12T09:13:36Z</time>
      </trkpt>
      <trkpt lat="49.02718" lon="6.88399">
        <ele>232.3</ele>
        <time>2014-02-12T09:13:39Z</time>
      </trkpt>
      <trkpt lat="49.0272" lon="6.88404">
        <ele>232</ele>
        <time>2014-02-12T09:13:42Z</time>
      </trkpt>
      <trkpt lat="49.02723" lon="6.88409">
        <ele>233.2</ele>
        <time>2014-02-12T09:13:45Z</time>
      </trkpt>
      <trkpt lat="49.02727" lon="6.8842">
        <ele>233.6</ele>
        <time>2014-02-12T09:13:51Z</time>
      </trkpt>
      <trkpt lat="49.0273" lon="6.88425">
        <ele>233.4</ele>
        <time>2014-02-12T09:13:54Z</time>
      </trkpt>
      <trkpt lat="49.02732" lon="6.8843">
        <ele>232.8</ele>
        <time>2014-02-12T09:13:57Z</time>
      </trkpt>
      <trkpt lat="49.02735" lon="6.88435">
        <ele>232.8</ele>
        <time>2014-02-12T09:14:00Z</time>
      </trkpt>
      <trkpt lat="49.02738" lon="6.88439">
        <ele>232.5</ele>
        <time>2014-02-12T09:14:03Z</time>
      </trkpt>
      <trkpt lat="49.0274" lon="6.88442">
        <ele>232.8</ele>
        <time>2014-02-12T09:14:06Z</time>
      </trkpt>
      <trkpt lat="49.02743" lon="6.88443">
        <ele>233.2</ele>
        <time>2014-02-12T09:14:09Z</time>
      </trkpt>
      <trkpt lat="49.02746" lon="6.88443">
        <ele>233.1</ele>
        <time>2014-02-12T09:14:12Z</time>
      </trkpt>
      <trkpt lat="49.0275" lon="6.88443">
        <ele>233.8</ele>
        <time>2014-02-12T09:14:15Z</time>
      </trkpt>
      <trkpt lat="49.02753" lon="6.88442">
        <ele>234.4</ele>
        <time>2014-02-12T09:14:18Z</time>
      </trkpt>
      <trkpt lat="49.02756" lon="6.88442">
        <ele>233.3</ele>
        <time>2014-02-12T09:14:21Z</time>
      </trkpt>
      <trkpt lat="49.0276" lon="6.88441">
        <ele>233.2</ele>
        <time>2014-02-12T09:14:24Z</time>
      </trkpt>
      <trkpt lat="49.02764" lon="6.88439">
        <ele>232.9</ele>
        <time>2014-02-12T09:14:27Z</time>
      </trkpt>
      <trkpt lat="49.02767" lon="6.88438">
        <ele>233.4</ele>
        <time>2014-02-12T09:14:30Z</time>
      </trkpt>
      <trkpt lat="49.0277" lon="6.88437">
        <ele>233.8</ele>
        <time>2014-02-12T09:14:33Z</time>
      </trkpt>
      <trkpt lat="49.02774" lon="6.88436">
        <ele>234.1</ele>
        <time>2014-02-12T09:14:36Z</time>
      </trkpt>
      <trkpt lat="49.02777" lon="6.88434">
        <ele>234</ele>
        <time>2014-02-12T09:14:39Z</time>
      </trkpt>
      <trkpt lat="49.02781" lon="6.88433">
        <ele>233.6</ele>
        <time>2014-02-12T09:14:42Z</time>
      </trkpt>
      <trkpt lat="49.02785" lon="6.88431">
        <ele>233.5</ele>
        <time>2014-02-12T09:14:45Z</time>
      </trkpt>
      <trkpt lat="49.02789" lon="6.88429">
        <ele>233.5</ele>
        <time>2014-02-12T09:14:48Z</time>
      </trkpt>
      <trkpt lat="49.02796" lon="6.88425">
        <ele>234.2</ele>
        <time>2014-02-12T09:14:54Z</time>
      </trkpt>
      <trkpt lat="49.028" lon="6.88423">
        <ele>234.5</ele>
        <time>2014-02-12T09:14:57Z</time>
      </trkpt>
      <trkpt lat="49.02802" lon="6.88421">
        <ele>234.8</ele>
        <time>2014-02-12T09:15:00Z</time>
      </trkpt>
      <trkpt lat="49.02805" lon="6.8842">
        <ele>234.9</ele>
        <time>2014-02-12T09:15:03Z</time>
      </trkpt>
      <trkpt lat="49.02809" lon="6.88419">
        <ele>234.9</ele>
        <time>2014-02-12T09:15:06Z</time>
      </trkpt>
      <trkpt lat="49.02814" lon="6.88418">
        <ele>234.1</ele>
        <time>2014-02-12T09:15:09Z</time>
      </trkpt>
      <trkpt lat="49.02818" lon="6.88417">
        <ele>233.5</ele>
        <time>2014-02-12T09:15:12Z</time>
      </trkpt>
      <trkpt lat="49.02822" lon="6.88416">
        <ele>234</ele>
        <time>2014-02-12T09:15:15Z</time>
      </trkpt>
      <trkpt lat="49.02827" lon="6.88414">
        <ele>234.2</ele>
        <time>2014-02-12T09:15:18Z</time>
      </trkpt>
      <trkpt lat="49.02831" lon="6.88412">
        <ele>234.4</ele>
        <time>2014-02-12T09:15:21Z</time>
      </trkpt>
      <trkpt lat="49.02835" lon="6.8841">
        <ele>234.7</ele>
        <time>2014-02-12T09:15:24Z</time>
      </trkpt>
      <trkpt lat="49.02839" lon="6.88409">
        <ele>234.6</ele>
        <time>2014-02-12T09:15:27Z</time>
      </trkpt>
      <trkpt lat="49.02842" lon="6.88408">
        <ele>235.5</ele>
        <time>2014-02-12T09:15:30Z</time>
      </trkpt>
      <trkpt lat="49.02846" lon="6.88406">
        <ele>235.2</ele>
        <time>2014-02-12T09:15:33Z</time>
      </trkpt>
      <trkpt lat="49.02849" lon="6.88405">
        <ele>234.3</ele>
        <time>2014-02-12T09:15:36Z</time>
      </trkpt>
      <trkpt lat="49.02853" lon="6.88403">
        <ele>233.6</ele>
        <time>2014-02-12T09:15:39Z</time>
      </trkpt>
      <trkpt lat="49.02857" lon="6.88402">
        <ele>234.7</ele>
        <time>2014-02-12T09:15:42Z</time>
      </trkpt>
      <trkpt lat="49.02861" lon="6.884">
        <ele>234.9</ele>
        <time>2014-02-12T09:15:45Z</time>
      </trkpt>
      <trkpt lat="49.02865" lon="6.88399">
        <ele>235.1</ele>
        <time>2014-02-12T09:15:48Z</time>
      </trkpt>
      <trkpt lat="49.0287" lon="6.88398">
        <ele>235.3</ele>
        <time>2014-02-12T09:15:51Z</time>
      </trkpt>
      <trkpt lat="49.02878" lon="6.88394">
        <ele>235.5</ele>
        <time>2014-02-12T09:15:57Z</time>
      </trkpt>
      <trkpt lat="49.02881" lon="6.88393">
        <ele>235.4</ele>
        <time>2014-02-12T09:16:00Z</time>
      </trkpt>
      <trkpt lat="49.02885" lon="6.88392">
        <ele>235.5</ele>
        <time>2014-02-12T09:16:03Z</time>
      </trkpt>
      <trkpt lat="49.02889" lon="6.8839">
        <ele>235</ele>
        <time>2014-02-12T09:16:06Z</time>
      </trkpt>
      <trkpt lat="49.02892" lon="6.88389">
        <ele>234.7</ele>
        <time>2014-02-12T09:16:09Z</time>
      </trkpt>
      <trkpt lat="49.02894" lon="6.88388">
        <ele>235.2</ele>
        <time>2014-02-12T09:16:12Z</time>
      </trkpt>
      <trkpt lat="49.02897" lon="6.88387">
        <ele>235.2</ele>
        <time>2014-02-12T09:16:15Z</time>
      </trkpt>
      <trkpt lat="49.029" lon="6.88386">
        <ele>235.3</ele>
        <time>2014-02-12T09:16:18Z</time>
      </trkpt>
      <trkpt lat="49.02904" lon="6.88385">
        <ele>235.1</ele>
        <time>2014-02-12T09:16:21Z</time>
      </trkpt>
      <trkpt lat="49.02907" lon="6.88384">
        <ele>235.1</ele>
        <time>2014-02-12T09:16:24Z</time>
      </trkpt>
      <trkpt lat="49.0291" lon="6.88382">
        <ele>234.6</ele>
        <time>2014-02-12T09:16:27Z</time>
      </trkpt>
      <trkpt lat="49.02914" lon="6.88381">
        <ele>235.5</ele>
        <time>2014-02-12T09:16:30Z</time>
      </trkpt>
      <trkpt lat="49.02916" lon="6.88381">
        <ele>235.9</ele>
        <time>2014-02-12T09:16:33Z</time>
      </trkpt>
      <trkpt lat="49.02919" lon="6.8838">
        <ele>235.5</ele>
        <time>2014-02-12T09:16:36Z</time>
      </trkpt>
      <trkpt lat="49.02921" lon="6.88379">
        <ele>235.3</ele>
        <time>2014-02-12T09:16:39Z</time>
      </trkpt>
      <trkpt lat="49.02922" lon="6.88379">
        <ele>235.7</ele>
        <time>2014-02-12T09:16:42Z</time>
      </trkpt>
      <trkpt lat="49.02923" lon="6.88379">
        <ele>236.3</ele>
        <time>2014-02-12T09:16:45Z</time>
      </trkpt>
      <trkpt lat="49.02924" lon="6.8838">
        <ele>236.2</ele>
        <time>2014-02-12T09:16:48Z</time>
      </trkpt>
      <trkpt lat="49.02925" lon="6.8838">
        <ele>235.4</ele>
        <time>2014-02-12T09:16:51Z</time>
      </trkpt>
      <trkpt lat="49.02925" lon="6.8838">
        <ele>236</ele>
        <time>2014-02-12T09:16:54Z</time>
      </trkpt>
      <trkpt lat="49.02927" lon="6.88379">
        <ele>236.3</ele>
        <time>2014-02-12T09:17:00Z</time>
      </trkpt>
      <trkpt lat="49.02929" lon="6.88379">
        <ele>236.6</ele>
        <time>2014-02-12T09:17:03Z</time>
      </trkpt>
      <trkpt lat="49.02932" lon="6.88379">
        <ele>236.8</ele>
        <time>2014-02-12T09:17:06Z</time>
      </trkpt>
      <trkpt lat="49.02934" lon="6.88378">
        <ele>236.5</ele>
        <time>2014-02-12T09:17:09Z</time>
      </trkpt>
      <trkpt lat="49.02937" lon="6.88376">
        <ele>236</ele>
        <time>2014-02-12T09:17:12Z</time>
      </trkpt>
      <trkpt lat="49.02939" lon="6.88375">
        <ele>236.3</ele>
        <time>2014-02-12T09:17:15Z</time>
      </trkpt>
      <trkpt lat="49.02942" lon="6.88375">
        <ele>235.9</ele>
        <time>2014-02-12T09:17:18Z</time>
      </trkpt>
      <trkpt lat="49.02946" lon="6.88373">
        <ele>235.9</ele>
        <time>2014-02-12T09:17:21Z</time>
      </trkpt>
      <trkpt lat="49.02948" lon="6.88372">
        <ele>235.8</ele>
        <time>2014-02-12T09:17:24Z</time>
      </trkpt>
      <trkpt lat="49.02951" lon="6.8837">
        <ele>236.3</ele>
        <time>2014-02-12T09:17:27Z</time>
      </trkpt>
      <trkpt lat="49.02955" lon="6.88368">
        <ele>236.4</ele>
        <time>2014-02-12T09:17:30Z</time>
      </trkpt>
      <trkpt lat="49.02959" lon="6.88367">
        <ele>237.4</ele>
        <time>2014-02-12T09:17:33Z</time>
      </trkpt>
      <trkpt lat="49.02962" lon="6.88365">
        <ele>237.2</ele>
        <time>2014-02-12T09:17:36Z</time>
      </trkpt>
      <trkpt lat="49.02966" lon="6.88363">
        <ele>237.4</ele>
        <time>2014-02-12T09:17:39Z</time>
      </trkpt>
      <trkpt lat="49.02969" lon="6.88361">
        <ele>237.6</ele>
        <time>2014-02-12T09:17:42Z</time>
      </trkpt>
      <trkpt lat="49.02972" lon="6.88359">
        <ele>237.5</ele>
        <time>2014-02-12T09:17:45Z</time>
      </trkpt>
      <trkpt lat="49.02975" lon="6.88357">
        <ele>237.5</ele>
        <time>2014-02-12T09:17:48Z</time>
      </trkpt>
      <trkpt lat="49.02979" lon="6.88355">
        <ele>237.6</ele>
        <time>2014-02-12T09:17:51Z</time>
      </trkpt>
      <trkpt lat="49.02982" lon="6.88353">
        <ele>237.6</ele>
        <time>2014-02-12T09:17:54Z</time>
      </trkpt>
      <trkpt lat="49.02985" lon="6.88352">
        <ele>238.3</ele>
        <time>2014-02-12T09:17:57Z</time>
      </trkpt>
      <trkpt lat="49.02989" lon="6.88351">
        <ele>238.2</ele>
        <time>2014-02-12T09:18:03Z</time>
      </trkpt>
      <trkpt lat="49.02992" lon="6.88349">
        <ele>238.2</ele>
        <time>2014-02-12T09:18:06Z</time>
      </trkpt>
      <trkpt lat="49.02995" lon="6.88347">
        <ele>238.1</ele>
        <time>2014-02-12T09:18:09Z</time>
      </trkpt>
      <trkpt lat="49.02998" lon="6.88345">
        <ele>238</ele>
        <time>2014-02-12T09:18:12Z</time>
      </trkpt>
      <trkpt lat="49.03002" lon="6.88343">
        <ele>238.3</ele>
        <time>2014-02-12T09:18:15Z</time>
      </trkpt>
      <trkpt lat="49.03006" lon="6.88339">
        <ele>238.8</ele>
        <time>2014-02-12T09:18:18Z</time>
      </trkpt>
      <trkpt lat="49.0301" lon="6.88336">
        <ele>239.1</ele>
        <time>2014-02-12T09:18:21Z</time>
      </trkpt>
      <trkpt lat="49.03014" lon="6.88333">
        <ele>239</ele>
        <time>2014-02-12T09:18:24Z</time>
      </trkpt>
      <trkpt lat="49.03017" lon="6.88329">
        <ele>238.4</ele>
        <time>2014-02-12T09:18:27Z</time>
      </trkpt>
      <trkpt lat="49.03021" lon="6.88326">
        <ele>237.9</ele>
        <time>2014-02-12T09:18:30Z</time>
      </trkpt>
      <trkpt lat="49.03024" lon="6.88322">
        <ele>237.5</ele>
        <time>2014-02-12T09:18:33Z</time>
      </trkpt>
      <trkpt lat="49.03027" lon="6.88318">
        <ele>237.6</ele>
        <time>2014-02-12T09:18:36Z</time>
      </trkpt>
      <trkpt lat="49.03029" lon="6.88314">
        <ele>237.3</ele>
        <time>2014-02-12T09:18:39Z</time>
      </trkpt>
      <trkpt lat="49.03032" lon="6.88309">
        <ele>237.8</ele>
        <time>2014-02-12T09:18:42Z</time>
      </trkpt>
      <trkpt lat="49.03035" lon="6.88305">
        <ele>238.3</ele>
        <time>2014-02-12T09:18:45Z</time>
      </trkpt>
      <trkpt lat="49.03039" lon="6.883">
        <ele>238.9</ele>
        <time>2014-02-12T09:18:48Z</time>
      </trkpt>
      <trkpt lat="49.03042" lon="6.88295">
        <ele>239</ele>
        <time>2014-02-12T09:18:51Z</time>
      </trkpt>
      <trkpt lat="49.03044" lon="6.88291">
        <ele>239.8</ele>
        <time>2014-02-12T09:18:54Z</time>
      </trkpt>
      <trkpt lat="49.03047" lon="6.88287">
        <ele>239.9</ele>
        <time>2014-02-12T09:18:57Z</time>
      </trkpt>
      <trkpt lat="49.03049" lon="6.88282">
        <ele>239.9</ele>
        <time>2014-02-12T09:19:00Z</time>
      </trkpt>
      <trkpt lat="49.03053" lon="6.88272">
        <ele>240.6</ele>
        <time>2014-02-12T09:19:06Z</time>
      </trkpt>
      <trkpt lat="49.03055" lon="6.88267">
        <ele>239.9</ele>
        <time>2014-02-12T09:19:09Z</time>
      </trkpt>
      <trkpt lat="49.03056" lon="6.88263">
        <ele>240.1</ele>
        <time>2014-02-12T09:19:12Z</time>
      </trkpt>
      <trkpt lat="49.03057" lon="6.88259">
        <ele>240.9</ele>
        <time>2014-02-12T09:19:15Z</time>
      </trkpt>
      <trkpt lat="49.03059" lon="6.88253">
        <ele>241.2</ele>
        <time>2014-02-12T09:19:18Z</time>
      </trkpt>
      <trkpt lat="49.03061" lon="6.88247">
        <ele>241.8</ele>
        <time>2014-02-12T09:19:21Z</time>
      </trkpt>
      <trkpt lat="49.03063" lon="6.8824">
        <ele>242</ele>
        <time>2014-02-12T09:19:24Z</time>
      </trkpt>
      <trkpt lat="49.03064" lon="6.88235">
        <ele>242.3</ele>
        <time>2014-02-12T09:19:27Z</time>
      </trkpt>
      <trkpt lat="49.03066" lon="6.88229">
        <ele>241.7</ele>
        <time>2014-02-12T09:19:30Z</time>
      </trkpt>
      <trkpt lat="49.03067" lon="6.88224">
        <ele>241.5</ele>
        <time>2014-02-12T09:19:33Z</time>
      </trkpt>
      <trkpt lat="49.03069" lon="6.88218">
        <ele>241.6</ele>
        <time>2014-02-12T09:19:36Z</time>
      </trkpt>
      <trkpt lat="49.03071" lon="6.88214">
        <ele>241.7</ele>
        <time>2014-02-12T09:19:39Z</time>
      </trkpt>
      <trkpt lat="49.03072" lon="6.88209">
        <ele>241.6</ele>
        <time>2014-02-12T09:19:42Z</time>
      </trkpt>
      <trkpt lat="49.03075" lon="6.88205">
        <ele>242.2</ele>
        <time>2014-02-12T09:19:45Z</time>
      </trkpt>
      <trkpt lat="49.03077" lon="6.88201">
        <ele>242.4</ele>
        <time>2014-02-12T09:19:48Z</time>
      </trkpt>
      <trkpt lat="49.0308" lon="6.88197">
        <ele>243</ele>
        <time>2014-02-12T09:19:51Z</time>
      </trkpt>
      <trkpt lat="49.03083" lon="6.88193">
        <ele>243.4</ele>
        <time>2014-02-12T09:19:54Z</time>
      </trkpt>
      <trkpt lat="49.03086" lon="6.88191">
        <ele>244.2</ele>
        <time>2014-02-12T09:19:57Z</time>
      </trkpt>
      <trkpt lat="49.03088" lon="6.88187">
        <ele>244</ele>
        <time>2014-02-12T09:20:00Z</time>
      </trkpt>
      <trkpt lat="49.03091" lon="6.88184">
        <ele>244.5</ele>
        <time>2014-02-12T09:20:03Z</time>
      </trkpt>
      <trkpt lat="49.03096" lon="6.88178">
        <ele>245.8</ele>
        <time>2014-02-12T09:20:09Z</time>
      </trkpt>
      <trkpt lat="49.03099" lon="6.88175">
        <ele>245.4</ele>
        <time>2014-02-12T09:20:12Z</time>
      </trkpt>
      <trkpt lat="49.03102" lon="6.88172">
        <ele>246.1</ele>
        <time>2014-02-12T09:20:15Z</time>
      </trkpt>
      <trkpt lat="49.03104" lon="6.88169">
        <ele>245.8</ele>
        <time>2014-02-12T09:20:18Z</time>
      </trkpt>
      <trkpt lat="49.03107" lon="6.88167">
        <ele>246.5</ele>
        <time>2014-02-12T09:20:21Z</time>
      </trkpt>
      <trkpt lat="49.0311" lon="6.88164">
        <ele>246.8</ele>
        <time>2014-02-12T09:20:24Z</time>
      </trkpt>
      <trkpt lat="49.03113" lon="6.88161">
        <ele>246.8</ele>
        <time>2014-02-12T09:20:27Z</time>
      </trkpt>
      <trkpt lat="49.03116" lon="6.88158">
        <ele>247.2</ele>
        <time>2014-02-12T09:20:30Z</time>
      </trkpt>
      <trkpt lat="49.03119" lon="6.88155">
        <ele>248</ele>
        <time>2014-02-12T09:20:33Z</time>
      </trkpt>
      <trkpt lat="49.03121" lon="6.88152">
        <ele>248.7</ele>
        <time>2014-02-12T09:20:36Z</time>
      </trkpt>
      <trkpt lat="49.03124" lon="6.88149">
        <ele>249.2</ele>
        <time>2014-02-12T09:20:39Z</time>
      </trkpt>
      <trkpt lat="49.03127" lon="6.88146">
        <ele>249.6</ele>
        <time>2014-02-12T09:20:42Z</time>
      </trkpt>
      <trkpt lat="49.03131" lon="6.88143">
        <ele>249.9</ele>
        <time>2014-02-12T09:20:45Z</time>
      </trkpt>
      <trkpt lat="49.03134" lon="6.8814">
        <ele>250.1</ele>
        <time>2014-02-12T09:20:48Z</time>
      </trkpt>
      <trkpt lat="49.03137" lon="6.88137">
        <ele>250</ele>
        <time>2014-02-12T09:20:51Z</time>
      </trkpt>
      <trkpt lat="49.0314" lon="6.88135">
        <ele>251.3</ele>
        <time>2014-02-12T09:20:54Z</time>
      </trkpt>
      <trkpt lat="49.03143" lon="6.88132">
        <ele>252.2</ele>
        <time>2014-02-12T09:20:57Z</time>
      </trkpt>
      <trkpt lat="49.03146" lon="6.8813">
        <ele>251.9</ele>
        <time>2014-02-12T09:21:00Z</time>
      </trkpt>
      <trkpt lat="49.03149" lon="6.88127">
        <ele>251.8</ele>
        <time>2014-02-12T09:21:03Z</time>
      </trkpt>
      <trkpt lat="49.03153" lon="6.88125">
        <ele>252.7</ele>
        <time>2014-02-12T09:21:06Z</time>
      </trkpt>
      <trkpt lat="49.03159" lon="6.8812">
        <ele>253.2</ele>
        <time>2014-02-12T09:21:12Z</time>
      </trkpt>
      <trkpt lat="49.03162" lon="6.88117">
        <ele>253.6</ele>
        <time>2014-02-12T09:21:15Z</time>
      </trkpt>
      <trkpt lat="49.03164" lon="6.88114">
        <ele>254.2</ele>
        <time>2014-02-12T09:21:18Z</time>
      </trkpt>
      <trkpt lat="49.03167" lon="6.88111">
        <ele>254.4</ele>
        <time>2014-02-12T09:21:21Z</time>
      </trkpt>
      <trkpt lat="49.03169" lon="6.88109">
        <ele>254.5</ele>
        <time>2014-02-12T09:21:24Z</time>
      </trkpt>
      <trkpt lat="49.03173" lon="6.88106">
        <ele>254.6</ele>
        <time>2014-02-12T09:21:27Z</time>
      </trkpt>
      <trkpt lat="49.03176" lon="6.88103">
        <ele>254.7</ele>
        <time>2014-02-12T09:21:30Z</time>
      </trkpt>
      <trkpt lat="49.03179" lon="6.881">
        <ele>255</ele>
        <time>2014-02-12T09:21:33Z</time>
      </trkpt>
      <trkpt lat="49.03182" lon="6.88098">
        <ele>255.3</ele>
        <time>2014-02-12T09:21:36Z</time>
      </trkpt>
      <trkpt lat="49.03185" lon="6.88095">
        <ele>255.4</ele>
        <time>2014-02-12T09:21:39Z</time>
      </trkpt>
      <trkpt lat="49.03189" lon="6.88093">
        <ele>257.1</ele>
        <time>2014-02-12T09:21:42Z</time>
      </trkpt>
      <trkpt lat="49.03192" lon="6.88091">
        <ele>257.2</ele>
        <time>2014-02-12T09:21:45Z</time>
      </trkpt>
      <trkpt lat="49.03196" lon="6.88088">
        <ele>256.6</ele>
        <time>2014-02-12T09:21:48Z</time>
      </trkpt>
      <trkpt lat="49.032" lon="6.88085">
        <ele>257.2</ele>
        <time>2014-02-12T09:21:51Z</time>
      </trkpt>
      <trkpt lat="49.03203" lon="6.88082">
        <ele>256.9</ele>
        <time>2014-02-12T09:21:54Z</time>
      </trkpt>
      <trkpt lat="49.03207" lon="6.88079">
        <ele>256.2</ele>
        <time>2014-02-12T09:21:57Z</time>
      </trkpt>
      <trkpt lat="49.03211" lon="6.88075">
        <ele>256.4</ele>
        <time>2014-02-12T09:22:00Z</time>
      </trkpt>
      <trkpt lat="49.03215" lon="6.88071">
        <ele>256.8</ele>
        <time>2014-02-12T09:22:03Z</time>
      </trkpt>
      <trkpt lat="49.03219" lon="6.88068">
        <ele>257.4</ele>
        <time>2014-02-12T09:22:06Z</time>
      </trkpt>
      <trkpt lat="49.03224" lon="6.88065">
        <ele>257.4</ele>
        <time>2014-02-12T09:22:09Z</time>
      </trkpt>
      <trkpt lat="49.03233" lon="6.88058">
        <ele>257.5</ele>
        <time>2014-02-12T09:22:15Z</time>
      </trkpt>
      <trkpt lat="49.03237" lon="6.88055">
        <ele>257.8</ele>
        <time>2014-02-12T09:22:18Z</time>
      </trkpt>
      <trkpt lat="49.03241" lon="6.88051">
        <ele>258</ele>
        <time>2014-02-12T09:22:21Z</time>
      </trkpt>
      <trkpt lat="49.03245" lon="6.88048">
        <ele>257.6</ele>
        <time>2014-02-12T09:22:24Z</time>
      </trkpt>
      <trkpt lat="49.03249" lon="6.88045">
        <ele>257.3</ele>
        <time>2014-02-12T09:22:27Z</time>
      </trkpt>
      <trkpt lat="49.03252" lon="6.88042">
        <ele>257.1</ele>
        <time>2014-02-12T09:22:30Z</time>
      </trkpt>
      <trkpt lat="49.03255" lon="6.88039">
        <ele>257.6</ele>
        <time>2014-02-12T09:22:33Z</time>
      </trkpt>
      <trkpt lat="49.03257" lon="6.88036">
        <ele>258.3</ele>
        <time>2014-02-12T09:22:36Z</time>
      </trkpt>
      <trkpt lat="49.03259" lon="6.88034">
        <ele>257.9</ele>
        <time>2014-02-12T09:22:39Z</time>
      </trkpt>
      <trkpt lat="49.03262" lon="6.88032">
        <ele>257.7</ele>
        <time>2014-02-12T09:22:42Z</time>
      </trkpt>
      <trkpt lat="49.03264" lon="6.8803">
        <ele>257.7</ele>
        <time>2014-02-12T09:22:45Z</time>
      </trkpt>
      <trkpt lat="49.03266" lon="6.88029">
        <ele>257.2</ele>
        <time>2014-02-12T09:22:48Z</time>
      </trkpt>
      <trkpt lat="49.0327" lon="6.88026">
        <ele>256.6</ele>
        <time>2014-02-12T09:22:51Z</time>
      </trkpt>
      <trkpt lat="49.03273" lon="6.88022">
        <ele>256.8</ele>
        <time>2014-02-12T09:22:54Z</time>
      </trkpt>
      <trkpt lat="49.03277" lon="6.88019">
        <ele>256.4</ele>
        <time>2014-02-12T09:22:57Z</time>
      </trkpt>
      <trkpt lat="49.0328" lon="6.88015">
        <ele>256.9</ele>
        <time>2014-02-12T09:23:00Z</time>
      </trkpt>
      <trkpt lat="49.03283" lon="6.88012">
        <ele>257.2</ele>
        <time>2014-02-12T09:23:03Z</time>
      </trkpt>
      <trkpt lat="49.03286" lon="6.88009">
        <ele>257.7</ele>
        <time>2014-02-12T09:23:06Z</time>
      </trkpt>
      <trkpt lat="49.03289" lon="6.88006">
        <ele>258.2</ele>
        <time>2014-02-12T09:23:09Z</time>
      </trkpt>
      <trkpt lat="49.03292" lon="6.88003">
        <ele>258.5</ele>
        <time>2014-02-12T09:23:12Z</time>
      </trkpt>
      <trkpt lat="49.03298" lon="6.87997">
        <ele>257.4</ele>
        <time>2014-02-12T09:23:18Z</time>
      </trkpt>
      <trkpt lat="49.03301" lon="6.87994">
        <ele>257.9</ele>
        <time>2014-02-12T09:23:21Z</time>
      </trkpt>
      <trkpt lat="49.03304" lon="6.8799">
        <ele>258.2</ele>
        <time>2014-02-12T09:23:24Z</time>
      </trkpt>
      <trkpt lat="49.03307" lon="6.87987">
        <ele>258</ele>
        <time>2014-02-12T09:23:27Z</time>
      </trkpt>
      <trkpt lat="49.0331" lon="6.87983">
        <ele>257.8</ele>
        <time>2014-02-12T09:23:30Z</time>
      </trkpt>
      <trkpt lat="49.03313" lon="6.8798">
        <ele>258.1</ele>
        <time>2014-02-12T09:23:33Z</time>
      </trkpt>
      <trkpt lat="49.03316" lon="6.87976">
        <ele>258.8</ele>
        <time>2014-02-12T09:23:36Z</time>
      </trkpt>
      <trkpt lat="49.03319" lon="6.87972">
        <ele>259.2</ele>
        <time>2014-02-12T09:23:39Z</time>
      </trkpt>
      <trkpt lat="49.03322" lon="6.87968">
        <ele>258.7</ele>
        <time>2014-02-12T09:23:42Z</time>
      </trkpt>
      <trkpt lat="49.03325" lon="6.87964">
        <ele>258.7</ele>
        <time>2014-02-12T09:23:45Z</time>
      </trkpt>
      <trkpt lat="49.03327" lon="6.8796">
        <ele>258.1</ele>
        <time>2014-02-12T09:23:48Z</time>
      </trkpt>
      <trkpt lat="49.0333" lon="6.87956">
        <ele>258.5</ele>
        <time>2014-02-12T09:23:51Z</time>
      </trkpt>
      <trkpt lat="49.03332" lon="6.87951">
        <ele>258.2</ele>
        <time>2014-02-12T09:23:54Z</time>
      </trkpt>
      <trkpt lat="49.03334" lon="6.87947">
        <ele>258.2</ele>
        <time>2014-02-12T09:23:57Z</time>
      </trkpt>
      <trkpt lat="49.03337" lon="6.87942">
        <ele>258.2</ele>
        <time>2014-02-12T09:24:00Z</time>
      </trkpt>
      <trkpt lat="49.03338" lon="6.87938">
        <ele>258.3</ele>
        <time>2014-02-12T09:24:03Z</time>
      </trkpt>
      <trkpt lat="49.0334" lon="6.87933">
        <ele>258</ele>
        <time>2014-02-12T09:24:06Z</time>
      </trkpt>
      <trkpt lat="49.03342" lon="6.87928">
        <ele>258</ele>
        <time>2014-02-12T09:24:09Z</time>
      </trkpt>
      <trkpt lat="49.03343" lon="6.87923">
        <ele>258.4</ele>
        <time>2014-02-12T09:24:12Z</time>
      </trkpt>
      <trkpt lat="49.03345" lon="6.87917">
        <ele>258.6</ele>
        <time>2014-02-12T09:24:15Z</time>
      </trkpt>
      <trkpt lat="49.03348" lon="6.87907">
        <ele>257.7</ele>
        <time>2014-02-12T09:24:21Z</time>
      </trkpt>
      <trkpt lat="49.03349" lon="6.87901">
        <ele>258.2</ele>
        <time>2014-02-12T09:24:24Z</time>
      </trkpt>
      <trkpt lat="49.03351" lon="6.87896">
        <ele>258.7</ele>
        <time>2014-02-12T09:24:27Z</time>
      </trkpt>
      <trkpt lat="49.03353" lon="6.8789">
        <ele>258.3</ele>
        <time>2014-02-12T09:24:30Z</time>
      </trkpt>
      <trkpt lat="49.03354" lon="6.87885">
        <ele>258</ele>
        <time>2014-02-12T09:24:33Z</time>
      </trkpt>
      <trkpt lat="49.03356" lon="6.8788">
        <ele>258.1</ele>
        <time>2014-02-12T09:24:36Z</time>
      </trkpt>
      <trkpt lat="49.03358" lon="6.87875">
        <ele>257.4</ele>
        <time>2014-02-12T09:24:39Z</time>
      </trkpt>
      <trkpt lat="49.03359" lon="6.87869">
        <ele>257.1</ele>
        <time>2014-02-12T09:24:42Z</time>
      </trkpt>
      <trkpt lat="49.03361" lon="6.87864">
        <ele>257.1</ele>
        <time>2014-02-12T09:24:45Z</time>
      </trkpt>
      <trkpt lat="49.03362" lon="6.87858">
        <ele>257.4</ele>
        <time>2014-02-12T09:24:48Z</time>
      </trkpt>
      <trkpt lat="49.03364" lon="6.87853">
        <ele>257</ele>
        <time>2014-02-12T09:24:51Z</time>
      </trkpt>
      <trkpt lat="49.03365" lon="6.87847">
        <ele>257.7</ele>
        <time>2014-02-12T09:24:54Z</time>
      </trkpt>
      <trkpt lat="49.03367" lon="6.87842">
        <ele>258.4</ele>
        <time>2014-02-12T09:24:57Z</time>
      </trkpt>
      <trkpt lat="49.03369" lon="6.87836">
        <ele>258.4</ele>
        <time>2014-02-12T09:25:00Z</time>
      </trkpt>
      <trkpt lat="49.0337" lon="6.8783">
        <ele>258.4</ele>
        <time>2014-02-12T09:25:03Z</time>
      </trkpt>
      <trkpt lat="49.03371" lon="6.87824">
        <ele>258.1</ele>
        <time>2014-02-12T09:25:06Z</time>
      </trkpt>
      <trkpt lat="49.03373" lon="6.87818">
        <ele>257.8</ele>
        <time>2014-02-12T09:25:09Z</time>
      </trkpt>
      <trkpt lat="49.03374" lon="6.87813">
        <ele>258.5</ele>
        <time>2014-02-12T09:25:12Z</time>
      </trkpt>
      <trkpt lat="49.03376" lon="6.87807">
        <ele>259</ele>
        <time>2014-02-12T09:25:15Z</time>
      </trkpt>
      <trkpt lat="49.03378" lon="6.87801">
        <ele>258.2</ele>
        <time>2014-02-12T09:25:18Z</time>
      </trkpt>
      <trkpt lat="49.03381" lon="6.87789">
        <ele>257.7</ele>
        <time>2014-02-12T09:25:24Z</time>
      </trkpt>
      <trkpt lat="49.03382" lon="6.87783">
        <ele>258.4</ele>
        <time>2014-02-12T09:25:27Z</time>
      </trkpt>
      <trkpt lat="49.03384" lon="6.87777">
        <ele>258.7</ele>
        <time>2014-02-12T09:25:30Z</time>
      </trkpt>
      <trkpt lat="49.03385" lon="6.87772">
        <ele>258.7</ele>
        <time>2014-02-12T09:25:33Z</time>
      </trkpt>
      <trkpt lat="49.03387" lon="6.87766">
        <ele>258.1</ele>
        <time>2014-02-12T09:25:36Z</time>
      </trkpt>
      <trkpt lat="49.03388" lon="6.8776">
        <ele>257.3</ele>
        <time>2014-02-12T09:25:39Z</time>
      </trkpt>
      <trkpt lat="49.03389" lon="6.87754">
        <ele>257.8</ele>
        <time>2014-02-12T09:25:42Z</time>
      </trkpt>
      <trkpt lat="49.03391" lon="6.87748">
        <ele>257.6</ele>
        <time>2014-02-12T09:25:45Z</time>
      </trkpt>
      <trkpt lat="49.03393" lon="6.87742">
        <ele>257.7</ele>
        <time>2014-02-12T09:25:48Z</time>
      </trkpt>
      <trkpt lat="49.03394" lon="6.87736">
        <ele>257.6</ele>
        <time>2014-02-12T09:25:51Z</time>
      </trkpt>
      <trkpt lat="49.03396" lon="6.8773">
        <ele>257.3</ele>
        <time>2014-02-12T09:25:54Z</time>
      </trkpt>
      <trkpt lat="49.03397" lon="6.87724">
        <ele>257.5</ele>
        <time>2014-02-12T09:25:57Z</time>
      </trkpt>
      <trkpt lat="49.03399" lon="6.87718">
        <ele>257.5</ele>
        <time>2014-02-12T09:26:00Z</time>
      </trkpt>
      <trkpt lat="49.03401" lon="6.87712">
        <ele>258.5</ele>
        <time>2014-02-12T09:26:03Z</time>
      </trkpt>
      <trkpt lat="49.03403" lon="6.87707">
        <ele>258.5</ele>
        <time>2014-02-12T09:26:06Z</time>
      </trkpt>
      <trkpt lat="49.03405" lon="6.87701">
        <ele>258.2</ele>
        <time>2014-02-12T09:26:09Z</time>
      </trkpt>
      <trkpt lat="49.03407" lon="6.87696">
        <ele>257.3</ele>
        <time>2014-02-12T09:26:12Z</time>
      </trkpt>
      <trkpt lat="49.0341" lon="6.87691">
        <ele>256.6</ele>
        <time>2014-02-12T09:26:15Z</time>
      </trkpt>
      <trkpt lat="49.03412" lon="6.87686">
        <ele>256.5</ele>
        <time>2014-02-12T09:26:18Z</time>
      </trkpt>
      <trkpt lat="49.03414" lon="6.87681">
        <ele>256.5</ele>
        <time>2014-02-12T09:26:21Z</time>
      </trkpt>
      <trkpt lat="49.03419" lon="6.87672">
        <ele>256.2</ele>
        <time>2014-02-12T09:26:27Z</time>
      </trkpt>
      <trkpt lat="49.03421" lon="6.87667">
        <ele>256.8</ele>
        <time>2014-02-12T09:26:30Z</time>
      </trkpt>
      <trkpt lat="49.03423" lon="6.87663">
        <ele>256.6</ele>
        <time>2014-02-12T09:26:33Z</time>
      </trkpt>
      <trkpt lat="49.03426" lon="6.87658">
        <ele>255.8</ele>
        <time>2014-02-12T09:26:36Z</time>
      </trkpt>
      <trkpt lat="49.03428" lon="6.87653">
        <ele>256.1</ele>
        <time>2014-02-12T09:26:39Z</time>
      </trkpt>
      <trkpt lat="49.03431" lon="6.87649">
        <ele>255.9</ele>
        <time>2014-02-12T09:26:42Z</time>
      </trkpt>
      <trkpt lat="49.03434" lon="6.87644">
        <ele>255.7</ele>
        <time>2014-02-12T09:26:45Z</time>
      </trkpt>
      <trkpt lat="49.03436" lon="6.8764">
        <ele>255.6</ele>
        <time>2014-02-12T09:26:48Z</time>
      </trkpt>
      <trkpt lat="49.03439" lon="6.87636">
        <ele>254.8</ele>
        <time>2014-02-12T09:26:51Z</time>
      </trkpt>
      <trkpt lat="49.03442" lon="6.87633">
        <ele>254.4</ele>
        <time>2014-02-12T09:26:54Z</time>
      </trkpt>
      <trkpt lat="49.03446" lon="6.8763">
        <ele>254.9</ele>
        <time>2014-02-12T09:26:57Z</time>
      </trkpt>
      <trkpt lat="49.03449" lon="6.87627">
        <ele>254.6</ele>
        <time>2014-02-12T09:27:00Z</time>
      </trkpt>
      <trkpt lat="49.03451" lon="6.87625">
        <ele>255.1</ele>
        <time>2014-02-12T09:27:03Z</time>
      </trkpt>
      <trkpt lat="49.03454" lon="6.87623">
        <ele>254.5</ele>
        <time>2014-02-12T09:27:06Z</time>
      </trkpt>
      <trkpt lat="49.03457" lon="6.87622">
        <ele>254.8</ele>
        <time>2014-02-12T09:27:09Z</time>
      </trkpt>
      <trkpt lat="49.0346" lon="6.87621">
        <ele>254.9</ele>
        <time>2014-02-12T09:27:12Z</time>
      </trkpt>
      <trkpt lat="49.03463" lon="6.8762">
        <ele>254.2</ele>
        <time>2014-02-12T09:27:15Z</time>
      </trkpt>
      <trkpt lat="49.03467" lon="6.8762">
        <ele>253.7</ele>
        <time>2014-02-12T09:27:18Z</time>
      </trkpt>
      <trkpt lat="49.03471" lon="6.8762">
        <ele>254</ele>
        <time>2014-02-12T09:27:21Z</time>
      </trkpt>
      <trkpt lat="49.03474" lon="6.8762">
        <ele>254</ele>
        <time>2014-02-12T09:27:24Z</time>
      </trkpt>
      <trkpt lat="49.03482" lon="6.8762">
        <ele>252.9</ele>
        <time>2014-02-12T09:27:30Z</time>
      </trkpt>
      <trkpt lat="49.03486" lon="6.8762">
        <ele>252.9</ele>
        <time>2014-02-12T09:27:33Z</time>
      </trkpt>
      <trkpt lat="49.0349" lon="6.8762">
        <ele>253.2</ele>
        <time>2014-02-12T09:27:36Z</time>
      </trkpt>
      <trkpt lat="49.03493" lon="6.8762">
        <ele>252.9</ele>
        <time>2014-02-12T09:27:39Z</time>
      </trkpt>
      <trkpt lat="49.03497" lon="6.87621">
        <ele>252.7</ele>
        <time>2014-02-12T09:27:42Z</time>
      </trkpt>
      <trkpt lat="49.035" lon="6.87622">
        <ele>252.4</ele>
        <time>2014-02-12T09:27:45Z</time>
      </trkpt>
      <trkpt lat="49.03504" lon="6.87622">
        <ele>252.2</ele>
        <time>2014-02-12T09:27:48Z</time>
      </trkpt>
      <trkpt lat="49.03508" lon="6.87623">
        <ele>252</ele>
        <time>2014-02-12T09:27:51Z</time>
      </trkpt>
      <trkpt lat="49.03511" lon="6.87623">
        <ele>251.4</ele>
        <time>2014-02-12T09:27:54Z</time>
      </trkpt>
      <trkpt lat="49.03515" lon="6.87624">
        <ele>251.6</ele>
        <time>2014-02-12T09:27:57Z</time>
      </trkpt>
      <trkpt lat="49.03519" lon="6.87624">
        <ele>252.8</ele>
        <time>2014-02-12T09:28:00Z</time>
      </trkpt>
      <trkpt lat="49.03522" lon="6.87624">
        <ele>252.3</ele>
        <time>2014-02-12T09:28:03Z</time>
      </trkpt>
      <trkpt lat="49.03525" lon="6.87624">
        <ele>252.1</ele>
        <time>2014-02-12T09:28:06Z</time>
      </trkpt>
      <trkpt lat="49.03528" lon="6.87624">
        <ele>252.5</ele>
        <time>2014-02-12T09:28:09Z</time>
      </trkpt>
      <trkpt lat="49.03531" lon="6.87624">
        <ele>252.3</ele>
        <time>2014-02-12T09:28:12Z</time>
      </trkpt>
      <trkpt lat="49.03535" lon="6.87623">
        <ele>252.5</ele>
        <time>2014-02-12T09:28:15Z</time>
      </trkpt>
      <trkpt lat="49.03539" lon="6.87623">
        <ele>251.8</ele>
        <time>2014-02-12T09:28:18Z</time>
      </trkpt>
      <trkpt lat="49.03543" lon="6.87623">
        <ele>251.5</ele>
        <time>2014-02-12T09:28:21Z</time>
      </trkpt>
      <trkpt lat="49.03546" lon="6.87623">
        <ele>251.3</ele>
        <time>2014-02-12T09:28:24Z</time>
      </trkpt>
      <trkpt lat="49.0355" lon="6.87623">
        <ele>251.9</ele>
        <time>2014-02-12T09:28:27Z</time>
      </trkpt>
      <trkpt lat="49.03558" lon="6.87622">
        <ele>252.4</ele>
        <time>2014-02-12T09:28:33Z</time>
      </trkpt>
      <trkpt lat="49.03563" lon="6.87621">
        <ele>252.7</ele>
        <time>2014-02-12T09:28:36Z</time>
      </trkpt>
      <trkpt lat="49.03567" lon="6.87621">
        <ele>252.5</ele>
        <time>2014-02-12T09:28:39Z</time>
      </trkpt>
      <trkpt lat="49.03571" lon="6.8762">
        <ele>252.4</ele>
        <time>2014-02-12T09:28:42Z</time>
      </trkpt>
      <trkpt lat="49.03575" lon="6.87619">
        <ele>252.6</ele>
        <time>2014-02-12T09:28:45Z</time>
      </trkpt>
      <trkpt lat="49.03579" lon="6.87618">
        <ele>252</ele>
        <time>2014-02-12T09:28:48Z</time>
      </trkpt>
      <trkpt lat="49.03583" lon="6.87618">
        <ele>251.9</ele>
        <time>2014-02-12T09:28:51Z</time>
      </trkpt>
      <trkpt lat="49.03587" lon="6.87616">
        <ele>252.1</ele>
        <time>2014-02-12T09:28:54Z</time>
      </trkpt>
      <trkpt lat="49.03591" lon="6.87616">
        <ele>252.1</ele>
        <time>2014-02-12T09:28:57Z</time>
      </trkpt>
      <trkpt lat="49.03595" lon="6.87614">
        <ele>252.5</ele>
        <time>2014-02-12T09:29:00Z</time>
      </trkpt>
      <trkpt lat="49.03599" lon="6.87613">
        <ele>252.5</ele>
        <time>2014-02-12T09:29:03Z</time>
      </trkpt>
      <trkpt lat="49.03602" lon="6.87612">
        <ele>252.6</ele>
        <time>2014-02-12T09:29:06Z</time>
      </trkpt>
      <trkpt lat="49.03606" lon="6.8761">
        <ele>252.8</ele>
        <time>2014-02-12T09:29:09Z</time>
      </trkpt>
      <trkpt lat="49.03611" lon="6.8761">
        <ele>252.7</ele>
        <time>2014-02-12T09:29:12Z</time>
      </trkpt>
      <trkpt lat="49.03615" lon="6.87608">
        <ele>252.8</ele>
        <time>2014-02-12T09:29:15Z</time>
      </trkpt>
      <trkpt lat="49.0362" lon="6.87607">
        <ele>252.8</ele>
        <time>2014-02-12T09:29:18Z</time>
      </trkpt>
      <trkpt lat="49.03625" lon="6.87605">
        <ele>253</ele>
        <time>2014-02-12T09:29:21Z</time>
      </trkpt>
      <trkpt lat="49.03629" lon="6.87604">
        <ele>253.8</ele>
        <time>2014-02-12T09:29:24Z</time>
      </trkpt>
      <trkpt lat="49.03633" lon="6.87602">
        <ele>254.7</ele>
        <time>2014-02-12T09:29:27Z</time>
      </trkpt>
      <trkpt lat="49.03638" lon="6.87601">
        <ele>255.4</ele>
        <time>2014-02-12T09:29:30Z</time>
      </trkpt>
      <trkpt lat="49.03645" lon="6.87597">
        <ele>255.2</ele>
        <time>2014-02-12T09:29:36Z</time>
      </trkpt>
      <trkpt lat="49.03649" lon="6.87595">
        <ele>255.1</ele>
        <time>2014-02-12T09:29:39Z</time>
      </trkpt>
      <trkpt lat="49.03652" lon="6.87593">
        <ele>255.8</ele>
        <time>2014-02-12T09:29:42Z</time>
      </trkpt>
      <trkpt lat="49.03657" lon="6.87591">
        <ele>256.9</ele>
        <time>2014-02-12T09:29:45Z</time>
      </trkpt>
      <trkpt lat="49.03661" lon="6.87589">
        <ele>256.4</ele>
        <time>2014-02-12T09:29:48Z</time>
      </trkpt>
      <trkpt lat="49.03664" lon="6.87587">
        <ele>256.3</ele>
        <time>2014-02-12T09:29:51Z</time>
      </trkpt>
      <trkpt lat="49.03668" lon="6.87585">
        <ele>256.4</ele>
        <time>2014-02-12T09:29:54Z</time>
      </trkpt>
      <trkpt lat="49.03672" lon="6.87583">
        <ele>256.5</ele>
        <time>2014-02-12T09:29:57Z</time>
      </trkpt>
      <trkpt lat="49.03676" lon="6.8758">
        <ele>256.3</ele>
        <time>2014-02-12T09:30:00Z</time>
      </trkpt>
      <trkpt lat="49.0368" lon="6.87578">
        <ele>256</ele>
        <time>2014-02-12T09:30:03Z</time>
      </trkpt>
      <trkpt lat="49.03684" lon="6.87576">
        <ele>256.5</ele>
        <time>2014-02-12T09:30:06Z</time>
      </trkpt>
      <trkpt lat="49.03688" lon="6.87573">
        <ele>257</ele>
        <time>2014-02-12T09:30:09Z</time>
      </trkpt>
      <trkpt lat="49.03692" lon="6.87571">
        <ele>257.6</ele>
        <time>2014-02-12T09:30:12Z</time>
      </trkpt>
      <trkpt lat="49.03695" lon="6.87569">
        <ele>257.4</ele>
        <time>2014-02-12T09:30:15Z</time>
      </trkpt>
      <trkpt lat="49.03699" lon="6.87566">
        <ele>257.4</ele>
        <time>2014-02-12T09:30:18Z</time>
      </trkpt>
      <trkpt lat="49.03703" lon="6.87564">
        <ele>257.8</ele>
        <time>2014-02-12T09:30:21Z</time>
      </trkpt>
      <trkpt lat="49.03707" lon="6.87562">
        <ele>258.7</ele>
        <time>2014-02-12T09:30:24Z</time>
      </trkpt>
      <trkpt lat="49.03711" lon="6.8756">
        <ele>258.7</ele>
        <time>2014-02-12T09:30:27Z</time>
      </trkpt>
      <trkpt lat="49.03714" lon="6.87557">
        <ele>258.6</ele>
        <time>2014-02-12T09:30:30Z</time>
      </trkpt>
      <trkpt lat="49.03718" lon="6.87555">
        <ele>259.5</ele>
        <time>2014-02-12T09:30:33Z</time>
      </trkpt>
      <trkpt lat="49.03726" lon="6.87551">
        <ele>260</ele>
        <time>2014-02-12T09:30:39Z</time>
      </trkpt>
      <trkpt lat="49.03729" lon="6.87548">
        <ele>259.2</ele>
        <time>2014-02-12T09:30:42Z</time>
      </trkpt>
      <trkpt lat="49.03732" lon="6.87546">
        <ele>259.6</ele>
        <time>2014-02-12T09:30:45Z</time>
      </trkpt>
      <trkpt lat="49.03736" lon="6.87543">
        <ele>258.9</ele>
        <time>2014-02-12T09:30:48Z</time>
      </trkpt>
      <trkpt lat="49.03739" lon="6.87542">
        <ele>259.6</ele>
        <time>2014-02-12T09:30:51Z</time>
      </trkpt>
      <trkpt lat="49.03742" lon="6.87539">
        <ele>259.5</ele>
        <time>2014-02-12T09:30:54Z</time>
      </trkpt>
      <trkpt lat="49.03745" lon="6.87536">
        <ele>259.5</ele>
        <time>2014-02-12T09:30:57Z</time>
      </trkpt>
      <trkpt lat="49.03748" lon="6.87534">
        <ele>259.7</ele>
        <time>2014-02-12T09:31:00Z</time>
      </trkpt>
      <trkpt lat="49.0375" lon="6.87533">
        <ele>259.1</ele>
        <time>2014-02-12T09:31:03Z</time>
      </trkpt>
      <trkpt lat="49.03753" lon="6.87531">
        <ele>259</ele>
        <time>2014-02-12T09:31:06Z</time>
      </trkpt>
      <trkpt lat="49.03756" lon="6.87529">
        <ele>258.7</ele>
        <time>2014-02-12T09:31:09Z</time>
      </trkpt>
      <trkpt lat="49.03759" lon="6.87526">
        <ele>258.2</ele>
        <time>2014-02-12T09:31:12Z</time>
      </trkpt>
      <trkpt lat="49.03761" lon="6.87523">
        <ele>258.5</ele>
        <time>2014-02-12T09:31:15Z</time>
      </trkpt>
      <trkpt lat="49.03764" lon="6.8752">
        <ele>258.8</ele>
        <time>2014-02-12T09:31:18Z</time>
      </trkpt>
      <trkpt lat="49.03768" lon="6.87518">
        <ele>258.6</ele>
        <time>2014-02-12T09:31:21Z</time>
      </trkpt>
      <trkpt lat="49.03771" lon="6.87515">
        <ele>258.2</ele>
        <time>2014-02-12T09:31:24Z</time>
      </trkpt>
      <trkpt lat="49.03773" lon="6.87512">
        <ele>257.6</ele>
        <time>2014-02-12T09:31:27Z</time>
      </trkpt>
      <trkpt lat="49.03777" lon="6.8751">
        <ele>258.1</ele>
        <time>2014-02-12T09:31:30Z</time>
      </trkpt>
      <trkpt lat="49.0378" lon="6.87507">
        <ele>258.1</ele>
        <time>2014-02-12T09:31:33Z</time>
      </trkpt>
      <trkpt lat="49.03783" lon="6.87504">
        <ele>257.8</ele>
        <time>2014-02-12T09:31:36Z</time>
      </trkpt>
      <trkpt lat="49.03789" lon="6.87499">
        <ele>256.9</ele>
        <time>2014-02-12T09:31:42Z</time>
      </trkpt>
      <trkpt lat="49.03792" lon="6.87497">
        <ele>256.6</ele>
        <time>2014-02-12T09:31:45Z</time>
      </trkpt>
      <trkpt lat="49.03795" lon="6.87494">
        <ele>256.5</ele>
        <time>2014-02-12T09:31:48Z</time>
      </trkpt>
      <trkpt lat="49.03798" lon="6.87491">
        <ele>256</ele>
        <time>2014-02-12T09:31:51Z</time>
      </trkpt>
      <trkpt lat="49.03802" lon="6.87489">
        <ele>255.8</ele>
        <time>2014-02-12T09:31:54Z</time>
      </trkpt>
      <trkpt lat="49.03805" lon="6.87486">
        <ele>255.4</ele>
        <time>2014-02-12T09:31:57Z</time>
      </trkpt>
      <trkpt lat="49.03808" lon="6.87483">
        <ele>255.8</ele>
        <time>2014-02-12T09:32:00Z</time>
      </trkpt>
      <trkpt lat="49.03811" lon="6.87481">
        <ele>255.1</ele>
        <time>2014-02-12T09:32:03Z</time>
      </trkpt>
      <trkpt lat="49.03815" lon="6.87478">
        <ele>254.2</ele>
        <time>2014-02-12T09:32:06Z</time>
      </trkpt>
      <trkpt lat="49.03818" lon="6.87475">
        <ele>253.9</ele>
        <time>2014-02-12T09:32:09Z</time>
      </trkpt>
      <trkpt lat="49.03821" lon="6.87473">
        <ele>253.8</ele>
        <time>2014-02-12T09:32:12Z</time>
      </trkpt>
      <trkpt lat="49.03824" lon="6.87471">
        <ele>254</ele>
        <time>2014-02-12T09:32:15Z</time>
      </trkpt>
      <trkpt lat="49.03827" lon="6.87468">
        <ele>253.9</ele>
        <time>2014-02-12T09:32:18Z</time>
      </trkpt>
      <trkpt lat="49.0383" lon="6.87466">
        <ele>253.6</ele>
        <time>2014-02-12T09:32:21Z</time>
      </trkpt>
      <trkpt lat="49.03834" lon="6.87463">
        <ele>252.1</ele>
        <time>2014-02-12T09:32:24Z</time>
      </trkpt>
      <trkpt lat="49.03837" lon="6.87461">
        <ele>251.9</ele>
        <time>2014-02-12T09:32:27Z</time>
      </trkpt>
      <trkpt lat="49.03841" lon="6.87458">
        <ele>252.7</ele>
        <time>2014-02-12T09:32:30Z</time>
      </trkpt>
      <trkpt lat="49.03844" lon="6.87456">
        <ele>252.2</ele>
        <time>2014-02-12T09:32:33Z</time>
      </trkpt>
      <trkpt lat="49.03846" lon="6.87454">
        <ele>251.5</ele>
        <time>2014-02-12T09:32:36Z</time>
      </trkpt>
      <trkpt lat="49.03849" lon="6.87451">
        <ele>250.8</ele>
        <time>2014-02-12T09:32:39Z</time>
      </trkpt>
      <trkpt lat="49.03855" lon="6.87446">
        <ele>251.3</ele>
        <time>2014-02-12T09:32:45Z</time>
      </trkpt>
      <trkpt lat="49.03858" lon="6.87443">
        <ele>251.7</ele>
        <time>2014-02-12T09:32:48Z</time>
      </trkpt>
      <trkpt lat="49.03861" lon="6.87441">
        <ele>251.1</ele>
        <time>2014-02-12T09:32:51Z</time>
      </trkpt>
      <trkpt lat="49.03865" lon="6.87438">
        <ele>250.6</ele>
        <time>2014-02-12T09:32:54Z</time>
      </trkpt>
      <trkpt lat="49.03869" lon="6.87435">
        <ele>250.5</ele>
        <time>2014-02-12T09:32:57Z</time>
      </trkpt>
      <trkpt lat="49.03872" lon="6.87433">
        <ele>249.9</ele>
        <time>2014-02-12T09:33:00Z</time>
      </trkpt>
      <trkpt lat="49.03876" lon="6.87431">
        <ele>249.5</ele>
        <time>2014-02-12T09:33:03Z</time>
      </trkpt>
      <trkpt lat="49.03879" lon="6.87429">
        <ele>249.3</ele>
        <time>2014-02-12T09:33:06Z</time>
      </trkpt>
      <trkpt lat="49.03883" lon="6.87427">
        <ele>248.5</ele>
        <time>2014-02-12T09:33:09Z</time>
      </trkpt>
      <trkpt lat="49.03886" lon="6.87425">
        <ele>248.2</ele>
        <time>2014-02-12T09:33:12Z</time>
      </trkpt>
      <trkpt lat="49.0389" lon="6.87424">
        <ele>248.2</ele>
        <time>2014-02-12T09:33:15Z</time>
      </trkpt>
      <trkpt lat="49.03893" lon="6.87422">
        <ele>248.1</ele>
        <time>2014-02-12T09:33:18Z</time>
      </trkpt>
      <trkpt lat="49.03896" lon="6.8742">
        <ele>247.8</ele>
        <time>2014-02-12T09:33:21Z</time>
      </trkpt>
      <trkpt lat="49.039" lon="6.87419">
        <ele>247.6</ele>
        <time>2014-02-12T09:33:24Z</time>
      </trkpt>
      <trkpt lat="49.03904" lon="6.87418">
        <ele>247</ele>
        <time>2014-02-12T09:33:27Z</time>
      </trkpt>
      <trkpt lat="49.03907" lon="6.87417">
        <ele>246.3</ele>
        <time>2014-02-12T09:33:30Z</time>
      </trkpt>
      <trkpt lat="49.0391" lon="6.87417">
        <ele>246.6</ele>
        <time>2014-02-12T09:33:33Z</time>
      </trkpt>
      <trkpt lat="49.03913" lon="6.87417">
        <ele>247.2</ele>
        <time>2014-02-12T09:33:36Z</time>
      </trkpt>
      <trkpt lat="49.03917" lon="6.87418">
        <ele>246.5</ele>
        <time>2014-02-12T09:33:39Z</time>
      </trkpt>
      <trkpt lat="49.03921" lon="6.87419">
        <ele>245.9</ele>
        <time>2014-02-12T09:33:42Z</time>
      </trkpt>
      <trkpt lat="49.03928" lon="6.87421">
        <ele>245.8</ele>
        <time>2014-02-12T09:33:48Z</time>
      </trkpt>
      <trkpt lat="49.03932" lon="6.87423">
        <ele>245.4</ele>
        <time>2014-02-12T09:33:51Z</time>
      </trkpt>
      <trkpt lat="49.03936" lon="6.87424">
        <ele>245.2</ele>
        <time>2014-02-12T09:33:54Z</time>
      </trkpt>
      <trkpt lat="49.0394" lon="6.87427">
        <ele>244.7</ele>
        <time>2014-02-12T09:33:57Z</time>
      </trkpt>
      <trkpt lat="49.03943" lon="6.87429">
        <ele>243.9</ele>
        <time>2014-02-12T09:34:00Z</time>
      </trkpt>
      <trkpt lat="49.03945" lon="6.87432">
        <ele>244.7</ele>
        <time>2014-02-12T09:34:03Z</time>
      </trkpt>
      <trkpt lat="49.03947" lon="6.87435">
        <ele>244.8</ele>
        <time>2014-02-12T09:34:06Z</time>
      </trkpt>
      <trkpt lat="49.0395" lon="6.87438">
        <ele>244.9</ele>
        <time>2014-02-12T09:34:09Z</time>
      </trkpt>
      <trkpt lat="49.03952" lon="6.87441">
        <ele>244.4</ele>
        <time>2014-02-12T09:34:12Z</time>
      </trkpt>
      <trkpt lat="49.03955" lon="6.87445">
        <ele>244.2</ele>
        <time>2014-02-12T09:34:15Z</time>
      </trkpt>
      <trkpt lat="49.03957" lon="6.87448">
        <ele>243.5</ele>
        <time>2014-02-12T09:34:18Z</time>
      </trkpt>
      <trkpt lat="49.03959" lon="6.87452">
        <ele>243.6</ele>
        <time>2014-02-12T09:34:21Z</time>
      </trkpt>
      <trkpt lat="49.03962" lon="6.87455">
        <ele>242.7</ele>
        <time>2014-02-12T09:34:24Z</time>
      </trkpt>
      <trkpt lat="49.03965" lon="6.87459">
        <ele>241.8</ele>
        <time>2014-02-12T09:34:27Z</time>
      </trkpt>
      <trkpt lat="49.03967" lon="6.87462">
        <ele>242</ele>
        <time>2014-02-12T09:34:30Z</time>
      </trkpt>
      <trkpt lat="49.03971" lon="6.87465">
        <ele>241.6</ele>
        <time>2014-02-12T09:34:33Z</time>
      </trkpt>
      <trkpt lat="49.03973" lon="6.87469">
        <ele>241.4</ele>
        <time>2014-02-12T09:34:36Z</time>
      </trkpt>
      <trkpt lat="49.03976" lon="6.87473">
        <ele>241.5</ele>
        <time>2014-02-12T09:34:39Z</time>
      </trkpt>
      <trkpt lat="49.0398" lon="6.87477">
        <ele>241.5</ele>
        <time>2014-02-12T09:34:42Z</time>
      </trkpt>
      <trkpt lat="49.03983" lon="6.87481">
        <ele>241.2</ele>
        <time>2014-02-12T09:34:45Z</time>
      </trkpt>
      <trkpt lat="49.03991" lon="6.87486">
        <ele>241.1</ele>
        <time>2014-02-12T09:34:51Z</time>
      </trkpt>
      <trkpt lat="49.03995" lon="6.87488">
        <ele>241.2</ele>
        <time>2014-02-12T09:34:54Z</time>
      </trkpt>
      <trkpt lat="49.03998" lon="6.87491">
        <ele>241.9</ele>
        <time>2014-02-12T09:34:57Z</time>
      </trkpt>
      <trkpt lat="49.04002" lon="6.87492">
        <ele>241.4</ele>
        <time>2014-02-12T09:35:00Z</time>
      </trkpt>
      <trkpt lat="49.04006" lon="6.87494">
        <ele>240.9</ele>
        <time>2014-02-12T09:35:03Z</time>
      </trkpt>
      <trkpt lat="49.04009" lon="6.87494">
        <ele>241.5</ele>
        <time>2014-02-12T09:35:06Z</time>
      </trkpt>
      <trkpt lat="49.04012" lon="6.87494">
        <ele>241.5</ele>
        <time>2014-02-12T09:35:09Z</time>
      </trkpt>
      <trkpt lat="49.04015" lon="6.87494">
        <ele>241.4</ele>
        <time>2014-02-12T09:35:12Z</time>
      </trkpt>
      <trkpt lat="49.04019" lon="6.87494">
        <ele>241.8</ele>
        <time>2014-02-12T09:35:15Z</time>
      </trkpt>
      <trkpt lat="49.04022" lon="6.87493">
        <ele>241.9</ele>
        <time>2014-02-12T09:35:18Z</time>
      </trkpt>
      <trkpt lat="49.04026" lon="6.87493">
        <ele>242</ele>
        <time>2014-02-12T09:35:21Z</time>
      </trkpt>
      <trkpt lat="49.0403" lon="6.87492">
        <ele>242.1</ele>
        <time>2014-02-12T09:35:24Z</time>
      </trkpt>
      <trkpt lat="49.04033" lon="6.87491">
        <ele>242.1</ele>
        <time>2014-02-12T09:35:27Z</time>
      </trkpt>
      <trkpt lat="49.04037" lon="6.8749">
        <ele>241.5</ele>
        <time>2014-02-12T09:35:30Z</time>
      </trkpt>
      <trkpt lat="49.04042" lon="6.87489">
        <ele>241.7</ele>
        <time>2014-02-12T09:35:33Z</time>
      </trkpt>
      <trkpt lat="49.04046" lon="6.87488">
        <ele>241.9</ele>
        <time>2014-02-12T09:35:36Z</time>
      </trkpt>
      <trkpt lat="49.04049" lon="6.87486">
        <ele>242.6</ele>
        <time>2014-02-12T09:35:39Z</time>
      </trkpt>
      <trkpt lat="49.04053" lon="6.87483">
        <ele>242.1</ele>
        <time>2014-02-12T09:35:42Z</time>
      </trkpt>
      <trkpt lat="49.04057" lon="6.87482">
        <ele>242.2</ele>
        <time>2014-02-12T09:35:45Z</time>
      </trkpt>
      <trkpt lat="49.04061" lon="6.87479">
        <ele>242.7</ele>
        <time>2014-02-12T09:35:48Z</time>
      </trkpt>
      <trkpt lat="49.04067" lon="6.87475">
        <ele>243.1</ele>
        <time>2014-02-12T09:35:54Z</time>
      </trkpt>
      <trkpt lat="49.0407" lon="6.87473">
        <ele>243.7</ele>
        <time>2014-02-12T09:35:57Z</time>
      </trkpt>
      <trkpt lat="49.04074" lon="6.87471">
        <ele>244</ele>
        <time>2014-02-12T09:36:00Z</time>
      </trkpt>
      <trkpt lat="49.04077" lon="6.87469">
        <ele>243.8</ele>
        <time>2014-02-12T09:36:03Z</time>
      </trkpt>
      <trkpt lat="49.04081" lon="6.87467">
        <ele>244.4</ele>
        <time>2014-02-12T09:36:06Z</time>
      </trkpt>
      <trkpt lat="49.04084" lon="6.87464">
        <ele>244.5</ele>
        <time>2014-02-12T09:36:09Z</time>
      </trkpt>
      <trkpt lat="49.04086" lon="6.87462">
        <ele>245.3</ele>
        <time>2014-02-12T09:36:12Z</time>
      </trkpt>
      <trkpt lat="49.04089" lon="6.8746">
        <ele>245.7</ele>
        <time>2014-02-12T09:36:15Z</time>
      </trkpt>
      <trkpt lat="49.04093" lon="6.87458">
        <ele>246.4</ele>
        <time>2014-02-12T09:36:18Z</time>
      </trkpt>
      <trkpt lat="49.04096" lon="6.87455">
        <ele>245.8</ele>
        <time>2014-02-12T09:36:21Z</time>
      </trkpt>
      <trkpt lat="49.04099" lon="6.87453">
        <ele>246</ele>
        <time>2014-02-12T09:36:24Z</time>
      </trkpt>
      <trkpt lat="49.04103" lon="6.8745">
        <ele>246.7</ele>
        <time>2014-02-12T09:36:27Z</time>
      </trkpt>
      <trkpt lat="49.04107" lon="6.87448">
        <ele>246.8</ele>
        <time>2014-02-12T09:36:30Z</time>
      </trkpt>
      <trkpt lat="49.0411" lon="6.87445">
        <ele>247.7</ele>
        <time>2014-02-12T09:36:33Z</time>
      </trkpt>
      <trkpt lat="49.04112" lon="6.87442">
        <ele>248.1</ele>
        <time>2014-02-12T09:36:36Z</time>
      </trkpt>
      <trkpt lat="49.04115" lon="6.87438">
        <ele>248.5</ele>
        <time>2014-02-12T09:36:39Z</time>
      </trkpt>
      <trkpt lat="49.04118" lon="6.87435">
        <ele>249.1</ele>
        <time>2014-02-12T09:36:42Z</time>
      </trkpt>
      <trkpt lat="49.04121" lon="6.87432">
        <ele>248.7</ele>
        <time>2014-02-12T09:36:45Z</time>
      </trkpt>
      <trkpt lat="49.04123" lon="6.87428">
        <ele>249.5</ele>
        <time>2014-02-12T09:36:48Z</time>
      </trkpt>
      <trkpt lat="49.04126" lon="6.87425">
        <ele>249.6</ele>
        <time>2014-02-12T09:36:51Z</time>
      </trkpt>
      <trkpt lat="49.04131" lon="6.87418">
        <ele>249.6</ele>
        <time>2014-02-12T09:36:57Z</time>
      </trkpt>
      <trkpt lat="49.04133" lon="6.87414">
        <ele>249.8</ele>
        <time>2014-02-12T09:37:00Z</time>
      </trkpt>
      <trkpt lat="49.04136" lon="6.87409">
        <ele>250.4</ele>
        <time>2014-02-12T09:37:03Z</time>
      </trkpt>
      <trkpt lat="49.04138" lon="6.87405">
        <ele>251</ele>
        <time>2014-02-12T09:37:06Z</time>
      </trkpt>
      <trkpt lat="49.04141" lon="6.87401">
        <ele>251.4</ele>
        <time>2014-02-12T09:37:09Z</time>
      </trkpt>
      <trkpt lat="49.04143" lon="6.87397">
        <ele>251.2</ele>
        <time>2014-02-12T09:37:12Z</time>
      </trkpt>
      <trkpt lat="49.04145" lon="6.87393">
        <ele>251.4</ele>
        <time>2014-02-12T09:37:15Z</time>
      </trkpt>
      <trkpt lat="49.04147" lon="6.87389">
        <ele>252.4</ele>
        <time>2014-02-12T09:37:18Z</time>
      </trkpt>
      <trkpt lat="49.04149" lon="6.87385">
        <ele>253.1</ele>
        <time>2014-02-12T09:37:21Z</time>
      </trkpt>
      <trkpt lat="49.04153" lon="6.87381">
        <ele>253.8</ele>
        <time>2014-02-12T09:37:24Z</time>
      </trkpt>
      <trkpt lat="49.04155" lon="6.87376">
        <ele>253.5</ele>
        <time>2014-02-12T09:37:27Z</time>
      </trkpt>
      <trkpt lat="49.04158" lon="6.87372">
        <ele>253.5</ele>
        <time>2014-02-12T09:37:30Z</time>
      </trkpt>
      <trkpt lat="49.0416" lon="6.87368">
        <ele>254.2</ele>
        <time>2014-02-12T09:37:33Z</time>
      </trkpt>
      <trkpt lat="49.04164" lon="6.87363">
        <ele>254.6</ele>
        <time>2014-02-12T09:37:36Z</time>
      </trkpt>
      <trkpt lat="49.04167" lon="6.87359">
        <ele>253.9</ele>
        <time>2014-02-12T09:37:39Z</time>
      </trkpt>
      <trkpt lat="49.04169" lon="6.87354">
        <ele>253.9</ele>
        <time>2014-02-12T09:37:42Z</time>
      </trkpt>
      <trkpt lat="49.04171" lon="6.87349">
        <ele>253.8</ele>
        <time>2014-02-12T09:37:45Z</time>
      </trkpt>
      <trkpt lat="49.04174" lon="6.87345">
        <ele>253.6</ele>
        <time>2014-02-12T09:37:48Z</time>
      </trkpt>
      <trkpt lat="49.04177" lon="6.87341">
        <ele>253.3</ele>
        <time>2014-02-12T09:37:51Z</time>
      </trkpt>
      <trkpt lat="49.0418" lon="6.87336">
        <ele>253.3</ele>
        <time>2014-02-12T09:37:54Z</time>
      </trkpt>
      <trkpt lat="49.04185" lon="6.87328">
        <ele>254.7</ele>
        <time>2014-02-12T09:38:00Z</time>
      </trkpt>
      <trkpt lat="49.04188" lon="6.87324">
        <ele>254.1</ele>
        <time>2014-02-12T09:38:03Z</time>
      </trkpt>
      <trkpt lat="49.0419" lon="6.87319">
        <ele>253</ele>
        <time>2014-02-12T09:38:06Z</time>
      </trkpt>
      <trkpt lat="49.04192" lon="6.87315">
        <ele>252.5</ele>
        <time>2014-02-12T09:38:09Z</time>
      </trkpt>
      <trkpt lat="49.04195" lon="6.8731">
        <ele>252.3</ele>
        <time>2014-02-12T09:38:12Z</time>
      </trkpt>
      <trkpt lat="49.04197" lon="6.87305">
        <ele>252.6</ele>
        <time>2014-02-12T09:38:15Z</time>
      </trkpt>
      <trkpt lat="49.042" lon="6.87302">
        <ele>252.7</ele>
        <time>2014-02-12T09:38:18Z</time>
      </trkpt>
      <trkpt lat="49.04203" lon="6.87298">
        <ele>252.8</ele>
        <time>2014-02-12T09:38:21Z</time>
      </trkpt>
      <trkpt lat="49.04206" lon="6.87294">
        <ele>252.8</ele>
        <time>2014-02-12T09:38:24Z</time>
      </trkpt>
      <trkpt lat="49.04209" lon="6.8729">
        <ele>253.1</ele>
        <time>2014-02-12T09:38:27Z</time>
      </trkpt>
      <trkpt lat="49.04212" lon="6.87286">
        <ele>252.8</ele>
        <time>2014-02-12T09:38:30Z</time>
      </trkpt>
      <trkpt lat="49.04216" lon="6.87282">
        <ele>251.9</ele>
        <time>2014-02-12T09:38:33Z</time>
      </trkpt>
      <trkpt lat="49.04219" lon="6.87278">
        <ele>251.8</ele>
        <time>2014-02-12T09:38:36Z</time>
      </trkpt>
      <trkpt lat="49.04221" lon="6.87273">
        <ele>251.7</ele>
        <time>2014-02-12T09:38:39Z</time>
      </trkpt>
      <trkpt lat="49.04224" lon="6.8727">
        <ele>251.4</ele>
        <time>2014-02-12T09:38:42Z</time>
      </trkpt>
      <trkpt lat="49.04227" lon="6.87265">
        <ele>252.2</ele>
        <time>2014-02-12T09:38:45Z</time>
      </trkpt>
      <trkpt lat="49.0423" lon="6.87262">
        <ele>252.4</ele>
        <time>2014-02-12T09:38:48Z</time>
      </trkpt>
      <trkpt lat="49.04234" lon="6.87258">
        <ele>253.2</ele>
        <time>2014-02-12T09:38:51Z</time>
      </trkpt>
      <trkpt lat="49.04238" lon="6.87255">
        <ele>253.2</ele>
        <time>2014-02-12T09:38:54Z</time>
      </trkpt>
      <trkpt lat="49.04242" lon="6.87253">
        <ele>253.6</ele>
        <time>2014-02-12T09:38:57Z</time>
      </trkpt>
      <trkpt lat="49.04248" lon="6.87247">
        <ele>254.5</ele>
        <time>2014-02-12T09:39:03Z</time>
      </trkpt>
      <trkpt lat="49.04251" lon="6.87244">
        <ele>254.8</ele>
        <time>2014-02-12T09:39:06Z</time>
      </trkpt>
      <trkpt lat="49.04254" lon="6.87242">
        <ele>254.5</ele>
        <time>2014-02-12T09:39:09Z</time>
      </trkpt>
      <trkpt lat="49.04257" lon="6.8724">
        <ele>254</ele>
        <time>2014-02-12T09:39:12Z</time>
      </trkpt>
      <trkpt lat="49.04261" lon="6.87238">
        <ele>254.1</ele>
        <time>2014-02-12T09:39:15Z</time>
      </trkpt>
      <trkpt lat="49.04264" lon="6.87236">
        <ele>254</ele>
        <time>2014-02-12T09:39:18Z</time>
      </trkpt>
      <trkpt lat="49.04268" lon="6.87233">
        <ele>254.2</ele>
        <time>2014-02-12T09:39:21Z</time>
      </trkpt>
      <trkpt lat="49.04272" lon="6.87231">
        <ele>254</ele>
        <time>2014-02-12T09:39:24Z</time>
      </trkpt>
      <trkpt lat="49.04276" lon="6.87228">
        <ele>253.9</ele>
        <time>2014-02-12T09:39:27Z</time>
      </trkpt>
      <trkpt lat="49.0428" lon="6.87225">
        <ele>253.8</ele>
        <time>2014-02-12T09:39:30Z</time>
      </trkpt>
      <trkpt lat="49.04283" lon="6.87223">
        <ele>254</ele>
        <time>2014-02-12T09:39:33Z</time>
      </trkpt>
      <trkpt lat="49.04286" lon="6.8722">
        <ele>254.5</ele>
        <time>2014-02-12T09:39:36Z</time>
      </trkpt>
      <trkpt lat="49.0429" lon="6.87217">
        <ele>254</ele>
        <time>2014-02-12T09:39:39Z</time>
      </trkpt>
      <trkpt lat="49.04294" lon="6.87215">
        <ele>254.3</ele>
        <time>2014-02-12T09:39:42Z</time>
      </trkpt>
      <trkpt lat="49.04298" lon="6.87212">
        <ele>255.1</ele>
        <time>2014-02-12T09:39:45Z</time>
      </trkpt>
      <trkpt lat="49.04301" lon="6.87209">
        <ele>255.3</ele>
        <time>2014-02-12T09:39:48Z</time>
      </trkpt>
      <trkpt lat="49.04305" lon="6.87207">
        <ele>255.1</ele>
        <time>2014-02-12T09:39:51Z</time>
      </trkpt>
      <trkpt lat="49.04308" lon="6.87204">
        <ele>255.1</ele>
        <time>2014-02-12T09:39:54Z</time>
      </trkpt>
      <trkpt lat="49.04312" lon="6.87201">
        <ele>255.5</ele>
        <time>2014-02-12T09:39:57Z</time>
      </trkpt>
      <trkpt lat="49.04316" lon="6.87198">
        <ele>255.4</ele>
        <time>2014-02-12T09:40:00Z</time>
      </trkpt>
      <trkpt lat="49.04322" lon="6.87192">
        <ele>254.6</ele>
        <time>2014-02-12T09:40:06Z</time>
      </trkpt>
      <trkpt lat="49.04325" lon="6.87188">
        <ele>254.5</ele>
        <time>2014-02-12T09:40:09Z</time>
      </trkpt>
      <trkpt lat="49.04328" lon="6.87184">
        <ele>254.2</ele>
        <time>2014-02-12T09:40:12Z</time>
      </trkpt>
      <trkpt lat="49.04331" lon="6.8718">
        <ele>254.3</ele>
        <time>2014-02-12T09:40:15Z</time>
      </trkpt>
      <trkpt lat="49.04335" lon="6.87177">
        <ele>253.1</ele>
        <time>2014-02-12T09:40:18Z</time>
      </trkpt>
      <trkpt lat="49.04337" lon="6.87174">
        <ele>252.5</ele>
        <time>2014-02-12T09:40:21Z</time>
      </trkpt>
      <trkpt lat="49.0434" lon="6.8717">
        <ele>252.3</ele>
        <time>2014-02-12T09:40:24Z</time>
      </trkpt>
      <trkpt lat="49.04343" lon="6.87166">
        <ele>251.9</ele>
        <time>2014-02-12T09:40:27Z</time>
      </trkpt>
      <trkpt lat="49.04345" lon="6.87162">
        <ele>252.5</ele>
        <time>2014-02-12T09:40:30Z</time>
      </trkpt>
      <trkpt lat="49.04348" lon="6.87158">
        <ele>251.7</ele>
        <time>2014-02-12T09:40:33Z</time>
      </trkpt>
      <trkpt lat="49.04351" lon="6.87155">
        <ele>250.6</ele>
        <time>2014-02-12T09:40:36Z</time>
      </trkpt>
      <trkpt lat="49.04357" lon="6.8715">
        <ele>249.6</ele>
        <time>2014-02-12T09:40:39Z</time>
      </trkpt>
      <trkpt lat="49.0436" lon="6.87146">
        <ele>249.9</ele>
        <time>2014-02-12T09:40:42Z</time>
      </trkpt>
      <trkpt lat="49.04363" lon="6.87141">
        <ele>250.1</ele>
        <time>2014-02-12T09:40:45Z</time>
      </trkpt>
      <trkpt lat="49.04366" lon="6.87137">
        <ele>249.6</ele>
        <time>2014-02-12T09:40:48Z</time>
      </trkpt>
      <trkpt lat="49.04369" lon="6.87133">
        <ele>249.5</ele>
        <time>2014-02-12T09:40:51Z</time>
      </trkpt>
      <trkpt lat="49.04372" lon="6.87128">
        <ele>249.5</ele>
        <time>2014-02-12T09:40:54Z</time>
      </trkpt>
      <trkpt lat="49.04375" lon="6.87124">
        <ele>249.1</ele>
        <time>2014-02-12T09:40:57Z</time>
      </trkpt>
      <trkpt lat="49.04378" lon="6.8712">
        <ele>248.6</ele>
        <time>2014-02-12T09:41:00Z</time>
      </trkpt>
      <trkpt lat="49.04381" lon="6.87115">
        <ele>247.6</ele>
        <time>2014-02-12T09:41:03Z</time>
      </trkpt>
      <trkpt lat="49.04386" lon="6.87108">
        <ele>247.3</ele>
        <time>2014-02-12T09:41:09Z</time>
      </trkpt>
      <trkpt lat="49.04388" lon="6.87104">
        <ele>246.5</ele>
        <time>2014-02-12T09:41:12Z</time>
      </trkpt>
      <trkpt lat="49.0439" lon="6.87101">
        <ele>246.4</ele>
        <time>2014-02-12T09:41:15Z</time>
      </trkpt>
      <trkpt lat="49.04393" lon="6.87097">
        <ele>246.7</ele>
        <time>2014-02-12T09:41:18Z</time>
      </trkpt>
      <trkpt lat="49.04396" lon="6.87093">
        <ele>246.5</ele>
        <time>2014-02-12T09:41:21Z</time>
      </trkpt>
      <trkpt lat="49.04398" lon="6.8709">
        <ele>246.3</ele>
        <time>2014-02-12T09:41:24Z</time>
      </trkpt>
      <trkpt lat="49.044" lon="6.87087">
        <ele>246</ele>
        <time>2014-02-12T09:41:27Z</time>
      </trkpt>
      <trkpt lat="49.04403" lon="6.87084">
        <ele>245</ele>
        <time>2014-02-12T09:41:30Z</time>
      </trkpt>
      <trkpt lat="49.04405" lon="6.8708">
        <ele>244.7</ele>
        <time>2014-02-12T09:41:33Z</time>
      </trkpt>
      <trkpt lat="49.04408" lon="6.87077">
        <ele>244.5</ele>
        <time>2014-02-12T09:41:36Z</time>
      </trkpt>
      <trkpt lat="49.04411" lon="6.87074">
        <ele>244.9</ele>
        <time>2014-02-12T09:41:39Z</time>
      </trkpt>
      <trkpt lat="49.04415" lon="6.87071">
        <ele>244.1</ele>
        <time>2014-02-12T09:41:42Z</time>
      </trkpt>
      <trkpt lat="49.04418" lon="6.87068">
        <ele>244</ele>
        <time>2014-02-12T09:41:45Z</time>
      </trkpt>
      <trkpt lat="49.04422" lon="6.87065">
        <ele>243.7</ele>
        <time>2014-02-12T09:41:48Z</time>
      </trkpt>
      <trkpt lat="49.04424" lon="6.87062">
        <ele>243.6</ele>
        <time>2014-02-12T09:41:51Z</time>
      </trkpt>
      <trkpt lat="49.04427" lon="6.87059">
        <ele>242.7</ele>
        <time>2014-02-12T09:41:54Z</time>
      </trkpt>
      <trkpt lat="49.0443" lon="6.87055">
        <ele>242.7</ele>
        <time>2014-02-12T09:41:57Z</time>
      </trkpt>
      <trkpt lat="49.04433" lon="6.87051">
        <ele>242.3</ele>
        <time>2014-02-12T09:42:00Z</time>
      </trkpt>
      <trkpt lat="49.04436" lon="6.87048">
        <ele>242.9</ele>
        <time>2014-02-12T09:42:03Z</time>
      </trkpt>
      <trkpt lat="49.04439" lon="6.87044">
        <ele>243.1</ele>
        <time>2014-02-12T09:42:06Z</time>
      </trkpt>
      <trkpt lat="49.04445" lon="6.87037">
        <ele>242.9</ele>
        <time>2014-02-12T09:42:12Z</time>
      </trkpt>
      <trkpt lat="49.04448" lon="6.87033">
        <ele>242.4</ele>
        <time>2014-02-12T09:42:15Z</time>
      </trkpt>
      <trkpt lat="49.04451" lon="6.87029">
        <ele>242.4</ele>
        <time>2014-02-12T09:42:18Z</time>
      </trkpt>
      <trkpt lat="49.04454" lon="6.87025">
        <ele>242.7</ele>
        <time>2014-02-12T09:42:21Z</time>
      </trkpt>
      <trkpt lat="49.04457" lon="6.87021">
        <ele>242</ele>
        <time>2014-02-12T09:42:24Z</time>
      </trkpt>
      <trkpt lat="49.04459" lon="6.87017">
        <ele>242.4</ele>
        <time>2014-02-12T09:42:27Z</time>
      </trkpt>
      <trkpt lat="49.04462" lon="6.87013">
        <ele>242.2</ele>
        <time>2014-02-12T09:42:30Z</time>
      </trkpt>
      <trkpt lat="49.04464" lon="6.87009">
        <ele>241.8</ele>
        <time>2014-02-12T09:42:33Z</time>
      </trkpt>
      <trkpt lat="49.04467" lon="6.87004">
        <ele>241.5</ele>
        <time>2014-02-12T09:42:36Z</time>
      </trkpt>
      <trkpt lat="49.04469" lon="6.86999">
        <ele>241.3</ele>
        <time>2014-02-12T09:42:39Z</time>
      </trkpt>
      <trkpt lat="49.04472" lon="6.86993">
        <ele>241.3</ele>
        <time>2014-02-12T09:42:42Z</time>
      </trkpt>
      <trkpt lat="49.04474" lon="6.86988">
        <ele>241.4</ele>
        <time>2014-02-12T09:42:45Z</time>
      </trkpt>
      <trkpt lat="49.04476" lon="6.86983">
        <ele>240.4</ele>
        <time>2014-02-12T09:42:48Z</time>
      </trkpt>
      <trkpt lat="49.04478" lon="6.86979">
        <ele>239.8</ele>
        <time>2014-02-12T09:42:51Z</time>
      </trkpt>
      <trkpt lat="49.0448" lon="6.86975">
        <ele>239.5</ele>
        <time>2014-02-12T09:42:54Z</time>
      </trkpt>
      <trkpt lat="49.04482" lon="6.8697">
        <ele>239.5</ele>
        <time>2014-02-12T09:42:57Z</time>
      </trkpt>
      <trkpt lat="49.04484" lon="6.86965">
        <ele>238.9</ele>
        <time>2014-02-12T09:43:00Z</time>
      </trkpt>
      <trkpt lat="49.04487" lon="6.8696">
        <ele>238.8</ele>
        <time>2014-02-12T09:43:03Z</time>
      </trkpt>
      <trkpt lat="49.0449" lon="6.86956">
        <ele>237.9</ele>
        <time>2014-02-12T09:43:06Z</time>
      </trkpt>
      <trkpt lat="49.04492" lon="6.86951">
        <ele>237.7</ele>
        <time>2014-02-12T09:43:09Z</time>
      </trkpt>
      <trkpt lat="49.04497" lon="6.86942">
        <ele>237.7</ele>
        <time>2014-02-12T09:43:15Z</time>
      </trkpt>
      <trkpt lat="49.045" lon="6.86937">
        <ele>237.1</ele>
        <time>2014-02-12T09:43:18Z</time>
      </trkpt>
      <trkpt lat="49.04503" lon="6.86933">
        <ele>236.9</ele>
        <time>2014-02-12T09:43:21Z</time>
      </trkpt>
      <trkpt lat="49.04505" lon="6.86928">
        <ele>236.6</ele>
        <time>2014-02-12T09:43:24Z</time>
      </trkpt>
      <trkpt lat="49.04508" lon="6.86924">
        <ele>236.9</ele>
        <time>2014-02-12T09:43:27Z</time>
      </trkpt>
      <trkpt lat="49.04511" lon="6.86921">
        <ele>236.5</ele>
        <time>2014-02-12T09:43:30Z</time>
      </trkpt>
      <trkpt lat="49.04514" lon="6.86917">
        <ele>236.4</ele>
        <time>2014-02-12T09:43:33Z</time>
      </trkpt>
      <trkpt lat="49.04516" lon="6.86914">
        <ele>236.4</ele>
        <time>2014-02-12T09:43:36Z</time>
      </trkpt>
      <trkpt lat="49.04519" lon="6.86911">
        <ele>236.1</ele>
        <time>2014-02-12T09:43:39Z</time>
      </trkpt>
      <trkpt lat="49.04521" lon="6.86909">
        <ele>236.5</ele>
        <time>2014-02-12T09:43:42Z</time>
      </trkpt>
      <trkpt lat="49.04523" lon="6.86906">
        <ele>236.4</ele>
        <time>2014-02-12T09:43:45Z</time>
      </trkpt>
      <trkpt lat="49.04525" lon="6.86904">
        <ele>236.5</ele>
        <time>2014-02-12T09:43:48Z</time>
      </trkpt>
      <trkpt lat="49.04525" lon="6.86903">
        <ele>236.6</ele>
        <time>2014-02-12T09:43:51Z</time>
      </trkpt>
      <trkpt lat="49.04527" lon="6.86902">
        <ele>236.8</ele>
        <time>2014-02-12T09:43:54Z</time>
      </trkpt>
      <trkpt lat="49.04528" lon="6.86901">
        <ele>236.6</ele>
        <time>2014-02-12T09:43:57Z</time>
      </trkpt>
      <trkpt lat="49.0453" lon="6.869">
        <ele>235.8</ele>
        <time>2014-02-12T09:44:00Z</time>
      </trkpt>
      <trkpt lat="49.04532" lon="6.86898">
        <ele>236.2</ele>
        <time>2014-02-12T09:44:03Z</time>
      </trkpt>
      <trkpt lat="49.04534" lon="6.86897">
        <ele>235.9</ele>
        <time>2014-02-12T09:44:06Z</time>
      </trkpt>
      <trkpt lat="49.04536" lon="6.86894">
        <ele>235.7</ele>
        <time>2014-02-12T09:44:09Z</time>
      </trkpt>
      <trkpt lat="49.04539" lon="6.86892">
        <ele>236.3</ele>
        <time>2014-02-12T09:44:12Z</time>
      </trkpt>
      <trkpt lat="49.04545" lon="6.86887">
        <ele>236.5</ele>
        <time>2014-02-12T09:44:18Z</time>
      </trkpt>
      <trkpt lat="49.04548" lon="6.86884">
        <ele>236.4</ele>
        <time>2014-02-12T09:44:21Z</time>
      </trkpt>
      <trkpt lat="49.04552" lon="6.86881">
        <ele>236</ele>
        <time>2014-02-12T09:44:24Z</time>
      </trkpt>
      <trkpt lat="49.04555" lon="6.86878">
        <ele>236.2</ele>
        <time>2014-02-12T09:44:27Z</time>
      </trkpt>
      <trkpt lat="49.04558" lon="6.86875">
        <ele>236.4</ele>
        <time>2014-02-12T09:44:30Z</time>
      </trkpt>
      <trkpt lat="49.04562" lon="6.86872">
        <ele>236.5</ele>
        <time>2014-02-12T09:44:33Z</time>
      </trkpt>
      <trkpt lat="49.04565" lon="6.8687">
        <ele>236</ele>
        <time>2014-02-12T09:44:36Z</time>
      </trkpt>
      <trkpt lat="49.04568" lon="6.86868">
        <ele>235.9</ele>
        <time>2014-02-12T09:44:39Z</time>
      </trkpt>
      <trkpt lat="49.04572" lon="6.86865">
        <ele>235.7</ele>
        <time>2014-02-12T09:44:42Z</time>
      </trkpt>
      <trkpt lat="49.04575" lon="6.86864">
        <ele>235.5</ele>
        <time>2014-02-12T09:44:45Z</time>
      </trkpt>
      <trkpt lat="49.04579" lon="6.86862">
        <ele>236.5</ele>
        <time>2014-02-12T09:44:48Z</time>
      </trkpt>
      <trkpt lat="49.04582" lon="6.86861">
        <ele>236</ele>
        <time>2014-02-12T09:44:51Z</time>
      </trkpt>
      <trkpt lat="49.04585" lon="6.8686">
        <ele>236.6</ele>
        <time>2014-02-12T09:44:54Z</time>
      </trkpt>
      <trkpt lat="49.04589" lon="6.86859">
        <ele>236.2</ele>
        <time>2014-02-12T09:44:57Z</time>
      </trkpt>
      <trkpt lat="49.04591" lon="6.86858">
        <ele>236.3</ele>
        <time>2014-02-12T09:45:00Z</time>
      </trkpt>
      <trkpt lat="49.04594" lon="6.86857">
        <ele>236.1</ele>
        <time>2014-02-12T09:45:03Z</time>
      </trkpt>
      <trkpt lat="49.04597" lon="6.86856">
        <ele>236.6</ele>
        <time>2014-02-12T09:45:06Z</time>
      </trkpt>
      <trkpt lat="49.046" lon="6.86855">
        <ele>236.7</ele>
        <time>2014-02-12T09:45:09Z</time>
      </trkpt>
      <trkpt lat="49.04604" lon="6.86855">
        <ele>236.7</ele>
        <time>2014-02-12T09:45:12Z</time>
      </trkpt>
      <trkpt lat="49.04606" lon="6.86854">
        <ele>236.6</ele>
        <time>2014-02-12T09:45:15Z</time>
      </trkpt>
      <trkpt lat="49.04612" lon="6.86853">
        <ele>236.9</ele>
        <time>2014-02-12T09:45:21Z</time>
      </trkpt>
      <trkpt lat="49.04616" lon="6.86853">
        <ele>236.5</ele>
        <time>2014-02-12T09:45:24Z</time>
      </trkpt>
      <trkpt lat="49.04619" lon="6.86852">
        <ele>236.6</ele>
        <time>2014-02-12T09:45:27Z</time>
      </trkpt>
      <trkpt lat="49.04623" lon="6.86852">
        <ele>237.3</ele>
        <time>2014-02-12T09:45:30Z</time>
      </trkpt>
      <trkpt lat="49.04626" lon="6.86852">
        <ele>238.6</ele>
        <time>2014-02-12T09:45:33Z</time>
      </trkpt>
      <trkpt lat="49.04629" lon="6.86852">
        <ele>238.6</ele>
        <time>2014-02-12T09:45:36Z</time>
      </trkpt>
      <trkpt lat="49.04633" lon="6.86853">
        <ele>238.8</ele>
        <time>2014-02-12T09:45:39Z</time>
      </trkpt>
      <trkpt lat="49.04637" lon="6.86853">
        <ele>239.3</ele>
        <time>2014-02-12T09:45:42Z</time>
      </trkpt>
      <trkpt lat="49.04641" lon="6.86853">
        <ele>239.9</ele>
        <time>2014-02-12T09:45:45Z</time>
      </trkpt>
      <trkpt lat="49.04645" lon="6.86854">
        <ele>240.3</ele>
        <time>2014-02-12T09:45:48Z</time>
      </trkpt>
      <trkpt lat="49.04648" lon="6.86855">
        <ele>240</ele>
        <time>2014-02-12T09:45:51Z</time>
      </trkpt>
      <trkpt lat="49.04652" lon="6.86856">
        <ele>240.7</ele>
        <time>2014-02-12T09:45:54Z</time>
      </trkpt>
      <trkpt lat="49.04657" lon="6.86857">
        <ele>241.3</ele>
        <time>2014-02-12T09:45:57Z</time>
      </trkpt>
      <trkpt lat="49.04661" lon="6.86859">
        <ele>241.4</ele>
        <time>2014-02-12T09:46:00Z</time>
      </trkpt>
      <trkpt lat="49.04665" lon="6.86861">
        <ele>241.4</ele>
        <time>2014-02-12T09:46:03Z</time>
      </trkpt>
      <trkpt lat="49.04669" lon="6.86863">
        <ele>241.4</ele>
        <time>2014-02-12T09:46:06Z</time>
      </trkpt>
      <trkpt lat="49.04674" lon="6.86865">
        <ele>242.1</ele>
        <time>2014-02-12T09:46:09Z</time>
      </trkpt>
      <trkpt lat="49.04678" lon="6.86867">
        <ele>241.8</ele>
        <time>2014-02-12T09:46:12Z</time>
      </trkpt>
      <trkpt lat="49.04683" lon="6.8687">
        <ele>241.4</ele>
        <time>2014-02-12T09:46:15Z</time>
      </trkpt>
      <trkpt lat="49.04688" lon="6.86872">
        <ele>241.3</ele>
        <time>2014-02-12T09:46:18Z</time>
      </trkpt>
      <trkpt lat="49.04696" lon="6.86875">
        <ele>242.6</ele>
        <time>2014-02-12T09:46:24Z</time>
      </trkpt>
      <trkpt lat="49.047" lon="6.86876">
        <ele>241.8</ele>
        <time>2014-02-12T09:46:27Z</time>
      </trkpt>
      <trkpt lat="49.04704" lon="6.86876">
        <ele>241.1</ele>
        <time>2014-02-12T09:46:30Z</time>
      </trkpt>
      <trkpt lat="49.04707" lon="6.86876">
        <ele>241.2</ele>
        <time>2014-02-12T09:46:33Z</time>
      </trkpt>
      <trkpt lat="49.04711" lon="6.86875">
        <ele>241.3</ele>
        <time>2014-02-12T09:46:36Z</time>
      </trkpt>
      <trkpt lat="49.04715" lon="6.86875">
        <ele>241.9</ele>
        <time>2014-02-12T09:46:39Z</time>
      </trkpt>
      <trkpt lat="49.04719" lon="6.86874">
        <ele>241.2</ele>
        <time>2014-02-12T09:46:42Z</time>
      </trkpt>
      <trkpt lat="49.04722" lon="6.86873">
        <ele>239.8</ele>
        <time>2014-02-12T09:46:45Z</time>
      </trkpt>
      <trkpt lat="49.04726" lon="6.86872">
        <ele>239.5</ele>
        <time>2014-02-12T09:46:48Z</time>
      </trkpt>
      <trkpt lat="49.04731" lon="6.8687">
        <ele>239.4</ele>
        <time>2014-02-12T09:46:51Z</time>
      </trkpt>
      <trkpt lat="49.04734" lon="6.86869">
        <ele>239.2</ele>
        <time>2014-02-12T09:46:54Z</time>
      </trkpt>
      <trkpt lat="49.04738" lon="6.86868">
        <ele>239.1</ele>
        <time>2014-02-12T09:46:57Z</time>
      </trkpt>
      <trkpt lat="49.04741" lon="6.86867">
        <ele>238.7</ele>
        <time>2014-02-12T09:47:00Z</time>
      </trkpt>
      <trkpt lat="49.04744" lon="6.86866">
        <ele>238.9</ele>
        <time>2014-02-12T09:47:03Z</time>
      </trkpt>
      <trkpt lat="49.04748" lon="6.86864">
        <ele>238.6</ele>
        <time>2014-02-12T09:47:06Z</time>
      </trkpt>
      <trkpt lat="49.04751" lon="6.86863">
        <ele>238.5</ele>
        <time>2014-02-12T09:47:09Z</time>
      </trkpt>
      <trkpt lat="49.04755" lon="6.86862">
        <ele>238</ele>
        <time>2014-02-12T09:47:12Z</time>
      </trkpt>
      <trkpt lat="49.04759" lon="6.86861">
        <ele>238.4</ele>
        <time>2014-02-12T09:47:15Z</time>
      </trkpt>
      <trkpt lat="49.04763" lon="6.8686">
        <ele>237.5</ele>
        <time>2014-02-12T09:47:18Z</time>
      </trkpt>
      <trkpt lat="49.04766" lon="6.86858">
        <ele>237.9</ele>
        <time>2014-02-12T09:47:21Z</time>
      </trkpt>
      <trkpt lat="49.04772" lon="6.86855">
        <ele>237.4</ele>
        <time>2014-02-12T09:47:27Z</time>
      </trkpt>
      <trkpt lat="49.04776" lon="6.86853">
        <ele>237.7</ele>
        <time>2014-02-12T09:47:30Z</time>
      </trkpt>
      <trkpt lat="49.04779" lon="6.86851">
        <ele>237.5</ele>
        <time>2014-02-12T09:47:33Z</time>
      </trkpt>
      <trkpt lat="49.04782" lon="6.86849">
        <ele>237.2</ele>
        <time>2014-02-12T09:47:36Z</time>
      </trkpt>
      <trkpt lat="49.04785" lon="6.86847">
        <ele>236.6</ele>
        <time>2014-02-12T09:47:39Z</time>
      </trkpt>
      <trkpt lat="49.04789" lon="6.86846">
        <ele>237.2</ele>
        <time>2014-02-12T09:47:42Z</time>
      </trkpt>
      <trkpt lat="49.04794" lon="6.86844">
        <ele>237.6</ele>
        <time>2014-02-12T09:47:45Z</time>
      </trkpt>
      <trkpt lat="49.04797" lon="6.86842">
        <ele>236.8</ele>
        <time>2014-02-12T09:47:48Z</time>
      </trkpt>
      <trkpt lat="49.04801" lon="6.86841">
        <ele>236.6</ele>
        <time>2014-02-12T09:47:51Z</time>
      </trkpt>
      <trkpt lat="49.04805" lon="6.86839">
        <ele>236.8</ele>
        <time>2014-02-12T09:47:54Z</time>
      </trkpt>
      <trkpt lat="49.04808" lon="6.86837">
        <ele>236.1</ele>
        <time>2014-02-12T09:47:57Z</time>
      </trkpt>
      <trkpt lat="49.04811" lon="6.86837">
        <ele>235.9</ele>
        <time>2014-02-12T09:48:00Z</time>
      </trkpt>
      <trkpt lat="49.04815" lon="6.86836">
        <ele>236.6</ele>
        <time>2014-02-12T09:48:03Z</time>
      </trkpt>
      <trkpt lat="49.04819" lon="6.86835">
        <ele>236.6</ele>
        <time>2014-02-12T09:48:06Z</time>
      </trkpt>
      <trkpt lat="49.04824" lon="6.86835">
        <ele>236.4</ele>
        <time>2014-02-12T09:48:09Z</time>
      </trkpt>
      <trkpt lat="49.04828" lon="6.86835">
        <ele>236.7</ele>
        <time>2014-02-12T09:48:12Z</time>
      </trkpt>
      <trkpt lat="49.04832" lon="6.86836">
        <ele>235.6</ele>
        <time>2014-02-12T09:48:15Z</time>
      </trkpt>
      <trkpt lat="49.04836" lon="6.86836">
        <ele>236.2</ele>
        <time>2014-02-12T09:48:18Z</time>
      </trkpt>
      <trkpt lat="49.0484" lon="6.86836">
        <ele>235.4</ele>
        <time>2014-02-12T09:48:21Z</time>
      </trkpt>
      <trkpt lat="49.04844" lon="6.86837">
        <ele>236</ele>
        <time>2014-02-12T09:48:24Z</time>
      </trkpt>
      <trkpt lat="49.04851" lon="6.86837">
        <ele>235.8</ele>
        <time>2014-02-12T09:48:30Z</time>
      </trkpt>
      <trkpt lat="49.04855" lon="6.86838">
        <ele>235.8</ele>
        <time>2014-02-12T09:48:33Z</time>
      </trkpt>
      <trkpt lat="49.04859" lon="6.86838">
        <ele>235.9</ele>
        <time>2014-02-12T09:48:36Z</time>
      </trkpt>
      <trkpt lat="49.04862" lon="6.86839">
        <ele>234.9</ele>
        <time>2014-02-12T09:48:39Z</time>
      </trkpt>
      <trkpt lat="49.04863" lon="6.86838">
        <ele>235.8</ele>
        <time>2014-02-12T09:48:42Z</time>
      </trkpt>
      <trkpt lat="49.04865" lon="6.86838">
        <ele>234.9</ele>
        <time>2014-02-12T09:48:45Z</time>
      </trkpt>
      <trkpt lat="49.04867" lon="6.86838">
        <ele>235.1</ele>
        <time>2014-02-12T09:48:48Z</time>
      </trkpt>
      <trkpt lat="49.04869" lon="6.86839">
        <ele>235.8</ele>
        <time>2014-02-12T09:48:51Z</time>
      </trkpt>
      <trkpt lat="49.04872" lon="6.8684">
        <ele>236.5</ele>
        <time>2014-02-12T09:48:54Z</time>
      </trkpt>
      <trkpt lat="49.04875" lon="6.86841">
        <ele>236</ele>
        <time>2014-02-12T09:48:57Z</time>
      </trkpt>
      <trkpt lat="49.04878" lon="6.86841">
        <ele>236.1</ele>
        <time>2014-02-12T09:49:00Z</time>
      </trkpt>
      <trkpt lat="49.04881" lon="6.86841">
        <ele>235.5</ele>
        <time>2014-02-12T09:49:03Z</time>
      </trkpt>
      <trkpt lat="49.04884" lon="6.86841">
        <ele>235.5</ele>
        <time>2014-02-12T09:49:06Z</time>
      </trkpt>
      <trkpt lat="49.04887" lon="6.86841">
        <ele>236.1</ele>
        <time>2014-02-12T09:49:09Z</time>
      </trkpt>
      <trkpt lat="49.04891" lon="6.86842">
        <ele>236.9</ele>
        <time>2014-02-12T09:49:12Z</time>
      </trkpt>
      <trkpt lat="49.04893" lon="6.86842">
        <ele>236.3</ele>
        <time>2014-02-12T09:49:15Z</time>
      </trkpt>
      <trkpt lat="49.04896" lon="6.86842">
        <ele>236.4</ele>
        <time>2014-02-12T09:49:18Z</time>
      </trkpt>
      <trkpt lat="49.04899" lon="6.86843">
        <ele>235.5</ele>
        <time>2014-02-12T09:49:21Z</time>
      </trkpt>
      <trkpt lat="49.04902" lon="6.86844">
        <ele>235.8</ele>
        <time>2014-02-12T09:49:24Z</time>
      </trkpt>
      <trkpt lat="49.04906" lon="6.86845">
        <ele>237</ele>
        <time>2014-02-12T09:49:27Z</time>
      </trkpt>
      <trkpt lat="49.04913" lon="6.86847">
        <ele>237.2</ele>
        <time>2014-02-12T09:49:33Z</time>
      </trkpt>
      <trkpt lat="49.04916" lon="6.86848">
        <ele>236.3</ele>
        <time>2014-02-12T09:49:36Z</time>
      </trkpt>
      <trkpt lat="49.0492" lon="6.8685">
        <ele>236.7</ele>
        <time>2014-02-12T09:49:39Z</time>
      </trkpt>
      <trkpt lat="49.04924" lon="6.8685">
        <ele>236.6</ele>
        <time>2014-02-12T09:49:42Z</time>
      </trkpt>
      <trkpt lat="49.04928" lon="6.8685">
        <ele>236.2</ele>
        <time>2014-02-12T09:49:45Z</time>
      </trkpt>
      <trkpt lat="49.04932" lon="6.8685">
        <ele>237.5</ele>
        <time>2014-02-12T09:49:48Z</time>
      </trkpt>
      <trkpt lat="49.04936" lon="6.8685">
        <ele>237.6</ele>
        <time>2014-02-12T09:49:51Z</time>
      </trkpt>
      <trkpt lat="49.04939" lon="6.8685">
        <ele>237.6</ele>
        <time>2014-02-12T09:49:54Z</time>
      </trkpt>
      <trkpt lat="49.04942" lon="6.8685">
        <ele>238.4</ele>
        <time>2014-02-12T09:49:57Z</time>
      </trkpt>
      <trkpt lat="49.04946" lon="6.8685">
        <ele>238.3</ele>
        <time>2014-02-12T09:50:00Z</time>
      </trkpt>
      <trkpt lat="49.0495" lon="6.86849">
        <ele>238.7</ele>
        <time>2014-02-12T09:50:03Z</time>
      </trkpt>
      <trkpt lat="49.04954" lon="6.86848">
        <ele>240.1</ele>
        <time>2014-02-12T09:50:06Z</time>
      </trkpt>
      <trkpt lat="49.04957" lon="6.86846">
        <ele>240.3</ele>
        <time>2014-02-12T09:50:09Z</time>
      </trkpt>
      <trkpt lat="49.04961" lon="6.86845">
        <ele>240.1</ele>
        <time>2014-02-12T09:50:12Z</time>
      </trkpt>
      <trkpt lat="49.04965" lon="6.86843">
        <ele>240</ele>
        <time>2014-02-12T09:50:15Z</time>
      </trkpt>
      <trkpt lat="49.04969" lon="6.86841">
        <ele>240.6</ele>
        <time>2014-02-12T09:50:18Z</time>
      </trkpt>
      <trkpt lat="49.04973" lon="6.8684">
        <ele>240.4</ele>
        <time>2014-02-12T09:50:21Z</time>
      </trkpt>
      <trkpt lat="49.04977" lon="6.86838">
        <ele>240.4</ele>
        <time>2014-02-12T09:50:24Z</time>
      </trkpt>
      <trkpt lat="49.04981" lon="6.86837">
        <ele>240.1</ele>
        <time>2014-02-12T09:50:27Z</time>
      </trkpt>
      <trkpt lat="49.04985" lon="6.86836">
        <ele>241.1</ele>
        <time>2014-02-12T09:50:30Z</time>
      </trkpt>
      <trkpt lat="49.04991" lon="6.86831">
        <ele>241.4</ele>
        <time>2014-02-12T09:50:36Z</time>
      </trkpt>
      <trkpt lat="49.04995" lon="6.8683">
        <ele>241.9</ele>
        <time>2014-02-12T09:50:39Z</time>
      </trkpt>
      <trkpt lat="49.04998" lon="6.86828">
        <ele>242</ele>
        <time>2014-02-12T09:50:42Z</time>
      </trkpt>
      <trkpt lat="49.05" lon="6.86825">
        <ele>242.5</ele>
        <time>2014-02-12T09:50:45Z</time>
      </trkpt>
      <trkpt lat="49.05003" lon="6.86823">
        <ele>242.4</ele>
        <time>2014-02-12T09:50:48Z</time>
      </trkpt>
      <trkpt lat="49.05007" lon="6.86821">
        <ele>243.2</ele>
        <time>2014-02-12T09:50:51Z</time>
      </trkpt>
      <trkpt lat="49.0501" lon="6.86819">
        <ele>243.6</ele>
        <time>2014-02-12T09:50:54Z</time>
      </trkpt>
      <trkpt lat="49.05014" lon="6.86817">
        <ele>243.5</ele>
        <time>2014-02-12T09:50:57Z</time>
      </trkpt>
      <trkpt lat="49.05017" lon="6.86816">
        <ele>243.1</ele>
        <time>2014-02-12T09:51:00Z</time>
      </trkpt>
      <trkpt lat="49.0502" lon="6.86814">
        <ele>244</ele>
        <time>2014-02-12T09:51:03Z</time>
      </trkpt>
      <trkpt lat="49.05024" lon="6.86812">
        <ele>244.4</ele>
        <time>2014-02-12T09:51:06Z</time>
      </trkpt>
      <trkpt lat="49.05027" lon="6.86811">
        <ele>244.6</ele>
        <time>2014-02-12T09:51:09Z</time>
      </trkpt>
      <trkpt lat="49.0503" lon="6.8681">
        <ele>245.3</ele>
        <time>2014-02-12T09:51:12Z</time>
      </trkpt>
      <trkpt lat="49.05033" lon="6.86808">
        <ele>245.7</ele>
        <time>2014-02-12T09:51:15Z</time>
      </trkpt>
      <trkpt lat="49.05037" lon="6.86806">
        <ele>246.2</ele>
        <time>2014-02-12T09:51:18Z</time>
      </trkpt>
      <trkpt lat="49.05041" lon="6.86805">
        <ele>246.4</ele>
        <time>2014-02-12T09:51:21Z</time>
      </trkpt>
      <trkpt lat="49.05044" lon="6.86803">
        <ele>246.1</ele>
        <time>2014-02-12T09:51:24Z</time>
      </trkpt>
      <trkpt lat="49.05047" lon="6.86801">
        <ele>245.7</ele>
        <time>2014-02-12T09:51:27Z</time>
      </trkpt>
      <trkpt lat="49.0505" lon="6.868">
        <ele>246.1</ele>
        <time>2014-02-12T09:51:30Z</time>
      </trkpt>
      <trkpt lat="49.05053" lon="6.86799">
        <ele>246.6</ele>
        <time>2014-02-12T09:51:33Z</time>
      </trkpt>
      <trkpt lat="49.05061" lon="6.86795">
        <ele>246.6</ele>
        <time>2014-02-12T09:51:39Z</time>
      </trkpt>
      <trkpt lat="49.05065" lon="6.86793">
        <ele>247.3</ele>
        <time>2014-02-12T09:51:42Z</time>
      </trkpt>
      <trkpt lat="49.05069" lon="6.86791">
        <ele>246.7</ele>
        <time>2014-02-12T09:51:45Z</time>
      </trkpt>
      <trkpt lat="49.05073" lon="6.86789">
        <ele>246.5</ele>
        <time>2014-02-12T09:51:48Z</time>
      </trkpt>
      <trkpt lat="49.05077" lon="6.86788">
        <ele>247</ele>
        <time>2014-02-12T09:51:51Z</time>
      </trkpt>
      <trkpt lat="49.05082" lon="6.86786">
        <ele>246.9</ele>
        <time>2014-02-12T09:51:54Z</time>
      </trkpt>
      <trkpt lat="49.05086" lon="6.86785">
        <ele>247.6</ele>
        <time>2014-02-12T09:51:57Z</time>
      </trkpt>
      <trkpt lat="49.05091" lon="6.86783">
        <ele>248</ele>
        <time>2014-02-12T09:52:00Z</time>
      </trkpt>
      <trkpt lat="49.05095" lon="6.86781">
        <ele>247.5</ele>
        <time>2014-02-12T09:52:03Z</time>
      </trkpt>
      <trkpt lat="49.05099" lon="6.86779">
        <ele>247.9</ele>
        <time>2014-02-12T09:52:06Z</time>
      </trkpt>
      <trkpt lat="49.05102" lon="6.86778">
        <ele>246.8</ele>
        <time>2014-02-12T09:52:09Z</time>
      </trkpt>
      <trkpt lat="49.05105" lon="6.86777">
        <ele>246.5</ele>
        <time>2014-02-12T09:52:12Z</time>
      </trkpt>
      <trkpt lat="49.05109" lon="6.86777">
        <ele>246.3</ele>
        <time>2014-02-12T09:52:15Z</time>
      </trkpt>
      <trkpt lat="49.05112" lon="6.86775">
        <ele>245.9</ele>
        <time>2014-02-12T09:52:18Z</time>
      </trkpt>
      <trkpt lat="49.05115" lon="6.86775">
        <ele>246.1</ele>
        <time>2014-02-12T09:52:21Z</time>
      </trkpt>
      <trkpt lat="49.05118" lon="6.86775">
        <ele>246.2</ele>
        <time>2014-02-12T09:52:24Z</time>
      </trkpt>
      <trkpt lat="49.05121" lon="6.86774">
        <ele>246.6</ele>
        <time>2014-02-12T09:52:27Z</time>
      </trkpt>
      <trkpt lat="49.05123" lon="6.86774">
        <ele>246.4</ele>
        <time>2014-02-12T09:52:30Z</time>
      </trkpt>
      <trkpt lat="49.05125" lon="6.86774">
        <ele>245.7</ele>
        <time>2014-02-12T09:52:33Z</time>
      </trkpt>
      <trkpt lat="49.05127" lon="6.86774">
        <ele>245.4</ele>
        <time>2014-02-12T09:52:36Z</time>
      </trkpt>
      <trkpt lat="49.0513" lon="6.86773">
        <ele>245.8</ele>
        <time>2014-02-12T09:52:42Z</time>
      </trkpt>
      <trkpt lat="49.05131" lon="6.86773">
        <ele>246</ele>
        <time>2014-02-12T09:52:45Z</time>
      </trkpt>
      <trkpt lat="49.05133" lon="6.86774">
        <ele>246.5</ele>
        <time>2014-02-12T09:52:48Z</time>
      </trkpt>
      <trkpt lat="49.05135" lon="6.86775">
        <ele>246.4</ele>
        <time>2014-02-12T09:52:51Z</time>
      </trkpt>
      <trkpt lat="49.05136" lon="6.86777">
        <ele>246.4</ele>
        <time>2014-02-12T09:52:54Z</time>
      </trkpt>
      <trkpt lat="49.05136" lon="6.86778">
        <ele>246.4</ele>
        <time>2014-02-12T09:52:57Z</time>
      </trkpt>
      <trkpt lat="49.05135" lon="6.86781">
        <ele>245.3</ele>
        <time>2014-02-12T09:53:00Z</time>
      </trkpt>
      <trkpt lat="49.05133" lon="6.86783">
        <ele>245.1</ele>
        <time>2014-02-12T09:53:03Z</time>
      </trkpt>
      <trkpt lat="49.05132" lon="6.86783">
        <ele>245.3</ele>
        <time>2014-02-12T09:53:06Z</time>
      </trkpt>
      <trkpt lat="49.05132" lon="6.86785">
        <ele>245.5</ele>
        <time>2014-02-12T09:53:09Z</time>
      </trkpt>
      <trkpt lat="49.05131" lon="6.86785">
        <ele>245.9</ele>
        <time>2014-02-12T09:53:12Z</time>
      </trkpt>
      <trkpt lat="49.0513" lon="6.86786">
        <ele>246.2</ele>
        <time>2014-02-12T09:53:15Z</time>
      </trkpt>
      <trkpt lat="49.0513" lon="6.86786">
        <ele>245.7</ele>
        <time>2014-02-12T09:53:18Z</time>
      </trkpt>
      <trkpt lat="49.05129" lon="6.86787">
        <ele>245.6</ele>
        <time>2014-02-12T09:53:21Z</time>
      </trkpt>
      <trkpt lat="49.05129" lon="6.86788">
        <ele>245.7</ele>
        <time>2014-02-12T09:53:24Z</time>
      </trkpt>
      <trkpt lat="49.05128" lon="6.86788">
        <ele>245.5</ele>
        <time>2014-02-12T09:53:27Z</time>
      </trkpt>
      <trkpt lat="49.05127" lon="6.86789">
        <ele>245.5</ele>
        <time>2014-02-12T09:53:30Z</time>
      </trkpt>
      <trkpt lat="49.05127" lon="6.8679">
        <ele>245.6</ele>
        <time>2014-02-12T09:53:33Z</time>
      </trkpt>
      <trkpt lat="49.05128" lon="6.8679">
        <ele>245.3</ele>
        <time>2014-02-12T09:53:36Z</time>
      </trkpt>
      <trkpt lat="49.05128" lon="6.8679">
        <ele>245.6</ele>
        <time>2014-02-12T09:53:39Z</time>
      </trkpt>
      <trkpt lat="49.05131" lon="6.86786">
        <ele>245.3</ele>
        <time>2014-02-12T09:53:45Z</time>
      </trkpt>
      <trkpt lat="49.05133" lon="6.86783">
        <ele>245.5</ele>
        <time>2014-02-12T09:53:48Z</time>
      </trkpt>
      <trkpt lat="49.05135" lon="6.8678">
        <ele>245.6</ele>
        <time>2014-02-12T09:53:51Z</time>
      </trkpt>
      <trkpt lat="49.05138" lon="6.86778">
        <ele>245.6</ele>
        <time>2014-02-12T09:53:54Z</time>
      </trkpt>
      <trkpt lat="49.05141" lon="6.86775">
        <ele>245.4</ele>
        <time>2014-02-12T09:53:57Z</time>
      </trkpt>
      <trkpt lat="49.05143" lon="6.86773">
        <ele>244.9</ele>
        <time>2014-02-12T09:54:00Z</time>
      </trkpt>
      <trkpt lat="49.05146" lon="6.86771">
        <ele>244.9</ele>
        <time>2014-02-12T09:54:03Z</time>
      </trkpt>
      <trkpt lat="49.05149" lon="6.86768">
        <ele>245.1</ele>
        <time>2014-02-12T09:54:06Z</time>
      </trkpt>
      <trkpt lat="49.05152" lon="6.86766">
        <ele>244.7</ele>
        <time>2014-02-12T09:54:09Z</time>
      </trkpt>
      <trkpt lat="49.05155" lon="6.86764">
        <ele>244.5</ele>
        <time>2014-02-12T09:54:12Z</time>
      </trkpt>
      <trkpt lat="49.05159" lon="6.86762">
        <ele>244.8</ele>
        <time>2014-02-12T09:54:15Z</time>
      </trkpt>
      <trkpt lat="49.05163" lon="6.8676">
        <ele>244.1</ele>
        <time>2014-02-12T09:54:18Z</time>
      </trkpt>
      <trkpt lat="49.05166" lon="6.86757">
        <ele>244.1</ele>
        <time>2014-02-12T09:54:21Z</time>
      </trkpt>
      <trkpt lat="49.05169" lon="6.86755">
        <ele>243.7</ele>
        <time>2014-02-12T09:54:24Z</time>
      </trkpt>
      <trkpt lat="49.05173" lon="6.86753">
        <ele>243.5</ele>
        <time>2014-02-12T09:54:27Z</time>
      </trkpt>
      <trkpt lat="49.05177" lon="6.86751">
        <ele>243.9</ele>
        <time>2014-02-12T09:54:30Z</time>
      </trkpt>
      <trkpt lat="49.05181" lon="6.86749">
        <ele>243.9</ele>
        <time>2014-02-12T09:54:33Z</time>
      </trkpt>
      <trkpt lat="49.05185" lon="6.86746">
        <ele>244.1</ele>
        <time>2014-02-12T09:54:36Z</time>
      </trkpt>
      <trkpt lat="49.05188" lon="6.86744">
        <ele>243.7</ele>
        <time>2014-02-12T09:54:39Z</time>
      </trkpt>
      <trkpt lat="49.05192" lon="6.86743">
        <ele>244.1</ele>
        <time>2014-02-12T09:54:42Z</time>
      </trkpt>
      <trkpt lat="49.05201" lon="6.86741">
        <ele>243.8</ele>
        <time>2014-02-12T09:54:48Z</time>
      </trkpt>
      <trkpt lat="49.05206" lon="6.86741">
        <ele>244.2</ele>
        <time>2014-02-12T09:54:51Z</time>
      </trkpt>
      <trkpt lat="49.0521" lon="6.8674">
        <ele>244</ele>
        <time>2014-02-12T09:54:54Z</time>
      </trkpt>
      <trkpt lat="49.05214" lon="6.8674">
        <ele>243.9</ele>
        <time>2014-02-12T09:54:57Z</time>
      </trkpt>
      <trkpt lat="49.05217" lon="6.8674">
        <ele>243.9</ele>
        <time>2014-02-12T09:55:00Z</time>
      </trkpt>
      <trkpt lat="49.05221" lon="6.8674">
        <ele>243.5</ele>
        <time>2014-02-12T09:55:03Z</time>
      </trkpt>
      <trkpt lat="49.05226" lon="6.8674">
        <ele>243.3</ele>
        <time>2014-02-12T09:55:06Z</time>
      </trkpt>
      <trkpt lat="49.0523" lon="6.8674">
        <ele>243.5</ele>
        <time>2014-02-12T09:55:09Z</time>
      </trkpt>
      <trkpt lat="49.05234" lon="6.86739">
        <ele>243</ele>
        <time>2014-02-12T09:55:12Z</time>
      </trkpt>
      <trkpt lat="49.05238" lon="6.8674">
        <ele>243.2</ele>
        <time>2014-02-12T09:55:15Z</time>
      </trkpt>
      <trkpt lat="49.05242" lon="6.8674">
        <ele>243.1</ele>
        <time>2014-02-12T09:55:18Z</time>
      </trkpt>
      <trkpt lat="49.05246" lon="6.86741">
        <ele>243</ele>
        <time>2014-02-12T09:55:21Z</time>
      </trkpt>
      <trkpt lat="49.0525" lon="6.86742">
        <ele>243</ele>
        <time>2014-02-12T09:55:24Z</time>
      </trkpt>
      <trkpt lat="49.05254" lon="6.86743">
        <ele>242.6</ele>
        <time>2014-02-12T09:55:27Z</time>
      </trkpt>
      <trkpt lat="49.05257" lon="6.86745">
        <ele>242.2</ele>
        <time>2014-02-12T09:55:30Z</time>
      </trkpt>
      <trkpt lat="49.05261" lon="6.86746">
        <ele>242.2</ele>
        <time>2014-02-12T09:55:33Z</time>
      </trkpt>
      <trkpt lat="49.05265" lon="6.86748">
        <ele>242.3</ele>
        <time>2014-02-12T09:55:36Z</time>
      </trkpt>
      <trkpt lat="49.0527" lon="6.8675">
        <ele>242.1</ele>
        <time>2014-02-12T09:55:39Z</time>
      </trkpt>
      <trkpt lat="49.05274" lon="6.86751">
        <ele>241.9</ele>
        <time>2014-02-12T09:55:42Z</time>
      </trkpt>
      <trkpt lat="49.05277" lon="6.86753">
        <ele>240.9</ele>
        <time>2014-02-12T09:55:45Z</time>
      </trkpt>
      <trkpt lat="49.05285" lon="6.86756">
        <ele>240.9</ele>
        <time>2014-02-12T09:55:51Z</time>
      </trkpt>
      <trkpt lat="49.05288" lon="6.86758">
        <ele>240.9</ele>
        <time>2014-02-12T09:55:54Z</time>
      </trkpt>
      <trkpt lat="49.05293" lon="6.8676">
        <ele>241.1</ele>
        <time>2014-02-12T09:55:57Z</time>
      </trkpt>
      <trkpt lat="49.05296" lon="6.86761">
        <ele>241.2</ele>
        <time>2014-02-12T09:56:00Z</time>
      </trkpt>
      <trkpt lat="49.053" lon="6.86763">
        <ele>241.6</ele>
        <time>2014-02-12T09:56:03Z</time>
      </trkpt>
      <trkpt lat="49.05304" lon="6.86764">
        <ele>240.9</ele>
        <time>2014-02-12T09:56:06Z</time>
      </trkpt>
      <trkpt lat="49.05309" lon="6.86766">
        <ele>241.3</ele>
        <time>2014-02-12T09:56:09Z</time>
      </trkpt>
      <trkpt lat="49.05313" lon="6.86767">
        <ele>240.9</ele>
        <time>2014-02-12T09:56:12Z</time>
      </trkpt>
      <trkpt lat="49.05317" lon="6.86769">
        <ele>241</ele>
        <time>2014-02-12T09:56:15Z</time>
      </trkpt>
      <trkpt lat="49.05321" lon="6.8677">
        <ele>241.2</ele>
        <time>2014-02-12T09:56:18Z</time>
      </trkpt>
      <trkpt lat="49.05324" lon="6.86772">
        <ele>241.6</ele>
        <time>2014-02-12T09:56:21Z</time>
      </trkpt>
      <trkpt lat="49.05328" lon="6.86773">
        <ele>241.5</ele>
        <time>2014-02-12T09:56:24Z</time>
      </trkpt>
      <trkpt lat="49.05332" lon="6.86775">
        <ele>241.4</ele>
        <time>2014-02-12T09:56:27Z</time>
      </trkpt>
      <trkpt lat="49.05336" lon="6.86776">
        <ele>241.6</ele>
        <time>2014-02-12T09:56:30Z</time>
      </trkpt>
      <trkpt lat="49.0534" lon="6.86776">
        <ele>241.5</ele>
        <time>2014-02-12T09:56:33Z</time>
      </trkpt>
      <trkpt lat="49.05344" lon="6.86778">
        <ele>241.5</ele>
        <time>2014-02-12T09:56:36Z</time>
      </trkpt>
      <trkpt lat="49.05348" lon="6.86781">
        <ele>241.9</ele>
        <time>2014-02-12T09:56:39Z</time>
      </trkpt>
      <trkpt lat="49.05352" lon="6.86782">
        <ele>241.6</ele>
        <time>2014-02-12T09:56:42Z</time>
      </trkpt>
      <trkpt lat="49.05356" lon="6.86784">
        <ele>240.4</ele>
        <time>2014-02-12T09:56:45Z</time>
      </trkpt>
      <trkpt lat="49.0536" lon="6.86786">
        <ele>240.2</ele>
        <time>2014-02-12T09:56:48Z</time>
      </trkpt>
      <trkpt lat="49.05367" lon="6.86793">
        <ele>241.9</ele>
        <time>2014-02-12T09:56:54Z</time>
      </trkpt>
      <trkpt lat="49.0537" lon="6.86796">
        <ele>242.3</ele>
        <time>2014-02-12T09:56:57Z</time>
      </trkpt>
      <trkpt lat="49.05373" lon="6.86799">
        <ele>242.4</ele>
        <time>2014-02-12T09:57:00Z</time>
      </trkpt>
      <trkpt lat="49.05377" lon="6.86802">
        <ele>241.5</ele>
        <time>2014-02-12T09:57:03Z</time>
      </trkpt>
      <trkpt lat="49.0538" lon="6.86806">
        <ele>242.3</ele>
        <time>2014-02-12T09:57:06Z</time>
      </trkpt>
      <trkpt lat="49.05383" lon="6.86809">
        <ele>241.8</ele>
        <time>2014-02-12T09:57:09Z</time>
      </trkpt>
      <trkpt lat="49.05386" lon="6.86813">
        <ele>241.9</ele>
        <time>2014-02-12T09:57:12Z</time>
      </trkpt>
      <trkpt lat="49.05389" lon="6.86816">
        <ele>241.9</ele>
        <time>2014-02-12T09:57:15Z</time>
      </trkpt>
      <trkpt lat="49.05392" lon="6.8682">
        <ele>243.2</ele>
        <time>2014-02-12T09:57:18Z</time>
      </trkpt>
      <trkpt lat="49.05395" lon="6.86824">
        <ele>243</ele>
        <time>2014-02-12T09:57:21Z</time>
      </trkpt>
      <trkpt lat="49.05398" lon="6.86828">
        <ele>242.8</ele>
        <time>2014-02-12T09:57:24Z</time>
      </trkpt>
      <trkpt lat="49.05401" lon="6.86832">
        <ele>243.8</ele>
        <time>2014-02-12T09:57:27Z</time>
      </trkpt>
      <trkpt lat="49.05404" lon="6.86837">
        <ele>244.2</ele>
        <time>2014-02-12T09:57:30Z</time>
      </trkpt>
      <trkpt lat="49.05407" lon="6.86841">
        <ele>243.5</ele>
        <time>2014-02-12T09:57:33Z</time>
      </trkpt>
      <trkpt lat="49.0541" lon="6.86847">
        <ele>243.2</ele>
        <time>2014-02-12T09:57:36Z</time>
      </trkpt>
      <trkpt lat="49.05413" lon="6.86852">
        <ele>243</ele>
        <time>2014-02-12T09:57:39Z</time>
      </trkpt>
      <trkpt lat="49.05416" lon="6.86857">
        <ele>244</ele>
        <time>2014-02-12T09:57:42Z</time>
      </trkpt>
      <trkpt lat="49.0542" lon="6.86862">
        <ele>244.2</ele>
        <time>2014-02-12T09:57:45Z</time>
      </trkpt>
      <trkpt lat="49.05423" lon="6.86867">
        <ele>244.7</ele>
        <time>2014-02-12T09:57:48Z</time>
      </trkpt>
      <trkpt lat="49.05427" lon="6.86872">
        <ele>244.2</ele>
        <time>2014-02-12T09:57:51Z</time>
      </trkpt>
      <trkpt lat="49.05433" lon="6.86882">
        <ele>245.2</ele>
        <time>2014-02-12T09:57:57Z</time>
      </trkpt>
      <trkpt lat="49.05437" lon="6.86886">
        <ele>245.4</ele>
        <time>2014-02-12T09:58:00Z</time>
      </trkpt>
      <trkpt lat="49.0544" lon="6.8689">
        <ele>245.3</ele>
        <time>2014-02-12T09:58:03Z</time>
      </trkpt>
      <trkpt lat="49.05443" lon="6.86894">
        <ele>245.2</ele>
        <time>2014-02-12T09:58:06Z</time>
      </trkpt>
      <trkpt lat="49.05446" lon="6.86898">
        <ele>245.5</ele>
        <time>2014-02-12T09:58:09Z</time>
      </trkpt>
      <trkpt lat="49.05449" lon="6.86902">
        <ele>245.9</ele>
        <time>2014-02-12T09:58:12Z</time>
      </trkpt>
      <trkpt lat="49.05452" lon="6.86905">
        <ele>246.5</ele>
        <time>2014-02-12T09:58:15Z</time>
      </trkpt>
      <trkpt lat="49.05456" lon="6.86908">
        <ele>246.1</ele>
        <time>2014-02-12T09:58:18Z</time>
      </trkpt>
      <trkpt lat="49.05459" lon="6.86912">
        <ele>246.3</ele>
        <time>2014-02-12T09:58:21Z</time>
      </trkpt>
      <trkpt lat="49.05462" lon="6.86916">
        <ele>246.6</ele>
        <time>2014-02-12T09:58:24Z</time>
      </trkpt>
      <trkpt lat="49.05466" lon="6.86921">
        <ele>246.6</ele>
        <time>2014-02-12T09:58:27Z</time>
      </trkpt>
      <trkpt lat="49.0547" lon="6.86926">
        <ele>247.3</ele>
        <time>2014-02-12T09:58:30Z</time>
      </trkpt>
      <trkpt lat="49.05473" lon="6.86931">
        <ele>247.3</ele>
        <time>2014-02-12T09:58:33Z</time>
      </trkpt>
      <trkpt lat="49.05477" lon="6.86935">
        <ele>247.5</ele>
        <time>2014-02-12T09:58:36Z</time>
      </trkpt>
      <trkpt lat="49.0548" lon="6.8694">
        <ele>247</ele>
        <time>2014-02-12T09:58:39Z</time>
      </trkpt>
      <trkpt lat="49.05484" lon="6.86943">
        <ele>247.3</ele>
        <time>2014-02-12T09:58:42Z</time>
      </trkpt>
      <trkpt lat="49.05487" lon="6.86947">
        <ele>247.7</ele>
        <time>2014-02-12T09:58:45Z</time>
      </trkpt>
      <trkpt lat="49.0549" lon="6.86951">
        <ele>248.5</ele>
        <time>2014-02-12T09:58:48Z</time>
      </trkpt>
      <trkpt lat="49.05493" lon="6.86955">
        <ele>248.5</ele>
        <time>2014-02-12T09:58:51Z</time>
      </trkpt>
      <trkpt lat="49.05496" lon="6.86959">
        <ele>248.9</ele>
        <time>2014-02-12T09:58:54Z</time>
      </trkpt>
      <trkpt lat="49.05503" lon="6.86968">
        <ele>250.4</ele>
        <time>2014-02-12T09:59:00Z</time>
      </trkpt>
      <trkpt lat="49.05506" lon="6.86973">
        <ele>250.2</ele>
        <time>2014-02-12T09:59:03Z</time>
      </trkpt>
      <trkpt lat="49.05509" lon="6.86978">
        <ele>250</ele>
        <time>2014-02-12T09:59:06Z</time>
      </trkpt>
      <trkpt lat="49.05512" lon="6.86982">
        <ele>250.5</ele>
        <time>2014-02-12T09:59:09Z</time>
      </trkpt>
      <trkpt lat="49.05516" lon="6.86986">
        <ele>250.8</ele>
        <time>2014-02-12T09:59:12Z</time>
      </trkpt>
      <trkpt lat="49.05519" lon="6.8699">
        <ele>251.3</ele>
        <time>2014-02-12T09:59:15Z</time>
      </trkpt>
      <trkpt lat="49.05523" lon="6.86995">
        <ele>251.6</ele>
        <time>2014-02-12T09:59:18Z</time>
      </trkpt>
      <trkpt lat="49.05527" lon="6.86999">
        <ele>251.7</ele>
        <time>2014-02-12T09:59:21Z</time>
      </trkpt>
      <trkpt lat="49.05531" lon="6.87004">
        <ele>252.4</ele>
        <time>2014-02-12T09:59:24Z</time>
      </trkpt>
      <trkpt lat="49.05535" lon="6.87008">
        <ele>252.8</ele>
        <time>2014-02-12T09:59:27Z</time>
      </trkpt>
      <trkpt lat="49.05538" lon="6.87013">
        <ele>253.3</ele>
        <time>2014-02-12T09:59:30Z</time>
      </trkpt>
      <trkpt lat="49.05542" lon="6.87018">
        <ele>253.1</ele>
        <time>2014-02-12T09:59:33Z</time>
      </trkpt>
      <trkpt lat="49.05546" lon="6.87022">
        <ele>253.4</ele>
        <time>2014-02-12T09:59:36Z</time>
      </trkpt>
      <trkpt lat="49.05549" lon="6.87026">
        <ele>253.5</ele>
        <time>2014-02-12T09:59:39Z</time>
      </trkpt>
      <trkpt lat="49.05553" lon="6.8703">
        <ele>253.6</ele>
        <time>2014-02-12T09:59:42Z</time>
      </trkpt>
      <trkpt lat="49.05556" lon="6.87035">
        <ele>253.1</ele>
        <time>2014-02-12T09:59:45Z</time>
      </trkpt>
      <trkpt lat="49.0556" lon="6.87038">
        <ele>253.9</ele>
        <time>2014-02-12T09:59:48Z</time>
      </trkpt>
      <trkpt lat="49.05564" lon="6.87042">
        <ele>254</ele>
        <time>2014-02-12T09:59:51Z</time>
      </trkpt>
      <trkpt lat="49.05567" lon="6.87043">
        <ele>254.1</ele>
        <time>2014-02-12T09:59:54Z</time>
      </trkpt>
      <trkpt lat="49.05571" lon="6.87045">
        <ele>254</ele>
        <time>2014-02-12T09:59:57Z</time>
      </trkpt>
      <trkpt lat="49.05579" lon="6.87049">
        <ele>253.9</ele>
        <time>2014-02-12T10:00:03Z</time>
      </trkpt>
      <trkpt lat="49.05583" lon="6.8705">
        <ele>253.8</ele>
        <time>2014-02-12T10:00:06Z</time>
      </trkpt>
      <trkpt lat="49.05587" lon="6.87051">
        <ele>253.9</ele>
        <time>2014-02-12T10:00:09Z</time>
      </trkpt>
      <trkpt lat="49.05591" lon="6.87053">
        <ele>253.1</ele>
        <time>2014-02-12T10:00:12Z</time>
      </trkpt>
      <trkpt lat="49.05595" lon="6.87054">
        <ele>252.9</ele>
        <time>2014-02-12T10:00:15Z</time>
      </trkpt>
      <trkpt lat="49.05599" lon="6.87054">
        <ele>253.3</ele>
        <time>2014-02-12T10:00:18Z</time>
      </trkpt>
      <trkpt lat="49.05602" lon="6.87056">
        <ele>253.1</ele>
        <time>2014-02-12T10:00:21Z</time>
      </trkpt>
      <trkpt lat="49.05606" lon="6.87058">
        <ele>252.4</ele>
        <time>2014-02-12T10:00:24Z</time>
      </trkpt>
      <trkpt lat="49.0561" lon="6.87061">
        <ele>252.3</ele>
        <time>2014-02-12T10:00:27Z</time>
      </trkpt>
      <trkpt lat="49.05613" lon="6.87064">
        <ele>252.5</ele>
        <time>2014-02-12T10:00:30Z</time>
      </trkpt>
      <trkpt lat="49.05616" lon="6.87068">
        <ele>252</ele>
        <time>2014-02-12T10:00:33Z</time>
      </trkpt>
      <trkpt lat="49.05619" lon="6.87071">
        <ele>251.8</ele>
        <time>2014-02-12T10:00:36Z</time>
      </trkpt>
      <trkpt lat="49.05622" lon="6.87073">
        <ele>250.9</ele>
        <time>2014-02-12T10:00:39Z</time>
      </trkpt>
      <trkpt lat="49.05626" lon="6.87075">
        <ele>250.9</ele>
        <time>2014-02-12T10:00:42Z</time>
      </trkpt>
      <trkpt lat="49.05628" lon="6.87079">
        <ele>250.7</ele>
        <time>2014-02-12T10:00:45Z</time>
      </trkpt>
      <trkpt lat="49.05631" lon="6.87083">
        <ele>250.5</ele>
        <time>2014-02-12T10:00:48Z</time>
      </trkpt>
      <trkpt lat="49.05634" lon="6.87086">
        <ele>250</ele>
        <time>2014-02-12T10:00:51Z</time>
      </trkpt>
      <trkpt lat="49.05636" lon="6.8709">
        <ele>250.4</ele>
        <time>2014-02-12T10:00:54Z</time>
      </trkpt>
      <trkpt lat="49.05639" lon="6.87094">
        <ele>249.4</ele>
        <time>2014-02-12T10:00:57Z</time>
      </trkpt>
      <trkpt lat="49.05641" lon="6.87099">
        <ele>249</ele>
        <time>2014-02-12T10:01:00Z</time>
      </trkpt>
      <trkpt lat="49.05646" lon="6.87108">
        <ele>247.7</ele>
        <time>2014-02-12T10:01:06Z</time>
      </trkpt>
      <trkpt lat="49.05648" lon="6.87113">
        <ele>247.8</ele>
        <time>2014-02-12T10:01:09Z</time>
      </trkpt>
      <trkpt lat="49.05651" lon="6.87118">
        <ele>247.3</ele>
        <time>2014-02-12T10:01:12Z</time>
      </trkpt>
      <trkpt lat="49.05653" lon="6.87123">
        <ele>247.1</ele>
        <time>2014-02-12T10:01:15Z</time>
      </trkpt>
      <trkpt lat="49.05656" lon="6.87128">
        <ele>246</ele>
        <time>2014-02-12T10:01:18Z</time>
      </trkpt>
      <trkpt lat="49.05659" lon="6.87133">
        <ele>246.1</ele>
        <time>2014-02-12T10:01:21Z</time>
      </trkpt>
      <trkpt lat="49.05663" lon="6.87136">
        <ele>246.3</ele>
        <time>2014-02-12T10:01:24Z</time>
      </trkpt>
      <trkpt lat="49.05667" lon="6.87138">
        <ele>246</ele>
        <time>2014-02-12T10:01:27Z</time>
      </trkpt>
      <trkpt lat="49.0567" lon="6.8714">
        <ele>246.2</ele>
        <time>2014-02-12T10:01:30Z</time>
      </trkpt>
      <trkpt lat="49.05672" lon="6.87141">
        <ele>246</ele>
        <time>2014-02-12T10:01:33Z</time>
      </trkpt>
      <trkpt lat="49.05676" lon="6.87141">
        <ele>245.3</ele>
        <time>2014-02-12T10:01:36Z</time>
      </trkpt>
      <trkpt lat="49.05679" lon="6.87142">
        <ele>245.4</ele>
        <time>2014-02-12T10:01:39Z</time>
      </trkpt>
      <trkpt lat="49.05683" lon="6.87142">
        <ele>245.5</ele>
        <time>2014-02-12T10:01:42Z</time>
      </trkpt>
      <trkpt lat="49.05686" lon="6.87142">
        <ele>244.9</ele>
        <time>2014-02-12T10:01:45Z</time>
      </trkpt>
      <trkpt lat="49.0569" lon="6.87142">
        <ele>244.1</ele>
        <time>2014-02-12T10:01:48Z</time>
      </trkpt>
      <trkpt lat="49.05695" lon="6.87143">
        <ele>243.7</ele>
        <time>2014-02-12T10:01:51Z</time>
      </trkpt>
      <trkpt lat="49.057" lon="6.87144">
        <ele>243.5</ele>
        <time>2014-02-12T10:01:54Z</time>
      </trkpt>
      <trkpt lat="49.05705" lon="6.87145">
        <ele>244.2</ele>
        <time>2014-02-12T10:01:57Z</time>
      </trkpt>
      <trkpt lat="49.0571" lon="6.87148">
        <ele>243.9</ele>
        <time>2014-02-12T10:02:00Z</time>
      </trkpt>
      <trkpt lat="49.05715" lon="6.87151">
        <ele>243.9</ele>
        <time>2014-02-12T10:02:03Z</time>
      </trkpt>
      <trkpt lat="49.05724" lon="6.87158">
        <ele>243.1</ele>
        <time>2014-02-12T10:02:09Z</time>
      </trkpt>
      <trkpt lat="49.05728" lon="6.87162">
        <ele>243.4</ele>
        <time>2014-02-12T10:02:12Z</time>
      </trkpt>
      <trkpt lat="49.05731" lon="6.87167">
        <ele>243.3</ele>
        <time>2014-02-12T10:02:15Z</time>
      </trkpt>
      <trkpt lat="49.05734" lon="6.87172">
        <ele>242.5</ele>
        <time>2014-02-12T10:02:18Z</time>
      </trkpt>
      <trkpt lat="49.05737" lon="6.87178">
        <ele>242.6</ele>
        <time>2014-02-12T10:02:21Z</time>
      </trkpt>
      <trkpt lat="49.05741" lon="6.87182">
        <ele>242.7</ele>
        <time>2014-02-12T10:02:24Z</time>
      </trkpt>
      <trkpt lat="49.05743" lon="6.87187">
        <ele>242.7</ele>
        <time>2014-02-12T10:02:27Z</time>
      </trkpt>
      <trkpt lat="49.05746" lon="6.87192">
        <ele>242.4</ele>
        <time>2014-02-12T10:02:30Z</time>
      </trkpt>
      <trkpt lat="49.05749" lon="6.87196">
        <ele>242.6</ele>
        <time>2014-02-12T10:02:33Z</time>
      </trkpt>
      <trkpt lat="49.05751" lon="6.87201">
        <ele>242.5</ele>
        <time>2014-02-12T10:02:36Z</time>
      </trkpt>
      <trkpt lat="49.05754" lon="6.87206">
        <ele>242.4</ele>
        <time>2014-02-12T10:02:39Z</time>
      </trkpt>
      <trkpt lat="49.05757" lon="6.87212">
        <ele>242</ele>
        <time>2014-02-12T10:02:42Z</time>
      </trkpt>
      <trkpt lat="49.0576" lon="6.87217">
        <ele>242.3</ele>
        <time>2014-02-12T10:02:45Z</time>
      </trkpt>
      <trkpt lat="49.05762" lon="6.87222">
        <ele>241.9</ele>
        <time>2014-02-12T10:02:48Z</time>
      </trkpt>
      <trkpt lat="49.05765" lon="6.87227">
        <ele>241.4</ele>
        <time>2014-02-12T10:02:51Z</time>
      </trkpt>
      <trkpt lat="49.05767" lon="6.87232">
        <ele>240.8</ele>
        <time>2014-02-12T10:02:54Z</time>
      </trkpt>
      <trkpt lat="49.0577" lon="6.87237">
        <ele>241.1</ele>
        <time>2014-02-12T10:02:57Z</time>
      </trkpt>
      <trkpt lat="49.05773" lon="6.87243">
        <ele>240.9</ele>
        <time>2014-02-12T10:03:00Z</time>
      </trkpt>
      <trkpt lat="49.05775" lon="6.87248">
        <ele>241.6</ele>
        <time>2014-02-12T10:03:03Z</time>
      </trkpt>
      <trkpt lat="49.05778" lon="6.87253">
        <ele>241</ele>
        <time>2014-02-12T10:03:06Z</time>
      </trkpt>
      <trkpt lat="49.05783" lon="6.87264">
        <ele>241.4</ele>
        <time>2014-02-12T10:03:12Z</time>
      </trkpt>
      <trkpt lat="49.05785" lon="6.87269">
        <ele>241.4</ele>
        <time>2014-02-12T10:03:15Z</time>
      </trkpt>
      <trkpt lat="49.05788" lon="6.87274">
        <ele>240.9</ele>
        <time>2014-02-12T10:03:18Z</time>
      </trkpt>
      <trkpt lat="49.05791" lon="6.8728">
        <ele>240.8</ele>
        <time>2014-02-12T10:03:21Z</time>
      </trkpt>
      <trkpt lat="49.05793" lon="6.87286">
        <ele>240.6</ele>
        <time>2014-02-12T10:03:24Z</time>
      </trkpt>
      <trkpt lat="49.05796" lon="6.87291">
        <ele>240.9</ele>
        <time>2014-02-12T10:03:27Z</time>
      </trkpt>
      <trkpt lat="49.05799" lon="6.87296">
        <ele>240.5</ele>
        <time>2014-02-12T10:03:30Z</time>
      </trkpt>
      <trkpt lat="49.05801" lon="6.87301">
        <ele>240.7</ele>
        <time>2014-02-12T10:03:33Z</time>
      </trkpt>
      <trkpt lat="49.05804" lon="6.87306">
        <ele>240.9</ele>
        <time>2014-02-12T10:03:36Z</time>
      </trkpt>
      <trkpt lat="49.05806" lon="6.87311">
        <ele>240.6</ele>
        <time>2014-02-12T10:03:39Z</time>
      </trkpt>
      <trkpt lat="49.05808" lon="6.87316">
        <ele>240.5</ele>
        <time>2014-02-12T10:03:42Z</time>
      </trkpt>
      <trkpt lat="49.05811" lon="6.8732">
        <ele>241</ele>
        <time>2014-02-12T10:03:45Z</time>
      </trkpt>
      <trkpt lat="49.05813" lon="6.87326">
        <ele>240.8</ele>
        <time>2014-02-12T10:03:48Z</time>
      </trkpt>
      <trkpt lat="49.05815" lon="6.87331">
        <ele>240.7</ele>
        <time>2014-02-12T10:03:51Z</time>
      </trkpt>
      <trkpt lat="49.05817" lon="6.87336">
        <ele>240.4</ele>
        <time>2014-02-12T10:03:54Z</time>
      </trkpt>
      <trkpt lat="49.05819" lon="6.87341">
        <ele>240.5</ele>
        <time>2014-02-12T10:03:57Z</time>
      </trkpt>
      <trkpt lat="49.05821" lon="6.87346">
        <ele>240.7</ele>
        <time>2014-02-12T10:04:00Z</time>
      </trkpt>
      <trkpt lat="49.05824" lon="6.87351">
        <ele>240.9</ele>
        <time>2014-02-12T10:04:03Z</time>
      </trkpt>
      <trkpt lat="49.05826" lon="6.87355">
        <ele>241.4</ele>
        <time>2014-02-12T10:04:06Z</time>
      </trkpt>
      <trkpt lat="49.05829" lon="6.87361">
        <ele>241.2</ele>
        <time>2014-02-12T10:04:09Z</time>
      </trkpt>
      <trkpt lat="49.05834" lon="6.87371">
        <ele>241.4</ele>
        <time>2014-02-12T10:04:15Z</time>
      </trkpt>
      <trkpt lat="49.05837" lon="6.87377">
        <ele>241.6</ele>
        <time>2014-02-12T10:04:18Z</time>
      </trkpt>
      <trkpt lat="49.0584" lon="6.87382">
        <ele>241.6</ele>
        <time>2014-02-12T10:04:21Z</time>
      </trkpt>
      <trkpt lat="49.05842" lon="6.87387">
        <ele>241.1</ele>
        <time>2014-02-12T10:04:24Z</time>
      </trkpt>
      <trkpt lat="49.05845" lon="6.87392">
        <ele>241.6</ele>
        <time>2014-02-12T10:04:27Z</time>
      </trkpt>
      <trkpt lat="49.05847" lon="6.87396">
        <ele>241.1</ele>
        <time>2014-02-12T10:04:30Z</time>
      </trkpt>
      <trkpt lat="49.05849" lon="6.87401">
        <ele>240.7</ele>
        <time>2014-02-12T10:04:33Z</time>
      </trkpt>
      <trkpt lat="49.05851" lon="6.87406">
        <ele>240.5</ele>
        <time>2014-02-12T10:04:36Z</time>
      </trkpt>
      <trkpt lat="49.05854" lon="6.87409">
        <ele>240.8</ele>
        <time>2014-02-12T10:04:39Z</time>
      </trkpt>
      <trkpt lat="49.05856" lon="6.87412">
        <ele>240.7</ele>
        <time>2014-02-12T10:04:42Z</time>
      </trkpt>
      <trkpt lat="49.05858" lon="6.87417">
        <ele>241.9</ele>
        <time>2014-02-12T10:04:45Z</time>
      </trkpt>
      <trkpt lat="49.0586" lon="6.87422">
        <ele>241.5</ele>
        <time>2014-02-12T10:04:48Z</time>
      </trkpt>
      <trkpt lat="49.05862" lon="6.87429">
        <ele>241.9</ele>
        <time>2014-02-12T10:04:51Z</time>
      </trkpt>
      <trkpt lat="49.05864" lon="6.87435">
        <ele>241.3</ele>
        <time>2014-02-12T10:04:54Z</time>
      </trkpt>
      <trkpt lat="49.05866" lon="6.87442">
        <ele>241.1</ele>
        <time>2014-02-12T10:04:57Z</time>
      </trkpt>
      <trkpt lat="49.05868" lon="6.87448">
        <ele>241.8</ele>
        <time>2014-02-12T10:05:00Z</time>
      </trkpt>
      <trkpt lat="49.0587" lon="6.87455">
        <ele>242.2</ele>
        <time>2014-02-12T10:05:03Z</time>
      </trkpt>
      <trkpt lat="49.05871" lon="6.87461">
        <ele>242.3</ele>
        <time>2014-02-12T10:05:06Z</time>
      </trkpt>
      <trkpt lat="49.05873" lon="6.87467">
        <ele>243</ele>
        <time>2014-02-12T10:05:09Z</time>
      </trkpt>
      <trkpt lat="49.05875" lon="6.87474">
        <ele>243.1</ele>
        <time>2014-02-12T10:05:12Z</time>
      </trkpt>
      <trkpt lat="49.05877" lon="6.87486">
        <ele>243.3</ele>
        <time>2014-02-12T10:05:18Z</time>
      </trkpt>
      <trkpt lat="49.05879" lon="6.87492">
        <ele>243.4</ele>
        <time>2014-02-12T10:05:21Z</time>
      </trkpt>
      <trkpt lat="49.0588" lon="6.87498">
        <ele>243.6</ele>
        <time>2014-02-12T10:05:24Z</time>
      </trkpt>
      <trkpt lat="49.05882" lon="6.87505">
        <ele>243.9</ele>
        <time>2014-02-12T10:05:27Z</time>
      </trkpt>
      <trkpt lat="49.05883" lon="6.8751">
        <ele>244.6</ele>
        <time>2014-02-12T10:05:30Z</time>
      </trkpt>
      <trkpt lat="49.05885" lon="6.87516">
        <ele>244.2</ele>
        <time>2014-02-12T10:05:33Z</time>
      </trkpt>
      <trkpt lat="49.05886" lon="6.87521">
        <ele>244.8</ele>
        <time>2014-02-12T10:05:36Z</time>
      </trkpt>
      <trkpt lat="49.05888" lon="6.87527">
        <ele>245.6</ele>
        <time>2014-02-12T10:05:39Z</time>
      </trkpt>
      <trkpt lat="49.0589" lon="6.87532">
        <ele>246.1</ele>
        <time>2014-02-12T10:05:42Z</time>
      </trkpt>
      <trkpt lat="49.05891" lon="6.87538">
        <ele>246</ele>
        <time>2014-02-12T10:05:45Z</time>
      </trkpt>
      <trkpt lat="49.05893" lon="6.87544">
        <ele>246.4</ele>
        <time>2014-02-12T10:05:48Z</time>
      </trkpt>
      <trkpt lat="49.05895" lon="6.87549">
        <ele>246.4</ele>
        <time>2014-02-12T10:05:51Z</time>
      </trkpt>
      <trkpt lat="49.05897" lon="6.87555">
        <ele>246.5</ele>
        <time>2014-02-12T10:05:54Z</time>
      </trkpt>
      <trkpt lat="49.05898" lon="6.8756">
        <ele>247.1</ele>
        <time>2014-02-12T10:05:57Z</time>
      </trkpt>
      <trkpt lat="49.059" lon="6.87565">
        <ele>247.1</ele>
        <time>2014-02-12T10:06:00Z</time>
      </trkpt>
      <trkpt lat="49.05902" lon="6.87571">
        <ele>246.7</ele>
        <time>2014-02-12T10:06:03Z</time>
      </trkpt>
      <trkpt lat="49.05905" lon="6.87576">
        <ele>247.2</ele>
        <time>2014-02-12T10:06:06Z</time>
      </trkpt>
      <trkpt lat="49.05907" lon="6.87581">
        <ele>247.5</ele>
        <time>2014-02-12T10:06:09Z</time>
      </trkpt>
      <trkpt lat="49.05909" lon="6.87586">
        <ele>248.3</ele>
        <time>2014-02-12T10:06:12Z</time>
      </trkpt>
      <trkpt lat="49.05911" lon="6.8759">
        <ele>247.6</ele>
        <time>2014-02-12T10:06:15Z</time>
      </trkpt>
      <trkpt lat="49.05915" lon="6.87601">
        <ele>247.5</ele>
        <time>2014-02-12T10:06:21Z</time>
      </trkpt>
      <trkpt lat="49.05918" lon="6.87606">
        <ele>247.6</ele>
        <time>2014-02-12T10:06:24Z</time>
      </trkpt>
      <trkpt lat="49.0592" lon="6.87611">
        <ele>247.5</ele>
        <time>2014-02-12T10:06:27Z</time>
      </trkpt>
      <trkpt lat="49.05922" lon="6.87616">
        <ele>247.9</ele>
        <time>2014-02-12T10:06:30Z</time>
      </trkpt>
      <trkpt lat="49.05925" lon="6.87621">
        <ele>247.6</ele>
        <time>2014-02-12T10:06:33Z</time>
      </trkpt>
      <trkpt lat="49.05927" lon="6.87627">
        <ele>246.9</ele>
        <time>2014-02-12T10:06:36Z</time>
      </trkpt>
      <trkpt lat="49.0593" lon="6.87632">
        <ele>247</ele>
        <time>2014-02-12T10:06:39Z</time>
      </trkpt>
      <trkpt lat="49.05933" lon="6.87636">
        <ele>247</ele>
        <time>2014-02-12T10:06:42Z</time>
      </trkpt>
      <trkpt lat="49.05936" lon="6.87641">
        <ele>247.4</ele>
        <time>2014-02-12T10:06:45Z</time>
      </trkpt>
      <trkpt lat="49.05939" lon="6.87646">
        <ele>247.2</ele>
        <time>2014-02-12T10:06:48Z</time>
      </trkpt>
      <trkpt lat="49.05942" lon="6.8765">
        <ele>247</ele>
        <time>2014-02-12T10:06:51Z</time>
      </trkpt>
      <trkpt lat="49.05945" lon="6.87655">
        <ele>247</ele>
        <time>2014-02-12T10:06:54Z</time>
      </trkpt>
      <trkpt lat="49.05948" lon="6.87659">
        <ele>246.7</ele>
        <time>2014-02-12T10:06:57Z</time>
      </trkpt>
      <trkpt lat="49.05951" lon="6.87663">
        <ele>246.3</ele>
        <time>2014-02-12T10:07:00Z</time>
      </trkpt>
      <trkpt lat="49.05955" lon="6.87667">
        <ele>246.3</ele>
        <time>2014-02-12T10:07:03Z</time>
      </trkpt>
      <trkpt lat="49.05958" lon="6.87671">
        <ele>245.7</ele>
        <time>2014-02-12T10:07:06Z</time>
      </trkpt>
      <trkpt lat="49.05961" lon="6.87674">
        <ele>245</ele>
        <time>2014-02-12T10:07:09Z</time>
      </trkpt>
      <trkpt lat="49.05964" lon="6.87678">
        <ele>245</ele>
        <time>2014-02-12T10:07:12Z</time>
      </trkpt>
      <trkpt lat="49.05968" lon="6.87681">
        <ele>244.9</ele>
        <time>2014-02-12T10:07:15Z</time>
      </trkpt>
      <trkpt lat="49.05971" lon="6.87685">
        <ele>244.9</ele>
        <time>2014-02-12T10:07:18Z</time>
      </trkpt>
      <trkpt lat="49.05978" lon="6.8769">
        <ele>245.2</ele>
        <time>2014-02-12T10:07:24Z</time>
      </trkpt>
      <trkpt lat="49.05981" lon="6.87693">
        <ele>244.9</ele>
        <time>2014-02-12T10:07:27Z</time>
      </trkpt>
      <trkpt lat="49.05984" lon="6.87697">
        <ele>244.7</ele>
        <time>2014-02-12T10:07:30Z</time>
      </trkpt>
      <trkpt lat="49.05987" lon="6.877">
        <ele>244.3</ele>
        <time>2014-02-12T10:07:33Z</time>
      </trkpt>
      <trkpt lat="49.05991" lon="6.87703">
        <ele>244.3</ele>
        <time>2014-02-12T10:07:36Z</time>
      </trkpt>
      <trkpt lat="49.05994" lon="6.87705">
        <ele>244.3</ele>
        <time>2014-02-12T10:07:39Z</time>
      </trkpt>
      <trkpt lat="49.05998" lon="6.87708">
        <ele>243.5</ele>
        <time>2014-02-12T10:07:42Z</time>
      </trkpt>
      <trkpt lat="49.06001" lon="6.87711">
        <ele>243.5</ele>
        <time>2014-02-12T10:07:45Z</time>
      </trkpt>
      <trkpt lat="49.06004" lon="6.87714">
        <ele>243.7</ele>
        <time>2014-02-12T10:07:48Z</time>
      </trkpt>
      <trkpt lat="49.06007" lon="6.87717">
        <ele>243.7</ele>
        <time>2014-02-12T10:07:51Z</time>
      </trkpt>
      <trkpt lat="49.06011" lon="6.8772">
        <ele>243.5</ele>
        <time>2014-02-12T10:07:54Z</time>
      </trkpt>
      <trkpt lat="49.06014" lon="6.87723">
        <ele>243.5</ele>
        <time>2014-02-12T10:07:57Z</time>
      </trkpt>
      <trkpt lat="49.06017" lon="6.87726">
        <ele>242.5</ele>
        <time>2014-02-12T10:08:00Z</time>
      </trkpt>
      <trkpt lat="49.06021" lon="6.87729">
        <ele>242.4</ele>
        <time>2014-02-12T10:08:03Z</time>
      </trkpt>
      <trkpt lat="49.06024" lon="6.87732">
        <ele>242.6</ele>
        <time>2014-02-12T10:08:06Z</time>
      </trkpt>
      <trkpt lat="49.06027" lon="6.87736">
        <ele>242.7</ele>
        <time>2014-02-12T10:08:09Z</time>
      </trkpt>
      <trkpt lat="49.0603" lon="6.87739">
        <ele>242.3</ele>
        <time>2014-02-12T10:08:12Z</time>
      </trkpt>
      <trkpt lat="49.06033" lon="6.87742">
        <ele>242.1</ele>
        <time>2014-02-12T10:08:15Z</time>
      </trkpt>
      <trkpt lat="49.06036" lon="6.87746">
        <ele>241.8</ele>
        <time>2014-02-12T10:08:18Z</time>
      </trkpt>
      <trkpt lat="49.06039" lon="6.8775">
        <ele>242.2</ele>
        <time>2014-02-12T10:08:21Z</time>
      </trkpt>
      <trkpt lat="49.06045" lon="6.87758">
        <ele>242.3</ele>
        <time>2014-02-12T10:08:27Z</time>
      </trkpt>
      <trkpt lat="49.06047" lon="6.87762">
        <ele>241.5</ele>
        <time>2014-02-12T10:08:30Z</time>
      </trkpt>
      <trkpt lat="49.0605" lon="6.87765">
        <ele>241.4</ele>
        <time>2014-02-12T10:08:33Z</time>
      </trkpt>
      <trkpt lat="49.06053" lon="6.87769">
        <ele>240.9</ele>
        <time>2014-02-12T10:08:36Z</time>
      </trkpt>
      <trkpt lat="49.06057" lon="6.87772">
        <ele>240.6</ele>
        <time>2014-02-12T10:08:39Z</time>
      </trkpt>
      <trkpt lat="49.06059" lon="6.87775">
        <ele>240.5</ele>
        <time>2014-02-12T10:08:42Z</time>
      </trkpt>
      <trkpt lat="49.06062" lon="6.87779">
        <ele>240.8</ele>
        <time>2014-02-12T10:08:45Z</time>
      </trkpt>
      <trkpt lat="49.06065" lon="6.87782">
        <ele>241.1</ele>
        <time>2014-02-12T10:08:48Z</time>
      </trkpt>
      <trkpt lat="49.06068" lon="6.87785">
        <ele>240.6</ele>
        <time>2014-02-12T10:08:51Z</time>
      </trkpt>
      <trkpt lat="49.0607" lon="6.87786">
        <ele>240.2</ele>
        <time>2014-02-12T10:08:54Z</time>
      </trkpt>
      <trkpt lat="49.06073" lon="6.8779">
        <ele>240.6</ele>
        <time>2014-02-12T10:08:57Z</time>
      </trkpt>
      <trkpt lat="49.06075" lon="6.87793">
        <ele>240.9</ele>
        <time>2014-02-12T10:09:00Z</time>
      </trkpt>
      <trkpt lat="49.06078" lon="6.87797">
        <ele>240.9</ele>
        <time>2014-02-12T10:09:03Z</time>
      </trkpt>
      <trkpt lat="49.0608" lon="6.878">
        <ele>239.5</ele>
        <time>2014-02-12T10:09:06Z</time>
      </trkpt>
      <trkpt lat="49.06082" lon="6.87803">
        <ele>239.8</ele>
        <time>2014-02-12T10:09:09Z</time>
      </trkpt>
      <trkpt lat="49.06085" lon="6.87806">
        <ele>239.8</ele>
        <time>2014-02-12T10:09:12Z</time>
      </trkpt>
      <trkpt lat="49.06088" lon="6.8781">
        <ele>239.9</ele>
        <time>2014-02-12T10:09:15Z</time>
      </trkpt>
      <trkpt lat="49.06091" lon="6.87812">
        <ele>240.1</ele>
        <time>2014-02-12T10:09:18Z</time>
      </trkpt>
      <trkpt lat="49.06094" lon="6.87815">
        <ele>239.9</ele>
        <time>2014-02-12T10:09:21Z</time>
      </trkpt>
      <trkpt lat="49.06097" lon="6.87817">
        <ele>239.5</ele>
        <time>2014-02-12T10:09:24Z</time>
      </trkpt>
      <trkpt lat="49.06104" lon="6.87822">
        <ele>239.3</ele>
        <time>2014-02-12T10:09:30Z</time>
      </trkpt>
      <trkpt lat="49.06107" lon="6.87826">
        <ele>239.2</ele>
        <time>2014-02-12T10:09:33Z</time>
      </trkpt>
      <trkpt lat="49.0611" lon="6.8783">
        <ele>238.7</ele>
        <time>2014-02-12T10:09:36Z</time>
      </trkpt>
      <trkpt lat="49.06113" lon="6.87833">
        <ele>238.3</ele>
        <time>2014-02-12T10:09:39Z</time>
      </trkpt>
      <trkpt lat="49.06116" lon="6.87837">
        <ele>238.3</ele>
        <time>2014-02-12T10:09:42Z</time>
      </trkpt>
      <trkpt lat="49.06119" lon="6.87841">
        <ele>238.2</ele>
        <time>2014-02-12T10:09:45Z</time>
      </trkpt>
      <trkpt lat="49.06123" lon="6.87844">
        <ele>238.3</ele>
        <time>2014-02-12T10:09:48Z</time>
      </trkpt>
      <trkpt lat="49.06126" lon="6.87848">
        <ele>237.4</ele>
        <time>2014-02-12T10:09:51Z</time>
      </trkpt>
      <trkpt lat="49.0613" lon="6.87851">
        <ele>237.6</ele>
        <time>2014-02-12T10:09:54Z</time>
      </trkpt>
      <trkpt lat="49.06133" lon="6.87854">
        <ele>237.4</ele>
        <time>2014-02-12T10:09:57Z</time>
      </trkpt>
      <trkpt lat="49.06134" lon="6.87858">
        <ele>237</ele>
        <time>2014-02-12T10:10:00Z</time>
      </trkpt>
      <trkpt lat="49.06136" lon="6.87859">
        <ele>237.1</ele>
        <time>2014-02-12T10:10:03Z</time>
      </trkpt>
      <trkpt lat="49.0614" lon="6.87861">
        <ele>237</ele>
        <time>2014-02-12T10:10:06Z</time>
      </trkpt>
      <trkpt lat="49.06143" lon="6.87864">
        <ele>236.8</ele>
        <time>2014-02-12T10:10:09Z</time>
      </trkpt>
      <trkpt lat="49.06147" lon="6.87867">
        <ele>236.6</ele>
        <time>2014-02-12T10:10:12Z</time>
      </trkpt>
      <trkpt lat="49.0615" lon="6.8787">
        <ele>237.5</ele>
        <time>2014-02-12T10:10:15Z</time>
      </trkpt>
      <trkpt lat="49.06153" lon="6.87874">
        <ele>236.6</ele>
        <time>2014-02-12T10:10:18Z</time>
      </trkpt>
      <trkpt lat="49.06156" lon="6.87878">
        <ele>236.4</ele>
        <time>2014-02-12T10:10:21Z</time>
      </trkpt>
      <trkpt lat="49.06159" lon="6.87881">
        <ele>236.4</ele>
        <time>2014-02-12T10:10:24Z</time>
      </trkpt>
      <trkpt lat="49.06163" lon="6.87884">
        <ele>235.9</ele>
        <time>2014-02-12T10:10:27Z</time>
      </trkpt>
      <trkpt lat="49.0617" lon="6.87892">
        <ele>236.1</ele>
        <time>2014-02-12T10:10:33Z</time>
      </trkpt>
      <trkpt lat="49.06173" lon="6.87896">
        <ele>235.7</ele>
        <time>2014-02-12T10:10:36Z</time>
      </trkpt>
      <trkpt lat="49.06176" lon="6.87899">
        <ele>235.3</ele>
        <time>2014-02-12T10:10:39Z</time>
      </trkpt>
      <trkpt lat="49.06178" lon="6.87903">
        <ele>235.1</ele>
        <time>2014-02-12T10:10:42Z</time>
      </trkpt>
      <trkpt lat="49.06181" lon="6.87905">
        <ele>234.9</ele>
        <time>2014-02-12T10:10:45Z</time>
      </trkpt>
      <trkpt lat="49.06184" lon="6.87908">
        <ele>235.2</ele>
        <time>2014-02-12T10:10:48Z</time>
      </trkpt>
      <trkpt lat="49.06188" lon="6.87912">
        <ele>234.8</ele>
        <time>2014-02-12T10:10:51Z</time>
      </trkpt>
      <trkpt lat="49.06191" lon="6.87916">
        <ele>234.5</ele>
        <time>2014-02-12T10:10:54Z</time>
      </trkpt>
      <trkpt lat="49.06194" lon="6.87919">
        <ele>234.4</ele>
        <time>2014-02-12T10:10:57Z</time>
      </trkpt>
      <trkpt lat="49.06198" lon="6.87921">
        <ele>234.7</ele>
        <time>2014-02-12T10:11:00Z</time>
      </trkpt>
      <trkpt lat="49.06202" lon="6.87924">
        <ele>234.4</ele>
        <time>2014-02-12T10:11:03Z</time>
      </trkpt>
      <trkpt lat="49.06206" lon="6.87924">
        <ele>234.2</ele>
        <time>2014-02-12T10:11:06Z</time>
      </trkpt>
      <trkpt lat="49.0621" lon="6.87924">
        <ele>234.2</ele>
        <time>2014-02-12T10:11:09Z</time>
      </trkpt>
      <trkpt lat="49.06213" lon="6.87922">
        <ele>233.6</ele>
        <time>2014-02-12T10:11:12Z</time>
      </trkpt>
      <trkpt lat="49.06216" lon="6.8792">
        <ele>233.5</ele>
        <time>2014-02-12T10:11:15Z</time>
      </trkpt>
      <trkpt lat="49.06218" lon="6.87917">
        <ele>233.4</ele>
        <time>2014-02-12T10:11:18Z</time>
      </trkpt>
      <trkpt lat="49.06221" lon="6.87915">
        <ele>233.4</ele>
        <time>2014-02-12T10:11:21Z</time>
      </trkpt>
      <trkpt lat="49.06225" lon="6.87913">
        <ele>234.2</ele>
        <time>2014-02-12T10:11:24Z</time>
      </trkpt>
      <trkpt lat="49.06228" lon="6.87911">
        <ele>233.8</ele>
        <time>2014-02-12T10:11:27Z</time>
      </trkpt>
      <trkpt lat="49.06231" lon="6.87908">
        <ele>233.1</ele>
        <time>2014-02-12T10:11:30Z</time>
      </trkpt>
      <trkpt lat="49.06237" lon="6.87902">
        <ele>234.4</ele>
        <time>2014-02-12T10:11:36Z</time>
      </trkpt>
      <trkpt lat="49.0624" lon="6.87899">
        <ele>234.4</ele>
        <time>2014-02-12T10:11:39Z</time>
      </trkpt>
      <trkpt lat="49.06244" lon="6.87896">
        <ele>234</ele>
        <time>2014-02-12T10:11:42Z</time>
      </trkpt>
      <trkpt lat="49.06247" lon="6.87893">
        <ele>233.5</ele>
        <time>2014-02-12T10:11:45Z</time>
      </trkpt>
      <trkpt lat="49.0625" lon="6.8789">
        <ele>234</ele>
        <time>2014-02-12T10:11:48Z</time>
      </trkpt>
      <trkpt lat="49.06253" lon="6.87887">
        <ele>233.2</ele>
        <time>2014-02-12T10:11:51Z</time>
      </trkpt>
      <trkpt lat="49.06256" lon="6.87884">
        <ele>233.4</ele>
        <time>2014-02-12T10:11:54Z</time>
      </trkpt>
      <trkpt lat="49.06259" lon="6.87881">
        <ele>233.2</ele>
        <time>2014-02-12T10:11:57Z</time>
      </trkpt>
      <trkpt lat="49.06263" lon="6.87878">
        <ele>233.5</ele>
        <time>2014-02-12T10:12:00Z</time>
      </trkpt>
      <trkpt lat="49.06266" lon="6.87874">
        <ele>233.6</ele>
        <time>2014-02-12T10:12:03Z</time>
      </trkpt>
      <trkpt lat="49.0627" lon="6.87871">
        <ele>233.5</ele>
        <time>2014-02-12T10:12:06Z</time>
      </trkpt>
      <trkpt lat="49.06273" lon="6.87869">
        <ele>233.4</ele>
        <time>2014-02-12T10:12:09Z</time>
      </trkpt>
      <trkpt lat="49.06277" lon="6.87867">
        <ele>233.8</ele>
        <time>2014-02-12T10:12:12Z</time>
      </trkpt>
      <trkpt lat="49.0628" lon="6.87865">
        <ele>234</ele>
        <time>2014-02-12T10:12:15Z</time>
      </trkpt>
      <trkpt lat="49.06283" lon="6.87862">
        <ele>234.2</ele>
        <time>2014-02-12T10:12:18Z</time>
      </trkpt>
      <trkpt lat="49.06286" lon="6.8786">
        <ele>233.9</ele>
        <time>2014-02-12T10:12:21Z</time>
      </trkpt>
      <trkpt lat="49.06289" lon="6.87857">
        <ele>234.1</ele>
        <time>2014-02-12T10:12:24Z</time>
      </trkpt>
      <trkpt lat="49.06292" lon="6.87853">
        <ele>233.8</ele>
        <time>2014-02-12T10:12:27Z</time>
      </trkpt>
      <trkpt lat="49.06295" lon="6.87848">
        <ele>234</ele>
        <time>2014-02-12T10:12:30Z</time>
      </trkpt>
      <trkpt lat="49.06297" lon="6.87845">
        <ele>233.2</ele>
        <time>2014-02-12T10:12:33Z</time>
      </trkpt>
      <trkpt lat="49.06304" lon="6.87838">
        <ele>233.2</ele>
        <time>2014-02-12T10:12:39Z</time>
      </trkpt>
      <trkpt lat="49.06308" lon="6.87834">
        <ele>233.6</ele>
        <time>2014-02-12T10:12:42Z</time>
      </trkpt>
      <trkpt lat="49.06311" lon="6.8783">
        <ele>234.6</ele>
        <time>2014-02-12T10:12:45Z</time>
      </trkpt>
      <trkpt lat="49.06315" lon="6.87826">
        <ele>234.1</ele>
        <time>2014-02-12T10:12:48Z</time>
      </trkpt>
      <trkpt lat="49.06318" lon="6.87822">
        <ele>234.2</ele>
        <time>2014-02-12T10:12:51Z</time>
      </trkpt>
      <trkpt lat="49.06322" lon="6.87818">
        <ele>234.2</ele>
        <time>2014-02-12T10:12:54Z</time>
      </trkpt>
      <trkpt lat="49.06325" lon="6.87815">
        <ele>233.3</ele>
        <time>2014-02-12T10:12:57Z</time>
      </trkpt>
      <trkpt lat="49.06328" lon="6.87811">
        <ele>233.3</ele>
        <time>2014-02-12T10:13:00Z</time>
      </trkpt>
      <trkpt lat="49.06331" lon="6.87807">
        <ele>233.5</ele>
        <time>2014-02-12T10:13:03Z</time>
      </trkpt>
      <trkpt lat="49.06335" lon="6.87803">
        <ele>234.2</ele>
        <time>2014-02-12T10:13:06Z</time>
      </trkpt>
      <trkpt lat="49.06338" lon="6.878">
        <ele>233.9</ele>
        <time>2014-02-12T10:13:09Z</time>
      </trkpt>
      <trkpt lat="49.06342" lon="6.87797">
        <ele>233.9</ele>
        <time>2014-02-12T10:13:12Z</time>
      </trkpt>
      <trkpt lat="49.06345" lon="6.87794">
        <ele>234.5</ele>
        <time>2014-02-12T10:13:15Z</time>
      </trkpt>
      <trkpt lat="49.06348" lon="6.8779">
        <ele>234.2</ele>
        <time>2014-02-12T10:13:18Z</time>
      </trkpt>
      <trkpt lat="49.06352" lon="6.87786">
        <ele>233.8</ele>
        <time>2014-02-12T10:13:21Z</time>
      </trkpt>
      <trkpt lat="49.06355" lon="6.87783">
        <ele>234.1</ele>
        <time>2014-02-12T10:13:24Z</time>
      </trkpt>
      <trkpt lat="49.06358" lon="6.8778">
        <ele>234</ele>
        <time>2014-02-12T10:13:27Z</time>
      </trkpt>
      <trkpt lat="49.06362" lon="6.87776">
        <ele>233.9</ele>
        <time>2014-02-12T10:13:30Z</time>
      </trkpt>
      <trkpt lat="49.06365" lon="6.87773">
        <ele>234.1</ele>
        <time>2014-02-12T10:13:33Z</time>
      </trkpt>
      <trkpt lat="49.06368" lon="6.87771">
        <ele>234.4</ele>
        <time>2014-02-12T10:13:36Z</time>
      </trkpt>
      <trkpt lat="49.06375" lon="6.87764">
        <ele>234.5</ele>
        <time>2014-02-12T10:13:42Z</time>
      </trkpt>
      <trkpt lat="49.06378" lon="6.87761">
        <ele>234.6</ele>
        <time>2014-02-12T10:13:45Z</time>
      </trkpt>
      <trkpt lat="49.06381" lon="6.87758">
        <ele>234.6</ele>
        <time>2014-02-12T10:13:48Z</time>
      </trkpt>
      <trkpt lat="49.06384" lon="6.87754">
        <ele>234.7</ele>
        <time>2014-02-12T10:13:51Z</time>
      </trkpt>
      <trkpt lat="49.06387" lon="6.87752">
        <ele>235.3</ele>
        <time>2014-02-12T10:13:54Z</time>
      </trkpt>
      <trkpt lat="49.0639" lon="6.87749">
        <ele>235</ele>
        <time>2014-02-12T10:13:57Z</time>
      </trkpt>
      <trkpt lat="49.06393" lon="6.87745">
        <ele>235.1</ele>
        <time>2014-02-12T10:14:00Z</time>
      </trkpt>
      <trkpt lat="49.06397" lon="6.87741">
        <ele>235.6</ele>
        <time>2014-02-12T10:14:03Z</time>
      </trkpt>
      <trkpt lat="49.064" lon="6.87738">
        <ele>235.3</ele>
        <time>2014-02-12T10:14:06Z</time>
      </trkpt>
      <trkpt lat="49.06402" lon="6.87734">
        <ele>236</ele>
        <time>2014-02-12T10:14:09Z</time>
      </trkpt>
      <trkpt lat="49.06405" lon="6.87729">
        <ele>236.3</ele>
        <time>2014-02-12T10:14:12Z</time>
      </trkpt>
      <trkpt lat="49.06408" lon="6.87724">
        <ele>236.9</ele>
        <time>2014-02-12T10:14:15Z</time>
      </trkpt>
      <trkpt lat="49.06411" lon="6.87719">
        <ele>236.9</ele>
        <time>2014-02-12T10:14:18Z</time>
      </trkpt>
      <trkpt lat="49.06413" lon="6.87714">
        <ele>236.5</ele>
        <time>2014-02-12T10:14:21Z</time>
      </trkpt>
      <trkpt lat="49.06416" lon="6.8771">
        <ele>237.3</ele>
        <time>2014-02-12T10:14:24Z</time>
      </trkpt>
      <trkpt lat="49.06419" lon="6.87705">
        <ele>237.7</ele>
        <time>2014-02-12T10:14:27Z</time>
      </trkpt>
      <trkpt lat="49.06421" lon="6.87701">
        <ele>237.1</ele>
        <time>2014-02-12T10:14:30Z</time>
      </trkpt>
      <trkpt lat="49.06424" lon="6.87696">
        <ele>237.7</ele>
        <time>2014-02-12T10:14:33Z</time>
      </trkpt>
      <trkpt lat="49.06427" lon="6.87691">
        <ele>238</ele>
        <time>2014-02-12T10:14:36Z</time>
      </trkpt>
      <trkpt lat="49.06429" lon="6.87686">
        <ele>238</ele>
        <time>2014-02-12T10:14:39Z</time>
      </trkpt>
      <trkpt lat="49.06434" lon="6.87676">
        <ele>238.3</ele>
        <time>2014-02-12T10:14:45Z</time>
      </trkpt>
      <trkpt lat="49.06437" lon="6.87671">
        <ele>238.7</ele>
        <time>2014-02-12T10:14:48Z</time>
      </trkpt>
      <trkpt lat="49.06439" lon="6.87667">
        <ele>239.4</ele>
        <time>2014-02-12T10:14:51Z</time>
      </trkpt>
      <trkpt lat="49.06442" lon="6.87662">
        <ele>239.6</ele>
        <time>2014-02-12T10:14:54Z</time>
      </trkpt>
      <trkpt lat="49.06444" lon="6.87658">
        <ele>239.8</ele>
        <time>2014-02-12T10:14:57Z</time>
      </trkpt>
      <trkpt lat="49.06447" lon="6.87653">
        <ele>239.8</ele>
        <time>2014-02-12T10:15:00Z</time>
      </trkpt>
      <trkpt lat="49.0645" lon="6.87649">
        <ele>239.9</ele>
        <time>2014-02-12T10:15:03Z</time>
      </trkpt>
      <trkpt lat="49.06452" lon="6.87644">
        <ele>240.3</ele>
        <time>2014-02-12T10:15:06Z</time>
      </trkpt>
      <trkpt lat="49.06455" lon="6.8764">
        <ele>240.3</ele>
        <time>2014-02-12T10:15:09Z</time>
      </trkpt>
      <trkpt lat="49.06458" lon="6.87635">
        <ele>240.8</ele>
        <time>2014-02-12T10:15:12Z</time>
      </trkpt>
      <trkpt lat="49.0646" lon="6.8763">
        <ele>240.9</ele>
        <time>2014-02-12T10:15:15Z</time>
      </trkpt>
      <trkpt lat="49.06463" lon="6.87626">
        <ele>241</ele>
        <time>2014-02-12T10:15:18Z</time>
      </trkpt>
      <trkpt lat="49.06465" lon="6.87622">
        <ele>241.2</ele>
        <time>2014-02-12T10:15:21Z</time>
      </trkpt>
      <trkpt lat="49.06468" lon="6.87617">
        <ele>241.5</ele>
        <time>2014-02-12T10:15:24Z</time>
      </trkpt>
      <trkpt lat="49.0647" lon="6.87613">
        <ele>242.5</ele>
        <time>2014-02-12T10:15:27Z</time>
      </trkpt>
      <trkpt lat="49.06473" lon="6.87608">
        <ele>242.7</ele>
        <time>2014-02-12T10:15:30Z</time>
      </trkpt>
      <trkpt lat="49.06476" lon="6.87604">
        <ele>242.6</ele>
        <time>2014-02-12T10:15:33Z</time>
      </trkpt>
      <trkpt lat="49.06478" lon="6.876">
        <ele>243.1</ele>
        <time>2014-02-12T10:15:36Z</time>
      </trkpt>
      <trkpt lat="49.06481" lon="6.87595">
        <ele>242.5</ele>
        <time>2014-02-12T10:15:39Z</time>
      </trkpt>
      <trkpt lat="49.06484" lon="6.87591">
        <ele>242.7</ele>
        <time>2014-02-12T10:15:42Z</time>
      </trkpt>
      <trkpt lat="49.06489" lon="6.87582">
        <ele>243.3</ele>
        <time>2014-02-12T10:15:48Z</time>
      </trkpt>
      <trkpt lat="49.06492" lon="6.87578">
        <ele>242.2</ele>
        <time>2014-02-12T10:15:51Z</time>
      </trkpt>
      <trkpt lat="49.06495" lon="6.87575">
        <ele>242.8</ele>
        <time>2014-02-12T10:15:54Z</time>
      </trkpt>
      <trkpt lat="49.06498" lon="6.87573">
        <ele>243.1</ele>
        <time>2014-02-12T10:15:57Z</time>
      </trkpt>
      <trkpt lat="49.06501" lon="6.87573">
        <ele>243.7</ele>
        <time>2014-02-12T10:16:00Z</time>
      </trkpt>
      <trkpt lat="49.06504" lon="6.87574">
        <ele>243.4</ele>
        <time>2014-02-12T10:16:03Z</time>
      </trkpt>
      <trkpt lat="49.06507" lon="6.87576">
        <ele>243</ele>
        <time>2014-02-12T10:16:06Z</time>
      </trkpt>
      <trkpt lat="49.0651" lon="6.87577">
        <ele>242.7</ele>
        <time>2014-02-12T10:16:09Z</time>
      </trkpt>
      <trkpt lat="49.06513" lon="6.8758">
        <ele>242.7</ele>
        <time>2014-02-12T10:16:12Z</time>
      </trkpt>
      <trkpt lat="49.06516" lon="6.87581">
        <ele>242.8</ele>
        <time>2014-02-12T10:16:15Z</time>
      </trkpt>
      <trkpt lat="49.06519" lon="6.87583">
        <ele>242.8</ele>
        <time>2014-02-12T10:16:18Z</time>
      </trkpt>
      <trkpt lat="49.06521" lon="6.87586">
        <ele>242.8</ele>
        <time>2014-02-12T10:16:21Z</time>
      </trkpt>
      <trkpt lat="49.06525" lon="6.87588">
        <ele>242.4</ele>
        <time>2014-02-12T10:16:24Z</time>
      </trkpt>
      <trkpt lat="49.06528" lon="6.8759">
        <ele>242.7</ele>
        <time>2014-02-12T10:16:27Z</time>
      </trkpt>
      <trkpt lat="49.0653" lon="6.87593">
        <ele>242.4</ele>
        <time>2014-02-12T10:16:30Z</time>
      </trkpt>
      <trkpt lat="49.06533" lon="6.87596">
        <ele>242.5</ele>
        <time>2014-02-12T10:16:33Z</time>
      </trkpt>
      <trkpt lat="49.06535" lon="6.87599">
        <ele>241.8</ele>
        <time>2014-02-12T10:16:36Z</time>
      </trkpt>
      <trkpt lat="49.06537" lon="6.87602">
        <ele>241.9</ele>
        <time>2014-02-12T10:16:39Z</time>
      </trkpt>
      <trkpt lat="49.0654" lon="6.87604">
        <ele>242.3</ele>
        <time>2014-02-12T10:16:42Z</time>
      </trkpt>
      <trkpt lat="49.06543" lon="6.87607">
        <ele>241.9</ele>
        <time>2014-02-12T10:16:45Z</time>
      </trkpt>
      <trkpt lat="49.06548" lon="6.87612">
        <ele>240.5</ele>
        <time>2014-02-12T10:16:51Z</time>
      </trkpt>
      <trkpt lat="49.06551" lon="6.87616">
        <ele>241</ele>
        <time>2014-02-12T10:16:54Z</time>
      </trkpt>
      <trkpt lat="49.06553" lon="6.87619">
        <ele>240.4</ele>
        <time>2014-02-12T10:16:57Z</time>
      </trkpt>
      <trkpt lat="49.06556" lon="6.87622">
        <ele>239.2</ele>
        <time>2014-02-12T10:17:00Z</time>
      </trkpt>
      <trkpt lat="49.06559" lon="6.87625">
        <ele>239.1</ele>
        <time>2014-02-12T10:17:03Z</time>
      </trkpt>
      <trkpt lat="49.06562" lon="6.87628">
        <ele>239</ele>
        <time>2014-02-12T10:17:06Z</time>
      </trkpt>
      <trkpt lat="49.06565" lon="6.87631">
        <ele>239.4</ele>
        <time>2014-02-12T10:17:09Z</time>
      </trkpt>
      <trkpt lat="49.06568" lon="6.87634">
        <ele>239.2</ele>
        <time>2014-02-12T10:17:12Z</time>
      </trkpt>
      <trkpt lat="49.06571" lon="6.87637">
        <ele>238.5</ele>
        <time>2014-02-12T10:17:15Z</time>
      </trkpt>
      <trkpt lat="49.06575" lon="6.87639">
        <ele>237.8</ele>
        <time>2014-02-12T10:17:18Z</time>
      </trkpt>
      <trkpt lat="49.06578" lon="6.87642">
        <ele>237.4</ele>
        <time>2014-02-12T10:17:21Z</time>
      </trkpt>
      <trkpt lat="49.06582" lon="6.87645">
        <ele>236.5</ele>
        <time>2014-02-12T10:17:24Z</time>
      </trkpt>
      <trkpt lat="49.06585" lon="6.87648">
        <ele>236.6</ele>
        <time>2014-02-12T10:17:27Z</time>
      </trkpt>
      <trkpt lat="49.06589" lon="6.87651">
        <ele>236.9</ele>
        <time>2014-02-12T10:17:30Z</time>
      </trkpt>
      <trkpt lat="49.06592" lon="6.87655">
        <ele>236.3</ele>
        <time>2014-02-12T10:17:33Z</time>
      </trkpt>
      <trkpt lat="49.06596" lon="6.87658">
        <ele>235.8</ele>
        <time>2014-02-12T10:17:36Z</time>
      </trkpt>
      <trkpt lat="49.066" lon="6.87661">
        <ele>236.2</ele>
        <time>2014-02-12T10:17:39Z</time>
      </trkpt>
      <trkpt lat="49.06605" lon="6.87664">
        <ele>236.1</ele>
        <time>2014-02-12T10:17:42Z</time>
      </trkpt>
      <trkpt lat="49.06609" lon="6.87668">
        <ele>235.2</ele>
        <time>2014-02-12T10:17:45Z</time>
      </trkpt>
      <trkpt lat="49.06613" lon="6.87672">
        <ele>235.8</ele>
        <time>2014-02-12T10:17:48Z</time>
      </trkpt>
      <trkpt lat="49.06621" lon="6.87678">
        <ele>235.9</ele>
        <time>2014-02-12T10:17:54Z</time>
      </trkpt>
      <trkpt lat="49.06626" lon="6.87681">
        <ele>235.7</ele>
        <time>2014-02-12T10:17:57Z</time>
      </trkpt>
      <trkpt lat="49.0663" lon="6.87684">
        <ele>235.5</ele>
        <time>2014-02-12T10:18:00Z</time>
      </trkpt>
      <trkpt lat="49.06635" lon="6.87688">
        <ele>235.1</ele>
        <time>2014-02-12T10:18:03Z</time>
      </trkpt>
      <trkpt lat="49.06639" lon="6.87691">
        <ele>236</ele>
        <time>2014-02-12T10:18:06Z</time>
      </trkpt>
      <trkpt lat="49.06644" lon="6.87694">
        <ele>234.7</ele>
        <time>2014-02-12T10:18:09Z</time>
      </trkpt>
      <trkpt lat="49.06648" lon="6.87697">
        <ele>235.1</ele>
        <time>2014-02-12T10:18:12Z</time>
      </trkpt>
      <trkpt lat="49.06652" lon="6.87701">
        <ele>234.8</ele>
        <time>2014-02-12T10:18:15Z</time>
      </trkpt>
      <trkpt lat="49.06656" lon="6.87704">
        <ele>235.4</ele>
        <time>2014-02-12T10:18:18Z</time>
      </trkpt>
      <trkpt lat="49.0666" lon="6.87708">
        <ele>235.2</ele>
        <time>2014-02-12T10:18:21Z</time>
      </trkpt>
      <trkpt lat="49.06664" lon="6.87712">
        <ele>234.8</ele>
        <time>2014-02-12T10:18:24Z</time>
      </trkpt>
      <trkpt lat="49.06667" lon="6.87715">
        <ele>234.6</ele>
        <time>2014-02-12T10:18:27Z</time>
      </trkpt>
      <trkpt lat="49.06671" lon="6.87719">
        <ele>234.2</ele>
        <time>2014-02-12T10:18:30Z</time>
      </trkpt>
      <trkpt lat="49.06673" lon="6.87723">
        <ele>234.2</ele>
        <time>2014-02-12T10:18:33Z</time>
      </trkpt>
      <trkpt lat="49.06676" lon="6.87728">
        <ele>233.7</ele>
        <time>2014-02-12T10:18:36Z</time>
      </trkpt>
      <trkpt lat="49.06679" lon="6.87732">
        <ele>234.4</ele>
        <time>2014-02-12T10:18:39Z</time>
      </trkpt>
      <trkpt lat="49.0668" lon="6.87733">
        <ele>234.8</ele>
        <time>2014-02-12T10:18:42Z</time>
      </trkpt>
      <trkpt lat="49.06681" lon="6.87734">
        <ele>236</ele>
        <time>2014-02-12T10:18:45Z</time>
      </trkpt>
      <trkpt lat="49.06682" lon="6.87736">
        <ele>235.2</ele>
        <time>2014-02-12T10:18:48Z</time>
      </trkpt>
      <trkpt lat="49.06685" lon="6.87739">
        <ele>235.1</ele>
        <time>2014-02-12T10:18:51Z</time>
      </trkpt>
      <trkpt lat="49.0669" lon="6.87746">
        <ele>234.5</ele>
        <time>2014-02-12T10:18:57Z</time>
      </trkpt>
      <trkpt lat="49.06691" lon="6.87748">
        <ele>234.3</ele>
        <time>2014-02-12T10:19:00Z</time>
      </trkpt>
      <trkpt lat="49.06692" lon="6.8775">
        <ele>234.6</ele>
        <time>2014-02-12T10:19:03Z</time>
      </trkpt>
      <trkpt lat="49.06693" lon="6.87752">
        <ele>234.7</ele>
        <time>2014-02-12T10:19:06Z</time>
      </trkpt>
      <trkpt lat="49.06694" lon="6.87753">
        <ele>234.3</ele>
        <time>2014-02-12T10:19:09Z</time>
      </trkpt>
      <trkpt lat="49.06695" lon="6.87756">
        <ele>234</ele>
        <time>2014-02-12T10:19:12Z</time>
      </trkpt>
      <trkpt lat="49.06697" lon="6.87759">
        <ele>234</ele>
        <time>2014-02-12T10:19:15Z</time>
      </trkpt>
      <trkpt lat="49.06699" lon="6.87762">
        <ele>234.6</ele>
        <time>2014-02-12T10:19:18Z</time>
      </trkpt>
      <trkpt lat="49.06701" lon="6.87766">
        <ele>234.2</ele>
        <time>2014-02-12T10:19:21Z</time>
      </trkpt>
      <trkpt lat="49.06703" lon="6.8777">
        <ele>234.2</ele>
        <time>2014-02-12T10:19:24Z</time>
      </trkpt>
      <trkpt lat="49.06706" lon="6.87775">
        <ele>234.4</ele>
        <time>2014-02-12T10:19:27Z</time>
      </trkpt>
      <trkpt lat="49.06708" lon="6.87779">
        <ele>233.2</ele>
        <time>2014-02-12T10:19:30Z</time>
      </trkpt>
      <trkpt lat="49.06709" lon="6.87784">
        <ele>233.8</ele>
        <time>2014-02-12T10:19:33Z</time>
      </trkpt>
      <trkpt lat="49.0671" lon="6.87788">
        <ele>234.5</ele>
        <time>2014-02-12T10:19:36Z</time>
      </trkpt>
      <trkpt lat="49.06711" lon="6.87794">
        <ele>234.7</ele>
        <time>2014-02-12T10:19:39Z</time>
      </trkpt>
      <trkpt lat="49.06712" lon="6.87798">
        <ele>235.5</ele>
        <time>2014-02-12T10:19:42Z</time>
      </trkpt>
      <trkpt lat="49.06714" lon="6.87802">
        <ele>235.7</ele>
        <time>2014-02-12T10:19:45Z</time>
      </trkpt>
      <trkpt lat="49.06716" lon="6.87807">
        <ele>235.7</ele>
        <time>2014-02-12T10:19:48Z</time>
      </trkpt>
      <trkpt lat="49.06717" lon="6.87812">
        <ele>236.1</ele>
        <time>2014-02-12T10:19:51Z</time>
      </trkpt>
      <trkpt lat="49.06718" lon="6.87816">
        <ele>236.1</ele>
        <time>2014-02-12T10:19:54Z</time>
      </trkpt>
      <trkpt lat="49.0672" lon="6.87822">
        <ele>236.7</ele>
        <time>2014-02-12T10:20:00Z</time>
      </trkpt>
      <trkpt lat="49.0672" lon="6.87825">
        <ele>237.9</ele>
        <time>2014-02-12T10:20:03Z</time>
      </trkpt>
      <trkpt lat="49.0672" lon="6.87826">
        <ele>236.3</ele>
        <time>2014-02-12T10:20:06Z</time>
      </trkpt>
      <trkpt lat="49.0672" lon="6.87826">
        <ele>236.3</ele>
        <time>2014-02-12T10:20:06Z</time>
      </trkpt>
    </trkseg>
  </trk>
</gpx>